<?xml version="1.0" encoding="UTF-8" standalone="no" ?>
<gpx xmlns="http://www.topografix.com/GPX/1/1" xmlns:xsi="http://www.w3.org/2001/XMLSchema-instance" xsi:schemaLocation="http://www.topografix.com/GPX/1/1 http://www.topografix.com/GPX/1/1/gpx.xsd" version="1.1" creator="VisuGPX - https://www.visugpx.com">
  <metadata>
    <name>Rando Grandcamp-Maulévrier Ste Gertrude</name>
    <desc><![CDATA[Randonnée de 25 Kms environ dans une région très vallonnée de notre très beau pays de Caux.]]></desc>
  </metadata>
  <trk>
    <name><![CDATA[Rando Grandcamp-Maulévrier Ste Gertrude_1]]></name>
    <trkseg>
      <trkpt lat="49.54728" lon="0.60614">
        <ele>130</ele>
        <time>2012-02-19T08:33:13Z</time>
      </trkpt>
      <trkpt lat="49.54723" lon="0.60655">
        <ele>129</ele>
        <time>2012-02-19T08:33:50Z</time>
      </trkpt>
      <trkpt lat="49.54719" lon="0.60663">
        <ele>129</ele>
        <time>2012-02-19T08:33:56Z</time>
      </trkpt>
      <trkpt lat="49.54714" lon="0.60669">
        <ele>129</ele>
        <time>2012-02-19T08:34:02Z</time>
      </trkpt>
      <trkpt lat="49.54709" lon="0.60676">
        <ele>129</ele>
        <time>2012-02-19T08:34:08Z</time>
      </trkpt>
      <trkpt lat="49.54704" lon="0.60685">
        <ele>129</ele>
        <time>2012-02-19T08:34:14Z</time>
      </trkpt>
      <trkpt lat="49.54699" lon="0.60693">
        <ele>130</ele>
        <time>2012-02-19T08:34:20Z</time>
      </trkpt>
      <trkpt lat="49.54693" lon="0.60701">
        <ele>130</ele>
        <time>2012-02-19T08:34:26Z</time>
      </trkpt>
      <trkpt lat="49.54688" lon="0.60709">
        <ele>130</ele>
        <time>2012-02-19T08:34:32Z</time>
      </trkpt>
      <trkpt lat="49.54682" lon="0.60717">
        <ele>130</ele>
        <time>2012-02-19T08:34:38Z</time>
      </trkpt>
      <trkpt lat="49.54676" lon="0.60726">
        <ele>131</ele>
        <time>2012-02-19T08:34:44Z</time>
      </trkpt>
      <trkpt lat="49.54671" lon="0.60734">
        <ele>131</ele>
        <time>2012-02-19T08:34:50Z</time>
      </trkpt>
      <trkpt lat="49.54666" lon="0.60744">
        <ele>133</ele>
        <time>2012-02-19T08:34:57Z</time>
      </trkpt>
      <trkpt lat="49.54662" lon="0.60753">
        <ele>133</ele>
        <time>2012-02-19T08:35:03Z</time>
      </trkpt>
      <trkpt lat="49.5466" lon="0.6076">
        <ele>133</ele>
        <time>2012-02-19T08:35:08Z</time>
      </trkpt>
      <trkpt lat="49.54655" lon="0.6077">
        <ele>134</ele>
        <time>2012-02-19T08:35:14Z</time>
      </trkpt>
      <trkpt lat="49.54651" lon="0.60778">
        <ele>134</ele>
        <time>2012-02-19T08:35:19Z</time>
      </trkpt>
      <trkpt lat="49.54647" lon="0.60789">
        <ele>134</ele>
        <time>2012-02-19T08:35:25Z</time>
      </trkpt>
      <trkpt lat="49.54642" lon="0.60799">
        <ele>134</ele>
        <time>2012-02-19T08:35:31Z</time>
      </trkpt>
      <trkpt lat="49.54639" lon="0.60809">
        <ele>134</ele>
        <time>2012-02-19T08:35:37Z</time>
      </trkpt>
      <trkpt lat="49.54634" lon="0.60818">
        <ele>134</ele>
        <time>2012-02-19T08:35:43Z</time>
      </trkpt>
      <trkpt lat="49.5463" lon="0.60826">
        <ele>134</ele>
        <time>2012-02-19T08:35:48Z</time>
      </trkpt>
      <trkpt lat="49.54626" lon="0.60834">
        <ele>135</ele>
        <time>2012-02-19T08:35:53Z</time>
      </trkpt>
      <trkpt lat="49.5462" lon="0.60845">
        <ele>135</ele>
        <time>2012-02-19T08:35:59Z</time>
      </trkpt>
      <trkpt lat="49.54617" lon="0.60854">
        <ele>135</ele>
        <time>2012-02-19T08:36:04Z</time>
      </trkpt>
      <trkpt lat="49.54612" lon="0.60861">
        <ele>135</ele>
        <time>2012-02-19T08:36:09Z</time>
      </trkpt>
      <trkpt lat="49.54607" lon="0.60869">
        <ele>135</ele>
        <time>2012-02-19T08:36:14Z</time>
      </trkpt>
      <trkpt lat="49.54603" lon="0.60877">
        <ele>135</ele>
        <time>2012-02-19T08:36:19Z</time>
      </trkpt>
      <trkpt lat="49.54597" lon="0.60887">
        <ele>135</ele>
        <time>2012-02-19T08:36:25Z</time>
      </trkpt>
      <trkpt lat="49.54593" lon="0.60895">
        <ele>135</ele>
        <time>2012-02-19T08:36:30Z</time>
      </trkpt>
      <trkpt lat="49.54588" lon="0.60903">
        <ele>136</ele>
        <time>2012-02-19T08:36:35Z</time>
      </trkpt>
      <trkpt lat="49.54584" lon="0.60911">
        <ele>136</ele>
        <time>2012-02-19T08:36:40Z</time>
      </trkpt>
      <trkpt lat="49.54579" lon="0.60919">
        <ele>136</ele>
        <time>2012-02-19T08:36:45Z</time>
      </trkpt>
      <trkpt lat="49.54574" lon="0.60927">
        <ele>136</ele>
        <time>2012-02-19T08:36:51Z</time>
      </trkpt>
      <trkpt lat="49.54569" lon="0.60935">
        <ele>135</ele>
        <time>2012-02-19T08:36:56Z</time>
      </trkpt>
      <trkpt lat="49.54563" lon="0.60943">
        <ele>135</ele>
        <time>2012-02-19T08:37:02Z</time>
      </trkpt>
      <trkpt lat="49.54558" lon="0.60951">
        <ele>135</ele>
        <time>2012-02-19T08:37:07Z</time>
      </trkpt>
      <trkpt lat="49.54552" lon="0.60961">
        <ele>135</ele>
        <time>2012-02-19T08:37:13Z</time>
      </trkpt>
      <trkpt lat="49.54547" lon="0.60969">
        <ele>135</ele>
        <time>2012-02-19T08:37:19Z</time>
      </trkpt>
      <trkpt lat="49.54543" lon="0.60976">
        <ele>135</ele>
        <time>2012-02-19T08:37:24Z</time>
      </trkpt>
      <trkpt lat="49.54538" lon="0.60985">
        <ele>135</ele>
        <time>2012-02-19T08:37:29Z</time>
      </trkpt>
      <trkpt lat="49.54533" lon="0.60995">
        <ele>135</ele>
        <time>2012-02-19T08:37:35Z</time>
      </trkpt>
      <trkpt lat="49.5453" lon="0.61003">
        <ele>134</ele>
        <time>2012-02-19T08:37:40Z</time>
      </trkpt>
      <trkpt lat="49.54526" lon="0.61011">
        <ele>134</ele>
        <time>2012-02-19T08:37:45Z</time>
      </trkpt>
      <trkpt lat="49.54521" lon="0.61021">
        <ele>134</ele>
        <time>2012-02-19T08:37:51Z</time>
      </trkpt>
      <trkpt lat="49.54516" lon="0.6103">
        <ele>134</ele>
        <time>2012-02-19T08:37:57Z</time>
      </trkpt>
      <trkpt lat="49.54512" lon="0.61039">
        <ele>134</ele>
        <time>2012-02-19T08:38:02Z</time>
      </trkpt>
      <trkpt lat="49.54507" lon="0.6105">
        <ele>133</ele>
        <time>2012-02-19T08:38:08Z</time>
      </trkpt>
      <trkpt lat="49.54503" lon="0.61058">
        <ele>133</ele>
        <time>2012-02-19T08:38:13Z</time>
      </trkpt>
      <trkpt lat="49.54498" lon="0.6107">
        <ele>133</ele>
        <time>2012-02-19T08:38:20Z</time>
      </trkpt>
      <trkpt lat="49.54494" lon="0.61078">
        <ele>133</ele>
        <time>2012-02-19T08:38:25Z</time>
      </trkpt>
      <trkpt lat="49.54489" lon="0.61086">
        <ele>133</ele>
        <time>2012-02-19T08:38:30Z</time>
      </trkpt>
      <trkpt lat="49.54485" lon="0.61094">
        <ele>133</ele>
        <time>2012-02-19T08:38:35Z</time>
      </trkpt>
      <trkpt lat="49.5448" lon="0.61102">
        <ele>133</ele>
        <time>2012-02-19T08:38:41Z</time>
      </trkpt>
      <trkpt lat="49.54476" lon="0.61111">
        <ele>132</ele>
        <time>2012-02-19T08:38:46Z</time>
      </trkpt>
      <trkpt lat="49.54471" lon="0.61118">
        <ele>132</ele>
        <time>2012-02-19T08:38:51Z</time>
      </trkpt>
      <trkpt lat="49.54466" lon="0.61125">
        <ele>132</ele>
        <time>2012-02-19T08:38:56Z</time>
      </trkpt>
      <trkpt lat="49.54459" lon="0.61133">
        <ele>132</ele>
        <time>2012-02-19T08:39:02Z</time>
      </trkpt>
      <trkpt lat="49.54453" lon="0.6114">
        <ele>133</ele>
        <time>2012-02-19T08:39:08Z</time>
      </trkpt>
      <trkpt lat="49.54448" lon="0.61146">
        <ele>133</ele>
        <time>2012-02-19T08:39:13Z</time>
      </trkpt>
      <trkpt lat="49.54442" lon="0.61153">
        <ele>133</ele>
        <time>2012-02-19T08:39:19Z</time>
      </trkpt>
      <trkpt lat="49.54436" lon="0.61158">
        <ele>133</ele>
        <time>2012-02-19T08:39:24Z</time>
      </trkpt>
      <trkpt lat="49.54431" lon="0.61164">
        <ele>133</ele>
        <time>2012-02-19T08:39:29Z</time>
      </trkpt>
      <trkpt lat="49.54425" lon="0.61171">
        <ele>134</ele>
        <time>2012-02-19T08:39:35Z</time>
      </trkpt>
      <trkpt lat="49.54419" lon="0.61177">
        <ele>134</ele>
        <time>2012-02-19T08:39:40Z</time>
      </trkpt>
      <trkpt lat="49.54414" lon="0.61182">
        <ele>135</ele>
        <time>2012-02-19T08:39:45Z</time>
      </trkpt>
      <trkpt lat="49.54407" lon="0.6119">
        <ele>135</ele>
        <time>2012-02-19T08:39:51Z</time>
      </trkpt>
      <trkpt lat="49.54401" lon="0.61195">
        <ele>135</ele>
        <time>2012-02-19T08:39:56Z</time>
      </trkpt>
      <trkpt lat="49.54396" lon="0.61202">
        <ele>135</ele>
        <time>2012-02-19T08:40:01Z</time>
      </trkpt>
      <trkpt lat="49.5439" lon="0.61208">
        <ele>135</ele>
        <time>2012-02-19T08:40:06Z</time>
      </trkpt>
      <trkpt lat="49.54384" lon="0.61216">
        <ele>135</ele>
        <time>2012-02-19T08:40:12Z</time>
      </trkpt>
      <trkpt lat="49.54379" lon="0.61222">
        <ele>136</ele>
        <time>2012-02-19T08:40:17Z</time>
      </trkpt>
      <trkpt lat="49.54373" lon="0.6123">
        <ele>136</ele>
        <time>2012-02-19T08:40:23Z</time>
      </trkpt>
      <trkpt lat="49.54368" lon="0.61239">
        <ele>136</ele>
        <time>2012-02-19T08:40:28Z</time>
      </trkpt>
      <trkpt lat="49.54364" lon="0.61247">
        <ele>136</ele>
        <time>2012-02-19T08:40:33Z</time>
      </trkpt>
      <trkpt lat="49.54359" lon="0.61256">
        <ele>136</ele>
        <time>2012-02-19T08:40:38Z</time>
      </trkpt>
      <trkpt lat="49.54355" lon="0.61265">
        <ele>136</ele>
        <time>2012-02-19T08:40:43Z</time>
      </trkpt>
      <trkpt lat="49.54351" lon="0.61275">
        <ele>136</ele>
        <time>2012-02-19T08:40:48Z</time>
      </trkpt>
      <trkpt lat="49.54348" lon="0.61282">
        <ele>136</ele>
        <time>2012-02-19T08:40:53Z</time>
      </trkpt>
      <trkpt lat="49.54345" lon="0.6129">
        <ele>136</ele>
        <time>2012-02-19T08:40:58Z</time>
      </trkpt>
      <trkpt lat="49.54341" lon="0.61299">
        <ele>136</ele>
        <time>2012-02-19T08:41:03Z</time>
      </trkpt>
      <trkpt lat="49.54338" lon="0.61307">
        <ele>136</ele>
        <time>2012-02-19T08:41:08Z</time>
      </trkpt>
      <trkpt lat="49.54335" lon="0.61318">
        <ele>136</ele>
        <time>2012-02-19T08:41:14Z</time>
      </trkpt>
      <trkpt lat="49.54332" lon="0.6133">
        <ele>137</ele>
        <time>2012-02-19T08:41:20Z</time>
      </trkpt>
      <trkpt lat="49.54329" lon="0.61339">
        <ele>138</ele>
        <time>2012-02-19T08:41:25Z</time>
      </trkpt>
      <trkpt lat="49.54326" lon="0.61351">
        <ele>138</ele>
        <time>2012-02-19T08:41:31Z</time>
      </trkpt>
      <trkpt lat="49.54324" lon="0.6136">
        <ele>139</ele>
        <time>2012-02-19T08:41:36Z</time>
      </trkpt>
      <trkpt lat="49.54322" lon="0.61372">
        <ele>139</ele>
        <time>2012-02-19T08:41:41Z</time>
      </trkpt>
      <trkpt lat="49.54319" lon="0.61382">
        <ele>139</ele>
        <time>2012-02-19T08:41:46Z</time>
      </trkpt>
      <trkpt lat="49.54317" lon="0.61392">
        <ele>139</ele>
        <time>2012-02-19T08:41:51Z</time>
      </trkpt>
      <trkpt lat="49.54316" lon="0.61402">
        <ele>139</ele>
        <time>2012-02-19T08:41:56Z</time>
      </trkpt>
      <trkpt lat="49.54314" lon="0.61413">
        <ele>139</ele>
        <time>2012-02-19T08:42:01Z</time>
      </trkpt>
      <trkpt lat="49.54311" lon="0.61423">
        <ele>139</ele>
        <time>2012-02-19T08:42:06Z</time>
      </trkpt>
      <trkpt lat="49.54309" lon="0.61434">
        <ele>139</ele>
        <time>2012-02-19T08:42:11Z</time>
      </trkpt>
      <trkpt lat="49.54306" lon="0.61444">
        <ele>139</ele>
        <time>2012-02-19T08:42:16Z</time>
      </trkpt>
      <trkpt lat="49.54304" lon="0.61454">
        <ele>139</ele>
        <time>2012-02-19T08:42:21Z</time>
      </trkpt>
      <trkpt lat="49.54301" lon="0.61464">
        <ele>139</ele>
        <time>2012-02-19T08:42:26Z</time>
      </trkpt>
      <trkpt lat="49.54298" lon="0.61474">
        <ele>139</ele>
        <time>2012-02-19T08:42:31Z</time>
      </trkpt>
      <trkpt lat="49.54296" lon="0.61483">
        <ele>139</ele>
        <time>2012-02-19T08:42:36Z</time>
      </trkpt>
      <trkpt lat="49.54293" lon="0.61492">
        <ele>139</ele>
        <time>2012-02-19T08:42:41Z</time>
      </trkpt>
      <trkpt lat="49.5429" lon="0.61502">
        <ele>138</ele>
        <time>2012-02-19T08:42:46Z</time>
      </trkpt>
      <trkpt lat="49.54287" lon="0.61511">
        <ele>139</ele>
        <time>2012-02-19T08:42:51Z</time>
      </trkpt>
      <trkpt lat="49.54285" lon="0.6152">
        <ele>139</ele>
        <time>2012-02-19T08:42:56Z</time>
      </trkpt>
      <trkpt lat="49.54282" lon="0.6153">
        <ele>138</ele>
        <time>2012-02-19T08:43:01Z</time>
      </trkpt>
      <trkpt lat="49.54279" lon="0.61539">
        <ele>138</ele>
        <time>2012-02-19T08:43:06Z</time>
      </trkpt>
      <trkpt lat="49.54277" lon="0.61549">
        <ele>138</ele>
        <time>2012-02-19T08:43:11Z</time>
      </trkpt>
      <trkpt lat="49.54274" lon="0.61558">
        <ele>138</ele>
        <time>2012-02-19T08:43:16Z</time>
      </trkpt>
      <trkpt lat="49.54271" lon="0.61567">
        <ele>138</ele>
        <time>2012-02-19T08:43:21Z</time>
      </trkpt>
      <trkpt lat="49.54268" lon="0.61577">
        <ele>138</ele>
        <time>2012-02-19T08:43:26Z</time>
      </trkpt>
      <trkpt lat="49.54264" lon="0.61586">
        <ele>138</ele>
        <time>2012-02-19T08:43:31Z</time>
      </trkpt>
      <trkpt lat="49.54261" lon="0.61595">
        <ele>138</ele>
        <time>2012-02-19T08:43:36Z</time>
      </trkpt>
      <trkpt lat="49.54257" lon="0.61603">
        <ele>138</ele>
        <time>2012-02-19T08:43:41Z</time>
      </trkpt>
      <trkpt lat="49.54253" lon="0.61612">
        <ele>138</ele>
        <time>2012-02-19T08:43:46Z</time>
      </trkpt>
      <trkpt lat="49.5425" lon="0.61621">
        <ele>139</ele>
        <time>2012-02-19T08:43:51Z</time>
      </trkpt>
      <trkpt lat="49.54246" lon="0.6163">
        <ele>139</ele>
        <time>2012-02-19T08:43:56Z</time>
      </trkpt>
      <trkpt lat="49.54243" lon="0.61639">
        <ele>139</ele>
        <time>2012-02-19T08:44:01Z</time>
      </trkpt>
      <trkpt lat="49.54239" lon="0.61648">
        <ele>139</ele>
        <time>2012-02-19T08:44:06Z</time>
      </trkpt>
      <trkpt lat="49.54236" lon="0.61656">
        <ele>139</ele>
        <time>2012-02-19T08:44:11Z</time>
      </trkpt>
      <trkpt lat="49.54232" lon="0.61665">
        <ele>139</ele>
        <time>2012-02-19T08:44:16Z</time>
      </trkpt>
      <trkpt lat="49.54229" lon="0.61674">
        <ele>138</ele>
        <time>2012-02-19T08:44:21Z</time>
      </trkpt>
      <trkpt lat="49.54225" lon="0.61683">
        <ele>138</ele>
        <time>2012-02-19T08:44:26Z</time>
      </trkpt>
      <trkpt lat="49.54221" lon="0.61692">
        <ele>138</ele>
        <time>2012-02-19T08:44:31Z</time>
      </trkpt>
      <trkpt lat="49.54218" lon="0.61701">
        <ele>138</ele>
        <time>2012-02-19T08:44:36Z</time>
      </trkpt>
      <trkpt lat="49.54214" lon="0.6171">
        <ele>137</ele>
        <time>2012-02-19T08:44:41Z</time>
      </trkpt>
      <trkpt lat="49.54211" lon="0.61719">
        <ele>137</ele>
        <time>2012-02-19T08:44:46Z</time>
      </trkpt>
      <trkpt lat="49.54207" lon="0.61729">
        <ele>137</ele>
        <time>2012-02-19T08:44:51Z</time>
      </trkpt>
      <trkpt lat="49.54203" lon="0.61738">
        <ele>137</ele>
        <time>2012-02-19T08:44:56Z</time>
      </trkpt>
      <trkpt lat="49.542" lon="0.61747">
        <ele>137</ele>
        <time>2012-02-19T08:45:01Z</time>
      </trkpt>
      <trkpt lat="49.54196" lon="0.61756">
        <ele>135</ele>
        <time>2012-02-19T08:45:06Z</time>
      </trkpt>
      <trkpt lat="49.54193" lon="0.61765">
        <ele>135</ele>
        <time>2012-02-19T08:45:11Z</time>
      </trkpt>
      <trkpt lat="49.54189" lon="0.61774">
        <ele>135</ele>
        <time>2012-02-19T08:45:16Z</time>
      </trkpt>
      <trkpt lat="49.54185" lon="0.61783">
        <ele>135</ele>
        <time>2012-02-19T08:45:21Z</time>
      </trkpt>
      <trkpt lat="49.54181" lon="0.61792">
        <ele>135</ele>
        <time>2012-02-19T08:45:26Z</time>
      </trkpt>
      <trkpt lat="49.54177" lon="0.61801">
        <ele>135</ele>
        <time>2012-02-19T08:45:32Z</time>
      </trkpt>
      <trkpt lat="49.54174" lon="0.6181">
        <ele>135</ele>
        <time>2012-02-19T08:45:37Z</time>
      </trkpt>
      <trkpt lat="49.5417" lon="0.61819">
        <ele>135</ele>
        <time>2012-02-19T08:45:42Z</time>
      </trkpt>
      <trkpt lat="49.54167" lon="0.61828">
        <ele>135</ele>
        <time>2012-02-19T08:45:47Z</time>
      </trkpt>
      <trkpt lat="49.54163" lon="0.61838">
        <ele>135</ele>
        <time>2012-02-19T08:45:52Z</time>
      </trkpt>
      <trkpt lat="49.5416" lon="0.61847">
        <ele>135</ele>
        <time>2012-02-19T08:45:57Z</time>
      </trkpt>
      <trkpt lat="49.54156" lon="0.61857">
        <ele>136</ele>
        <time>2012-02-19T08:46:02Z</time>
      </trkpt>
      <trkpt lat="49.54153" lon="0.61866">
        <ele>136</ele>
        <time>2012-02-19T08:46:07Z</time>
      </trkpt>
      <trkpt lat="49.5415" lon="0.61875">
        <ele>136</ele>
        <time>2012-02-19T08:46:12Z</time>
      </trkpt>
      <trkpt lat="49.54147" lon="0.61884">
        <ele>136</ele>
        <time>2012-02-19T08:46:17Z</time>
      </trkpt>
      <trkpt lat="49.54143" lon="0.61894">
        <ele>136</ele>
        <time>2012-02-19T08:46:22Z</time>
      </trkpt>
      <trkpt lat="49.54139" lon="0.61904">
        <ele>136</ele>
        <time>2012-02-19T08:46:27Z</time>
      </trkpt>
      <trkpt lat="49.54136" lon="0.61913">
        <ele>136</ele>
        <time>2012-02-19T08:46:32Z</time>
      </trkpt>
      <trkpt lat="49.54132" lon="0.61923">
        <ele>137</ele>
        <time>2012-02-19T08:46:38Z</time>
      </trkpt>
      <trkpt lat="49.54128" lon="0.61932">
        <ele>137</ele>
        <time>2012-02-19T08:46:43Z</time>
      </trkpt>
      <trkpt lat="49.54124" lon="0.61941">
        <ele>137</ele>
        <time>2012-02-19T08:46:48Z</time>
      </trkpt>
      <trkpt lat="49.54121" lon="0.6195">
        <ele>137</ele>
        <time>2012-02-19T08:46:53Z</time>
      </trkpt>
      <trkpt lat="49.54116" lon="0.61961">
        <ele>137</ele>
        <time>2012-02-19T08:46:59Z</time>
      </trkpt>
      <trkpt lat="49.54113" lon="0.6197">
        <ele>137</ele>
        <time>2012-02-19T08:47:04Z</time>
      </trkpt>
      <trkpt lat="49.54109" lon="0.61979">
        <ele>137</ele>
        <time>2012-02-19T08:47:09Z</time>
      </trkpt>
      <trkpt lat="49.54105" lon="0.61988">
        <ele>137</ele>
        <time>2012-02-19T08:47:14Z</time>
      </trkpt>
      <trkpt lat="49.541" lon="0.61999">
        <ele>138</ele>
        <time>2012-02-19T08:47:21Z</time>
      </trkpt>
      <trkpt lat="49.54096" lon="0.62008">
        <ele>138</ele>
        <time>2012-02-19T08:47:26Z</time>
      </trkpt>
      <trkpt lat="49.54092" lon="0.62019">
        <ele>139</ele>
        <time>2012-02-19T08:47:32Z</time>
      </trkpt>
      <trkpt lat="49.54088" lon="0.62027">
        <ele>139</ele>
        <time>2012-02-19T08:47:37Z</time>
      </trkpt>
      <trkpt lat="49.54084" lon="0.62036">
        <ele>139</ele>
        <time>2012-02-19T08:47:42Z</time>
      </trkpt>
      <trkpt lat="49.54081" lon="0.62045">
        <ele>140</ele>
        <time>2012-02-19T08:47:47Z</time>
      </trkpt>
      <trkpt lat="49.54077" lon="0.62054">
        <ele>140</ele>
        <time>2012-02-19T08:47:52Z</time>
      </trkpt>
      <trkpt lat="49.54073" lon="0.62063">
        <ele>140</ele>
        <time>2012-02-19T08:47:57Z</time>
      </trkpt>
      <trkpt lat="49.54068" lon="0.62072">
        <ele>140</ele>
        <time>2012-02-19T08:48:03Z</time>
      </trkpt>
      <trkpt lat="49.54063" lon="0.62083">
        <ele>140</ele>
        <time>2012-02-19T08:48:09Z</time>
      </trkpt>
      <trkpt lat="49.54058" lon="0.62091">
        <ele>140</ele>
        <time>2012-02-19T08:48:14Z</time>
      </trkpt>
      <trkpt lat="49.54052" lon="0.621">
        <ele>140</ele>
        <time>2012-02-19T08:48:20Z</time>
      </trkpt>
      <trkpt lat="49.54047" lon="0.62108">
        <ele>140</ele>
        <time>2012-02-19T08:48:25Z</time>
      </trkpt>
      <trkpt lat="49.54042" lon="0.62116">
        <ele>140</ele>
        <time>2012-02-19T08:48:31Z</time>
      </trkpt>
      <trkpt lat="49.54035" lon="0.62125">
        <ele>139</ele>
        <time>2012-02-19T08:48:37Z</time>
      </trkpt>
      <trkpt lat="49.5403" lon="0.62134">
        <ele>139</ele>
        <time>2012-02-19T08:48:43Z</time>
      </trkpt>
      <trkpt lat="49.54026" lon="0.62143">
        <ele>139</ele>
        <time>2012-02-19T08:48:49Z</time>
      </trkpt>
      <trkpt lat="49.54021" lon="0.62151">
        <ele>139</ele>
        <time>2012-02-19T08:48:55Z</time>
      </trkpt>
      <trkpt lat="49.54015" lon="0.62159">
        <ele>139</ele>
        <time>2012-02-19T08:49:00Z</time>
      </trkpt>
      <trkpt lat="49.54012" lon="0.62167">
        <ele>139</ele>
        <time>2012-02-19T08:49:05Z</time>
      </trkpt>
      <trkpt lat="49.54006" lon="0.62175">
        <ele>139</ele>
        <time>2012-02-19T08:49:10Z</time>
      </trkpt>
      <trkpt lat="49.54002" lon="0.62183">
        <ele>139</ele>
        <time>2012-02-19T08:49:15Z</time>
      </trkpt>
      <trkpt lat="49.53997" lon="0.62192">
        <ele>139</ele>
        <time>2012-02-19T08:49:20Z</time>
      </trkpt>
      <trkpt lat="49.53992" lon="0.622">
        <ele>139</ele>
        <time>2012-02-19T08:49:25Z</time>
      </trkpt>
      <trkpt lat="49.53988" lon="0.62209">
        <ele>140</ele>
        <time>2012-02-19T08:49:30Z</time>
      </trkpt>
      <trkpt lat="49.53983" lon="0.62217">
        <ele>140</ele>
        <time>2012-02-19T08:49:35Z</time>
      </trkpt>
      <trkpt lat="49.53979" lon="0.62226">
        <ele>140</ele>
        <time>2012-02-19T08:49:40Z</time>
      </trkpt>
      <trkpt lat="49.53974" lon="0.62234">
        <ele>140</ele>
        <time>2012-02-19T08:49:45Z</time>
      </trkpt>
      <trkpt lat="49.53969" lon="0.62244">
        <ele>140</ele>
        <time>2012-02-19T08:49:51Z</time>
      </trkpt>
      <trkpt lat="49.53965" lon="0.62253">
        <ele>140</ele>
        <time>2012-02-19T08:49:56Z</time>
      </trkpt>
      <trkpt lat="49.53961" lon="0.62261">
        <ele>141</ele>
        <time>2012-02-19T08:50:01Z</time>
      </trkpt>
      <trkpt lat="49.53957" lon="0.6227">
        <ele>141</ele>
        <time>2012-02-19T08:50:06Z</time>
      </trkpt>
      <trkpt lat="49.53953" lon="0.62279">
        <ele>141</ele>
        <time>2012-02-19T08:50:11Z</time>
      </trkpt>
      <trkpt lat="49.53949" lon="0.62288">
        <ele>141</ele>
        <time>2012-02-19T08:50:16Z</time>
      </trkpt>
      <trkpt lat="49.53945" lon="0.62297">
        <ele>141</ele>
        <time>2012-02-19T08:50:21Z</time>
      </trkpt>
      <trkpt lat="49.53941" lon="0.62306">
        <ele>141</ele>
        <time>2012-02-19T08:50:26Z</time>
      </trkpt>
      <trkpt lat="49.53938" lon="0.62315">
        <ele>141</ele>
        <time>2012-02-19T08:50:31Z</time>
      </trkpt>
      <trkpt lat="49.53935" lon="0.62324">
        <ele>141</ele>
        <time>2012-02-19T08:50:36Z</time>
      </trkpt>
      <trkpt lat="49.53931" lon="0.62333">
        <ele>141</ele>
        <time>2012-02-19T08:50:41Z</time>
      </trkpt>
      <trkpt lat="49.53928" lon="0.62342">
        <ele>142</ele>
        <time>2012-02-19T08:50:46Z</time>
      </trkpt>
      <trkpt lat="49.53924" lon="0.62351">
        <ele>142</ele>
        <time>2012-02-19T08:50:51Z</time>
      </trkpt>
      <trkpt lat="49.5392" lon="0.6236">
        <ele>142</ele>
        <time>2012-02-19T08:50:56Z</time>
      </trkpt>
      <trkpt lat="49.53917" lon="0.62369">
        <ele>142</ele>
        <time>2012-02-19T08:51:01Z</time>
      </trkpt>
      <trkpt lat="49.53913" lon="0.62378">
        <ele>142</ele>
        <time>2012-02-19T08:51:06Z</time>
      </trkpt>
      <trkpt lat="49.53909" lon="0.62387">
        <ele>142</ele>
        <time>2012-02-19T08:51:12Z</time>
      </trkpt>
      <trkpt lat="49.53905" lon="0.62396">
        <ele>142</ele>
        <time>2012-02-19T08:51:17Z</time>
      </trkpt>
      <trkpt lat="49.53901" lon="0.62404">
        <ele>142</ele>
        <time>2012-02-19T08:51:22Z</time>
      </trkpt>
      <trkpt lat="49.53897" lon="0.62413">
        <ele>142</ele>
        <time>2012-02-19T08:51:27Z</time>
      </trkpt>
      <trkpt lat="49.53893" lon="0.62423">
        <ele>142</ele>
        <time>2012-02-19T08:51:33Z</time>
      </trkpt>
      <trkpt lat="49.53888" lon="0.62431">
        <ele>142</ele>
        <time>2012-02-19T08:51:38Z</time>
      </trkpt>
      <trkpt lat="49.53885" lon="0.6244">
        <ele>142</ele>
        <time>2012-02-19T08:51:43Z</time>
      </trkpt>
      <trkpt lat="49.5388" lon="0.62448">
        <ele>142</ele>
        <time>2012-02-19T08:51:48Z</time>
      </trkpt>
      <trkpt lat="49.53876" lon="0.62457">
        <ele>142</ele>
        <time>2012-02-19T08:51:53Z</time>
      </trkpt>
      <trkpt lat="49.53872" lon="0.62465">
        <ele>143</ele>
        <time>2012-02-19T08:51:58Z</time>
      </trkpt>
      <trkpt lat="49.53868" lon="0.62473">
        <ele>143</ele>
        <time>2012-02-19T08:52:03Z</time>
      </trkpt>
      <trkpt lat="49.53864" lon="0.62482">
        <ele>143</ele>
        <time>2012-02-19T08:52:08Z</time>
      </trkpt>
      <trkpt lat="49.53858" lon="0.62491">
        <ele>143</ele>
        <time>2012-02-19T08:52:14Z</time>
      </trkpt>
      <trkpt lat="49.53853" lon="0.62501">
        <ele>143</ele>
        <time>2012-02-19T08:52:20Z</time>
      </trkpt>
      <trkpt lat="49.53848" lon="0.62508">
        <ele>143</ele>
        <time>2012-02-19T08:52:25Z</time>
      </trkpt>
      <trkpt lat="49.53843" lon="0.62516">
        <ele>143</ele>
        <time>2012-02-19T08:52:30Z</time>
      </trkpt>
      <trkpt lat="49.53837" lon="0.62524">
        <ele>143</ele>
        <time>2012-02-19T08:52:36Z</time>
      </trkpt>
      <trkpt lat="49.53832" lon="0.62532">
        <ele>144</ele>
        <time>2012-02-19T08:52:41Z</time>
      </trkpt>
      <trkpt lat="49.53827" lon="0.6254">
        <ele>144</ele>
        <time>2012-02-19T08:52:46Z</time>
      </trkpt>
      <trkpt lat="49.53821" lon="0.62548">
        <ele>144</ele>
        <time>2012-02-19T08:52:52Z</time>
      </trkpt>
      <trkpt lat="49.53816" lon="0.62555">
        <ele>144</ele>
        <time>2012-02-19T08:52:57Z</time>
      </trkpt>
      <trkpt lat="49.5381" lon="0.62563">
        <ele>144</ele>
        <time>2012-02-19T08:53:03Z</time>
      </trkpt>
      <trkpt lat="49.53804" lon="0.62572">
        <ele>144</ele>
        <time>2012-02-19T08:53:09Z</time>
      </trkpt>
      <trkpt lat="49.53799" lon="0.6258">
        <ele>144</ele>
        <time>2012-02-19T08:53:15Z</time>
      </trkpt>
      <trkpt lat="49.53793" lon="0.62586">
        <ele>143</ele>
        <time>2012-02-19T08:53:20Z</time>
      </trkpt>
      <trkpt lat="49.53787" lon="0.62595">
        <ele>143</ele>
        <time>2012-02-19T08:53:26Z</time>
      </trkpt>
      <trkpt lat="49.53782" lon="0.62602">
        <ele>143</ele>
        <time>2012-02-19T08:53:31Z</time>
      </trkpt>
      <trkpt lat="49.53775" lon="0.62611">
        <ele>143</ele>
        <time>2012-02-19T08:53:37Z</time>
      </trkpt>
      <trkpt lat="49.5377" lon="0.62617">
        <ele>143</ele>
        <time>2012-02-19T08:53:42Z</time>
      </trkpt>
      <trkpt lat="49.53764" lon="0.62625">
        <ele>143</ele>
        <time>2012-02-19T08:53:48Z</time>
      </trkpt>
      <trkpt lat="49.53757" lon="0.62633">
        <ele>143</ele>
        <time>2012-02-19T08:53:54Z</time>
      </trkpt>
      <trkpt lat="49.53752" lon="0.62639">
        <ele>143</ele>
        <time>2012-02-19T08:53:59Z</time>
      </trkpt>
      <trkpt lat="49.53746" lon="0.62648">
        <ele>144</ele>
        <time>2012-02-19T08:54:05Z</time>
      </trkpt>
      <trkpt lat="49.5374" lon="0.62656">
        <ele>144</ele>
        <time>2012-02-19T08:54:11Z</time>
      </trkpt>
      <trkpt lat="49.53736" lon="0.62665">
        <ele>144</ele>
        <time>2012-02-19T08:54:16Z</time>
      </trkpt>
      <trkpt lat="49.53733" lon="0.62674">
        <ele>144</ele>
        <time>2012-02-19T08:54:21Z</time>
      </trkpt>
      <trkpt lat="49.5373" lon="0.62683">
        <ele>144</ele>
        <time>2012-02-19T08:54:26Z</time>
      </trkpt>
      <trkpt lat="49.53728" lon="0.62693">
        <ele>144</ele>
        <time>2012-02-19T08:54:31Z</time>
      </trkpt>
      <trkpt lat="49.53727" lon="0.62703">
        <ele>144</ele>
        <time>2012-02-19T08:54:36Z</time>
      </trkpt>
      <trkpt lat="49.53725" lon="0.62713">
        <ele>144</ele>
        <time>2012-02-19T08:54:41Z</time>
      </trkpt>
      <trkpt lat="49.53724" lon="0.62722">
        <ele>144</ele>
        <time>2012-02-19T08:54:46Z</time>
      </trkpt>
      <trkpt lat="49.53722" lon="0.62732">
        <ele>144</ele>
        <time>2012-02-19T08:54:51Z</time>
      </trkpt>
      <trkpt lat="49.5372" lon="0.62742">
        <ele>144</ele>
        <time>2012-02-19T08:54:56Z</time>
      </trkpt>
      <trkpt lat="49.53717" lon="0.62752">
        <ele>145</ele>
        <time>2012-02-19T08:55:01Z</time>
      </trkpt>
      <trkpt lat="49.53715" lon="0.62761">
        <ele>145</ele>
        <time>2012-02-19T08:55:06Z</time>
      </trkpt>
      <trkpt lat="49.53713" lon="0.62771">
        <ele>145</ele>
        <time>2012-02-19T08:55:11Z</time>
      </trkpt>
      <trkpt lat="49.53712" lon="0.62781">
        <ele>145</ele>
        <time>2012-02-19T08:55:16Z</time>
      </trkpt>
      <trkpt lat="49.5371" lon="0.6279">
        <ele>145</ele>
        <time>2012-02-19T08:55:21Z</time>
      </trkpt>
      <trkpt lat="49.53707" lon="0.62801">
        <ele>145</ele>
        <time>2012-02-19T08:55:27Z</time>
      </trkpt>
      <trkpt lat="49.53706" lon="0.62809">
        <ele>145</ele>
        <time>2012-02-19T08:55:32Z</time>
      </trkpt>
      <trkpt lat="49.53704" lon="0.6282">
        <ele>145</ele>
        <time>2012-02-19T08:55:37Z</time>
      </trkpt>
      <trkpt lat="49.53702" lon="0.62831">
        <ele>145</ele>
        <time>2012-02-19T08:55:42Z</time>
      </trkpt>
      <trkpt lat="49.537" lon="0.62842">
        <ele>145</ele>
        <time>2012-02-19T08:55:47Z</time>
      </trkpt>
      <trkpt lat="49.53699" lon="0.62852">
        <ele>145</ele>
        <time>2012-02-19T08:55:52Z</time>
      </trkpt>
      <trkpt lat="49.53697" lon="0.62862">
        <ele>145</ele>
        <time>2012-02-19T08:55:57Z</time>
      </trkpt>
      <trkpt lat="49.53696" lon="0.62872">
        <ele>145</ele>
        <time>2012-02-19T08:56:02Z</time>
      </trkpt>
      <trkpt lat="49.53695" lon="0.62883">
        <ele>145</ele>
        <time>2012-02-19T08:56:07Z</time>
      </trkpt>
      <trkpt lat="49.53694" lon="0.62893">
        <ele>145</ele>
        <time>2012-02-19T08:56:12Z</time>
      </trkpt>
      <trkpt lat="49.53693" lon="0.62904">
        <ele>145</ele>
        <time>2012-02-19T08:56:17Z</time>
      </trkpt>
      <trkpt lat="49.53692" lon="0.62914">
        <ele>145</ele>
        <time>2012-02-19T08:56:22Z</time>
      </trkpt>
      <trkpt lat="49.5369" lon="0.62924">
        <ele>145</ele>
        <time>2012-02-19T08:56:27Z</time>
      </trkpt>
      <trkpt lat="49.53689" lon="0.62934">
        <ele>145</ele>
        <time>2012-02-19T08:56:32Z</time>
      </trkpt>
      <trkpt lat="49.53687" lon="0.62944">
        <ele>144</ele>
        <time>2012-02-19T08:56:37Z</time>
      </trkpt>
      <trkpt lat="49.53685" lon="0.62954">
        <ele>144</ele>
        <time>2012-02-19T08:56:42Z</time>
      </trkpt>
      <trkpt lat="49.53683" lon="0.62964">
        <ele>144</ele>
        <time>2012-02-19T08:56:47Z</time>
      </trkpt>
      <trkpt lat="49.5368" lon="0.62974">
        <ele>144</ele>
        <time>2012-02-19T08:56:52Z</time>
      </trkpt>
      <trkpt lat="49.53678" lon="0.62983">
        <ele>145</ele>
        <time>2012-02-19T08:56:57Z</time>
      </trkpt>
      <trkpt lat="49.53675" lon="0.62994">
        <ele>145</ele>
        <time>2012-02-19T08:57:02Z</time>
      </trkpt>
      <trkpt lat="49.53673" lon="0.63002">
        <ele>145</ele>
        <time>2012-02-19T08:57:07Z</time>
      </trkpt>
      <trkpt lat="49.5367" lon="0.63011">
        <ele>145</ele>
        <time>2012-02-19T08:57:12Z</time>
      </trkpt>
      <trkpt lat="49.53667" lon="0.63021">
        <ele>145</ele>
        <time>2012-02-19T08:57:18Z</time>
      </trkpt>
      <trkpt lat="49.53664" lon="0.6303">
        <ele>144</ele>
        <time>2012-02-19T08:57:23Z</time>
      </trkpt>
      <trkpt lat="49.53661" lon="0.6304">
        <ele>144</ele>
        <time>2012-02-19T08:57:28Z</time>
      </trkpt>
      <trkpt lat="49.53658" lon="0.6305">
        <ele>144</ele>
        <time>2012-02-19T08:57:33Z</time>
      </trkpt>
      <trkpt lat="49.53654" lon="0.6306">
        <ele>144</ele>
        <time>2012-02-19T08:57:38Z</time>
      </trkpt>
      <trkpt lat="49.53651" lon="0.63069">
        <ele>144</ele>
        <time>2012-02-19T08:57:43Z</time>
      </trkpt>
      <trkpt lat="49.53648" lon="0.63078">
        <ele>144</ele>
        <time>2012-02-19T08:57:48Z</time>
      </trkpt>
      <trkpt lat="49.53644" lon="0.63087">
        <ele>144</ele>
        <time>2012-02-19T08:57:53Z</time>
      </trkpt>
      <trkpt lat="49.5364" lon="0.63096">
        <ele>144</ele>
        <time>2012-02-19T08:57:58Z</time>
      </trkpt>
      <trkpt lat="49.53636" lon="0.63106">
        <ele>144</ele>
        <time>2012-02-19T08:58:04Z</time>
      </trkpt>
      <trkpt lat="49.53631" lon="0.63113">
        <ele>143</ele>
        <time>2012-02-19T08:58:10Z</time>
      </trkpt>
      <trkpt lat="49.53628" lon="0.63125">
        <ele>143</ele>
        <time>2012-02-19T08:58:15Z</time>
      </trkpt>
      <trkpt lat="49.53624" lon="0.63134">
        <ele>143</ele>
        <time>2012-02-19T08:58:20Z</time>
      </trkpt>
      <trkpt lat="49.53621" lon="0.63142">
        <ele>143</ele>
        <time>2012-02-19T08:58:25Z</time>
      </trkpt>
      <trkpt lat="49.53616" lon="0.6315">
        <ele>143</ele>
        <time>2012-02-19T08:58:30Z</time>
      </trkpt>
      <trkpt lat="49.53612" lon="0.6316">
        <ele>143</ele>
        <time>2012-02-19T08:58:35Z</time>
      </trkpt>
      <trkpt lat="49.53607" lon="0.6317">
        <ele>142</ele>
        <time>2012-02-19T08:58:41Z</time>
      </trkpt>
      <trkpt lat="49.53603" lon="0.63178">
        <ele>142</ele>
        <time>2012-02-19T08:58:46Z</time>
      </trkpt>
      <trkpt lat="49.536" lon="0.63187">
        <ele>142</ele>
        <time>2012-02-19T08:58:51Z</time>
      </trkpt>
      <trkpt lat="49.53596" lon="0.63195">
        <ele>142</ele>
        <time>2012-02-19T08:58:56Z</time>
      </trkpt>
      <trkpt lat="49.53592" lon="0.63204">
        <ele>142</ele>
        <time>2012-02-19T08:59:02Z</time>
      </trkpt>
      <trkpt lat="49.5359" lon="0.63213">
        <ele>142</ele>
        <time>2012-02-19T08:59:07Z</time>
      </trkpt>
      <trkpt lat="49.53587" lon="0.63221">
        <ele>141</ele>
        <time>2012-02-19T08:59:12Z</time>
      </trkpt>
      <trkpt lat="49.53584" lon="0.6323">
        <ele>141</ele>
        <time>2012-02-19T08:59:17Z</time>
      </trkpt>
      <trkpt lat="49.5358" lon="0.63238">
        <ele>141</ele>
        <time>2012-02-19T08:59:22Z</time>
      </trkpt>
      <trkpt lat="49.53576" lon="0.63248">
        <ele>140</ele>
        <time>2012-02-19T08:59:28Z</time>
      </trkpt>
      <trkpt lat="49.53573" lon="0.63257">
        <ele>141</ele>
        <time>2012-02-19T08:59:33Z</time>
      </trkpt>
      <trkpt lat="49.53569" lon="0.63267">
        <ele>141</ele>
        <time>2012-02-19T08:59:38Z</time>
      </trkpt>
      <trkpt lat="49.53565" lon="0.63276">
        <ele>141</ele>
        <time>2012-02-19T08:59:44Z</time>
      </trkpt>
      <trkpt lat="49.53561" lon="0.63283">
        <ele>141</ele>
        <time>2012-02-19T08:59:49Z</time>
      </trkpt>
      <trkpt lat="49.53558" lon="0.63291">
        <ele>141</ele>
        <time>2012-02-19T08:59:54Z</time>
      </trkpt>
      <trkpt lat="49.53553" lon="0.63299">
        <ele>141</ele>
        <time>2012-02-19T09:00:00Z</time>
      </trkpt>
      <trkpt lat="49.53549" lon="0.63308">
        <ele>142</ele>
        <time>2012-02-19T09:00:05Z</time>
      </trkpt>
      <trkpt lat="49.53545" lon="0.63315">
        <ele>142</ele>
        <time>2012-02-19T09:00:10Z</time>
      </trkpt>
      <trkpt lat="49.5354" lon="0.63323">
        <ele>142</ele>
        <time>2012-02-19T09:00:15Z</time>
      </trkpt>
      <trkpt lat="49.53536" lon="0.6333">
        <ele>142</ele>
        <time>2012-02-19T09:00:20Z</time>
      </trkpt>
      <trkpt lat="49.53532" lon="0.63339">
        <ele>143</ele>
        <time>2012-02-19T09:00:25Z</time>
      </trkpt>
      <trkpt lat="49.53528" lon="0.63348">
        <ele>143</ele>
        <time>2012-02-19T09:00:31Z</time>
      </trkpt>
      <trkpt lat="49.53522" lon="0.63355">
        <ele>143</ele>
        <time>2012-02-19T09:00:37Z</time>
      </trkpt>
      <trkpt lat="49.53516" lon="0.63363">
        <ele>143</ele>
        <time>2012-02-19T09:00:43Z</time>
      </trkpt>
      <trkpt lat="49.53512" lon="0.63372">
        <ele>144</ele>
        <time>2012-02-19T09:00:49Z</time>
      </trkpt>
      <trkpt lat="49.53507" lon="0.63382">
        <ele>144</ele>
        <time>2012-02-19T09:00:55Z</time>
      </trkpt>
      <trkpt lat="49.53503" lon="0.63389">
        <ele>144</ele>
        <time>2012-02-19T09:01:00Z</time>
      </trkpt>
      <trkpt lat="49.53498" lon="0.63398">
        <ele>146</ele>
        <time>2012-02-19T09:01:06Z</time>
      </trkpt>
      <trkpt lat="49.53494" lon="0.63407">
        <ele>146</ele>
        <time>2012-02-19T09:01:11Z</time>
      </trkpt>
      <trkpt lat="49.53491" lon="0.63416">
        <ele>146</ele>
        <time>2012-02-19T09:01:16Z</time>
      </trkpt>
      <trkpt lat="49.53487" lon="0.63426">
        <ele>146</ele>
        <time>2012-02-19T09:01:22Z</time>
      </trkpt>
      <trkpt lat="49.53484" lon="0.63436">
        <ele>146</ele>
        <time>2012-02-19T09:01:27Z</time>
      </trkpt>
      <trkpt lat="49.53482" lon="0.63445">
        <ele>146</ele>
        <time>2012-02-19T09:01:32Z</time>
      </trkpt>
      <trkpt lat="49.5348" lon="0.63455">
        <ele>146</ele>
        <time>2012-02-19T09:01:37Z</time>
      </trkpt>
      <trkpt lat="49.53479" lon="0.63464">
        <ele>146</ele>
        <time>2012-02-19T09:01:42Z</time>
      </trkpt>
      <trkpt lat="49.53477" lon="0.63474">
        <ele>146</ele>
        <time>2012-02-19T09:01:47Z</time>
      </trkpt>
      <trkpt lat="49.53475" lon="0.63485">
        <ele>146</ele>
        <time>2012-02-19T09:01:53Z</time>
      </trkpt>
      <trkpt lat="49.53473" lon="0.63495">
        <ele>146</ele>
        <time>2012-02-19T09:01:58Z</time>
      </trkpt>
      <trkpt lat="49.53472" lon="0.63503">
        <ele>145</ele>
        <time>2012-02-19T09:02:03Z</time>
      </trkpt>
      <trkpt lat="49.53469" lon="0.63513">
        <ele>145</ele>
        <time>2012-02-19T09:02:08Z</time>
      </trkpt>
      <trkpt lat="49.53467" lon="0.63524">
        <ele>145</ele>
        <time>2012-02-19T09:02:13Z</time>
      </trkpt>
      <trkpt lat="49.53464" lon="0.63533">
        <ele>145</ele>
        <time>2012-02-19T09:02:18Z</time>
      </trkpt>
      <trkpt lat="49.5346" lon="0.63544">
        <ele>145</ele>
        <time>2012-02-19T09:02:23Z</time>
      </trkpt>
      <trkpt lat="49.53457" lon="0.63553">
        <ele>145</ele>
        <time>2012-02-19T09:02:28Z</time>
      </trkpt>
      <trkpt lat="49.53455" lon="0.63563">
        <ele>145</ele>
        <time>2012-02-19T09:02:33Z</time>
      </trkpt>
      <trkpt lat="49.53452" lon="0.63572">
        <ele>145</ele>
        <time>2012-02-19T09:02:38Z</time>
      </trkpt>
      <trkpt lat="49.53448" lon="0.63579">
        <ele>145</ele>
        <time>2012-02-19T09:02:43Z</time>
      </trkpt>
      <trkpt lat="49.53444" lon="0.63589">
        <ele>145</ele>
        <time>2012-02-19T09:02:49Z</time>
      </trkpt>
      <trkpt lat="49.53438" lon="0.63597">
        <ele>145</ele>
        <time>2012-02-19T09:02:55Z</time>
      </trkpt>
      <trkpt lat="49.53433" lon="0.63604">
        <ele>145</ele>
        <time>2012-02-19T09:03:00Z</time>
      </trkpt>
      <trkpt lat="49.53429" lon="0.63612">
        <ele>145</ele>
        <time>2012-02-19T09:03:05Z</time>
      </trkpt>
      <trkpt lat="49.5343" lon="0.6362">
        <ele>145</ele>
        <time>2012-02-19T09:03:10Z</time>
      </trkpt>
      <trkpt lat="49.53433" lon="0.6363">
        <ele>145</ele>
        <time>2012-02-19T09:03:15Z</time>
      </trkpt>
      <trkpt lat="49.53436" lon="0.63639">
        <ele>145</ele>
        <time>2012-02-19T09:03:20Z</time>
      </trkpt>
      <trkpt lat="49.53439" lon="0.63651">
        <ele>145</ele>
        <time>2012-02-19T09:03:26Z</time>
      </trkpt>
      <trkpt lat="49.53442" lon="0.63659">
        <ele>145</ele>
        <time>2012-02-19T09:03:31Z</time>
      </trkpt>
      <trkpt lat="49.53445" lon="0.63669">
        <ele>144</ele>
        <time>2012-02-19T09:03:36Z</time>
      </trkpt>
      <trkpt lat="49.53448" lon="0.63678">
        <ele>144</ele>
        <time>2012-02-19T09:03:41Z</time>
      </trkpt>
      <trkpt lat="49.53451" lon="0.63687">
        <ele>144</ele>
        <time>2012-02-19T09:03:46Z</time>
      </trkpt>
      <trkpt lat="49.53454" lon="0.63696">
        <ele>144</ele>
        <time>2012-02-19T09:03:51Z</time>
      </trkpt>
      <trkpt lat="49.53456" lon="0.63706">
        <ele>144</ele>
        <time>2012-02-19T09:03:56Z</time>
      </trkpt>
      <trkpt lat="49.53459" lon="0.63715">
        <ele>144</ele>
        <time>2012-02-19T09:04:01Z</time>
      </trkpt>
      <trkpt lat="49.53463" lon="0.63724">
        <ele>144</ele>
        <time>2012-02-19T09:04:07Z</time>
      </trkpt>
      <trkpt lat="49.53466" lon="0.63732">
        <ele>144</ele>
        <time>2012-02-19T09:04:12Z</time>
      </trkpt>
      <trkpt lat="49.53469" lon="0.6374">
        <ele>144</ele>
        <time>2012-02-19T09:04:17Z</time>
      </trkpt>
      <trkpt lat="49.53473" lon="0.63749">
        <ele>144</ele>
        <time>2012-02-19T09:04:23Z</time>
      </trkpt>
      <trkpt lat="49.53476" lon="0.63757">
        <ele>143</ele>
        <time>2012-02-19T09:04:28Z</time>
      </trkpt>
      <trkpt lat="49.53479" lon="0.63765">
        <ele>143</ele>
        <time>2012-02-19T09:04:33Z</time>
      </trkpt>
      <trkpt lat="49.53483" lon="0.63774">
        <ele>143</ele>
        <time>2012-02-19T09:04:38Z</time>
      </trkpt>
      <trkpt lat="49.53488" lon="0.63781">
        <ele>143</ele>
        <time>2012-02-19T09:04:43Z</time>
      </trkpt>
      <trkpt lat="49.53492" lon="0.6379">
        <ele>142</ele>
        <time>2012-02-19T09:04:48Z</time>
      </trkpt>
      <trkpt lat="49.53495" lon="0.638">
        <ele>142</ele>
        <time>2012-02-19T09:04:53Z</time>
      </trkpt>
      <trkpt lat="49.53498" lon="0.63809">
        <ele>142</ele>
        <time>2012-02-19T09:04:58Z</time>
      </trkpt>
      <trkpt lat="49.53502" lon="0.63818">
        <ele>142</ele>
        <time>2012-02-19T09:05:03Z</time>
      </trkpt>
      <trkpt lat="49.53507" lon="0.63828">
        <ele>141</ele>
        <time>2012-02-19T09:05:09Z</time>
      </trkpt>
      <trkpt lat="49.53512" lon="0.63838">
        <ele>140</ele>
        <time>2012-02-19T09:05:15Z</time>
      </trkpt>
      <trkpt lat="49.53516" lon="0.63847">
        <ele>140</ele>
        <time>2012-02-19T09:05:20Z</time>
      </trkpt>
      <trkpt lat="49.5352" lon="0.63856">
        <ele>140</ele>
        <time>2012-02-19T09:05:25Z</time>
      </trkpt>
      <trkpt lat="49.53524" lon="0.63864">
        <ele>140</ele>
        <time>2012-02-19T09:05:30Z</time>
      </trkpt>
      <trkpt lat="49.53528" lon="0.63872">
        <ele>140</ele>
        <time>2012-02-19T09:05:35Z</time>
      </trkpt>
      <trkpt lat="49.53533" lon="0.63882">
        <ele>139</ele>
        <time>2012-02-19T09:05:41Z</time>
      </trkpt>
      <trkpt lat="49.53537" lon="0.63889">
        <ele>139</ele>
        <time>2012-02-19T09:05:46Z</time>
      </trkpt>
      <trkpt lat="49.5354" lon="0.63898">
        <ele>139</ele>
        <time>2012-02-19T09:05:51Z</time>
      </trkpt>
      <trkpt lat="49.53545" lon="0.63906">
        <ele>139</ele>
        <time>2012-02-19T09:05:57Z</time>
      </trkpt>
      <trkpt lat="49.53549" lon="0.63914">
        <ele>139</ele>
        <time>2012-02-19T09:06:02Z</time>
      </trkpt>
      <trkpt lat="49.53554" lon="0.63924">
        <ele>138</ele>
        <time>2012-02-19T09:06:08Z</time>
      </trkpt>
      <trkpt lat="49.53558" lon="0.63932">
        <ele>138</ele>
        <time>2012-02-19T09:06:13Z</time>
      </trkpt>
      <trkpt lat="49.53563" lon="0.6394">
        <ele>138</ele>
        <time>2012-02-19T09:06:18Z</time>
      </trkpt>
      <trkpt lat="49.53571" lon="0.63947">
        <ele>138</ele>
        <time>2012-02-19T09:06:23Z</time>
      </trkpt>
      <trkpt lat="49.53576" lon="0.63955">
        <ele>138</ele>
        <time>2012-02-19T09:06:28Z</time>
      </trkpt>
      <trkpt lat="49.53579" lon="0.63964">
        <ele>138</ele>
        <time>2012-02-19T09:06:33Z</time>
      </trkpt>
      <trkpt lat="49.53583" lon="0.63973">
        <ele>138</ele>
        <time>2012-02-19T09:06:38Z</time>
      </trkpt>
      <trkpt lat="49.53586" lon="0.63982">
        <ele>137</ele>
        <time>2012-02-19T09:06:43Z</time>
      </trkpt>
      <trkpt lat="49.5359" lon="0.63991">
        <ele>137</ele>
        <time>2012-02-19T09:06:48Z</time>
      </trkpt>
      <trkpt lat="49.53593" lon="0.64001">
        <ele>137</ele>
        <time>2012-02-19T09:06:53Z</time>
      </trkpt>
      <trkpt lat="49.53596" lon="0.64011">
        <ele>137</ele>
        <time>2012-02-19T09:06:58Z</time>
      </trkpt>
      <trkpt lat="49.536" lon="0.6402">
        <ele>136</ele>
        <time>2012-02-19T09:07:03Z</time>
      </trkpt>
      <trkpt lat="49.53603" lon="0.64027">
        <ele>136</ele>
        <time>2012-02-19T09:07:08Z</time>
      </trkpt>
      <trkpt lat="49.53607" lon="0.64037">
        <ele>136</ele>
        <time>2012-02-19T09:07:13Z</time>
      </trkpt>
      <trkpt lat="49.53611" lon="0.64046">
        <ele>136</ele>
        <time>2012-02-19T09:07:18Z</time>
      </trkpt>
      <trkpt lat="49.53614" lon="0.64055">
        <ele>136</ele>
        <time>2012-02-19T09:07:23Z</time>
      </trkpt>
      <trkpt lat="49.53619" lon="0.64062">
        <ele>136</ele>
        <time>2012-02-19T09:07:28Z</time>
      </trkpt>
      <trkpt lat="49.53625" lon="0.64069">
        <ele>136</ele>
        <time>2012-02-19T09:07:33Z</time>
      </trkpt>
      <trkpt lat="49.53629" lon="0.64077">
        <ele>136</ele>
        <time>2012-02-19T09:07:38Z</time>
      </trkpt>
      <trkpt lat="49.53632" lon="0.64086">
        <ele>136</ele>
        <time>2012-02-19T09:07:43Z</time>
      </trkpt>
      <trkpt lat="49.53637" lon="0.64094">
        <ele>135</ele>
        <time>2012-02-19T09:07:48Z</time>
      </trkpt>
      <trkpt lat="49.53643" lon="0.641">
        <ele>135</ele>
        <time>2012-02-19T09:07:54Z</time>
      </trkpt>
      <trkpt lat="49.53647" lon="0.64109">
        <ele>135</ele>
        <time>2012-02-19T09:07:59Z</time>
      </trkpt>
      <trkpt lat="49.53653" lon="0.64116">
        <ele>135</ele>
        <time>2012-02-19T09:08:04Z</time>
      </trkpt>
      <trkpt lat="49.53659" lon="0.64122">
        <ele>135</ele>
        <time>2012-02-19T09:08:09Z</time>
      </trkpt>
      <trkpt lat="49.53666" lon="0.64131">
        <ele>135</ele>
        <time>2012-02-19T09:08:15Z</time>
      </trkpt>
      <trkpt lat="49.5367" lon="0.64138">
        <ele>133</ele>
        <time>2012-02-19T09:08:20Z</time>
      </trkpt>
      <trkpt lat="49.53674" lon="0.64147">
        <ele>133</ele>
        <time>2012-02-19T09:08:25Z</time>
      </trkpt>
      <trkpt lat="49.53681" lon="0.64153">
        <ele>133</ele>
        <time>2012-02-19T09:08:30Z</time>
      </trkpt>
      <trkpt lat="49.53686" lon="0.64162">
        <ele>133</ele>
        <time>2012-02-19T09:08:35Z</time>
      </trkpt>
      <trkpt lat="49.5369" lon="0.6417">
        <ele>132</ele>
        <time>2012-02-19T09:08:40Z</time>
      </trkpt>
      <trkpt lat="49.53694" lon="0.64179">
        <ele>132</ele>
        <time>2012-02-19T09:08:45Z</time>
      </trkpt>
      <trkpt lat="49.53698" lon="0.64187">
        <ele>132</ele>
        <time>2012-02-19T09:08:50Z</time>
      </trkpt>
      <trkpt lat="49.53702" lon="0.64196">
        <ele>132</ele>
        <time>2012-02-19T09:08:55Z</time>
      </trkpt>
      <trkpt lat="49.53705" lon="0.64205">
        <ele>132</ele>
        <time>2012-02-19T09:09:00Z</time>
      </trkpt>
      <trkpt lat="49.53708" lon="0.64214">
        <ele>132</ele>
        <time>2012-02-19T09:09:05Z</time>
      </trkpt>
      <trkpt lat="49.53712" lon="0.64223">
        <ele>132</ele>
        <time>2012-02-19T09:09:10Z</time>
      </trkpt>
      <trkpt lat="49.53716" lon="0.64231">
        <ele>132</ele>
        <time>2012-02-19T09:09:15Z</time>
      </trkpt>
      <trkpt lat="49.53722" lon="0.6424">
        <ele>131</ele>
        <time>2012-02-19T09:09:21Z</time>
      </trkpt>
      <trkpt lat="49.53727" lon="0.64245">
        <ele>131</ele>
        <time>2012-02-19T09:09:26Z</time>
      </trkpt>
      <trkpt lat="49.53731" lon="0.64252">
        <ele>130</ele>
        <time>2012-02-19T09:09:31Z</time>
      </trkpt>
      <trkpt lat="49.53735" lon="0.64261">
        <ele>130</ele>
        <time>2012-02-19T09:09:36Z</time>
      </trkpt>
      <trkpt lat="49.53738" lon="0.64271">
        <ele>130</ele>
        <time>2012-02-19T09:09:42Z</time>
      </trkpt>
      <trkpt lat="49.53742" lon="0.64279">
        <ele>130</ele>
        <time>2012-02-19T09:09:47Z</time>
      </trkpt>
      <trkpt lat="49.53746" lon="0.64289">
        <ele>129</ele>
        <time>2012-02-19T09:09:53Z</time>
      </trkpt>
      <trkpt lat="49.53749" lon="0.64297">
        <ele>129</ele>
        <time>2012-02-19T09:09:58Z</time>
      </trkpt>
      <trkpt lat="49.53753" lon="0.64305">
        <ele>128</ele>
        <time>2012-02-19T09:10:03Z</time>
      </trkpt>
      <trkpt lat="49.53759" lon="0.64312">
        <ele>127</ele>
        <time>2012-02-19T09:10:08Z</time>
      </trkpt>
      <trkpt lat="49.53764" lon="0.64321">
        <ele>127</ele>
        <time>2012-02-19T09:10:14Z</time>
      </trkpt>
      <trkpt lat="49.53769" lon="0.6433">
        <ele>127</ele>
        <time>2012-02-19T09:10:20Z</time>
      </trkpt>
      <trkpt lat="49.53773" lon="0.64339">
        <ele>126</ele>
        <time>2012-02-19T09:10:26Z</time>
      </trkpt>
      <trkpt lat="49.53777" lon="0.64346">
        <ele>126</ele>
        <time>2012-02-19T09:10:31Z</time>
      </trkpt>
      <trkpt lat="49.5378" lon="0.64353">
        <ele>126</ele>
        <time>2012-02-19T09:10:36Z</time>
      </trkpt>
      <trkpt lat="49.53783" lon="0.64362">
        <ele>126</ele>
        <time>2012-02-19T09:10:41Z</time>
      </trkpt>
      <trkpt lat="49.53783" lon="0.64372">
        <ele>126</ele>
        <time>2012-02-19T09:10:46Z</time>
      </trkpt>
      <trkpt lat="49.53786" lon="0.6438">
        <ele>126</ele>
        <time>2012-02-19T09:10:51Z</time>
      </trkpt>
      <trkpt lat="49.53789" lon="0.64389">
        <ele>126</ele>
        <time>2012-02-19T09:10:56Z</time>
      </trkpt>
      <trkpt lat="49.53792" lon="0.64398">
        <ele>126</ele>
        <time>2012-02-19T09:11:01Z</time>
      </trkpt>
      <trkpt lat="49.53795" lon="0.64408">
        <ele>126</ele>
        <time>2012-02-19T09:11:06Z</time>
      </trkpt>
      <trkpt lat="49.53798" lon="0.64417">
        <ele>125</ele>
        <time>2012-02-19T09:11:11Z</time>
      </trkpt>
      <trkpt lat="49.53801" lon="0.64426">
        <ele>125</ele>
        <time>2012-02-19T09:11:16Z</time>
      </trkpt>
      <trkpt lat="49.53804" lon="0.64435">
        <ele>125</ele>
        <time>2012-02-19T09:11:21Z</time>
      </trkpt>
      <trkpt lat="49.53806" lon="0.64444">
        <ele>125</ele>
        <time>2012-02-19T09:11:26Z</time>
      </trkpt>
      <trkpt lat="49.53809" lon="0.64454">
        <ele>125</ele>
        <time>2012-02-19T09:11:31Z</time>
      </trkpt>
      <trkpt lat="49.53813" lon="0.64462">
        <ele>125</ele>
        <time>2012-02-19T09:11:36Z</time>
      </trkpt>
      <trkpt lat="49.53816" lon="0.64471">
        <ele>125</ele>
        <time>2012-02-19T09:11:41Z</time>
      </trkpt>
      <trkpt lat="49.5382" lon="0.64479">
        <ele>125</ele>
        <time>2012-02-19T09:11:46Z</time>
      </trkpt>
      <trkpt lat="49.53824" lon="0.64487">
        <ele>125</ele>
        <time>2012-02-19T09:11:51Z</time>
      </trkpt>
      <trkpt lat="49.53828" lon="0.64497">
        <ele>124</ele>
        <time>2012-02-19T09:11:57Z</time>
      </trkpt>
      <trkpt lat="49.53831" lon="0.64504">
        <ele>124</ele>
        <time>2012-02-19T09:12:02Z</time>
      </trkpt>
      <trkpt lat="49.53834" lon="0.64513">
        <ele>124</ele>
        <time>2012-02-19T09:12:07Z</time>
      </trkpt>
      <trkpt lat="49.53838" lon="0.64521">
        <ele>124</ele>
        <time>2012-02-19T09:12:12Z</time>
      </trkpt>
      <trkpt lat="49.53843" lon="0.64531">
        <ele>124</ele>
        <time>2012-02-19T09:12:18Z</time>
      </trkpt>
      <trkpt lat="49.53847" lon="0.6454">
        <ele>124</ele>
        <time>2012-02-19T09:12:24Z</time>
      </trkpt>
      <trkpt lat="49.53851" lon="0.64548">
        <ele>125</ele>
        <time>2012-02-19T09:12:29Z</time>
      </trkpt>
      <trkpt lat="49.53858" lon="0.64557">
        <ele>124</ele>
        <time>2012-02-19T09:12:35Z</time>
      </trkpt>
      <trkpt lat="49.53863" lon="0.64563">
        <ele>124</ele>
        <time>2012-02-19T09:12:40Z</time>
      </trkpt>
      <trkpt lat="49.5387" lon="0.64571">
        <ele>124</ele>
        <time>2012-02-19T09:12:46Z</time>
      </trkpt>
      <trkpt lat="49.53877" lon="0.64577">
        <ele>124</ele>
        <time>2012-02-19T09:12:52Z</time>
      </trkpt>
      <trkpt lat="49.53882" lon="0.64583">
        <ele>123</ele>
        <time>2012-02-19T09:12:57Z</time>
      </trkpt>
      <trkpt lat="49.53888" lon="0.6459">
        <ele>123</ele>
        <time>2012-02-19T09:13:02Z</time>
      </trkpt>
      <trkpt lat="49.53893" lon="0.64598">
        <ele>123</ele>
        <time>2012-02-19T09:13:08Z</time>
      </trkpt>
      <trkpt lat="49.53898" lon="0.64605">
        <ele>123</ele>
        <time>2012-02-19T09:13:13Z</time>
      </trkpt>
      <trkpt lat="49.53902" lon="0.64615">
        <ele>123</ele>
        <time>2012-02-19T09:13:19Z</time>
      </trkpt>
      <trkpt lat="49.53906" lon="0.64624">
        <ele>123</ele>
        <time>2012-02-19T09:13:24Z</time>
      </trkpt>
      <trkpt lat="49.5391" lon="0.64632">
        <ele>123</ele>
        <time>2012-02-19T09:13:29Z</time>
      </trkpt>
      <trkpt lat="49.53916" lon="0.64641">
        <ele>123</ele>
        <time>2012-02-19T09:13:35Z</time>
      </trkpt>
      <trkpt lat="49.5392" lon="0.6465">
        <ele>121</ele>
        <time>2012-02-19T09:13:40Z</time>
      </trkpt>
      <trkpt lat="49.53922" lon="0.64659">
        <ele>121</ele>
        <time>2012-02-19T09:13:45Z</time>
      </trkpt>
      <trkpt lat="49.53926" lon="0.64667">
        <ele>121</ele>
        <time>2012-02-19T09:13:50Z</time>
      </trkpt>
      <trkpt lat="49.53929" lon="0.64676">
        <ele>121</ele>
        <time>2012-02-19T09:13:55Z</time>
      </trkpt>
      <trkpt lat="49.53933" lon="0.64687">
        <ele>121</ele>
        <time>2012-02-19T09:14:01Z</time>
      </trkpt>
      <trkpt lat="49.53937" lon="0.64696">
        <ele>121</ele>
        <time>2012-02-19T09:14:06Z</time>
      </trkpt>
      <trkpt lat="49.53941" lon="0.64707">
        <ele>121</ele>
        <time>2012-02-19T09:14:11Z</time>
      </trkpt>
      <trkpt lat="49.53945" lon="0.64718">
        <ele>122</ele>
        <time>2012-02-19T09:14:16Z</time>
      </trkpt>
      <trkpt lat="49.53949" lon="0.64729">
        <ele>122</ele>
        <time>2012-02-19T09:14:21Z</time>
      </trkpt>
      <trkpt lat="49.53952" lon="0.64741">
        <ele>122</ele>
        <time>2012-02-19T09:14:26Z</time>
      </trkpt>
      <trkpt lat="49.53954" lon="0.64752">
        <ele>122</ele>
        <time>2012-02-19T09:14:31Z</time>
      </trkpt>
      <trkpt lat="49.53957" lon="0.64762">
        <ele>122</ele>
        <time>2012-02-19T09:14:36Z</time>
      </trkpt>
      <trkpt lat="49.53957" lon="0.64774">
        <ele>122</ele>
        <time>2012-02-19T09:14:41Z</time>
      </trkpt>
      <trkpt lat="49.5396" lon="0.64786">
        <ele>121</ele>
        <time>2012-02-19T09:14:46Z</time>
      </trkpt>
      <trkpt lat="49.53962" lon="0.64798">
        <ele>121</ele>
        <time>2012-02-19T09:14:51Z</time>
      </trkpt>
      <trkpt lat="49.53963" lon="0.64809">
        <ele>121</ele>
        <time>2012-02-19T09:14:56Z</time>
      </trkpt>
      <trkpt lat="49.53968" lon="0.6482">
        <ele>120</ele>
        <time>2012-02-19T09:15:02Z</time>
      </trkpt>
      <trkpt lat="49.53969" lon="0.64831">
        <ele>120</ele>
        <time>2012-02-19T09:15:07Z</time>
      </trkpt>
      <trkpt lat="49.5397" lon="0.64843">
        <ele>118</ele>
        <time>2012-02-19T09:15:12Z</time>
      </trkpt>
      <trkpt lat="49.53971" lon="0.64852">
        <ele>118</ele>
        <time>2012-02-19T09:15:17Z</time>
      </trkpt>
      <trkpt lat="49.53972" lon="0.64864">
        <ele>118</ele>
        <time>2012-02-19T09:15:22Z</time>
      </trkpt>
      <trkpt lat="49.53973" lon="0.64874">
        <ele>118</ele>
        <time>2012-02-19T09:15:27Z</time>
      </trkpt>
      <trkpt lat="49.53974" lon="0.64884">
        <ele>118</ele>
        <time>2012-02-19T09:15:32Z</time>
      </trkpt>
      <trkpt lat="49.53977" lon="0.64897">
        <ele>117</ele>
        <time>2012-02-19T09:15:38Z</time>
      </trkpt>
      <trkpt lat="49.5398" lon="0.64907">
        <ele>116</ele>
        <time>2012-02-19T09:15:43Z</time>
      </trkpt>
      <trkpt lat="49.53988" lon="0.64909">
        <ele>114</ele>
        <time>2012-02-19T09:15:51Z</time>
      </trkpt>
      <trkpt lat="49.53994" lon="0.64919">
        <ele>112</ele>
        <time>2012-02-19T09:15:57Z</time>
      </trkpt>
      <trkpt lat="49.53996" lon="0.64933">
        <ele>112</ele>
        <time>2012-02-19T09:16:03Z</time>
      </trkpt>
      <trkpt lat="49.53993" lon="0.64943">
        <ele>112</ele>
        <time>2012-02-19T09:16:08Z</time>
      </trkpt>
      <trkpt lat="49.53992" lon="0.6495">
        <ele>112</ele>
        <time>2012-02-19T09:16:14Z</time>
      </trkpt>
      <trkpt lat="49.53993" lon="0.64958">
        <ele>112</ele>
        <time>2012-02-19T09:16:19Z</time>
      </trkpt>
      <trkpt lat="49.53996" lon="0.64972">
        <ele>111</ele>
        <time>2012-02-19T09:16:25Z</time>
      </trkpt>
      <trkpt lat="49.53997" lon="0.64981">
        <ele>110</ele>
        <time>2012-02-19T09:16:30Z</time>
      </trkpt>
      <trkpt lat="49.53997" lon="0.64987">
        <ele>109</ele>
        <time>2012-02-19T09:16:35Z</time>
      </trkpt>
      <trkpt lat="49.53997" lon="0.64999">
        <ele>107</ele>
        <time>2012-02-19T09:16:41Z</time>
      </trkpt>
      <trkpt lat="49.53995" lon="0.65008">
        <ele>108</ele>
        <time>2012-02-19T09:16:46Z</time>
      </trkpt>
      <trkpt lat="49.53995" lon="0.65019">
        <ele>109</ele>
        <time>2012-02-19T09:16:51Z</time>
      </trkpt>
      <trkpt lat="49.53998" lon="0.6503">
        <ele>109</ele>
        <time>2012-02-19T09:16:56Z</time>
      </trkpt>
      <trkpt lat="49.54001" lon="0.65041">
        <ele>107</ele>
        <time>2012-02-19T09:17:01Z</time>
      </trkpt>
      <trkpt lat="49.54003" lon="0.6505">
        <ele>107</ele>
        <time>2012-02-19T09:17:06Z</time>
      </trkpt>
      <trkpt lat="49.54005" lon="0.6506">
        <ele>106</ele>
        <time>2012-02-19T09:17:11Z</time>
      </trkpt>
      <trkpt lat="49.54007" lon="0.6507">
        <ele>106</ele>
        <time>2012-02-19T09:17:16Z</time>
      </trkpt>
      <trkpt lat="49.54009" lon="0.65082">
        <ele>105</ele>
        <time>2012-02-19T09:17:22Z</time>
      </trkpt>
      <trkpt lat="49.54014" lon="0.65089">
        <ele>105</ele>
        <time>2012-02-19T09:17:27Z</time>
      </trkpt>
      <trkpt lat="49.54018" lon="0.651">
        <ele>105</ele>
        <time>2012-02-19T09:17:32Z</time>
      </trkpt>
      <trkpt lat="49.54024" lon="0.65108">
        <ele>105</ele>
        <time>2012-02-19T09:17:38Z</time>
      </trkpt>
      <trkpt lat="49.54026" lon="0.65117">
        <ele>105</ele>
        <time>2012-02-19T09:17:45Z</time>
      </trkpt>
      <trkpt lat="49.54027" lon="0.65126">
        <ele>105</ele>
        <time>2012-02-19T09:17:50Z</time>
      </trkpt>
      <trkpt lat="49.54034" lon="0.65139">
        <ele>105</ele>
        <time>2012-02-19T09:17:56Z</time>
      </trkpt>
      <trkpt lat="49.54037" lon="0.65145">
        <ele>105</ele>
        <time>2012-02-19T09:18:01Z</time>
      </trkpt>
      <trkpt lat="49.54037" lon="0.65157">
        <ele>105</ele>
        <time>2012-02-19T09:18:06Z</time>
      </trkpt>
      <trkpt lat="49.54043" lon="0.65165">
        <ele>105</ele>
        <time>2012-02-19T09:18:13Z</time>
      </trkpt>
      <trkpt lat="49.54047" lon="0.65174">
        <ele>104</ele>
        <time>2012-02-19T09:18:18Z</time>
      </trkpt>
      <trkpt lat="49.5405" lon="0.65183">
        <ele>103</ele>
        <time>2012-02-19T09:18:23Z</time>
      </trkpt>
      <trkpt lat="49.54055" lon="0.65192">
        <ele>103</ele>
        <time>2012-02-19T09:18:29Z</time>
      </trkpt>
      <trkpt lat="49.54057" lon="0.65203">
        <ele>103</ele>
        <time>2012-02-19T09:18:34Z</time>
      </trkpt>
      <trkpt lat="49.54061" lon="0.6521">
        <ele>103</ele>
        <time>2012-02-19T09:18:39Z</time>
      </trkpt>
      <trkpt lat="49.54066" lon="0.65218">
        <ele>102</ele>
        <time>2012-02-19T09:18:44Z</time>
      </trkpt>
      <trkpt lat="49.54069" lon="0.65226">
        <ele>101</ele>
        <time>2012-02-19T09:18:49Z</time>
      </trkpt>
      <trkpt lat="49.54076" lon="0.65233">
        <ele>100</ele>
        <time>2012-02-19T09:18:55Z</time>
      </trkpt>
      <trkpt lat="49.54079" lon="0.65242">
        <ele>98</ele>
        <time>2012-02-19T09:19:00Z</time>
      </trkpt>
      <trkpt lat="49.54081" lon="0.65251">
        <ele>96</ele>
        <time>2012-02-19T09:19:05Z</time>
      </trkpt>
      <trkpt lat="49.54084" lon="0.65262">
        <ele>96</ele>
        <time>2012-02-19T09:19:11Z</time>
      </trkpt>
      <trkpt lat="49.54086" lon="0.65269">
        <ele>96</ele>
        <time>2012-02-19T09:19:16Z</time>
      </trkpt>
      <trkpt lat="49.54089" lon="0.65276">
        <ele>96</ele>
        <time>2012-02-19T09:19:21Z</time>
      </trkpt>
      <trkpt lat="49.54091" lon="0.65278">
        <ele>96</ele>
        <time>2012-02-19T09:19:26Z</time>
      </trkpt>
      <trkpt lat="49.54097" lon="0.65284">
        <ele>97</ele>
        <time>2012-02-19T09:19:31Z</time>
      </trkpt>
      <trkpt lat="49.54102" lon="0.65291">
        <ele>97</ele>
        <time>2012-02-19T09:19:37Z</time>
      </trkpt>
      <trkpt lat="49.54104" lon="0.653">
        <ele>97</ele>
        <time>2012-02-19T09:19:42Z</time>
      </trkpt>
      <trkpt lat="49.54108" lon="0.65308">
        <ele>97</ele>
        <time>2012-02-19T09:19:47Z</time>
      </trkpt>
      <trkpt lat="49.54111" lon="0.65316">
        <ele>97</ele>
        <time>2012-02-19T09:19:52Z</time>
      </trkpt>
      <trkpt lat="49.54116" lon="0.65327">
        <ele>96</ele>
        <time>2012-02-19T09:19:58Z</time>
      </trkpt>
      <trkpt lat="49.54119" lon="0.65333">
        <ele>96</ele>
        <time>2012-02-19T09:20:03Z</time>
      </trkpt>
      <trkpt lat="49.54123" lon="0.65339">
        <ele>95</ele>
        <time>2012-02-19T09:20:08Z</time>
      </trkpt>
      <trkpt lat="49.5413" lon="0.65347">
        <ele>95</ele>
        <time>2012-02-19T09:20:14Z</time>
      </trkpt>
      <trkpt lat="49.54134" lon="0.65356">
        <ele>95</ele>
        <time>2012-02-19T09:20:19Z</time>
      </trkpt>
      <trkpt lat="49.54138" lon="0.65365">
        <ele>95</ele>
        <time>2012-02-19T09:20:24Z</time>
      </trkpt>
      <trkpt lat="49.5414" lon="0.65374">
        <ele>94</ele>
        <time>2012-02-19T09:20:29Z</time>
      </trkpt>
      <trkpt lat="49.54145" lon="0.6538">
        <ele>94</ele>
        <time>2012-02-19T09:20:34Z</time>
      </trkpt>
      <trkpt lat="49.54149" lon="0.6539">
        <ele>94</ele>
        <time>2012-02-19T09:20:39Z</time>
      </trkpt>
      <trkpt lat="49.54153" lon="0.65398">
        <ele>93</ele>
        <time>2012-02-19T09:20:45Z</time>
      </trkpt>
      <trkpt lat="49.54158" lon="0.65404">
        <ele>92</ele>
        <time>2012-02-19T09:20:50Z</time>
      </trkpt>
      <trkpt lat="49.54162" lon="0.65412">
        <ele>90</ele>
        <time>2012-02-19T09:20:55Z</time>
      </trkpt>
      <trkpt lat="49.54167" lon="0.65418">
        <ele>89</ele>
        <time>2012-02-19T09:21:00Z</time>
      </trkpt>
      <trkpt lat="49.54171" lon="0.65428">
        <ele>89</ele>
        <time>2012-02-19T09:21:05Z</time>
      </trkpt>
      <trkpt lat="49.54175" lon="0.65435">
        <ele>89</ele>
        <time>2012-02-19T09:21:10Z</time>
      </trkpt>
      <trkpt lat="49.54181" lon="0.65443">
        <ele>89</ele>
        <time>2012-02-19T09:21:15Z</time>
      </trkpt>
      <trkpt lat="49.54184" lon="0.65451">
        <ele>89</ele>
        <time>2012-02-19T09:21:20Z</time>
      </trkpt>
      <trkpt lat="49.54191" lon="0.65455">
        <ele>89</ele>
        <time>2012-02-19T09:21:26Z</time>
      </trkpt>
      <trkpt lat="49.54193" lon="0.6546">
        <ele>89</ele>
        <time>2012-02-19T09:21:32Z</time>
      </trkpt>
      <trkpt lat="49.54197" lon="0.65469">
        <ele>89</ele>
        <time>2012-02-19T09:21:37Z</time>
      </trkpt>
      <trkpt lat="49.54203" lon="0.6548">
        <ele>89</ele>
        <time>2012-02-19T09:21:42Z</time>
      </trkpt>
      <trkpt lat="49.5421" lon="0.65486">
        <ele>89</ele>
        <time>2012-02-19T09:21:48Z</time>
      </trkpt>
      <trkpt lat="49.54218" lon="0.65493">
        <ele>88</ele>
        <time>2012-02-19T09:21:53Z</time>
      </trkpt>
      <trkpt lat="49.54221" lon="0.65502">
        <ele>85</ele>
        <time>2012-02-19T09:22:00Z</time>
      </trkpt>
      <trkpt lat="49.54225" lon="0.65509">
        <ele>84</ele>
        <time>2012-02-19T09:22:05Z</time>
      </trkpt>
      <trkpt lat="49.54227" lon="0.65519">
        <ele>84</ele>
        <time>2012-02-19T09:22:10Z</time>
      </trkpt>
      <trkpt lat="49.5423" lon="0.6553">
        <ele>84</ele>
        <time>2012-02-19T09:22:16Z</time>
      </trkpt>
      <trkpt lat="49.54232" lon="0.65541">
        <ele>83</ele>
        <time>2012-02-19T09:22:21Z</time>
      </trkpt>
      <trkpt lat="49.54237" lon="0.65551">
        <ele>82</ele>
        <time>2012-02-19T09:22:27Z</time>
      </trkpt>
      <trkpt lat="49.54241" lon="0.65559">
        <ele>80</ele>
        <time>2012-02-19T09:22:32Z</time>
      </trkpt>
      <trkpt lat="49.54245" lon="0.65568">
        <ele>79</ele>
        <time>2012-02-19T09:22:37Z</time>
      </trkpt>
      <trkpt lat="49.54246" lon="0.65583">
        <ele>75</ele>
        <time>2012-02-19T09:22:43Z</time>
      </trkpt>
      <trkpt lat="49.54249" lon="0.65591">
        <ele>75</ele>
        <time>2012-02-19T09:22:48Z</time>
      </trkpt>
      <trkpt lat="49.54251" lon="0.65602">
        <ele>72</ele>
        <time>2012-02-19T09:22:53Z</time>
      </trkpt>
      <trkpt lat="49.54254" lon="0.65611">
        <ele>72</ele>
        <time>2012-02-19T09:22:58Z</time>
      </trkpt>
      <trkpt lat="49.54256" lon="0.6562">
        <ele>72</ele>
        <time>2012-02-19T09:23:03Z</time>
      </trkpt>
      <trkpt lat="49.54258" lon="0.6563">
        <ele>71</ele>
        <time>2012-02-19T09:23:08Z</time>
      </trkpt>
      <trkpt lat="49.54261" lon="0.65638">
        <ele>71</ele>
        <time>2012-02-19T09:23:14Z</time>
      </trkpt>
      <trkpt lat="49.54265" lon="0.65649">
        <ele>70</ele>
        <time>2012-02-19T09:23:19Z</time>
      </trkpt>
      <trkpt lat="49.54268" lon="0.65658">
        <ele>70</ele>
        <time>2012-02-19T09:23:24Z</time>
      </trkpt>
      <trkpt lat="49.5427" lon="0.65667">
        <ele>68</ele>
        <time>2012-02-19T09:23:29Z</time>
      </trkpt>
      <trkpt lat="49.54273" lon="0.65675">
        <ele>68</ele>
        <time>2012-02-19T09:23:34Z</time>
      </trkpt>
      <trkpt lat="49.54275" lon="0.65685">
        <ele>68</ele>
        <time>2012-02-19T09:23:39Z</time>
      </trkpt>
      <trkpt lat="49.54277" lon="0.65695">
        <ele>68</ele>
        <time>2012-02-19T09:23:44Z</time>
      </trkpt>
      <trkpt lat="49.54279" lon="0.65704">
        <ele>68</ele>
        <time>2012-02-19T09:23:49Z</time>
      </trkpt>
      <trkpt lat="49.5428" lon="0.65713">
        <ele>68</ele>
        <time>2012-02-19T09:23:54Z</time>
      </trkpt>
      <trkpt lat="49.5428" lon="0.65723">
        <ele>68</ele>
        <time>2012-02-19T09:23:59Z</time>
      </trkpt>
      <trkpt lat="49.54279" lon="0.65732">
        <ele>68</ele>
        <time>2012-02-19T09:24:04Z</time>
      </trkpt>
      <trkpt lat="49.54278" lon="0.65741">
        <ele>67</ele>
        <time>2012-02-19T09:24:09Z</time>
      </trkpt>
      <trkpt lat="49.54277" lon="0.6575">
        <ele>67</ele>
        <time>2012-02-19T09:24:14Z</time>
      </trkpt>
      <trkpt lat="49.54276" lon="0.65759">
        <ele>68</ele>
        <time>2012-02-19T09:24:19Z</time>
      </trkpt>
      <trkpt lat="49.54275" lon="0.65769">
        <ele>68</ele>
        <time>2012-02-19T09:24:25Z</time>
      </trkpt>
      <trkpt lat="49.54275" lon="0.65779">
        <ele>68</ele>
        <time>2012-02-19T09:24:31Z</time>
      </trkpt>
      <trkpt lat="49.54274" lon="0.65786">
        <ele>69</ele>
        <time>2012-02-19T09:24:37Z</time>
      </trkpt>
      <trkpt lat="49.54275" lon="0.65785">
        <ele>69</ele>
        <time>2012-02-19T09:24:44Z</time>
      </trkpt>
      <trkpt lat="49.54276" lon="0.65786">
        <ele>69</ele>
        <time>2012-02-19T09:24:54Z</time>
      </trkpt>
      <trkpt lat="49.54276" lon="0.65789">
        <ele>69</ele>
        <time>2012-02-19T09:25:01Z</time>
      </trkpt>
      <trkpt lat="49.54273" lon="0.65791">
        <ele>69</ele>
        <time>2012-02-19T09:25:12Z</time>
      </trkpt>
      <trkpt lat="49.54277" lon="0.65789">
        <ele>69</ele>
        <time>2012-02-19T09:25:19Z</time>
      </trkpt>
      <trkpt lat="49.54282" lon="0.6579">
        <ele>69</ele>
        <time>2012-02-19T09:25:27Z</time>
      </trkpt>
      <trkpt lat="49.5428" lon="0.65785">
        <ele>68</ele>
        <time>2012-02-19T09:25:33Z</time>
      </trkpt>
      <trkpt lat="49.54274" lon="0.65786">
        <ele>69</ele>
        <time>2012-02-19T09:25:42Z</time>
      </trkpt>
      <trkpt lat="49.54278" lon="0.65789">
        <ele>69</ele>
        <time>2012-02-19T09:25:47Z</time>
      </trkpt>
      <trkpt lat="49.5428" lon="0.65793">
        <ele>69</ele>
        <time>2012-02-19T09:25:52Z</time>
      </trkpt>
      <trkpt lat="49.54281" lon="0.65802">
        <ele>69</ele>
        <time>2012-02-19T09:25:58Z</time>
      </trkpt>
      <trkpt lat="49.54284" lon="0.65806">
        <ele>69</ele>
        <time>2012-02-19T09:26:04Z</time>
      </trkpt>
      <trkpt lat="49.54288" lon="0.65811">
        <ele>69</ele>
        <time>2012-02-19T09:26:10Z</time>
      </trkpt>
      <trkpt lat="49.54292" lon="0.65818">
        <ele>69</ele>
        <time>2012-02-19T09:26:16Z</time>
      </trkpt>
      <trkpt lat="49.54295" lon="0.65826">
        <ele>68</ele>
        <time>2012-02-19T09:26:21Z</time>
      </trkpt>
      <trkpt lat="49.543" lon="0.65834">
        <ele>72</ele>
        <time>2012-02-19T09:26:26Z</time>
      </trkpt>
      <trkpt lat="49.54304" lon="0.65841">
        <ele>72</ele>
        <time>2012-02-19T09:26:31Z</time>
      </trkpt>
      <trkpt lat="49.54309" lon="0.65849">
        <ele>71</ele>
        <time>2012-02-19T09:26:36Z</time>
      </trkpt>
      <trkpt lat="49.54313" lon="0.65857">
        <ele>72</ele>
        <time>2012-02-19T09:26:42Z</time>
      </trkpt>
      <trkpt lat="49.54317" lon="0.65864">
        <ele>72</ele>
        <time>2012-02-19T09:26:47Z</time>
      </trkpt>
      <trkpt lat="49.54323" lon="0.6587">
        <ele>72</ele>
        <time>2012-02-19T09:26:52Z</time>
      </trkpt>
      <trkpt lat="49.54328" lon="0.65878">
        <ele>72</ele>
        <time>2012-02-19T09:26:57Z</time>
      </trkpt>
      <trkpt lat="49.54335" lon="0.65882">
        <ele>62</ele>
        <time>2012-02-19T09:27:02Z</time>
      </trkpt>
      <trkpt lat="49.54339" lon="0.65889">
        <ele>63</ele>
        <time>2012-02-19T09:27:08Z</time>
      </trkpt>
      <trkpt lat="49.54343" lon="0.65895">
        <ele>64</ele>
        <time>2012-02-19T09:27:14Z</time>
      </trkpt>
      <trkpt lat="49.5435" lon="0.65901">
        <ele>63</ele>
        <time>2012-02-19T09:27:19Z</time>
      </trkpt>
      <trkpt lat="49.54355" lon="0.65908">
        <ele>63</ele>
        <time>2012-02-19T09:27:24Z</time>
      </trkpt>
      <trkpt lat="49.54359" lon="0.65915">
        <ele>63</ele>
        <time>2012-02-19T09:27:29Z</time>
      </trkpt>
      <trkpt lat="49.54364" lon="0.65922">
        <ele>66</ele>
        <time>2012-02-19T09:27:34Z</time>
      </trkpt>
      <trkpt lat="49.54368" lon="0.65929">
        <ele>66</ele>
        <time>2012-02-19T09:27:39Z</time>
      </trkpt>
      <trkpt lat="49.54372" lon="0.65937">
        <ele>66</ele>
        <time>2012-02-19T09:27:44Z</time>
      </trkpt>
      <trkpt lat="49.54375" lon="0.65943">
        <ele>65</ele>
        <time>2012-02-19T09:27:49Z</time>
      </trkpt>
      <trkpt lat="49.5438" lon="0.65947">
        <ele>65</ele>
        <time>2012-02-19T09:27:54Z</time>
      </trkpt>
      <trkpt lat="49.54384" lon="0.65956">
        <ele>65</ele>
        <time>2012-02-19T09:27:59Z</time>
      </trkpt>
      <trkpt lat="49.54388" lon="0.65965">
        <ele>65</ele>
        <time>2012-02-19T09:28:05Z</time>
      </trkpt>
      <trkpt lat="49.54393" lon="0.65972">
        <ele>64</ele>
        <time>2012-02-19T09:28:10Z</time>
      </trkpt>
      <trkpt lat="49.54397" lon="0.65981">
        <ele>64</ele>
        <time>2012-02-19T09:28:16Z</time>
      </trkpt>
      <trkpt lat="49.54401" lon="0.65988">
        <ele>63</ele>
        <time>2012-02-19T09:28:21Z</time>
      </trkpt>
      <trkpt lat="49.54404" lon="0.65995">
        <ele>62</ele>
        <time>2012-02-19T09:28:26Z</time>
      </trkpt>
      <trkpt lat="49.54408" lon="0.66001">
        <ele>63</ele>
        <time>2012-02-19T09:28:31Z</time>
      </trkpt>
      <trkpt lat="49.54412" lon="0.66006">
        <ele>62</ele>
        <time>2012-02-19T09:28:36Z</time>
      </trkpt>
      <trkpt lat="49.54416" lon="0.66011">
        <ele>63</ele>
        <time>2012-02-19T09:28:41Z</time>
      </trkpt>
      <trkpt lat="49.54421" lon="0.66018">
        <ele>57</ele>
        <time>2012-02-19T09:28:47Z</time>
      </trkpt>
      <trkpt lat="49.54426" lon="0.66026">
        <ele>56</ele>
        <time>2012-02-19T09:28:53Z</time>
      </trkpt>
      <trkpt lat="49.5443" lon="0.66033">
        <ele>56</ele>
        <time>2012-02-19T09:28:59Z</time>
      </trkpt>
      <trkpt lat="49.54435" lon="0.6604">
        <ele>56</ele>
        <time>2012-02-19T09:29:05Z</time>
      </trkpt>
      <trkpt lat="49.5444" lon="0.66046">
        <ele>56</ele>
        <time>2012-02-19T09:29:10Z</time>
      </trkpt>
      <trkpt lat="49.54446" lon="0.66051">
        <ele>56</ele>
        <time>2012-02-19T09:29:16Z</time>
      </trkpt>
      <trkpt lat="49.54451" lon="0.66055">
        <ele>55</ele>
        <time>2012-02-19T09:29:21Z</time>
      </trkpt>
      <trkpt lat="49.54458" lon="0.66058">
        <ele>55</ele>
        <time>2012-02-19T09:29:27Z</time>
      </trkpt>
      <trkpt lat="49.54464" lon="0.66059">
        <ele>54</ele>
        <time>2012-02-19T09:29:32Z</time>
      </trkpt>
      <trkpt lat="49.5447" lon="0.66061">
        <ele>54</ele>
        <time>2012-02-19T09:29:37Z</time>
      </trkpt>
      <trkpt lat="49.54475" lon="0.66063">
        <ele>53</ele>
        <time>2012-02-19T09:29:42Z</time>
      </trkpt>
      <trkpt lat="49.54481" lon="0.66064">
        <ele>53</ele>
        <time>2012-02-19T09:29:47Z</time>
      </trkpt>
      <trkpt lat="49.54487" lon="0.66066">
        <ele>52</ele>
        <time>2012-02-19T09:29:52Z</time>
      </trkpt>
      <trkpt lat="49.54493" lon="0.66069">
        <ele>51</ele>
        <time>2012-02-19T09:29:57Z</time>
      </trkpt>
      <trkpt lat="49.54499" lon="0.66071">
        <ele>51</ele>
        <time>2012-02-19T09:30:02Z</time>
      </trkpt>
      <trkpt lat="49.54504" lon="0.66074">
        <ele>50</ele>
        <time>2012-02-19T09:30:07Z</time>
      </trkpt>
      <trkpt lat="49.5451" lon="0.66076">
        <ele>51</ele>
        <time>2012-02-19T09:30:12Z</time>
      </trkpt>
      <trkpt lat="49.54515" lon="0.6608">
        <ele>51</ele>
        <time>2012-02-19T09:30:17Z</time>
      </trkpt>
      <trkpt lat="49.5452" lon="0.66083">
        <ele>52</ele>
        <time>2012-02-19T09:30:22Z</time>
      </trkpt>
      <trkpt lat="49.54526" lon="0.66086">
        <ele>52</ele>
        <time>2012-02-19T09:30:27Z</time>
      </trkpt>
      <trkpt lat="49.54532" lon="0.66089">
        <ele>53</ele>
        <time>2012-02-19T09:30:32Z</time>
      </trkpt>
      <trkpt lat="49.54539" lon="0.66092">
        <ele>54</ele>
        <time>2012-02-19T09:30:38Z</time>
      </trkpt>
      <trkpt lat="49.54544" lon="0.66094">
        <ele>54</ele>
        <time>2012-02-19T09:30:43Z</time>
      </trkpt>
      <trkpt lat="49.5455" lon="0.66097">
        <ele>55</ele>
        <time>2012-02-19T09:30:49Z</time>
      </trkpt>
      <trkpt lat="49.54554" lon="0.66096">
        <ele>55</ele>
        <time>2012-02-19T09:30:55Z</time>
      </trkpt>
      <trkpt lat="49.54559" lon="0.66098">
        <ele>56</ele>
        <time>2012-02-19T09:31:00Z</time>
      </trkpt>
      <trkpt lat="49.54559" lon="0.66105">
        <ele>55</ele>
        <time>2012-02-19T09:31:06Z</time>
      </trkpt>
      <trkpt lat="49.54556" lon="0.66107">
        <ele>55</ele>
        <time>2012-02-19T09:31:12Z</time>
      </trkpt>
      <trkpt lat="49.5456" lon="0.6611">
        <ele>55</ele>
        <time>2012-02-19T09:31:20Z</time>
      </trkpt>
      <trkpt lat="49.54562" lon="0.66118">
        <ele>55</ele>
        <time>2012-02-19T09:31:25Z</time>
      </trkpt>
      <trkpt lat="49.54564" lon="0.66126">
        <ele>56</ele>
        <time>2012-02-19T09:31:30Z</time>
      </trkpt>
      <trkpt lat="49.54567" lon="0.66132">
        <ele>56</ele>
        <time>2012-02-19T09:31:35Z</time>
      </trkpt>
      <trkpt lat="49.54567" lon="0.66141">
        <ele>56</ele>
        <time>2012-02-19T09:31:40Z</time>
      </trkpt>
      <trkpt lat="49.54567" lon="0.66151">
        <ele>57</ele>
        <time>2012-02-19T09:31:45Z</time>
      </trkpt>
      <trkpt lat="49.54568" lon="0.66161">
        <ele>58</ele>
        <time>2012-02-19T09:31:50Z</time>
      </trkpt>
      <trkpt lat="49.5457" lon="0.66174">
        <ele>59</ele>
        <time>2012-02-19T09:31:55Z</time>
      </trkpt>
      <trkpt lat="49.54571" lon="0.66185">
        <ele>59</ele>
        <time>2012-02-19T09:32:00Z</time>
      </trkpt>
      <trkpt lat="49.54572" lon="0.66193">
        <ele>58</ele>
        <time>2012-02-19T09:32:06Z</time>
      </trkpt>
      <trkpt lat="49.54572" lon="0.66202">
        <ele>59</ele>
        <time>2012-02-19T09:32:11Z</time>
      </trkpt>
      <trkpt lat="49.54567" lon="0.66211">
        <ele>59</ele>
        <time>2012-02-19T09:32:16Z</time>
      </trkpt>
      <trkpt lat="49.54566" lon="0.6622">
        <ele>59</ele>
        <time>2012-02-19T09:32:21Z</time>
      </trkpt>
      <trkpt lat="49.54566" lon="0.66229">
        <ele>60</ele>
        <time>2012-02-19T09:32:26Z</time>
      </trkpt>
      <trkpt lat="49.54566" lon="0.6624">
        <ele>61</ele>
        <time>2012-02-19T09:32:32Z</time>
      </trkpt>
      <trkpt lat="49.54558" lon="0.66248">
        <ele>60</ele>
        <time>2012-02-19T09:32:38Z</time>
      </trkpt>
      <trkpt lat="49.54554" lon="0.66258">
        <ele>60</ele>
        <time>2012-02-19T09:32:43Z</time>
      </trkpt>
      <trkpt lat="49.54552" lon="0.66267">
        <ele>60</ele>
        <time>2012-02-19T09:32:48Z</time>
      </trkpt>
      <trkpt lat="49.5455" lon="0.66277">
        <ele>60</ele>
        <time>2012-02-19T09:32:53Z</time>
      </trkpt>
      <trkpt lat="49.54548" lon="0.66286">
        <ele>59</ele>
        <time>2012-02-19T09:32:58Z</time>
      </trkpt>
      <trkpt lat="49.54546" lon="0.66294">
        <ele>59</ele>
        <time>2012-02-19T09:33:03Z</time>
      </trkpt>
      <trkpt lat="49.54544" lon="0.66302">
        <ele>59</ele>
        <time>2012-02-19T09:33:08Z</time>
      </trkpt>
      <trkpt lat="49.54544" lon="0.66314">
        <ele>59</ele>
        <time>2012-02-19T09:33:14Z</time>
      </trkpt>
      <trkpt lat="49.54545" lon="0.66327">
        <ele>59</ele>
        <time>2012-02-19T09:33:19Z</time>
      </trkpt>
      <trkpt lat="49.54543" lon="0.66335">
        <ele>59</ele>
        <time>2012-02-19T09:33:24Z</time>
      </trkpt>
      <trkpt lat="49.54539" lon="0.66342">
        <ele>59</ele>
        <time>2012-02-19T09:33:30Z</time>
      </trkpt>
      <trkpt lat="49.54537" lon="0.66351">
        <ele>58</ele>
        <time>2012-02-19T09:33:35Z</time>
      </trkpt>
      <trkpt lat="49.54536" lon="0.66363">
        <ele>58</ele>
        <time>2012-02-19T09:33:40Z</time>
      </trkpt>
      <trkpt lat="49.54536" lon="0.66372">
        <ele>58</ele>
        <time>2012-02-19T09:33:45Z</time>
      </trkpt>
      <trkpt lat="49.54537" lon="0.66382">
        <ele>58</ele>
        <time>2012-02-19T09:33:50Z</time>
      </trkpt>
      <trkpt lat="49.54538" lon="0.66393">
        <ele>58</ele>
        <time>2012-02-19T09:33:56Z</time>
      </trkpt>
      <trkpt lat="49.54538" lon="0.66399">
        <ele>58</ele>
        <time>2012-02-19T09:34:01Z</time>
      </trkpt>
      <trkpt lat="49.54537" lon="0.66408">
        <ele>58</ele>
        <time>2012-02-19T09:34:06Z</time>
      </trkpt>
      <trkpt lat="49.54538" lon="0.66415">
        <ele>58</ele>
        <time>2012-02-19T09:34:11Z</time>
      </trkpt>
      <trkpt lat="49.54538" lon="0.66424">
        <ele>55</ele>
        <time>2012-02-19T09:34:16Z</time>
      </trkpt>
      <trkpt lat="49.54539" lon="0.66433">
        <ele>54</ele>
        <time>2012-02-19T09:34:21Z</time>
      </trkpt>
      <trkpt lat="49.54541" lon="0.66444">
        <ele>54</ele>
        <time>2012-02-19T09:34:26Z</time>
      </trkpt>
      <trkpt lat="49.54542" lon="0.66451">
        <ele>54</ele>
        <time>2012-02-19T09:34:31Z</time>
      </trkpt>
      <trkpt lat="49.54546" lon="0.66462">
        <ele>53</ele>
        <time>2012-02-19T09:34:36Z</time>
      </trkpt>
      <trkpt lat="49.54549" lon="0.66473">
        <ele>52</ele>
        <time>2012-02-19T09:34:41Z</time>
      </trkpt>
      <trkpt lat="49.54553" lon="0.66481">
        <ele>52</ele>
        <time>2012-02-19T09:34:47Z</time>
      </trkpt>
      <trkpt lat="49.54559" lon="0.66486">
        <ele>52</ele>
        <time>2012-02-19T09:34:52Z</time>
      </trkpt>
      <trkpt lat="49.54562" lon="0.66494">
        <ele>51</ele>
        <time>2012-02-19T09:34:57Z</time>
      </trkpt>
      <trkpt lat="49.54567" lon="0.66503">
        <ele>48</ele>
        <time>2012-02-19T09:35:03Z</time>
      </trkpt>
      <trkpt lat="49.54573" lon="0.66511">
        <ele>48</ele>
        <time>2012-02-19T09:35:09Z</time>
      </trkpt>
      <trkpt lat="49.54577" lon="0.6652">
        <ele>47</ele>
        <time>2012-02-19T09:35:14Z</time>
      </trkpt>
      <trkpt lat="49.54581" lon="0.66527">
        <ele>47</ele>
        <time>2012-02-19T09:35:19Z</time>
      </trkpt>
      <trkpt lat="49.54586" lon="0.66538">
        <ele>46</ele>
        <time>2012-02-19T09:35:25Z</time>
      </trkpt>
      <trkpt lat="49.54591" lon="0.66548">
        <ele>46</ele>
        <time>2012-02-19T09:35:31Z</time>
      </trkpt>
      <trkpt lat="49.54596" lon="0.66554">
        <ele>45</ele>
        <time>2012-02-19T09:35:37Z</time>
      </trkpt>
      <trkpt lat="49.546" lon="0.66563">
        <ele>45</ele>
        <time>2012-02-19T09:35:42Z</time>
      </trkpt>
      <trkpt lat="49.54605" lon="0.66568">
        <ele>45</ele>
        <time>2012-02-19T09:35:47Z</time>
      </trkpt>
      <trkpt lat="49.5461" lon="0.66576">
        <ele>45</ele>
        <time>2012-02-19T09:35:52Z</time>
      </trkpt>
      <trkpt lat="49.54613" lon="0.66584">
        <ele>44</ele>
        <time>2012-02-19T09:35:57Z</time>
      </trkpt>
      <trkpt lat="49.54618" lon="0.6659">
        <ele>44</ele>
        <time>2012-02-19T09:36:02Z</time>
      </trkpt>
      <trkpt lat="49.54623" lon="0.66599">
        <ele>44</ele>
        <time>2012-02-19T09:36:07Z</time>
      </trkpt>
      <trkpt lat="49.54627" lon="0.66607">
        <ele>44</ele>
        <time>2012-02-19T09:36:13Z</time>
      </trkpt>
      <trkpt lat="49.54632" lon="0.66614">
        <ele>44</ele>
        <time>2012-02-19T09:36:19Z</time>
      </trkpt>
      <trkpt lat="49.54636" lon="0.66622">
        <ele>44</ele>
        <time>2012-02-19T09:36:24Z</time>
      </trkpt>
      <trkpt lat="49.54641" lon="0.6663">
        <ele>44</ele>
        <time>2012-02-19T09:36:30Z</time>
      </trkpt>
      <trkpt lat="49.54646" lon="0.66637">
        <ele>44</ele>
        <time>2012-02-19T09:36:36Z</time>
      </trkpt>
      <trkpt lat="49.54649" lon="0.66641">
        <ele>44</ele>
        <time>2012-02-19T09:36:42Z</time>
      </trkpt>
      <trkpt lat="49.5466" lon="0.66656">
        <ele>45</ele>
        <time>2012-02-19T09:36:50Z</time>
      </trkpt>
      <trkpt lat="49.54664" lon="0.66664">
        <ele>45</ele>
        <time>2012-02-19T09:36:56Z</time>
      </trkpt>
      <trkpt lat="49.54668" lon="0.66672">
        <ele>46</ele>
        <time>2012-02-19T09:37:02Z</time>
      </trkpt>
      <trkpt lat="49.54671" lon="0.66675">
        <ele>46</ele>
        <time>2012-02-19T09:37:07Z</time>
      </trkpt>
      <trkpt lat="49.54677" lon="0.66682">
        <ele>47</ele>
        <time>2012-02-19T09:37:13Z</time>
      </trkpt>
      <trkpt lat="49.5468" lon="0.66691">
        <ele>48</ele>
        <time>2012-02-19T09:37:19Z</time>
      </trkpt>
      <trkpt lat="49.54685" lon="0.66697">
        <ele>48</ele>
        <time>2012-02-19T09:37:24Z</time>
      </trkpt>
      <trkpt lat="49.54689" lon="0.66703">
        <ele>49</ele>
        <time>2012-02-19T09:37:29Z</time>
      </trkpt>
      <trkpt lat="49.54691" lon="0.66712">
        <ele>49</ele>
        <time>2012-02-19T09:37:35Z</time>
      </trkpt>
      <trkpt lat="49.54696" lon="0.6672">
        <ele>50</ele>
        <time>2012-02-19T09:37:41Z</time>
      </trkpt>
      <trkpt lat="49.54702" lon="0.66729">
        <ele>50</ele>
        <time>2012-02-19T09:37:47Z</time>
      </trkpt>
      <trkpt lat="49.54707" lon="0.66737">
        <ele>49</ele>
        <time>2012-02-19T09:37:53Z</time>
      </trkpt>
      <trkpt lat="49.54712" lon="0.66745">
        <ele>49</ele>
        <time>2012-02-19T09:37:58Z</time>
      </trkpt>
      <trkpt lat="49.54718" lon="0.66753">
        <ele>54</ele>
        <time>2012-02-19T09:38:04Z</time>
      </trkpt>
      <trkpt lat="49.54724" lon="0.6676">
        <ele>53</ele>
        <time>2012-02-19T09:38:10Z</time>
      </trkpt>
      <trkpt lat="49.54729" lon="0.66768">
        <ele>53</ele>
        <time>2012-02-19T09:38:16Z</time>
      </trkpt>
      <trkpt lat="49.54734" lon="0.66776">
        <ele>54</ele>
        <time>2012-02-19T09:38:21Z</time>
      </trkpt>
      <trkpt lat="49.54736" lon="0.66783">
        <ele>54</ele>
        <time>2012-02-19T09:38:26Z</time>
      </trkpt>
      <trkpt lat="49.54738" lon="0.6679">
        <ele>55</ele>
        <time>2012-02-19T09:38:31Z</time>
      </trkpt>
      <trkpt lat="49.54741" lon="0.66798">
        <ele>55</ele>
        <time>2012-02-19T09:38:36Z</time>
      </trkpt>
      <trkpt lat="49.54745" lon="0.6681">
        <ele>55</ele>
        <time>2012-02-19T09:38:42Z</time>
      </trkpt>
      <trkpt lat="49.54752" lon="0.66816">
        <ele>50</ele>
        <time>2012-02-19T09:38:48Z</time>
      </trkpt>
      <trkpt lat="49.54756" lon="0.66822">
        <ele>50</ele>
        <time>2012-02-19T09:38:53Z</time>
      </trkpt>
      <trkpt lat="49.5476" lon="0.66829">
        <ele>50</ele>
        <time>2012-02-19T09:38:58Z</time>
      </trkpt>
      <trkpt lat="49.54763" lon="0.66837">
        <ele>51</ele>
        <time>2012-02-19T09:39:03Z</time>
      </trkpt>
      <trkpt lat="49.54768" lon="0.66846">
        <ele>51</ele>
        <time>2012-02-19T09:39:09Z</time>
      </trkpt>
      <trkpt lat="49.54771" lon="0.66855">
        <ele>51</ele>
        <time>2012-02-19T09:39:14Z</time>
      </trkpt>
      <trkpt lat="49.54774" lon="0.66864">
        <ele>51</ele>
        <time>2012-02-19T09:39:20Z</time>
      </trkpt>
      <trkpt lat="49.54777" lon="0.66872">
        <ele>51</ele>
        <time>2012-02-19T09:39:25Z</time>
      </trkpt>
      <trkpt lat="49.5478" lon="0.66879">
        <ele>51</ele>
        <time>2012-02-19T09:39:30Z</time>
      </trkpt>
      <trkpt lat="49.54784" lon="0.66887">
        <ele>50</ele>
        <time>2012-02-19T09:39:35Z</time>
      </trkpt>
      <trkpt lat="49.5479" lon="0.66894">
        <ele>50</ele>
        <time>2012-02-19T09:39:40Z</time>
      </trkpt>
      <trkpt lat="49.54793" lon="0.66907">
        <ele>50</ele>
        <time>2012-02-19T09:39:45Z</time>
      </trkpt>
      <trkpt lat="49.54797" lon="0.66916">
        <ele>49</ele>
        <time>2012-02-19T09:39:51Z</time>
      </trkpt>
      <trkpt lat="49.54801" lon="0.66923">
        <ele>51</ele>
        <time>2012-02-19T09:39:56Z</time>
      </trkpt>
      <trkpt lat="49.54806" lon="0.66933">
        <ele>51</ele>
        <time>2012-02-19T09:40:02Z</time>
      </trkpt>
      <trkpt lat="49.54809" lon="0.66941">
        <ele>51</ele>
        <time>2012-02-19T09:40:07Z</time>
      </trkpt>
      <trkpt lat="49.54812" lon="0.66949">
        <ele>51</ele>
        <time>2012-02-19T09:40:12Z</time>
      </trkpt>
      <trkpt lat="49.54814" lon="0.66958">
        <ele>51</ele>
        <time>2012-02-19T09:40:17Z</time>
      </trkpt>
      <trkpt lat="49.54818" lon="0.66969">
        <ele>51</ele>
        <time>2012-02-19T09:40:23Z</time>
      </trkpt>
      <trkpt lat="49.54819" lon="0.66979">
        <ele>50</ele>
        <time>2012-02-19T09:40:28Z</time>
      </trkpt>
      <trkpt lat="49.54822" lon="0.66988">
        <ele>49</ele>
        <time>2012-02-19T09:40:33Z</time>
      </trkpt>
      <trkpt lat="49.54826" lon="0.66997">
        <ele>47</ele>
        <time>2012-02-19T09:40:38Z</time>
      </trkpt>
      <trkpt lat="49.54829" lon="0.67008">
        <ele>49</ele>
        <time>2012-02-19T09:40:44Z</time>
      </trkpt>
      <trkpt lat="49.54833" lon="0.67018">
        <ele>52</ele>
        <time>2012-02-19T09:40:50Z</time>
      </trkpt>
      <trkpt lat="49.54836" lon="0.6703">
        <ele>46</ele>
        <time>2012-02-19T09:40:55Z</time>
      </trkpt>
      <trkpt lat="49.54838" lon="0.67038">
        <ele>46</ele>
        <time>2012-02-19T09:41:00Z</time>
      </trkpt>
      <trkpt lat="49.54841" lon="0.67046">
        <ele>46</ele>
        <time>2012-02-19T09:41:06Z</time>
      </trkpt>
      <trkpt lat="49.54845" lon="0.67056">
        <ele>47</ele>
        <time>2012-02-19T09:41:11Z</time>
      </trkpt>
      <trkpt lat="49.54848" lon="0.67065">
        <ele>48</ele>
        <time>2012-02-19T09:41:16Z</time>
      </trkpt>
      <trkpt lat="49.54851" lon="0.67076">
        <ele>48</ele>
        <time>2012-02-19T09:41:22Z</time>
      </trkpt>
      <trkpt lat="49.54855" lon="0.67085">
        <ele>48</ele>
        <time>2012-02-19T09:41:28Z</time>
      </trkpt>
      <trkpt lat="49.54858" lon="0.67094">
        <ele>48</ele>
        <time>2012-02-19T09:41:33Z</time>
      </trkpt>
      <trkpt lat="49.54861" lon="0.67105">
        <ele>47</ele>
        <time>2012-02-19T09:41:39Z</time>
      </trkpt>
      <trkpt lat="49.54863" lon="0.67113">
        <ele>47</ele>
        <time>2012-02-19T09:41:44Z</time>
      </trkpt>
      <trkpt lat="49.54865" lon="0.67123">
        <ele>47</ele>
        <time>2012-02-19T09:41:49Z</time>
      </trkpt>
      <trkpt lat="49.54866" lon="0.67134">
        <ele>47</ele>
        <time>2012-02-19T09:41:54Z</time>
      </trkpt>
      <trkpt lat="49.54867" lon="0.67145">
        <ele>47</ele>
        <time>2012-02-19T09:41:59Z</time>
      </trkpt>
      <trkpt lat="49.54868" lon="0.67155">
        <ele>48</ele>
        <time>2012-02-19T09:42:04Z</time>
      </trkpt>
      <trkpt lat="49.54869" lon="0.67164">
        <ele>48</ele>
        <time>2012-02-19T09:42:09Z</time>
      </trkpt>
      <trkpt lat="49.54869" lon="0.67174">
        <ele>49</ele>
        <time>2012-02-19T09:42:14Z</time>
      </trkpt>
      <trkpt lat="49.5487" lon="0.67186">
        <ele>49</ele>
        <time>2012-02-19T09:42:19Z</time>
      </trkpt>
      <trkpt lat="49.54871" lon="0.67195">
        <ele>49</ele>
        <time>2012-02-19T09:42:24Z</time>
      </trkpt>
      <trkpt lat="49.54872" lon="0.67205">
        <ele>49</ele>
        <time>2012-02-19T09:42:29Z</time>
      </trkpt>
      <trkpt lat="49.54873" lon="0.67213">
        <ele>49</ele>
        <time>2012-02-19T09:42:34Z</time>
      </trkpt>
      <trkpt lat="49.54873" lon="0.67227">
        <ele>49</ele>
        <time>2012-02-19T09:42:41Z</time>
      </trkpt>
      <trkpt lat="49.54872" lon="0.67235">
        <ele>50</ele>
        <time>2012-02-19T09:42:46Z</time>
      </trkpt>
      <trkpt lat="49.54871" lon="0.67244">
        <ele>50</ele>
        <time>2012-02-19T09:42:51Z</time>
      </trkpt>
      <trkpt lat="49.54871" lon="0.67253">
        <ele>52</ele>
        <time>2012-02-19T09:42:56Z</time>
      </trkpt>
      <trkpt lat="49.54871" lon="0.6726">
        <ele>52</ele>
        <time>2012-02-19T09:43:01Z</time>
      </trkpt>
      <trkpt lat="49.54871" lon="0.67268">
        <ele>52</ele>
        <time>2012-02-19T09:43:07Z</time>
      </trkpt>
      <trkpt lat="49.54874" lon="0.67268">
        <ele>52</ele>
        <time>2012-02-19T09:43:12Z</time>
      </trkpt>
      <trkpt lat="49.54874" lon="0.67274">
        <ele>52</ele>
        <time>2012-02-19T09:43:18Z</time>
      </trkpt>
      <trkpt lat="49.54871" lon="0.67281">
        <ele>53</ele>
        <time>2012-02-19T09:43:26Z</time>
      </trkpt>
      <trkpt lat="49.54871" lon="0.67279">
        <ele>53</ele>
        <time>2012-02-19T09:43:31Z</time>
      </trkpt>
      <trkpt lat="49.54872" lon="0.67272">
        <ele>52</ele>
        <time>2012-02-19T09:43:40Z</time>
      </trkpt>
      <trkpt lat="49.54874" lon="0.67275">
        <ele>52</ele>
        <time>2012-02-19T09:43:47Z</time>
      </trkpt>
      <trkpt lat="49.54868" lon="0.6728">
        <ele>53</ele>
        <time>2012-02-19T09:43:52Z</time>
      </trkpt>
      <trkpt lat="49.54863" lon="0.67285">
        <ele>53</ele>
        <time>2012-02-19T09:43:57Z</time>
      </trkpt>
      <trkpt lat="49.54861" lon="0.67287">
        <ele>54</ele>
        <time>2012-02-19T09:44:02Z</time>
      </trkpt>
      <trkpt lat="49.54856" lon="0.67286">
        <ele>54</ele>
        <time>2012-02-19T09:44:09Z</time>
      </trkpt>
      <trkpt lat="49.54855" lon="0.67292">
        <ele>54</ele>
        <time>2012-02-19T09:44:17Z</time>
      </trkpt>
      <trkpt lat="49.54856" lon="0.67298">
        <ele>55</ele>
        <time>2012-02-19T09:44:23Z</time>
      </trkpt>
      <trkpt lat="49.54857" lon="0.67292">
        <ele>54</ele>
        <time>2012-02-19T09:44:30Z</time>
      </trkpt>
      <trkpt lat="49.54852" lon="0.67289">
        <ele>55</ele>
        <time>2012-02-19T09:44:35Z</time>
      </trkpt>
      <trkpt lat="49.54848" lon="0.6729">
        <ele>55</ele>
        <time>2012-02-19T09:44:40Z</time>
      </trkpt>
      <trkpt lat="49.54843" lon="0.67294">
        <ele>56</ele>
        <time>2012-02-19T09:44:45Z</time>
      </trkpt>
      <trkpt lat="49.54839" lon="0.67295">
        <ele>56</ele>
        <time>2012-02-19T09:44:50Z</time>
      </trkpt>
      <trkpt lat="49.54832" lon="0.67298">
        <ele>71</ele>
        <time>2012-02-19T09:44:55Z</time>
      </trkpt>
      <trkpt lat="49.54829" lon="0.67302">
        <ele>71</ele>
        <time>2012-02-19T09:45:00Z</time>
      </trkpt>
      <trkpt lat="49.54823" lon="0.67305">
        <ele>71</ele>
        <time>2012-02-19T09:45:06Z</time>
      </trkpt>
      <trkpt lat="49.54819" lon="0.67308">
        <ele>72</ele>
        <time>2012-02-19T09:45:12Z</time>
      </trkpt>
      <trkpt lat="49.54815" lon="0.67308">
        <ele>72</ele>
        <time>2012-02-19T09:45:18Z</time>
      </trkpt>
      <trkpt lat="49.54812" lon="0.67311">
        <ele>73</ele>
        <time>2012-02-19T09:45:25Z</time>
      </trkpt>
      <trkpt lat="49.54808" lon="0.67313">
        <ele>73</ele>
        <time>2012-02-19T09:45:30Z</time>
      </trkpt>
      <trkpt lat="49.54808" lon="0.67317">
        <ele>73</ele>
        <time>2012-02-19T09:45:36Z</time>
      </trkpt>
      <trkpt lat="49.54806" lon="0.67315">
        <ele>74</ele>
        <time>2012-02-19T09:45:42Z</time>
      </trkpt>
      <trkpt lat="49.54802" lon="0.67316">
        <ele>74</ele>
        <time>2012-02-19T09:45:48Z</time>
      </trkpt>
      <trkpt lat="49.548" lon="0.67316">
        <ele>75</ele>
        <time>2012-02-19T09:45:53Z</time>
      </trkpt>
      <trkpt lat="49.54794" lon="0.67321">
        <ele>76</ele>
        <time>2012-02-19T09:45:59Z</time>
      </trkpt>
      <trkpt lat="49.54789" lon="0.67321">
        <ele>77</ele>
        <time>2012-02-19T09:46:12Z</time>
      </trkpt>
      <trkpt lat="49.54779" lon="0.67321">
        <ele>80</ele>
        <time>2012-02-19T09:46:20Z</time>
      </trkpt>
      <trkpt lat="49.54775" lon="0.67324">
        <ele>81</ele>
        <time>2012-02-19T09:46:27Z</time>
      </trkpt>
      <trkpt lat="49.54771" lon="0.67325">
        <ele>82</ele>
        <time>2012-02-19T09:46:33Z</time>
      </trkpt>
      <trkpt lat="49.54766" lon="0.67329">
        <ele>84</ele>
        <time>2012-02-19T09:46:39Z</time>
      </trkpt>
      <trkpt lat="49.54762" lon="0.67333">
        <ele>86</ele>
        <time>2012-02-19T09:46:46Z</time>
      </trkpt>
      <trkpt lat="49.54755" lon="0.67336">
        <ele>88</ele>
        <time>2012-02-19T09:46:51Z</time>
      </trkpt>
      <trkpt lat="49.54751" lon="0.67339">
        <ele>88</ele>
        <time>2012-02-19T09:46:56Z</time>
      </trkpt>
      <trkpt lat="49.54747" lon="0.67343">
        <ele>94</ele>
        <time>2012-02-19T09:47:01Z</time>
      </trkpt>
      <trkpt lat="49.54742" lon="0.67344">
        <ele>94</ele>
        <time>2012-02-19T09:47:07Z</time>
      </trkpt>
      <trkpt lat="49.54736" lon="0.67345">
        <ele>95</ele>
        <time>2012-02-19T09:47:14Z</time>
      </trkpt>
      <trkpt lat="49.54732" lon="0.67347">
        <ele>96</ele>
        <time>2012-02-19T09:47:19Z</time>
      </trkpt>
      <trkpt lat="49.54729" lon="0.67342">
        <ele>96</ele>
        <time>2012-02-19T09:47:25Z</time>
      </trkpt>
      <trkpt lat="49.54726" lon="0.67342">
        <ele>97</ele>
        <time>2012-02-19T09:47:30Z</time>
      </trkpt>
      <trkpt lat="49.54722" lon="0.67343">
        <ele>97</ele>
        <time>2012-02-19T09:47:36Z</time>
      </trkpt>
      <trkpt lat="49.54723" lon="0.67342">
        <ele>97</ele>
        <time>2012-02-19T09:47:44Z</time>
      </trkpt>
      <trkpt lat="49.54726" lon="0.67341">
        <ele>97</ele>
        <time>2012-02-19T09:47:54Z</time>
      </trkpt>
      <trkpt lat="49.54722" lon="0.67344">
        <ele>97</ele>
        <time>2012-02-19T09:48:01Z</time>
      </trkpt>
      <trkpt lat="49.54724" lon="0.67342">
        <ele>97</ele>
        <time>2012-02-19T09:48:06Z</time>
      </trkpt>
      <trkpt lat="49.54727" lon="0.67339">
        <ele>96</ele>
        <time>2012-02-19T09:48:11Z</time>
      </trkpt>
      <trkpt lat="49.54729" lon="0.67344">
        <ele>96</ele>
        <time>2012-02-19T09:48:23Z</time>
      </trkpt>
      <trkpt lat="49.54732" lon="0.67347">
        <ele>96</ele>
        <time>2012-02-19T09:48:28Z</time>
      </trkpt>
      <trkpt lat="49.54731" lon="0.67356">
        <ele>96</ele>
        <time>2012-02-19T09:48:34Z</time>
      </trkpt>
      <trkpt lat="49.54732" lon="0.67363">
        <ele>96</ele>
        <time>2012-02-19T09:48:41Z</time>
      </trkpt>
      <trkpt lat="49.54732" lon="0.6737">
        <ele>97</ele>
        <time>2012-02-19T09:48:46Z</time>
      </trkpt>
      <trkpt lat="49.54731" lon="0.67376">
        <ele>97</ele>
        <time>2012-02-19T09:48:51Z</time>
      </trkpt>
      <trkpt lat="49.54729" lon="0.67385">
        <ele>96</ele>
        <time>2012-02-19T09:48:57Z</time>
      </trkpt>
      <trkpt lat="49.54729" lon="0.67392">
        <ele>96</ele>
        <time>2012-02-19T09:49:02Z</time>
      </trkpt>
      <trkpt lat="49.54731" lon="0.674">
        <ele>95</ele>
        <time>2012-02-19T09:49:07Z</time>
      </trkpt>
      <trkpt lat="49.54733" lon="0.67408">
        <ele>94</ele>
        <time>2012-02-19T09:49:12Z</time>
      </trkpt>
      <trkpt lat="49.54736" lon="0.67411">
        <ele>94</ele>
        <time>2012-02-19T09:49:17Z</time>
      </trkpt>
      <trkpt lat="49.54736" lon="0.67417">
        <ele>92</ele>
        <time>2012-02-19T09:49:22Z</time>
      </trkpt>
      <trkpt lat="49.54737" lon="0.67425">
        <ele>92</ele>
        <time>2012-02-19T09:49:27Z</time>
      </trkpt>
      <trkpt lat="49.54737" lon="0.67433">
        <ele>93</ele>
        <time>2012-02-19T09:49:33Z</time>
      </trkpt>
      <trkpt lat="49.54737" lon="0.67441">
        <ele>93</ele>
        <time>2012-02-19T09:49:39Z</time>
      </trkpt>
      <trkpt lat="49.54738" lon="0.6745">
        <ele>93</ele>
        <time>2012-02-19T09:49:44Z</time>
      </trkpt>
      <trkpt lat="49.5474" lon="0.67459">
        <ele>93</ele>
        <time>2012-02-19T09:49:49Z</time>
      </trkpt>
      <trkpt lat="49.5474" lon="0.67469">
        <ele>93</ele>
        <time>2012-02-19T09:49:54Z</time>
      </trkpt>
      <trkpt lat="49.5474" lon="0.67476">
        <ele>92</ele>
        <time>2012-02-19T09:49:59Z</time>
      </trkpt>
      <trkpt lat="49.54741" lon="0.67484">
        <ele>92</ele>
        <time>2012-02-19T09:50:04Z</time>
      </trkpt>
      <trkpt lat="49.54741" lon="0.67493">
        <ele>91</ele>
        <time>2012-02-19T09:50:09Z</time>
      </trkpt>
      <trkpt lat="49.54744" lon="0.675">
        <ele>89</ele>
        <time>2012-02-19T09:50:14Z</time>
      </trkpt>
      <trkpt lat="49.54749" lon="0.67507">
        <ele>89</ele>
        <time>2012-02-19T09:50:20Z</time>
      </trkpt>
      <trkpt lat="49.54752" lon="0.67514">
        <ele>84</ele>
        <time>2012-02-19T09:50:25Z</time>
      </trkpt>
      <trkpt lat="49.54758" lon="0.67519">
        <ele>83</ele>
        <time>2012-02-19T09:50:30Z</time>
      </trkpt>
      <trkpt lat="49.54763" lon="0.67523">
        <ele>82</ele>
        <time>2012-02-19T09:50:35Z</time>
      </trkpt>
      <trkpt lat="49.54768" lon="0.6753">
        <ele>81</ele>
        <time>2012-02-19T09:50:40Z</time>
      </trkpt>
      <trkpt lat="49.54772" lon="0.67536">
        <ele>81</ele>
        <time>2012-02-19T09:50:45Z</time>
      </trkpt>
      <trkpt lat="49.54777" lon="0.67542">
        <ele>80</ele>
        <time>2012-02-19T09:50:50Z</time>
      </trkpt>
      <trkpt lat="49.54781" lon="0.6755">
        <ele>80</ele>
        <time>2012-02-19T09:50:55Z</time>
      </trkpt>
      <trkpt lat="49.54787" lon="0.67557">
        <ele>79</ele>
        <time>2012-02-19T09:51:01Z</time>
      </trkpt>
      <trkpt lat="49.5479" lon="0.67564">
        <ele>79</ele>
        <time>2012-02-19T09:51:06Z</time>
      </trkpt>
      <trkpt lat="49.54795" lon="0.67572">
        <ele>79</ele>
        <time>2012-02-19T09:51:12Z</time>
      </trkpt>
      <trkpt lat="49.54799" lon="0.67577">
        <ele>78</ele>
        <time>2012-02-19T09:51:17Z</time>
      </trkpt>
      <trkpt lat="49.54805" lon="0.67583">
        <ele>78</ele>
        <time>2012-02-19T09:51:22Z</time>
      </trkpt>
      <trkpt lat="49.5481" lon="0.67579">
        <ele>77</ele>
        <time>2012-02-19T09:51:27Z</time>
      </trkpt>
      <trkpt lat="49.54817" lon="0.67576">
        <ele>77</ele>
        <time>2012-02-19T09:51:32Z</time>
      </trkpt>
      <trkpt lat="49.5482" lon="0.6757">
        <ele>76</ele>
        <time>2012-02-19T09:51:38Z</time>
      </trkpt>
      <trkpt lat="49.54821" lon="0.6756">
        <ele>77</ele>
        <time>2012-02-19T09:51:43Z</time>
      </trkpt>
      <trkpt lat="49.54823" lon="0.67551">
        <ele>77</ele>
        <time>2012-02-19T09:51:48Z</time>
      </trkpt>
      <trkpt lat="49.54824" lon="0.67542">
        <ele>77</ele>
        <time>2012-02-19T09:51:53Z</time>
      </trkpt>
      <trkpt lat="49.54826" lon="0.67532">
        <ele>76</ele>
        <time>2012-02-19T09:51:59Z</time>
      </trkpt>
      <trkpt lat="49.54829" lon="0.67526">
        <ele>76</ele>
        <time>2012-02-19T09:52:05Z</time>
      </trkpt>
      <trkpt lat="49.5483" lon="0.67523">
        <ele>75</ele>
        <time>2012-02-19T09:52:10Z</time>
      </trkpt>
      <trkpt lat="49.54831" lon="0.67517">
        <ele>74</ele>
        <time>2012-02-19T09:52:19Z</time>
      </trkpt>
      <trkpt lat="49.54832" lon="0.67511">
        <ele>73</ele>
        <time>2012-02-19T09:52:25Z</time>
      </trkpt>
      <trkpt lat="49.54836" lon="0.6751">
        <ele>67</ele>
        <time>2012-02-19T09:52:30Z</time>
      </trkpt>
      <trkpt lat="49.54839" lon="0.67513">
        <ele>66</ele>
        <time>2012-02-19T09:52:37Z</time>
      </trkpt>
      <trkpt lat="49.54842" lon="0.67514">
        <ele>66</ele>
        <time>2012-02-19T09:52:42Z</time>
      </trkpt>
      <trkpt lat="49.54844" lon="0.67518">
        <ele>65</ele>
        <time>2012-02-19T09:52:48Z</time>
      </trkpt>
      <trkpt lat="49.54848" lon="0.67522">
        <ele>64</ele>
        <time>2012-02-19T09:52:53Z</time>
      </trkpt>
      <trkpt lat="49.54852" lon="0.67523">
        <ele>64</ele>
        <time>2012-02-19T09:52:58Z</time>
      </trkpt>
      <trkpt lat="49.54855" lon="0.67528">
        <ele>63</ele>
        <time>2012-02-19T09:53:04Z</time>
      </trkpt>
      <trkpt lat="49.54859" lon="0.67534">
        <ele>63</ele>
        <time>2012-02-19T09:53:10Z</time>
      </trkpt>
      <trkpt lat="49.54863" lon="0.67539">
        <ele>62</ele>
        <time>2012-02-19T09:53:15Z</time>
      </trkpt>
      <trkpt lat="49.54866" lon="0.67545">
        <ele>62</ele>
        <time>2012-02-19T09:53:20Z</time>
      </trkpt>
      <trkpt lat="49.54869" lon="0.6755">
        <ele>62</ele>
        <time>2012-02-19T09:53:25Z</time>
      </trkpt>
      <trkpt lat="49.54874" lon="0.67554">
        <ele>61</ele>
        <time>2012-02-19T09:53:30Z</time>
      </trkpt>
      <trkpt lat="49.54879" lon="0.67558">
        <ele>61</ele>
        <time>2012-02-19T09:53:36Z</time>
      </trkpt>
      <trkpt lat="49.54884" lon="0.67563">
        <ele>60</ele>
        <time>2012-02-19T09:53:42Z</time>
      </trkpt>
      <trkpt lat="49.54888" lon="0.67571">
        <ele>59</ele>
        <time>2012-02-19T09:53:47Z</time>
      </trkpt>
      <trkpt lat="49.54892" lon="0.67579">
        <ele>58</ele>
        <time>2012-02-19T09:53:53Z</time>
      </trkpt>
      <trkpt lat="49.54893" lon="0.67587">
        <ele>60</ele>
        <time>2012-02-19T09:53:58Z</time>
      </trkpt>
      <trkpt lat="49.54896" lon="0.67594">
        <ele>60</ele>
        <time>2012-02-19T09:54:04Z</time>
      </trkpt>
      <trkpt lat="49.54898" lon="0.67602">
        <ele>60</ele>
        <time>2012-02-19T09:54:09Z</time>
      </trkpt>
      <trkpt lat="49.54901" lon="0.67611">
        <ele>60</ele>
        <time>2012-02-19T09:54:15Z</time>
      </trkpt>
      <trkpt lat="49.54906" lon="0.67618">
        <ele>60</ele>
        <time>2012-02-19T09:54:20Z</time>
      </trkpt>
      <trkpt lat="49.5491" lon="0.67625">
        <ele>60</ele>
        <time>2012-02-19T09:54:26Z</time>
      </trkpt>
      <trkpt lat="49.54913" lon="0.67634">
        <ele>60</ele>
        <time>2012-02-19T09:54:32Z</time>
      </trkpt>
      <trkpt lat="49.54918" lon="0.6764">
        <ele>52</ele>
        <time>2012-02-19T09:54:37Z</time>
      </trkpt>
      <trkpt lat="49.54919" lon="0.67652">
        <ele>53</ele>
        <time>2012-02-19T09:54:42Z</time>
      </trkpt>
      <trkpt lat="49.54922" lon="0.67659">
        <ele>53</ele>
        <time>2012-02-19T09:54:47Z</time>
      </trkpt>
      <trkpt lat="49.54924" lon="0.67671">
        <ele>54</ele>
        <time>2012-02-19T09:54:52Z</time>
      </trkpt>
      <trkpt lat="49.54926" lon="0.67679">
        <ele>53</ele>
        <time>2012-02-19T09:54:57Z</time>
      </trkpt>
      <trkpt lat="49.54928" lon="0.67686">
        <ele>52</ele>
        <time>2012-02-19T09:55:02Z</time>
      </trkpt>
      <trkpt lat="49.5493" lon="0.67695">
        <ele>52</ele>
        <time>2012-02-19T09:55:07Z</time>
      </trkpt>
      <trkpt lat="49.54932" lon="0.67703">
        <ele>51</ele>
        <time>2012-02-19T09:55:12Z</time>
      </trkpt>
      <trkpt lat="49.54934" lon="0.67713">
        <ele>51</ele>
        <time>2012-02-19T09:55:17Z</time>
      </trkpt>
      <trkpt lat="49.54935" lon="0.67721">
        <ele>51</ele>
        <time>2012-02-19T09:55:22Z</time>
      </trkpt>
      <trkpt lat="49.54938" lon="0.67731">
        <ele>51</ele>
        <time>2012-02-19T09:55:28Z</time>
      </trkpt>
      <trkpt lat="49.54939" lon="0.67739">
        <ele>52</ele>
        <time>2012-02-19T09:55:33Z</time>
      </trkpt>
      <trkpt lat="49.54941" lon="0.67747">
        <ele>52</ele>
        <time>2012-02-19T09:55:40Z</time>
      </trkpt>
      <trkpt lat="49.54944" lon="0.67756">
        <ele>50</ele>
        <time>2012-02-19T09:55:46Z</time>
      </trkpt>
      <trkpt lat="49.54946" lon="0.67762">
        <ele>50</ele>
        <time>2012-02-19T09:55:52Z</time>
      </trkpt>
      <trkpt lat="49.54947" lon="0.67767">
        <ele>50</ele>
        <time>2012-02-19T09:55:57Z</time>
      </trkpt>
      <trkpt lat="49.5495" lon="0.67773">
        <ele>49</ele>
        <time>2012-02-19T09:56:02Z</time>
      </trkpt>
      <trkpt lat="49.54948" lon="0.67783">
        <ele>49</ele>
        <time>2012-02-19T09:56:07Z</time>
      </trkpt>
      <trkpt lat="49.54946" lon="0.6779">
        <ele>49</ele>
        <time>2012-02-19T09:56:12Z</time>
      </trkpt>
      <trkpt lat="49.54945" lon="0.67799">
        <ele>49</ele>
        <time>2012-02-19T09:56:18Z</time>
      </trkpt>
      <trkpt lat="49.54944" lon="0.67808">
        <ele>49</ele>
        <time>2012-02-19T09:56:23Z</time>
      </trkpt>
      <trkpt lat="49.54943" lon="0.67817">
        <ele>49</ele>
        <time>2012-02-19T09:56:29Z</time>
      </trkpt>
      <trkpt lat="49.5494" lon="0.67827">
        <ele>49</ele>
        <time>2012-02-19T09:56:34Z</time>
      </trkpt>
      <trkpt lat="49.54938" lon="0.67833">
        <ele>49</ele>
        <time>2012-02-19T09:56:39Z</time>
      </trkpt>
      <trkpt lat="49.54935" lon="0.6784">
        <ele>48</ele>
        <time>2012-02-19T09:56:44Z</time>
      </trkpt>
      <trkpt lat="49.54934" lon="0.67849">
        <ele>47</ele>
        <time>2012-02-19T09:56:50Z</time>
      </trkpt>
      <trkpt lat="49.5493" lon="0.67856">
        <ele>47</ele>
        <time>2012-02-19T09:56:56Z</time>
      </trkpt>
      <trkpt lat="49.54929" lon="0.67866">
        <ele>47</ele>
        <time>2012-02-19T09:57:01Z</time>
      </trkpt>
      <trkpt lat="49.54925" lon="0.67873">
        <ele>46</ele>
        <time>2012-02-19T09:57:07Z</time>
      </trkpt>
      <trkpt lat="49.54924" lon="0.67881">
        <ele>46</ele>
        <time>2012-02-19T09:57:12Z</time>
      </trkpt>
      <trkpt lat="49.54919" lon="0.67889">
        <ele>46</ele>
        <time>2012-02-19T09:57:17Z</time>
      </trkpt>
      <trkpt lat="49.54916" lon="0.67897">
        <ele>49</ele>
        <time>2012-02-19T09:57:22Z</time>
      </trkpt>
      <trkpt lat="49.54913" lon="0.67905">
        <ele>48</ele>
        <time>2012-02-19T09:57:27Z</time>
      </trkpt>
      <trkpt lat="49.54912" lon="0.67911">
        <ele>46</ele>
        <time>2012-02-19T09:57:32Z</time>
      </trkpt>
      <trkpt lat="49.54911" lon="0.67918">
        <ele>45</ele>
        <time>2012-02-19T09:57:38Z</time>
      </trkpt>
      <trkpt lat="49.54908" lon="0.67929">
        <ele>46</ele>
        <time>2012-02-19T09:57:44Z</time>
      </trkpt>
      <trkpt lat="49.54909" lon="0.67937">
        <ele>46</ele>
        <time>2012-02-19T09:57:49Z</time>
      </trkpt>
      <trkpt lat="49.54909" lon="0.67946">
        <ele>46</ele>
        <time>2012-02-19T09:57:55Z</time>
      </trkpt>
      <trkpt lat="49.54907" lon="0.67956">
        <ele>46</ele>
        <time>2012-02-19T09:58:00Z</time>
      </trkpt>
      <trkpt lat="49.54905" lon="0.67966">
        <ele>46</ele>
        <time>2012-02-19T09:58:06Z</time>
      </trkpt>
      <trkpt lat="49.549" lon="0.67968">
        <ele>46</ele>
        <time>2012-02-19T09:58:12Z</time>
      </trkpt>
      <trkpt lat="49.54894" lon="0.67979">
        <ele>46</ele>
        <time>2012-02-19T09:58:18Z</time>
      </trkpt>
      <trkpt lat="49.54891" lon="0.67983">
        <ele>46</ele>
        <time>2012-02-19T09:58:25Z</time>
      </trkpt>
      <trkpt lat="49.54886" lon="0.67987">
        <ele>46</ele>
        <time>2012-02-19T09:58:31Z</time>
      </trkpt>
      <trkpt lat="49.54881" lon="0.67994">
        <ele>47</ele>
        <time>2012-02-19T09:58:37Z</time>
      </trkpt>
      <trkpt lat="49.54877" lon="0.67993">
        <ele>47</ele>
        <time>2012-02-19T09:58:42Z</time>
      </trkpt>
      <trkpt lat="49.54871" lon="0.67997">
        <ele>47</ele>
        <time>2012-02-19T09:58:48Z</time>
      </trkpt>
      <trkpt lat="49.54866" lon="0.68001">
        <ele>46</ele>
        <time>2012-02-19T09:58:54Z</time>
      </trkpt>
      <trkpt lat="49.5486" lon="0.68005">
        <ele>46</ele>
        <time>2012-02-19T09:59:00Z</time>
      </trkpt>
      <trkpt lat="49.54857" lon="0.68005">
        <ele>47</ele>
        <time>2012-02-19T09:59:06Z</time>
      </trkpt>
      <trkpt lat="49.54853" lon="0.68008">
        <ele>47</ele>
        <time>2012-02-19T09:59:12Z</time>
      </trkpt>
      <trkpt lat="49.54849" lon="0.68009">
        <ele>47</ele>
        <time>2012-02-19T09:59:19Z</time>
      </trkpt>
      <trkpt lat="49.54849" lon="0.68005">
        <ele>48</ele>
        <time>2012-02-19T09:59:24Z</time>
      </trkpt>
      <trkpt lat="49.5485" lon="0.68">
        <ele>48</ele>
        <time>2012-02-19T09:59:30Z</time>
      </trkpt>
      <trkpt lat="49.54853" lon="0.68">
        <ele>47</ele>
        <time>2012-02-19T09:59:38Z</time>
      </trkpt>
      <trkpt lat="49.5485" lon="0.67995">
        <ele>49</ele>
        <time>2012-02-19T09:59:43Z</time>
      </trkpt>
      <trkpt lat="49.54848" lon="0.68003">
        <ele>48</ele>
        <time>2012-02-19T09:59:49Z</time>
      </trkpt>
      <trkpt lat="49.54819" lon="0.67979">
        <ele>56</ele>
        <time>2012-02-19T09:59:54Z</time>
      </trkpt>
      <trkpt lat="49.54818" lon="0.67982">
        <ele>56</ele>
        <time>2012-02-19T10:00:02Z</time>
      </trkpt>
      <trkpt lat="49.54819" lon="0.67987">
        <ele>56</ele>
        <time>2012-02-19T10:00:09Z</time>
      </trkpt>
      <trkpt lat="49.54824" lon="0.67983">
        <ele>55</ele>
        <time>2012-02-19T10:00:19Z</time>
      </trkpt>
      <trkpt lat="49.54819" lon="0.67984">
        <ele>56</ele>
        <time>2012-02-19T10:00:28Z</time>
      </trkpt>
      <trkpt lat="49.54817" lon="0.67979">
        <ele>57</ele>
        <time>2012-02-19T10:00:33Z</time>
      </trkpt>
      <trkpt lat="49.54819" lon="0.67975">
        <ele>57</ele>
        <time>2012-02-19T10:00:39Z</time>
      </trkpt>
      <trkpt lat="49.54822" lon="0.67972">
        <ele>57</ele>
        <time>2012-02-19T10:00:44Z</time>
      </trkpt>
      <trkpt lat="49.54821" lon="0.67969">
        <ele>57</ele>
        <time>2012-02-19T10:00:52Z</time>
      </trkpt>
      <trkpt lat="49.5482" lon="0.67977">
        <ele>57</ele>
        <time>2012-02-19T10:01:01Z</time>
      </trkpt>
      <trkpt lat="49.54823" lon="0.67977">
        <ele>56</ele>
        <time>2012-02-19T10:01:08Z</time>
      </trkpt>
      <trkpt lat="49.54822" lon="0.6798">
        <ele>56</ele>
        <time>2012-02-19T10:01:14Z</time>
      </trkpt>
      <trkpt lat="49.54821" lon="0.67987">
        <ele>55</ele>
        <time>2012-02-19T10:01:19Z</time>
      </trkpt>
      <trkpt lat="49.5482" lon="0.6799">
        <ele>55</ele>
        <time>2012-02-19T10:01:24Z</time>
      </trkpt>
      <trkpt lat="49.54824" lon="0.67991">
        <ele>54</ele>
        <time>2012-02-19T10:01:29Z</time>
      </trkpt>
      <trkpt lat="49.54824" lon="0.67997">
        <ele>53</ele>
        <time>2012-02-19T10:01:34Z</time>
      </trkpt>
      <trkpt lat="49.54821" lon="0.67995">
        <ele>54</ele>
        <time>2012-02-19T10:01:41Z</time>
      </trkpt>
      <trkpt lat="49.54818" lon="0.67997">
        <ele>55</ele>
        <time>2012-02-19T10:01:47Z</time>
      </trkpt>
      <trkpt lat="49.54815" lon="0.6799">
        <ele>56</ele>
        <time>2012-02-19T10:01:56Z</time>
      </trkpt>
      <trkpt lat="49.54816" lon="0.67984">
        <ele>56</ele>
        <time>2012-02-19T10:02:03Z</time>
      </trkpt>
      <trkpt lat="49.54817" lon="0.67987">
        <ele>56</ele>
        <time>2012-02-19T10:02:09Z</time>
      </trkpt>
      <trkpt lat="49.5481" lon="0.67984">
        <ele>57</ele>
        <time>2012-02-19T10:02:14Z</time>
      </trkpt>
      <trkpt lat="49.54808" lon="0.67984">
        <ele>57</ele>
        <time>2012-02-19T10:02:19Z</time>
      </trkpt>
      <trkpt lat="49.54807" lon="0.67975">
        <ele>58</ele>
        <time>2012-02-19T10:02:24Z</time>
      </trkpt>
      <trkpt lat="49.54807" lon="0.67963">
        <ele>59</ele>
        <time>2012-02-19T10:02:30Z</time>
      </trkpt>
      <trkpt lat="49.54804" lon="0.67955">
        <ele>59</ele>
        <time>2012-02-19T10:02:36Z</time>
      </trkpt>
      <trkpt lat="49.54802" lon="0.6795">
        <ele>59</ele>
        <time>2012-02-19T10:02:41Z</time>
      </trkpt>
      <trkpt lat="49.548" lon="0.67942">
        <ele>59</ele>
        <time>2012-02-19T10:02:48Z</time>
      </trkpt>
      <trkpt lat="49.548" lon="0.67935">
        <ele>59</ele>
        <time>2012-02-19T10:02:54Z</time>
      </trkpt>
      <trkpt lat="49.54799" lon="0.67931">
        <ele>60</ele>
        <time>2012-02-19T10:03:00Z</time>
      </trkpt>
      <trkpt lat="49.54795" lon="0.67925">
        <ele>60</ele>
        <time>2012-02-19T10:03:05Z</time>
      </trkpt>
      <trkpt lat="49.54792" lon="0.6792">
        <ele>60</ele>
        <time>2012-02-19T10:03:10Z</time>
      </trkpt>
      <trkpt lat="49.54788" lon="0.67912">
        <ele>63</ele>
        <time>2012-02-19T10:03:15Z</time>
      </trkpt>
      <trkpt lat="49.54783" lon="0.67905">
        <ele>64</ele>
        <time>2012-02-19T10:03:21Z</time>
      </trkpt>
      <trkpt lat="49.54781" lon="0.679">
        <ele>64</ele>
        <time>2012-02-19T10:03:29Z</time>
      </trkpt>
      <trkpt lat="49.54778" lon="0.67893">
        <ele>64</ele>
        <time>2012-02-19T10:03:35Z</time>
      </trkpt>
      <trkpt lat="49.54772" lon="0.67886">
        <ele>64</ele>
        <time>2012-02-19T10:03:40Z</time>
      </trkpt>
      <trkpt lat="49.54767" lon="0.67879">
        <ele>65</ele>
        <time>2012-02-19T10:03:45Z</time>
      </trkpt>
      <trkpt lat="49.54762" lon="0.67873">
        <ele>65</ele>
        <time>2012-02-19T10:03:51Z</time>
      </trkpt>
      <trkpt lat="49.54758" lon="0.67867">
        <ele>65</ele>
        <time>2012-02-19T10:03:56Z</time>
      </trkpt>
      <trkpt lat="49.5475" lon="0.67863">
        <ele>70</ele>
        <time>2012-02-19T10:04:02Z</time>
      </trkpt>
      <trkpt lat="49.54745" lon="0.67856">
        <ele>70</ele>
        <time>2012-02-19T10:04:08Z</time>
      </trkpt>
      <trkpt lat="49.54742" lon="0.67852">
        <ele>70</ele>
        <time>2012-02-19T10:04:13Z</time>
      </trkpt>
      <trkpt lat="49.54737" lon="0.67846">
        <ele>70</ele>
        <time>2012-02-19T10:04:18Z</time>
      </trkpt>
      <trkpt lat="49.54731" lon="0.67844">
        <ele>70</ele>
        <time>2012-02-19T10:04:23Z</time>
      </trkpt>
      <trkpt lat="49.54728" lon="0.67837">
        <ele>71</ele>
        <time>2012-02-19T10:04:28Z</time>
      </trkpt>
      <trkpt lat="49.54726" lon="0.6783">
        <ele>72</ele>
        <time>2012-02-19T10:04:34Z</time>
      </trkpt>
      <trkpt lat="49.54719" lon="0.67821">
        <ele>73</ele>
        <time>2012-02-19T10:04:41Z</time>
      </trkpt>
      <trkpt lat="49.54715" lon="0.67817">
        <ele>73</ele>
        <time>2012-02-19T10:04:46Z</time>
      </trkpt>
      <trkpt lat="49.5471" lon="0.67816">
        <ele>73</ele>
        <time>2012-02-19T10:04:51Z</time>
      </trkpt>
      <trkpt lat="49.54705" lon="0.67814">
        <ele>74</ele>
        <time>2012-02-19T10:04:56Z</time>
      </trkpt>
      <trkpt lat="49.547" lon="0.67815">
        <ele>74</ele>
        <time>2012-02-19T10:05:01Z</time>
      </trkpt>
      <trkpt lat="49.54691" lon="0.67811">
        <ele>74</ele>
        <time>2012-02-19T10:05:07Z</time>
      </trkpt>
      <trkpt lat="49.54689" lon="0.67811">
        <ele>74</ele>
        <time>2012-02-19T10:05:13Z</time>
      </trkpt>
      <trkpt lat="49.54684" lon="0.67807">
        <ele>74</ele>
        <time>2012-02-19T10:05:18Z</time>
      </trkpt>
      <trkpt lat="49.5468" lon="0.67805">
        <ele>74</ele>
        <time>2012-02-19T10:05:23Z</time>
      </trkpt>
      <trkpt lat="49.54674" lon="0.67805">
        <ele>75</ele>
        <time>2012-02-19T10:05:28Z</time>
      </trkpt>
      <trkpt lat="49.54669" lon="0.67803">
        <ele>75</ele>
        <time>2012-02-19T10:05:34Z</time>
      </trkpt>
      <trkpt lat="49.54665" lon="0.67798">
        <ele>81</ele>
        <time>2012-02-19T10:05:39Z</time>
      </trkpt>
      <trkpt lat="49.54659" lon="0.67791">
        <ele>81</ele>
        <time>2012-02-19T10:05:45Z</time>
      </trkpt>
      <trkpt lat="49.54653" lon="0.67793">
        <ele>81</ele>
        <time>2012-02-19T10:05:51Z</time>
      </trkpt>
      <trkpt lat="49.54648" lon="0.67791">
        <ele>82</ele>
        <time>2012-02-19T10:05:57Z</time>
      </trkpt>
      <trkpt lat="49.54642" lon="0.67793">
        <ele>82</ele>
        <time>2012-02-19T10:06:02Z</time>
      </trkpt>
      <trkpt lat="49.54636" lon="0.67795">
        <ele>83</ele>
        <time>2012-02-19T10:06:08Z</time>
      </trkpt>
      <trkpt lat="49.54631" lon="0.67796">
        <ele>83</ele>
        <time>2012-02-19T10:06:13Z</time>
      </trkpt>
      <trkpt lat="49.54625" lon="0.67792">
        <ele>83</ele>
        <time>2012-02-19T10:06:18Z</time>
      </trkpt>
      <trkpt lat="49.5462" lon="0.67789">
        <ele>84</ele>
        <time>2012-02-19T10:06:24Z</time>
      </trkpt>
      <trkpt lat="49.54617" lon="0.6778">
        <ele>84</ele>
        <time>2012-02-19T10:06:30Z</time>
      </trkpt>
      <trkpt lat="49.54614" lon="0.67778">
        <ele>85</ele>
        <time>2012-02-19T10:06:35Z</time>
      </trkpt>
      <trkpt lat="49.54611" lon="0.67772">
        <ele>85</ele>
        <time>2012-02-19T10:06:40Z</time>
      </trkpt>
      <trkpt lat="49.54607" lon="0.67767">
        <ele>86</ele>
        <time>2012-02-19T10:06:47Z</time>
      </trkpt>
      <trkpt lat="49.54601" lon="0.67762">
        <ele>87</ele>
        <time>2012-02-19T10:06:52Z</time>
      </trkpt>
      <trkpt lat="49.54594" lon="0.67756">
        <ele>88</ele>
        <time>2012-02-19T10:07:00Z</time>
      </trkpt>
      <trkpt lat="49.54591" lon="0.67755">
        <ele>89</ele>
        <time>2012-02-19T10:07:05Z</time>
      </trkpt>
      <trkpt lat="49.54588" lon="0.6775">
        <ele>90</ele>
        <time>2012-02-19T10:07:10Z</time>
      </trkpt>
      <trkpt lat="49.54584" lon="0.67749">
        <ele>91</ele>
        <time>2012-02-19T10:07:16Z</time>
      </trkpt>
      <trkpt lat="49.54579" lon="0.67743">
        <ele>94</ele>
        <time>2012-02-19T10:07:21Z</time>
      </trkpt>
      <trkpt lat="49.54574" lon="0.6774">
        <ele>96</ele>
        <time>2012-02-19T10:07:27Z</time>
      </trkpt>
      <trkpt lat="49.5457" lon="0.67737">
        <ele>97</ele>
        <time>2012-02-19T10:07:33Z</time>
      </trkpt>
      <trkpt lat="49.54565" lon="0.67737">
        <ele>97</ele>
        <time>2012-02-19T10:07:38Z</time>
      </trkpt>
      <trkpt lat="49.54559" lon="0.67736">
        <ele>99</ele>
        <time>2012-02-19T10:07:43Z</time>
      </trkpt>
      <trkpt lat="49.54554" lon="0.67734">
        <ele>99</ele>
        <time>2012-02-19T10:07:48Z</time>
      </trkpt>
      <trkpt lat="49.54549" lon="0.67729">
        <ele>100</ele>
        <time>2012-02-19T10:07:55Z</time>
      </trkpt>
      <trkpt lat="49.54548" lon="0.67725">
        <ele>101</ele>
        <time>2012-02-19T10:08:01Z</time>
      </trkpt>
      <trkpt lat="49.54544" lon="0.67721">
        <ele>101</ele>
        <time>2012-02-19T10:08:07Z</time>
      </trkpt>
      <trkpt lat="49.54542" lon="0.67716">
        <ele>101</ele>
        <time>2012-02-19T10:08:13Z</time>
      </trkpt>
      <trkpt lat="49.54538" lon="0.67715">
        <ele>102</ele>
        <time>2012-02-19T10:08:18Z</time>
      </trkpt>
      <trkpt lat="49.54532" lon="0.67713">
        <ele>103</ele>
        <time>2012-02-19T10:08:24Z</time>
      </trkpt>
      <trkpt lat="49.54528" lon="0.67715">
        <ele>103</ele>
        <time>2012-02-19T10:08:30Z</time>
      </trkpt>
      <trkpt lat="49.54526" lon="0.67713">
        <ele>103</ele>
        <time>2012-02-19T10:08:36Z</time>
      </trkpt>
      <trkpt lat="49.54523" lon="0.67709">
        <ele>103</ele>
        <time>2012-02-19T10:08:41Z</time>
      </trkpt>
      <trkpt lat="49.54522" lon="0.67703">
        <ele>104</ele>
        <time>2012-02-19T10:08:46Z</time>
      </trkpt>
      <trkpt lat="49.54519" lon="0.67698">
        <ele>104</ele>
        <time>2012-02-19T10:08:52Z</time>
      </trkpt>
      <trkpt lat="49.54513" lon="0.67696">
        <ele>105</ele>
        <time>2012-02-19T10:08:57Z</time>
      </trkpt>
      <trkpt lat="49.54509" lon="0.67693">
        <ele>105</ele>
        <time>2012-02-19T10:09:04Z</time>
      </trkpt>
      <trkpt lat="49.54504" lon="0.6769">
        <ele>106</ele>
        <time>2012-02-19T10:09:09Z</time>
      </trkpt>
      <trkpt lat="49.545" lon="0.67685">
        <ele>107</ele>
        <time>2012-02-19T10:09:15Z</time>
      </trkpt>
      <trkpt lat="49.54494" lon="0.67681">
        <ele>112</ele>
        <time>2012-02-19T10:09:21Z</time>
      </trkpt>
      <trkpt lat="49.54492" lon="0.67679">
        <ele>112</ele>
        <time>2012-02-19T10:09:26Z</time>
      </trkpt>
      <trkpt lat="49.54489" lon="0.67676">
        <ele>112</ele>
        <time>2012-02-19T10:09:32Z</time>
      </trkpt>
      <trkpt lat="49.54486" lon="0.67674">
        <ele>112</ele>
        <time>2012-02-19T10:09:37Z</time>
      </trkpt>
      <trkpt lat="49.54482" lon="0.67676">
        <ele>113</ele>
        <time>2012-02-19T10:09:42Z</time>
      </trkpt>
      <trkpt lat="49.54477" lon="0.67672">
        <ele>113</ele>
        <time>2012-02-19T10:09:48Z</time>
      </trkpt>
      <trkpt lat="49.54473" lon="0.67668">
        <ele>113</ele>
        <time>2012-02-19T10:09:53Z</time>
      </trkpt>
      <trkpt lat="49.54468" lon="0.67666">
        <ele>115</ele>
        <time>2012-02-19T10:09:59Z</time>
      </trkpt>
      <trkpt lat="49.54464" lon="0.67658">
        <ele>115</ele>
        <time>2012-02-19T10:10:05Z</time>
      </trkpt>
      <trkpt lat="49.54459" lon="0.67655">
        <ele>116</ele>
        <time>2012-02-19T10:10:11Z</time>
      </trkpt>
      <trkpt lat="49.54454" lon="0.6765">
        <ele>116</ele>
        <time>2012-02-19T10:10:17Z</time>
      </trkpt>
      <trkpt lat="49.54448" lon="0.67646">
        <ele>116</ele>
        <time>2012-02-19T10:10:22Z</time>
      </trkpt>
      <trkpt lat="49.54443" lon="0.67644">
        <ele>117</ele>
        <time>2012-02-19T10:10:28Z</time>
      </trkpt>
      <trkpt lat="49.54438" lon="0.67641">
        <ele>117</ele>
        <time>2012-02-19T10:10:34Z</time>
      </trkpt>
      <trkpt lat="49.54432" lon="0.67636">
        <ele>117</ele>
        <time>2012-02-19T10:10:39Z</time>
      </trkpt>
      <trkpt lat="49.54425" lon="0.67631">
        <ele>117</ele>
        <time>2012-02-19T10:10:46Z</time>
      </trkpt>
      <trkpt lat="49.54421" lon="0.67626">
        <ele>117</ele>
        <time>2012-02-19T10:10:52Z</time>
      </trkpt>
      <trkpt lat="49.54416" lon="0.6762">
        <ele>118</ele>
        <time>2012-02-19T10:10:58Z</time>
      </trkpt>
      <trkpt lat="49.54412" lon="0.67614">
        <ele>118</ele>
        <time>2012-02-19T10:11:04Z</time>
      </trkpt>
      <trkpt lat="49.54406" lon="0.67611">
        <ele>118</ele>
        <time>2012-02-19T10:11:09Z</time>
      </trkpt>
      <trkpt lat="49.54401" lon="0.67609">
        <ele>117</ele>
        <time>2012-02-19T10:11:14Z</time>
      </trkpt>
      <trkpt lat="49.54396" lon="0.67606">
        <ele>117</ele>
        <time>2012-02-19T10:11:20Z</time>
      </trkpt>
      <trkpt lat="49.54392" lon="0.676">
        <ele>117</ele>
        <time>2012-02-19T10:11:27Z</time>
      </trkpt>
      <trkpt lat="49.54386" lon="0.67597">
        <ele>117</ele>
        <time>2012-02-19T10:11:32Z</time>
      </trkpt>
      <trkpt lat="49.54381" lon="0.67594">
        <ele>117</ele>
        <time>2012-02-19T10:11:37Z</time>
      </trkpt>
      <trkpt lat="49.54375" lon="0.67589">
        <ele>117</ele>
        <time>2012-02-19T10:11:43Z</time>
      </trkpt>
      <trkpt lat="49.54373" lon="0.67595">
        <ele>117</ele>
        <time>2012-02-19T10:12:00Z</time>
      </trkpt>
      <trkpt lat="49.54374" lon="0.67599">
        <ele>117</ele>
        <time>2012-02-19T10:12:06Z</time>
      </trkpt>
      <trkpt lat="49.54373" lon="0.67608">
        <ele>117</ele>
        <time>2012-02-19T10:12:14Z</time>
      </trkpt>
      <trkpt lat="49.54362" lon="0.6764">
        <ele>116</ele>
        <time>2012-02-19T10:12:14Z</time>
      </trkpt>
      <trkpt lat="49.54339" lon="0.6772">
        <ele>118</ele>
        <time>2012-02-19T10:12:14Z</time>
      </trkpt>
      <trkpt lat="49.54314" lon="0.67745">
        <ele>117</ele>
        <time>2012-02-19T10:12:14Z</time>
      </trkpt>
      <trkpt lat="49.54285" lon="0.67776">
        <ele>117</ele>
        <time>2012-02-19T10:12:14Z</time>
      </trkpt>
      <trkpt lat="49.54277" lon="0.6784">
        <ele>119</ele>
        <time>2012-02-19T10:12:14Z</time>
      </trkpt>
      <trkpt lat="49.54285" lon="0.67928">
        <ele>119</ele>
        <time>2012-02-19T10:12:14Z</time>
      </trkpt>
      <trkpt lat="49.54315" lon="0.67998">
        <ele>115</ele>
        <time>2012-02-19T10:12:15Z</time>
      </trkpt>
      <trkpt lat="49.54361" lon="0.68095">
        <ele>104</ele>
        <time>2012-02-19T10:12:16Z</time>
      </trkpt>
      <trkpt lat="49.54384" lon="0.68162">
        <ele>102</ele>
        <time>2012-02-19T10:12:17Z</time>
      </trkpt>
      <trkpt lat="49.54385" lon="0.68196">
        <ele>98</ele>
        <time>2012-02-19T10:12:17Z</time>
      </trkpt>
      <trkpt lat="49.54382" lon="0.6825">
        <ele>96</ele>
        <time>2012-02-19T10:12:18Z</time>
      </trkpt>
      <trkpt lat="49.54396" lon="0.68357">
        <ele>89</ele>
        <time>2012-02-19T10:12:19Z</time>
      </trkpt>
      <trkpt lat="49.54398" lon="0.68365">
        <ele>89</ele>
        <time>2012-02-19T10:12:25Z</time>
      </trkpt>
      <trkpt lat="49.54397" lon="0.68372">
        <ele>89</ele>
        <time>2012-02-19T10:12:31Z</time>
      </trkpt>
      <trkpt lat="49.54397" lon="0.6838">
        <ele>88</ele>
        <time>2012-02-19T10:12:37Z</time>
      </trkpt>
      <trkpt lat="49.54395" lon="0.68389">
        <ele>88</ele>
        <time>2012-02-19T10:12:43Z</time>
      </trkpt>
      <trkpt lat="49.54393" lon="0.68397">
        <ele>87</ele>
        <time>2012-02-19T10:12:49Z</time>
      </trkpt>
      <trkpt lat="49.54391" lon="0.68405">
        <ele>87</ele>
        <time>2012-02-19T10:12:55Z</time>
      </trkpt>
      <trkpt lat="49.54388" lon="0.68414">
        <ele>87</ele>
        <time>2012-02-19T10:13:00Z</time>
      </trkpt>
      <trkpt lat="49.54387" lon="0.68418">
        <ele>85</ele>
        <time>2012-02-19T10:13:09Z</time>
      </trkpt>
      <trkpt lat="49.54379" lon="0.68425">
        <ele>86</ele>
        <time>2012-02-19T10:13:14Z</time>
      </trkpt>
      <trkpt lat="49.54373" lon="0.68423">
        <ele>86</ele>
        <time>2012-02-19T10:13:20Z</time>
      </trkpt>
      <trkpt lat="49.54367" lon="0.68423">
        <ele>86</ele>
        <time>2012-02-19T10:13:26Z</time>
      </trkpt>
      <trkpt lat="49.54361" lon="0.68423">
        <ele>87</ele>
        <time>2012-02-19T10:13:31Z</time>
      </trkpt>
      <trkpt lat="49.54355" lon="0.68424">
        <ele>87</ele>
        <time>2012-02-19T10:13:36Z</time>
      </trkpt>
      <trkpt lat="49.54351" lon="0.68423">
        <ele>87</ele>
        <time>2012-02-19T10:13:41Z</time>
      </trkpt>
      <trkpt lat="49.54346" lon="0.68423">
        <ele>88</ele>
        <time>2012-02-19T10:13:47Z</time>
      </trkpt>
      <trkpt lat="49.5434" lon="0.68424">
        <ele>88</ele>
        <time>2012-02-19T10:13:52Z</time>
      </trkpt>
      <trkpt lat="49.54334" lon="0.68427">
        <ele>88</ele>
        <time>2012-02-19T10:13:57Z</time>
      </trkpt>
      <trkpt lat="49.54329" lon="0.68428">
        <ele>92</ele>
        <time>2012-02-19T10:14:02Z</time>
      </trkpt>
      <trkpt lat="49.54325" lon="0.68426">
        <ele>92</ele>
        <time>2012-02-19T10:14:09Z</time>
      </trkpt>
      <trkpt lat="49.54319" lon="0.68428">
        <ele>93</ele>
        <time>2012-02-19T10:14:15Z</time>
      </trkpt>
      <trkpt lat="49.54317" lon="0.68427">
        <ele>93</ele>
        <time>2012-02-19T10:14:20Z</time>
      </trkpt>
      <trkpt lat="49.54314" lon="0.68425">
        <ele>93</ele>
        <time>2012-02-19T10:14:25Z</time>
      </trkpt>
      <trkpt lat="49.54312" lon="0.68425">
        <ele>94</ele>
        <time>2012-02-19T10:14:30Z</time>
      </trkpt>
      <trkpt lat="49.54304" lon="0.6843">
        <ele>95</ele>
        <time>2012-02-19T10:14:36Z</time>
      </trkpt>
      <trkpt lat="49.54299" lon="0.68434">
        <ele>95</ele>
        <time>2012-02-19T10:14:41Z</time>
      </trkpt>
      <trkpt lat="49.54293" lon="0.68436">
        <ele>96</ele>
        <time>2012-02-19T10:14:46Z</time>
      </trkpt>
      <trkpt lat="49.54289" lon="0.68438">
        <ele>96</ele>
        <time>2012-02-19T10:14:52Z</time>
      </trkpt>
      <trkpt lat="49.54284" lon="0.68441">
        <ele>97</ele>
        <time>2012-02-19T10:14:58Z</time>
      </trkpt>
      <trkpt lat="49.54278" lon="0.68443">
        <ele>97</ele>
        <time>2012-02-19T10:15:04Z</time>
      </trkpt>
      <trkpt lat="49.54274" lon="0.68448">
        <ele>98</ele>
        <time>2012-02-19T10:15:09Z</time>
      </trkpt>
      <trkpt lat="49.54269" lon="0.6845">
        <ele>98</ele>
        <time>2012-02-19T10:15:15Z</time>
      </trkpt>
      <trkpt lat="49.54263" lon="0.68454">
        <ele>98</ele>
        <time>2012-02-19T10:15:21Z</time>
      </trkpt>
      <trkpt lat="49.54258" lon="0.68456">
        <ele>98</ele>
        <time>2012-02-19T10:15:26Z</time>
      </trkpt>
      <trkpt lat="49.54252" lon="0.68461">
        <ele>98</ele>
        <time>2012-02-19T10:15:32Z</time>
      </trkpt>
      <trkpt lat="49.54249" lon="0.68463">
        <ele>104</ele>
        <time>2012-02-19T10:15:37Z</time>
      </trkpt>
      <trkpt lat="49.54244" lon="0.68465">
        <ele>104</ele>
        <time>2012-02-19T10:15:42Z</time>
      </trkpt>
      <trkpt lat="49.5424" lon="0.68465">
        <ele>104</ele>
        <time>2012-02-19T10:15:47Z</time>
      </trkpt>
      <trkpt lat="49.54235" lon="0.68465">
        <ele>105</ele>
        <time>2012-02-19T10:15:53Z</time>
      </trkpt>
      <trkpt lat="49.5423" lon="0.68464">
        <ele>105</ele>
        <time>2012-02-19T10:15:58Z</time>
      </trkpt>
      <trkpt lat="49.54225" lon="0.68465">
        <ele>105</ele>
        <time>2012-02-19T10:16:04Z</time>
      </trkpt>
      <trkpt lat="49.5422" lon="0.68464">
        <ele>105</ele>
        <time>2012-02-19T10:16:10Z</time>
      </trkpt>
      <trkpt lat="49.54215" lon="0.68463">
        <ele>106</ele>
        <time>2012-02-19T10:16:16Z</time>
      </trkpt>
      <trkpt lat="49.5421" lon="0.68461">
        <ele>106</ele>
        <time>2012-02-19T10:16:22Z</time>
      </trkpt>
      <trkpt lat="49.54204" lon="0.68464">
        <ele>106</ele>
        <time>2012-02-19T10:16:27Z</time>
      </trkpt>
      <trkpt lat="49.54198" lon="0.68463">
        <ele>106</ele>
        <time>2012-02-19T10:16:33Z</time>
      </trkpt>
      <trkpt lat="49.54192" lon="0.68461">
        <ele>107</ele>
        <time>2012-02-19T10:16:39Z</time>
      </trkpt>
      <trkpt lat="49.54186" lon="0.68461">
        <ele>107</ele>
        <time>2012-02-19T10:16:45Z</time>
      </trkpt>
      <trkpt lat="49.5418" lon="0.68463">
        <ele>107</ele>
        <time>2012-02-19T10:16:50Z</time>
      </trkpt>
      <trkpt lat="49.54175" lon="0.68459">
        <ele>107</ele>
        <time>2012-02-19T10:16:56Z</time>
      </trkpt>
      <trkpt lat="49.5417" lon="0.68456">
        <ele>108</ele>
        <time>2012-02-19T10:17:02Z</time>
      </trkpt>
      <trkpt lat="49.54165" lon="0.68455">
        <ele>113</ele>
        <time>2012-02-19T10:17:07Z</time>
      </trkpt>
      <trkpt lat="49.54161" lon="0.68454">
        <ele>113</ele>
        <time>2012-02-19T10:17:12Z</time>
      </trkpt>
      <trkpt lat="49.54155" lon="0.68454">
        <ele>113</ele>
        <time>2012-02-19T10:17:17Z</time>
      </trkpt>
      <trkpt lat="49.54151" lon="0.68451">
        <ele>113</ele>
        <time>2012-02-19T10:17:23Z</time>
      </trkpt>
      <trkpt lat="49.54146" lon="0.68448">
        <ele>113</ele>
        <time>2012-02-19T10:17:29Z</time>
      </trkpt>
      <trkpt lat="49.54141" lon="0.68447">
        <ele>113</ele>
        <time>2012-02-19T10:17:35Z</time>
      </trkpt>
      <trkpt lat="49.54137" lon="0.68445">
        <ele>114</ele>
        <time>2012-02-19T10:17:40Z</time>
      </trkpt>
      <trkpt lat="49.54131" lon="0.68445">
        <ele>114</ele>
        <time>2012-02-19T10:17:45Z</time>
      </trkpt>
      <trkpt lat="49.54125" lon="0.68441">
        <ele>114</ele>
        <time>2012-02-19T10:17:51Z</time>
      </trkpt>
      <trkpt lat="49.54121" lon="0.68439">
        <ele>115</ele>
        <time>2012-02-19T10:17:56Z</time>
      </trkpt>
      <trkpt lat="49.54113" lon="0.68438">
        <ele>115</ele>
        <time>2012-02-19T10:18:02Z</time>
      </trkpt>
      <trkpt lat="49.54108" lon="0.68437">
        <ele>115</ele>
        <time>2012-02-19T10:18:07Z</time>
      </trkpt>
      <trkpt lat="49.54102" lon="0.68435">
        <ele>116</ele>
        <time>2012-02-19T10:18:13Z</time>
      </trkpt>
      <trkpt lat="49.54094" lon="0.68435">
        <ele>116</ele>
        <time>2012-02-19T10:18:19Z</time>
      </trkpt>
      <trkpt lat="49.54088" lon="0.68431">
        <ele>117</ele>
        <time>2012-02-19T10:18:25Z</time>
      </trkpt>
      <trkpt lat="49.54083" lon="0.68425">
        <ele>119</ele>
        <time>2012-02-19T10:18:31Z</time>
      </trkpt>
      <trkpt lat="49.54077" lon="0.68423">
        <ele>119</ele>
        <time>2012-02-19T10:18:36Z</time>
      </trkpt>
      <trkpt lat="49.54073" lon="0.68418">
        <ele>119</ele>
        <time>2012-02-19T10:18:41Z</time>
      </trkpt>
      <trkpt lat="49.54068" lon="0.68413">
        <ele>120</ele>
        <time>2012-02-19T10:18:46Z</time>
      </trkpt>
      <trkpt lat="49.54063" lon="0.6841">
        <ele>120</ele>
        <time>2012-02-19T10:18:51Z</time>
      </trkpt>
      <trkpt lat="49.54058" lon="0.68407">
        <ele>120</ele>
        <time>2012-02-19T10:18:56Z</time>
      </trkpt>
      <trkpt lat="49.54053" lon="0.68403">
        <ele>121</ele>
        <time>2012-02-19T10:19:02Z</time>
      </trkpt>
      <trkpt lat="49.54048" lon="0.68402">
        <ele>121</ele>
        <time>2012-02-19T10:19:08Z</time>
      </trkpt>
      <trkpt lat="49.54043" lon="0.684">
        <ele>121</ele>
        <time>2012-02-19T10:19:13Z</time>
      </trkpt>
      <trkpt lat="49.54037" lon="0.684">
        <ele>121</ele>
        <time>2012-02-19T10:19:18Z</time>
      </trkpt>
      <trkpt lat="49.5403" lon="0.68404">
        <ele>121</ele>
        <time>2012-02-19T10:19:23Z</time>
      </trkpt>
      <trkpt lat="49.54024" lon="0.68402">
        <ele>121</ele>
        <time>2012-02-19T10:19:28Z</time>
      </trkpt>
      <trkpt lat="49.54017" lon="0.684">
        <ele>121</ele>
        <time>2012-02-19T10:19:34Z</time>
      </trkpt>
      <trkpt lat="49.54011" lon="0.68397">
        <ele>121</ele>
        <time>2012-02-19T10:19:40Z</time>
      </trkpt>
      <trkpt lat="49.54006" lon="0.68398">
        <ele>121</ele>
        <time>2012-02-19T10:19:46Z</time>
      </trkpt>
      <trkpt lat="49.54001" lon="0.68399">
        <ele>121</ele>
        <time>2012-02-19T10:19:52Z</time>
      </trkpt>
      <trkpt lat="49.53996" lon="0.68399">
        <ele>121</ele>
        <time>2012-02-19T10:19:57Z</time>
      </trkpt>
      <trkpt lat="49.53992" lon="0.68401">
        <ele>121</ele>
        <time>2012-02-19T10:20:02Z</time>
      </trkpt>
      <trkpt lat="49.53986" lon="0.68407">
        <ele>121</ele>
        <time>2012-02-19T10:20:07Z</time>
      </trkpt>
      <trkpt lat="49.53981" lon="0.68411">
        <ele>121</ele>
        <time>2012-02-19T10:20:14Z</time>
      </trkpt>
      <trkpt lat="49.53977" lon="0.68417">
        <ele>121</ele>
        <time>2012-02-19T10:20:19Z</time>
      </trkpt>
      <trkpt lat="49.53971" lon="0.68426">
        <ele>121</ele>
        <time>2012-02-19T10:20:25Z</time>
      </trkpt>
      <trkpt lat="49.53967" lon="0.68432">
        <ele>121</ele>
        <time>2012-02-19T10:20:31Z</time>
      </trkpt>
      <trkpt lat="49.53963" lon="0.68436">
        <ele>121</ele>
        <time>2012-02-19T10:20:37Z</time>
      </trkpt>
      <trkpt lat="49.53959" lon="0.68443">
        <ele>121</ele>
        <time>2012-02-19T10:20:43Z</time>
      </trkpt>
      <trkpt lat="49.53954" lon="0.68449">
        <ele>121</ele>
        <time>2012-02-19T10:20:49Z</time>
      </trkpt>
      <trkpt lat="49.53948" lon="0.68456">
        <ele>121</ele>
        <time>2012-02-19T10:20:55Z</time>
      </trkpt>
      <trkpt lat="49.53944" lon="0.68463">
        <ele>121</ele>
        <time>2012-02-19T10:21:02Z</time>
      </trkpt>
      <trkpt lat="49.53941" lon="0.68471">
        <ele>121</ele>
        <time>2012-02-19T10:21:08Z</time>
      </trkpt>
      <trkpt lat="49.53938" lon="0.68478">
        <ele>121</ele>
        <time>2012-02-19T10:21:14Z</time>
      </trkpt>
      <trkpt lat="49.53934" lon="0.68486">
        <ele>121</ele>
        <time>2012-02-19T10:21:20Z</time>
      </trkpt>
      <trkpt lat="49.53931" lon="0.68492">
        <ele>121</ele>
        <time>2012-02-19T10:21:27Z</time>
      </trkpt>
      <trkpt lat="49.5393" lon="0.68501">
        <ele>121</ele>
        <time>2012-02-19T10:21:32Z</time>
      </trkpt>
      <trkpt lat="49.53928" lon="0.68509">
        <ele>121</ele>
        <time>2012-02-19T10:21:37Z</time>
      </trkpt>
      <trkpt lat="49.53925" lon="0.68515">
        <ele>121</ele>
        <time>2012-02-19T10:21:42Z</time>
      </trkpt>
      <trkpt lat="49.53923" lon="0.68523">
        <ele>121</ele>
        <time>2012-02-19T10:21:47Z</time>
      </trkpt>
      <trkpt lat="49.53917" lon="0.68529">
        <ele>121</ele>
        <time>2012-02-19T10:21:53Z</time>
      </trkpt>
      <trkpt lat="49.53916" lon="0.68532">
        <ele>120</ele>
        <time>2012-02-19T10:21:58Z</time>
      </trkpt>
      <trkpt lat="49.53915" lon="0.6854">
        <ele>120</ele>
        <time>2012-02-19T10:22:06Z</time>
      </trkpt>
      <trkpt lat="49.53913" lon="0.6855">
        <ele>120</ele>
        <time>2012-02-19T10:22:12Z</time>
      </trkpt>
      <trkpt lat="49.53911" lon="0.68552">
        <ele>120</ele>
        <time>2012-02-19T10:22:17Z</time>
      </trkpt>
      <trkpt lat="49.5391" lon="0.68559">
        <ele>120</ele>
        <time>2012-02-19T10:22:22Z</time>
      </trkpt>
      <trkpt lat="49.53909" lon="0.68567">
        <ele>120</ele>
        <time>2012-02-19T10:22:28Z</time>
      </trkpt>
      <trkpt lat="49.53907" lon="0.68577">
        <ele>120</ele>
        <time>2012-02-19T10:22:33Z</time>
      </trkpt>
      <trkpt lat="49.53905" lon="0.68582">
        <ele>120</ele>
        <time>2012-02-19T10:22:38Z</time>
      </trkpt>
      <trkpt lat="49.53906" lon="0.68585">
        <ele>120</ele>
        <time>2012-02-19T10:22:43Z</time>
      </trkpt>
      <trkpt lat="49.53904" lon="0.68595">
        <ele>119</ele>
        <time>2012-02-19T10:22:49Z</time>
      </trkpt>
      <trkpt lat="49.53902" lon="0.68602">
        <ele>119</ele>
        <time>2012-02-19T10:22:55Z</time>
      </trkpt>
      <trkpt lat="49.539" lon="0.68611">
        <ele>119</ele>
        <time>2012-02-19T10:23:00Z</time>
      </trkpt>
      <trkpt lat="49.53899" lon="0.68616">
        <ele>119</ele>
        <time>2012-02-19T10:23:06Z</time>
      </trkpt>
      <trkpt lat="49.53899" lon="0.68624">
        <ele>118</ele>
        <time>2012-02-19T10:23:12Z</time>
      </trkpt>
      <trkpt lat="49.53898" lon="0.68632">
        <ele>118</ele>
        <time>2012-02-19T10:23:17Z</time>
      </trkpt>
      <trkpt lat="49.539" lon="0.68637">
        <ele>118</ele>
        <time>2012-02-19T10:23:23Z</time>
      </trkpt>
      <trkpt lat="49.53898" lon="0.68646">
        <ele>118</ele>
        <time>2012-02-19T10:23:28Z</time>
      </trkpt>
      <trkpt lat="49.53899" lon="0.68653">
        <ele>118</ele>
        <time>2012-02-19T10:23:35Z</time>
      </trkpt>
      <trkpt lat="49.53898" lon="0.68661">
        <ele>118</ele>
        <time>2012-02-19T10:23:40Z</time>
      </trkpt>
      <trkpt lat="49.53898" lon="0.6867">
        <ele>117</ele>
        <time>2012-02-19T10:23:46Z</time>
      </trkpt>
      <trkpt lat="49.53896" lon="0.68684">
        <ele>117</ele>
        <time>2012-02-19T10:23:51Z</time>
      </trkpt>
      <trkpt lat="49.53897" lon="0.68691">
        <ele>117</ele>
        <time>2012-02-19T10:23:56Z</time>
      </trkpt>
      <trkpt lat="49.53897" lon="0.68699">
        <ele>117</ele>
        <time>2012-02-19T10:24:01Z</time>
      </trkpt>
      <trkpt lat="49.53896" lon="0.68708">
        <ele>117</ele>
        <time>2012-02-19T10:24:07Z</time>
      </trkpt>
      <trkpt lat="49.53894" lon="0.68718">
        <ele>116</ele>
        <time>2012-02-19T10:24:12Z</time>
      </trkpt>
      <trkpt lat="49.5389" lon="0.68724">
        <ele>116</ele>
        <time>2012-02-19T10:24:18Z</time>
      </trkpt>
      <trkpt lat="49.53886" lon="0.68733">
        <ele>116</ele>
        <time>2012-02-19T10:24:24Z</time>
      </trkpt>
      <trkpt lat="49.53882" lon="0.68742">
        <ele>116</ele>
        <time>2012-02-19T10:24:29Z</time>
      </trkpt>
      <trkpt lat="49.53877" lon="0.68752">
        <ele>116</ele>
        <time>2012-02-19T10:24:35Z</time>
      </trkpt>
      <trkpt lat="49.53874" lon="0.6876">
        <ele>116</ele>
        <time>2012-02-19T10:24:40Z</time>
      </trkpt>
      <trkpt lat="49.5387" lon="0.6877">
        <ele>116</ele>
        <time>2012-02-19T10:24:46Z</time>
      </trkpt>
      <trkpt lat="49.53868" lon="0.68779">
        <ele>116</ele>
        <time>2012-02-19T10:24:52Z</time>
      </trkpt>
      <trkpt lat="49.53867" lon="0.68787">
        <ele>116</ele>
        <time>2012-02-19T10:24:58Z</time>
      </trkpt>
      <trkpt lat="49.53863" lon="0.68802">
        <ele>116</ele>
        <time>2012-02-19T10:25:04Z</time>
      </trkpt>
      <trkpt lat="49.53861" lon="0.68812">
        <ele>116</ele>
        <time>2012-02-19T10:25:09Z</time>
      </trkpt>
      <trkpt lat="49.53859" lon="0.68821">
        <ele>116</ele>
        <time>2012-02-19T10:25:15Z</time>
      </trkpt>
      <trkpt lat="49.53858" lon="0.68825">
        <ele>116</ele>
        <time>2012-02-19T10:25:20Z</time>
      </trkpt>
      <trkpt lat="49.53856" lon="0.68833">
        <ele>116</ele>
        <time>2012-02-19T10:25:26Z</time>
      </trkpt>
      <trkpt lat="49.53854" lon="0.68839">
        <ele>117</ele>
        <time>2012-02-19T10:25:32Z</time>
      </trkpt>
      <trkpt lat="49.53851" lon="0.68849">
        <ele>117</ele>
        <time>2012-02-19T10:25:37Z</time>
      </trkpt>
      <trkpt lat="49.53848" lon="0.68858">
        <ele>118</ele>
        <time>2012-02-19T10:25:42Z</time>
      </trkpt>
      <trkpt lat="49.53847" lon="0.68866">
        <ele>118</ele>
        <time>2012-02-19T10:25:48Z</time>
      </trkpt>
      <trkpt lat="49.53846" lon="0.68876">
        <ele>119</ele>
        <time>2012-02-19T10:25:54Z</time>
      </trkpt>
      <trkpt lat="49.53846" lon="0.68885">
        <ele>119</ele>
        <time>2012-02-19T10:26:00Z</time>
      </trkpt>
      <trkpt lat="49.53846" lon="0.68893">
        <ele>119</ele>
        <time>2012-02-19T10:26:06Z</time>
      </trkpt>
      <trkpt lat="49.53845" lon="0.68901">
        <ele>120</ele>
        <time>2012-02-19T10:26:11Z</time>
      </trkpt>
      <trkpt lat="49.53845" lon="0.6891">
        <ele>120</ele>
        <time>2012-02-19T10:26:17Z</time>
      </trkpt>
      <trkpt lat="49.53844" lon="0.6892">
        <ele>121</ele>
        <time>2012-02-19T10:26:22Z</time>
      </trkpt>
      <trkpt lat="49.53842" lon="0.68929">
        <ele>122</ele>
        <time>2012-02-19T10:26:27Z</time>
      </trkpt>
      <trkpt lat="49.53841" lon="0.68938">
        <ele>122</ele>
        <time>2012-02-19T10:26:32Z</time>
      </trkpt>
      <trkpt lat="49.5384" lon="0.68946">
        <ele>122</ele>
        <time>2012-02-19T10:26:37Z</time>
      </trkpt>
      <trkpt lat="49.5384" lon="0.68958">
        <ele>122</ele>
        <time>2012-02-19T10:26:43Z</time>
      </trkpt>
      <trkpt lat="49.53838" lon="0.68969">
        <ele>123</ele>
        <time>2012-02-19T10:26:49Z</time>
      </trkpt>
      <trkpt lat="49.53838" lon="0.68977">
        <ele>123</ele>
        <time>2012-02-19T10:26:54Z</time>
      </trkpt>
      <trkpt lat="49.5384" lon="0.68987">
        <ele>123</ele>
        <time>2012-02-19T10:27:00Z</time>
      </trkpt>
      <trkpt lat="49.53844" lon="0.68995">
        <ele>123</ele>
        <time>2012-02-19T10:27:06Z</time>
      </trkpt>
      <trkpt lat="49.53847" lon="0.69006">
        <ele>123</ele>
        <time>2012-02-19T10:27:12Z</time>
      </trkpt>
      <trkpt lat="49.53853" lon="0.6901">
        <ele>123</ele>
        <time>2012-02-19T10:27:17Z</time>
      </trkpt>
      <trkpt lat="49.53856" lon="0.6902">
        <ele>123</ele>
        <time>2012-02-19T10:27:22Z</time>
      </trkpt>
      <trkpt lat="49.53859" lon="0.69029">
        <ele>123</ele>
        <time>2012-02-19T10:27:28Z</time>
      </trkpt>
      <trkpt lat="49.5386" lon="0.69039">
        <ele>123</ele>
        <time>2012-02-19T10:27:33Z</time>
      </trkpt>
      <trkpt lat="49.53862" lon="0.69048">
        <ele>122</ele>
        <time>2012-02-19T10:27:39Z</time>
      </trkpt>
      <trkpt lat="49.53862" lon="0.69057">
        <ele>122</ele>
        <time>2012-02-19T10:27:44Z</time>
      </trkpt>
      <trkpt lat="49.53863" lon="0.69067">
        <ele>122</ele>
        <time>2012-02-19T10:27:50Z</time>
      </trkpt>
      <trkpt lat="49.53862" lon="0.69077">
        <ele>122</ele>
        <time>2012-02-19T10:27:56Z</time>
      </trkpt>
      <trkpt lat="49.53863" lon="0.69085">
        <ele>121</ele>
        <time>2012-02-19T10:28:02Z</time>
      </trkpt>
      <trkpt lat="49.53865" lon="0.69096">
        <ele>121</ele>
        <time>2012-02-19T10:28:08Z</time>
      </trkpt>
      <trkpt lat="49.53869" lon="0.69104">
        <ele>121</ele>
        <time>2012-02-19T10:28:14Z</time>
      </trkpt>
      <trkpt lat="49.53871" lon="0.69112">
        <ele>121</ele>
        <time>2012-02-19T10:28:19Z</time>
      </trkpt>
      <trkpt lat="49.53873" lon="0.69123">
        <ele>120</ele>
        <time>2012-02-19T10:28:25Z</time>
      </trkpt>
      <trkpt lat="49.53875" lon="0.6913">
        <ele>120</ele>
        <time>2012-02-19T10:28:31Z</time>
      </trkpt>
      <trkpt lat="49.53874" lon="0.69141">
        <ele>120</ele>
        <time>2012-02-19T10:28:36Z</time>
      </trkpt>
      <trkpt lat="49.53874" lon="0.6915">
        <ele>120</ele>
        <time>2012-02-19T10:28:41Z</time>
      </trkpt>
      <trkpt lat="49.53873" lon="0.6916">
        <ele>120</ele>
        <time>2012-02-19T10:28:46Z</time>
      </trkpt>
      <trkpt lat="49.53873" lon="0.6917">
        <ele>119</ele>
        <time>2012-02-19T10:28:51Z</time>
      </trkpt>
      <trkpt lat="49.53874" lon="0.69177">
        <ele>119</ele>
        <time>2012-02-19T10:28:56Z</time>
      </trkpt>
      <trkpt lat="49.53874" lon="0.69187">
        <ele>119</ele>
        <time>2012-02-19T10:29:01Z</time>
      </trkpt>
      <trkpt lat="49.53873" lon="0.69194">
        <ele>119</ele>
        <time>2012-02-19T10:29:06Z</time>
      </trkpt>
      <trkpt lat="49.5388" lon="0.69197">
        <ele>119</ele>
        <time>2012-02-19T10:29:14Z</time>
      </trkpt>
      <trkpt lat="49.53877" lon="0.692">
        <ele>119</ele>
        <time>2012-02-19T10:29:22Z</time>
      </trkpt>
      <trkpt lat="49.53874" lon="0.6921">
        <ele>118</ele>
        <time>2012-02-19T10:29:28Z</time>
      </trkpt>
      <trkpt lat="49.53873" lon="0.69219">
        <ele>118</ele>
        <time>2012-02-19T10:29:33Z</time>
      </trkpt>
      <trkpt lat="49.53874" lon="0.69226">
        <ele>118</ele>
        <time>2012-02-19T10:29:38Z</time>
      </trkpt>
      <trkpt lat="49.53875" lon="0.69234">
        <ele>118</ele>
        <time>2012-02-19T10:29:43Z</time>
      </trkpt>
      <trkpt lat="49.53875" lon="0.69244">
        <ele>118</ele>
        <time>2012-02-19T10:29:49Z</time>
      </trkpt>
      <trkpt lat="49.53877" lon="0.69251">
        <ele>117</ele>
        <time>2012-02-19T10:29:55Z</time>
      </trkpt>
      <trkpt lat="49.5388" lon="0.69259">
        <ele>117</ele>
        <time>2012-02-19T10:30:00Z</time>
      </trkpt>
      <trkpt lat="49.5388" lon="0.69278">
        <ele>117</ele>
        <time>2012-02-19T10:30:06Z</time>
      </trkpt>
      <trkpt lat="49.53881" lon="0.69288">
        <ele>116</ele>
        <time>2012-02-19T10:30:11Z</time>
      </trkpt>
      <trkpt lat="49.53883" lon="0.69297">
        <ele>116</ele>
        <time>2012-02-19T10:30:16Z</time>
      </trkpt>
      <trkpt lat="49.53887" lon="0.69305">
        <ele>116</ele>
        <time>2012-02-19T10:30:22Z</time>
      </trkpt>
      <trkpt lat="49.53889" lon="0.69311">
        <ele>116</ele>
        <time>2012-02-19T10:30:27Z</time>
      </trkpt>
      <trkpt lat="49.53896" lon="0.69317">
        <ele>115</ele>
        <time>2012-02-19T10:30:33Z</time>
      </trkpt>
      <trkpt lat="49.53901" lon="0.69324">
        <ele>115</ele>
        <time>2012-02-19T10:30:39Z</time>
      </trkpt>
      <trkpt lat="49.53904" lon="0.69333">
        <ele>114</ele>
        <time>2012-02-19T10:30:44Z</time>
      </trkpt>
      <trkpt lat="49.53911" lon="0.69339">
        <ele>114</ele>
        <time>2012-02-19T10:30:50Z</time>
      </trkpt>
      <trkpt lat="49.53916" lon="0.69345">
        <ele>114</ele>
        <time>2012-02-19T10:30:55Z</time>
      </trkpt>
      <trkpt lat="49.53919" lon="0.69353">
        <ele>112</ele>
        <time>2012-02-19T10:31:00Z</time>
      </trkpt>
      <trkpt lat="49.53925" lon="0.69354">
        <ele>112</ele>
        <time>2012-02-19T10:31:05Z</time>
      </trkpt>
      <trkpt lat="49.53934" lon="0.69358">
        <ele>112</ele>
        <time>2012-02-19T10:31:11Z</time>
      </trkpt>
      <trkpt lat="49.53939" lon="0.69362">
        <ele>111</ele>
        <time>2012-02-19T10:31:16Z</time>
      </trkpt>
      <trkpt lat="49.53946" lon="0.69367">
        <ele>111</ele>
        <time>2012-02-19T10:31:21Z</time>
      </trkpt>
      <trkpt lat="49.5395" lon="0.69371">
        <ele>111</ele>
        <time>2012-02-19T10:31:26Z</time>
      </trkpt>
      <trkpt lat="49.53957" lon="0.69372">
        <ele>111</ele>
        <time>2012-02-19T10:31:31Z</time>
      </trkpt>
      <trkpt lat="49.53961" lon="0.69375">
        <ele>111</ele>
        <time>2012-02-19T10:31:36Z</time>
      </trkpt>
      <trkpt lat="49.53967" lon="0.69378">
        <ele>110</ele>
        <time>2012-02-19T10:31:41Z</time>
      </trkpt>
      <trkpt lat="49.53973" lon="0.69383">
        <ele>110</ele>
        <time>2012-02-19T10:31:47Z</time>
      </trkpt>
      <trkpt lat="49.53978" lon="0.69384">
        <ele>110</ele>
        <time>2012-02-19T10:31:52Z</time>
      </trkpt>
      <trkpt lat="49.53985" lon="0.69386">
        <ele>110</ele>
        <time>2012-02-19T10:31:57Z</time>
      </trkpt>
      <trkpt lat="49.53989" lon="0.6939">
        <ele>109</ele>
        <time>2012-02-19T10:32:02Z</time>
      </trkpt>
      <trkpt lat="49.53995" lon="0.69389">
        <ele>109</ele>
        <time>2012-02-19T10:32:07Z</time>
      </trkpt>
      <trkpt lat="49.54002" lon="0.69391">
        <ele>104</ele>
        <time>2012-02-19T10:32:12Z</time>
      </trkpt>
      <trkpt lat="49.54009" lon="0.69383">
        <ele>103</ele>
        <time>2012-02-19T10:32:17Z</time>
      </trkpt>
      <trkpt lat="49.54014" lon="0.69382">
        <ele>103</ele>
        <time>2012-02-19T10:32:22Z</time>
      </trkpt>
      <trkpt lat="49.5402" lon="0.69378">
        <ele>103</ele>
        <time>2012-02-19T10:32:27Z</time>
      </trkpt>
      <trkpt lat="49.54027" lon="0.69373">
        <ele>103</ele>
        <time>2012-02-19T10:32:32Z</time>
      </trkpt>
      <trkpt lat="49.54035" lon="0.69369">
        <ele>102</ele>
        <time>2012-02-19T10:32:37Z</time>
      </trkpt>
      <trkpt lat="49.54042" lon="0.69364">
        <ele>102</ele>
        <time>2012-02-19T10:32:43Z</time>
      </trkpt>
      <trkpt lat="49.54046" lon="0.69362">
        <ele>101</ele>
        <time>2012-02-19T10:32:48Z</time>
      </trkpt>
      <trkpt lat="49.54049" lon="0.69363">
        <ele>101</ele>
        <time>2012-02-19T10:32:53Z</time>
      </trkpt>
      <trkpt lat="49.54054" lon="0.69362">
        <ele>101</ele>
        <time>2012-02-19T10:32:58Z</time>
      </trkpt>
      <trkpt lat="49.54059" lon="0.6936">
        <ele>100</ele>
        <time>2012-02-19T10:33:03Z</time>
      </trkpt>
      <trkpt lat="49.54065" lon="0.69356">
        <ele>100</ele>
        <time>2012-02-19T10:33:08Z</time>
      </trkpt>
      <trkpt lat="49.5407" lon="0.69351">
        <ele>99</ele>
        <time>2012-02-19T10:33:14Z</time>
      </trkpt>
      <trkpt lat="49.54077" lon="0.69348">
        <ele>98</ele>
        <time>2012-02-19T10:33:19Z</time>
      </trkpt>
      <trkpt lat="49.54083" lon="0.69345">
        <ele>97</ele>
        <time>2012-02-19T10:33:24Z</time>
      </trkpt>
      <trkpt lat="49.5409" lon="0.6934">
        <ele>93</ele>
        <time>2012-02-19T10:33:29Z</time>
      </trkpt>
      <trkpt lat="49.54095" lon="0.69336">
        <ele>93</ele>
        <time>2012-02-19T10:33:34Z</time>
      </trkpt>
      <trkpt lat="49.541" lon="0.69335">
        <ele>92</ele>
        <time>2012-02-19T10:33:39Z</time>
      </trkpt>
      <trkpt lat="49.54105" lon="0.69331">
        <ele>92</ele>
        <time>2012-02-19T10:33:45Z</time>
      </trkpt>
      <trkpt lat="49.5411" lon="0.69329">
        <ele>91</ele>
        <time>2012-02-19T10:33:50Z</time>
      </trkpt>
      <trkpt lat="49.54116" lon="0.69326">
        <ele>90</ele>
        <time>2012-02-19T10:33:55Z</time>
      </trkpt>
      <trkpt lat="49.54122" lon="0.69325">
        <ele>89</ele>
        <time>2012-02-19T10:34:01Z</time>
      </trkpt>
      <trkpt lat="49.54127" lon="0.69324">
        <ele>89</ele>
        <time>2012-02-19T10:34:06Z</time>
      </trkpt>
      <trkpt lat="49.54133" lon="0.69323">
        <ele>88</ele>
        <time>2012-02-19T10:34:11Z</time>
      </trkpt>
      <trkpt lat="49.54139" lon="0.69322">
        <ele>87</ele>
        <time>2012-02-19T10:34:17Z</time>
      </trkpt>
      <trkpt lat="49.54144" lon="0.69323">
        <ele>86</ele>
        <time>2012-02-19T10:34:22Z</time>
      </trkpt>
      <trkpt lat="49.54151" lon="0.69322">
        <ele>85</ele>
        <time>2012-02-19T10:34:28Z</time>
      </trkpt>
      <trkpt lat="49.54155" lon="0.69319">
        <ele>85</ele>
        <time>2012-02-19T10:34:33Z</time>
      </trkpt>
      <trkpt lat="49.54163" lon="0.69317">
        <ele>84</ele>
        <time>2012-02-19T10:34:38Z</time>
      </trkpt>
      <trkpt lat="49.54171" lon="0.69315">
        <ele>78</ele>
        <time>2012-02-19T10:34:43Z</time>
      </trkpt>
      <trkpt lat="49.54177" lon="0.69314">
        <ele>78</ele>
        <time>2012-02-19T10:34:48Z</time>
      </trkpt>
      <trkpt lat="49.54184" lon="0.69314">
        <ele>78</ele>
        <time>2012-02-19T10:34:53Z</time>
      </trkpt>
      <trkpt lat="49.5419" lon="0.69313">
        <ele>77</ele>
        <time>2012-02-19T10:34:58Z</time>
      </trkpt>
      <trkpt lat="49.54199" lon="0.69313">
        <ele>77</ele>
        <time>2012-02-19T10:35:03Z</time>
      </trkpt>
      <trkpt lat="49.54205" lon="0.69315">
        <ele>77</ele>
        <time>2012-02-19T10:35:08Z</time>
      </trkpt>
      <trkpt lat="49.54212" lon="0.69318">
        <ele>76</ele>
        <time>2012-02-19T10:35:13Z</time>
      </trkpt>
      <trkpt lat="49.54217" lon="0.6932">
        <ele>76</ele>
        <time>2012-02-19T10:35:18Z</time>
      </trkpt>
      <trkpt lat="49.54223" lon="0.69318">
        <ele>75</ele>
        <time>2012-02-19T10:35:24Z</time>
      </trkpt>
      <trkpt lat="49.54231" lon="0.69317">
        <ele>74</ele>
        <time>2012-02-19T10:35:29Z</time>
      </trkpt>
      <trkpt lat="49.54237" lon="0.69317">
        <ele>74</ele>
        <time>2012-02-19T10:35:34Z</time>
      </trkpt>
      <trkpt lat="49.54244" lon="0.69319">
        <ele>73</ele>
        <time>2012-02-19T10:35:39Z</time>
      </trkpt>
      <trkpt lat="49.54248" lon="0.69319">
        <ele>73</ele>
        <time>2012-02-19T10:35:44Z</time>
      </trkpt>
      <trkpt lat="49.54254" lon="0.69318">
        <ele>69</ele>
        <time>2012-02-19T10:35:50Z</time>
      </trkpt>
      <trkpt lat="49.54259" lon="0.69319">
        <ele>69</ele>
        <time>2012-02-19T10:35:56Z</time>
      </trkpt>
      <trkpt lat="49.54264" lon="0.69318">
        <ele>69</ele>
        <time>2012-02-19T10:36:01Z</time>
      </trkpt>
      <trkpt lat="49.5427" lon="0.6932">
        <ele>68</ele>
        <time>2012-02-19T10:36:07Z</time>
      </trkpt>
      <trkpt lat="49.54277" lon="0.69326">
        <ele>68</ele>
        <time>2012-02-19T10:36:13Z</time>
      </trkpt>
      <trkpt lat="49.54283" lon="0.69332">
        <ele>67</ele>
        <time>2012-02-19T10:36:18Z</time>
      </trkpt>
      <trkpt lat="49.54289" lon="0.69337">
        <ele>65</ele>
        <time>2012-02-19T10:36:23Z</time>
      </trkpt>
      <trkpt lat="49.54296" lon="0.69343">
        <ele>64</ele>
        <time>2012-02-19T10:36:28Z</time>
      </trkpt>
      <trkpt lat="49.54301" lon="0.6935">
        <ele>64</ele>
        <time>2012-02-19T10:36:33Z</time>
      </trkpt>
      <trkpt lat="49.54309" lon="0.69354">
        <ele>63</ele>
        <time>2012-02-19T10:36:38Z</time>
      </trkpt>
      <trkpt lat="49.54316" lon="0.69358">
        <ele>63</ele>
        <time>2012-02-19T10:36:44Z</time>
      </trkpt>
      <trkpt lat="49.54321" lon="0.69367">
        <ele>62</ele>
        <time>2012-02-19T10:36:50Z</time>
      </trkpt>
      <trkpt lat="49.54326" lon="0.69374">
        <ele>62</ele>
        <time>2012-02-19T10:36:56Z</time>
      </trkpt>
      <trkpt lat="49.54328" lon="0.69383">
        <ele>62</ele>
        <time>2012-02-19T10:37:01Z</time>
      </trkpt>
      <trkpt lat="49.54336" lon="0.69385">
        <ele>55</ele>
        <time>2012-02-19T10:37:08Z</time>
      </trkpt>
      <trkpt lat="49.5434" lon="0.69392">
        <ele>55</ele>
        <time>2012-02-19T10:37:13Z</time>
      </trkpt>
      <trkpt lat="49.54345" lon="0.69398">
        <ele>55</ele>
        <time>2012-02-19T10:37:19Z</time>
      </trkpt>
      <trkpt lat="49.54351" lon="0.69404">
        <ele>55</ele>
        <time>2012-02-19T10:37:25Z</time>
      </trkpt>
      <trkpt lat="49.54356" lon="0.69411">
        <ele>54</ele>
        <time>2012-02-19T10:37:31Z</time>
      </trkpt>
      <trkpt lat="49.54359" lon="0.69418">
        <ele>54</ele>
        <time>2012-02-19T10:37:37Z</time>
      </trkpt>
      <trkpt lat="49.5436" lon="0.69425">
        <ele>54</ele>
        <time>2012-02-19T10:37:42Z</time>
      </trkpt>
      <trkpt lat="49.54363" lon="0.69434">
        <ele>54</ele>
        <time>2012-02-19T10:37:47Z</time>
      </trkpt>
      <trkpt lat="49.54367" lon="0.69444">
        <ele>53</ele>
        <time>2012-02-19T10:37:53Z</time>
      </trkpt>
      <trkpt lat="49.5437" lon="0.69451">
        <ele>53</ele>
        <time>2012-02-19T10:37:58Z</time>
      </trkpt>
      <trkpt lat="49.54373" lon="0.69458">
        <ele>53</ele>
        <time>2012-02-19T10:38:03Z</time>
      </trkpt>
      <trkpt lat="49.54378" lon="0.69463">
        <ele>53</ele>
        <time>2012-02-19T10:38:08Z</time>
      </trkpt>
      <trkpt lat="49.54381" lon="0.69472">
        <ele>53</ele>
        <time>2012-02-19T10:38:13Z</time>
      </trkpt>
      <trkpt lat="49.54385" lon="0.69481">
        <ele>52</ele>
        <time>2012-02-19T10:38:19Z</time>
      </trkpt>
      <trkpt lat="49.54391" lon="0.69486">
        <ele>52</ele>
        <time>2012-02-19T10:38:24Z</time>
      </trkpt>
      <trkpt lat="49.54395" lon="0.69492">
        <ele>51</ele>
        <time>2012-02-19T10:38:29Z</time>
      </trkpt>
      <trkpt lat="49.54398" lon="0.69497">
        <ele>51</ele>
        <time>2012-02-19T10:38:35Z</time>
      </trkpt>
      <trkpt lat="49.54403" lon="0.69503">
        <ele>52</ele>
        <time>2012-02-19T10:38:41Z</time>
      </trkpt>
      <trkpt lat="49.54409" lon="0.69506">
        <ele>51</ele>
        <time>2012-02-19T10:38:46Z</time>
      </trkpt>
      <trkpt lat="49.54413" lon="0.69511">
        <ele>51</ele>
        <time>2012-02-19T10:38:51Z</time>
      </trkpt>
      <trkpt lat="49.54419" lon="0.69517">
        <ele>46</ele>
        <time>2012-02-19T10:38:56Z</time>
      </trkpt>
      <trkpt lat="49.54424" lon="0.69521">
        <ele>46</ele>
        <time>2012-02-19T10:39:01Z</time>
      </trkpt>
      <trkpt lat="49.54429" lon="0.69526">
        <ele>45</ele>
        <time>2012-02-19T10:39:06Z</time>
      </trkpt>
      <trkpt lat="49.54435" lon="0.69533">
        <ele>45</ele>
        <time>2012-02-19T10:39:12Z</time>
      </trkpt>
      <trkpt lat="49.54441" lon="0.69537">
        <ele>45</ele>
        <time>2012-02-19T10:39:17Z</time>
      </trkpt>
      <trkpt lat="49.54449" lon="0.69539">
        <ele>44</ele>
        <time>2012-02-19T10:39:22Z</time>
      </trkpt>
      <trkpt lat="49.54454" lon="0.69545">
        <ele>44</ele>
        <time>2012-02-19T10:39:27Z</time>
      </trkpt>
      <trkpt lat="49.54457" lon="0.69552">
        <ele>44</ele>
        <time>2012-02-19T10:39:33Z</time>
      </trkpt>
      <trkpt lat="49.54461" lon="0.69559">
        <ele>43</ele>
        <time>2012-02-19T10:39:38Z</time>
      </trkpt>
      <trkpt lat="49.54467" lon="0.69566">
        <ele>42</ele>
        <time>2012-02-19T10:39:43Z</time>
      </trkpt>
      <trkpt lat="49.54471" lon="0.69577">
        <ele>42</ele>
        <time>2012-02-19T10:39:49Z</time>
      </trkpt>
      <trkpt lat="49.54472" lon="0.69588">
        <ele>43</ele>
        <time>2012-02-19T10:39:54Z</time>
      </trkpt>
      <trkpt lat="49.54474" lon="0.69597">
        <ele>43</ele>
        <time>2012-02-19T10:39:59Z</time>
      </trkpt>
      <trkpt lat="49.54475" lon="0.69605">
        <ele>43</ele>
        <time>2012-02-19T10:40:04Z</time>
      </trkpt>
      <trkpt lat="49.54478" lon="0.69614">
        <ele>43</ele>
        <time>2012-02-19T10:40:09Z</time>
      </trkpt>
      <trkpt lat="49.5448" lon="0.69624">
        <ele>43</ele>
        <time>2012-02-19T10:40:14Z</time>
      </trkpt>
      <trkpt lat="49.54482" lon="0.69632">
        <ele>43</ele>
        <time>2012-02-19T10:40:19Z</time>
      </trkpt>
      <trkpt lat="49.54484" lon="0.69641">
        <ele>42</ele>
        <time>2012-02-19T10:40:24Z</time>
      </trkpt>
      <trkpt lat="49.54485" lon="0.69649">
        <ele>42</ele>
        <time>2012-02-19T10:40:29Z</time>
      </trkpt>
      <trkpt lat="49.54486" lon="0.69661">
        <ele>41</ele>
        <time>2012-02-19T10:40:35Z</time>
      </trkpt>
      <trkpt lat="49.54487" lon="0.69671">
        <ele>40</ele>
        <time>2012-02-19T10:40:40Z</time>
      </trkpt>
      <trkpt lat="49.54487" lon="0.69683">
        <ele>41</ele>
        <time>2012-02-19T10:40:45Z</time>
      </trkpt>
      <trkpt lat="49.54487" lon="0.69693">
        <ele>42</ele>
        <time>2012-02-19T10:40:50Z</time>
      </trkpt>
      <trkpt lat="49.54488" lon="0.69701">
        <ele>42</ele>
        <time>2012-02-19T10:40:55Z</time>
      </trkpt>
      <trkpt lat="49.54488" lon="0.69708">
        <ele>42</ele>
        <time>2012-02-19T10:41:01Z</time>
      </trkpt>
      <trkpt lat="49.54487" lon="0.69722">
        <ele>41</ele>
        <time>2012-02-19T10:41:06Z</time>
      </trkpt>
      <trkpt lat="49.54485" lon="0.69734">
        <ele>40</ele>
        <time>2012-02-19T10:41:11Z</time>
      </trkpt>
      <trkpt lat="49.54485" lon="0.69744">
        <ele>39</ele>
        <time>2012-02-19T10:41:16Z</time>
      </trkpt>
      <trkpt lat="49.54484" lon="0.69753">
        <ele>37</ele>
        <time>2012-02-19T10:41:21Z</time>
      </trkpt>
      <trkpt lat="49.54481" lon="0.69763">
        <ele>38</ele>
        <time>2012-02-19T10:41:26Z</time>
      </trkpt>
      <trkpt lat="49.54477" lon="0.69774">
        <ele>39</ele>
        <time>2012-02-19T10:41:31Z</time>
      </trkpt>
      <trkpt lat="49.54474" lon="0.69784">
        <ele>39</ele>
        <time>2012-02-19T10:41:37Z</time>
      </trkpt>
      <trkpt lat="49.54472" lon="0.69791">
        <ele>39</ele>
        <time>2012-02-19T10:41:43Z</time>
      </trkpt>
      <trkpt lat="49.54469" lon="0.69801">
        <ele>39</ele>
        <time>2012-02-19T10:41:48Z</time>
      </trkpt>
      <trkpt lat="49.54465" lon="0.69811">
        <ele>39</ele>
        <time>2012-02-19T10:41:54Z</time>
      </trkpt>
      <trkpt lat="49.54463" lon="0.6982">
        <ele>39</ele>
        <time>2012-02-19T10:41:59Z</time>
      </trkpt>
      <trkpt lat="49.5446" lon="0.6983">
        <ele>40</ele>
        <time>2012-02-19T10:42:05Z</time>
      </trkpt>
      <trkpt lat="49.54457" lon="0.69841">
        <ele>40</ele>
        <time>2012-02-19T10:42:11Z</time>
      </trkpt>
      <trkpt lat="49.54455" lon="0.69851">
        <ele>41</ele>
        <time>2012-02-19T10:42:17Z</time>
      </trkpt>
      <trkpt lat="49.54454" lon="0.69861">
        <ele>41</ele>
        <time>2012-02-19T10:42:22Z</time>
      </trkpt>
      <trkpt lat="49.54454" lon="0.6987">
        <ele>41</ele>
        <time>2012-02-19T10:42:27Z</time>
      </trkpt>
      <trkpt lat="49.54457" lon="0.69877">
        <ele>41</ele>
        <time>2012-02-19T10:42:32Z</time>
      </trkpt>
      <trkpt lat="49.54462" lon="0.69883">
        <ele>41</ele>
        <time>2012-02-19T10:42:37Z</time>
      </trkpt>
      <trkpt lat="49.54464" lon="0.6989">
        <ele>40</ele>
        <time>2012-02-19T10:42:42Z</time>
      </trkpt>
      <trkpt lat="49.54466" lon="0.69899">
        <ele>40</ele>
        <time>2012-02-19T10:42:47Z</time>
      </trkpt>
      <trkpt lat="49.54469" lon="0.69907">
        <ele>39</ele>
        <time>2012-02-19T10:42:52Z</time>
      </trkpt>
      <trkpt lat="49.5447" lon="0.69915">
        <ele>39</ele>
        <time>2012-02-19T10:42:57Z</time>
      </trkpt>
      <trkpt lat="49.54474" lon="0.69924">
        <ele>41</ele>
        <time>2012-02-19T10:43:03Z</time>
      </trkpt>
      <trkpt lat="49.54477" lon="0.69934">
        <ele>41</ele>
        <time>2012-02-19T10:43:08Z</time>
      </trkpt>
      <trkpt lat="49.5448" lon="0.69942">
        <ele>41</ele>
        <time>2012-02-19T10:43:13Z</time>
      </trkpt>
      <trkpt lat="49.54482" lon="0.69952">
        <ele>42</ele>
        <time>2012-02-19T10:43:19Z</time>
      </trkpt>
      <trkpt lat="49.54483" lon="0.69961">
        <ele>42</ele>
        <time>2012-02-19T10:43:24Z</time>
      </trkpt>
      <trkpt lat="49.54484" lon="0.69971">
        <ele>41</ele>
        <time>2012-02-19T10:43:29Z</time>
      </trkpt>
      <trkpt lat="49.54485" lon="0.69981">
        <ele>40</ele>
        <time>2012-02-19T10:43:34Z</time>
      </trkpt>
      <trkpt lat="49.54487" lon="0.69991">
        <ele>39</ele>
        <time>2012-02-19T10:43:39Z</time>
      </trkpt>
      <trkpt lat="49.54488" lon="0.70001">
        <ele>38</ele>
        <time>2012-02-19T10:43:44Z</time>
      </trkpt>
      <trkpt lat="49.54487" lon="0.70011">
        <ele>39</ele>
        <time>2012-02-19T10:43:49Z</time>
      </trkpt>
      <trkpt lat="49.54486" lon="0.70023">
        <ele>41</ele>
        <time>2012-02-19T10:43:54Z</time>
      </trkpt>
      <trkpt lat="49.54487" lon="0.70031">
        <ele>41</ele>
        <time>2012-02-19T10:43:59Z</time>
      </trkpt>
      <trkpt lat="49.54487" lon="0.70041">
        <ele>41</ele>
        <time>2012-02-19T10:44:04Z</time>
      </trkpt>
      <trkpt lat="49.54485" lon="0.7005">
        <ele>41</ele>
        <time>2012-02-19T10:44:09Z</time>
      </trkpt>
      <trkpt lat="49.54484" lon="0.70061">
        <ele>40</ele>
        <time>2012-02-19T10:44:15Z</time>
      </trkpt>
      <trkpt lat="49.54483" lon="0.7007">
        <ele>38</ele>
        <time>2012-02-19T10:44:20Z</time>
      </trkpt>
      <trkpt lat="49.54483" lon="0.70082">
        <ele>37</ele>
        <time>2012-02-19T10:44:25Z</time>
      </trkpt>
      <trkpt lat="49.54484" lon="0.70091">
        <ele>35</ele>
        <time>2012-02-19T10:44:30Z</time>
      </trkpt>
      <trkpt lat="49.54485" lon="0.701">
        <ele>36</ele>
        <time>2012-02-19T10:44:35Z</time>
      </trkpt>
      <trkpt lat="49.54485" lon="0.70111">
        <ele>37</ele>
        <time>2012-02-19T10:44:40Z</time>
      </trkpt>
      <trkpt lat="49.54484" lon="0.70123">
        <ele>37</ele>
        <time>2012-02-19T10:44:45Z</time>
      </trkpt>
      <trkpt lat="49.54483" lon="0.70134">
        <ele>37</ele>
        <time>2012-02-19T10:44:50Z</time>
      </trkpt>
      <trkpt lat="49.54483" lon="0.70146">
        <ele>36</ele>
        <time>2012-02-19T10:44:55Z</time>
      </trkpt>
      <trkpt lat="49.54482" lon="0.70154">
        <ele>35</ele>
        <time>2012-02-19T10:45:01Z</time>
      </trkpt>
      <trkpt lat="49.54482" lon="0.70162">
        <ele>34</ele>
        <time>2012-02-19T10:45:06Z</time>
      </trkpt>
      <trkpt lat="49.54482" lon="0.7017">
        <ele>30</ele>
        <time>2012-02-19T10:45:11Z</time>
      </trkpt>
      <trkpt lat="49.54482" lon="0.70179">
        <ele>31</ele>
        <time>2012-02-19T10:45:17Z</time>
      </trkpt>
      <trkpt lat="49.54482" lon="0.70188">
        <ele>31</ele>
        <time>2012-02-19T10:45:23Z</time>
      </trkpt>
      <trkpt lat="49.54482" lon="0.70197">
        <ele>31</ele>
        <time>2012-02-19T10:45:28Z</time>
      </trkpt>
      <trkpt lat="49.54482" lon="0.70207">
        <ele>31</ele>
        <time>2012-02-19T10:45:34Z</time>
      </trkpt>
      <trkpt lat="49.54481" lon="0.70217">
        <ele>30</ele>
        <time>2012-02-19T10:45:39Z</time>
      </trkpt>
      <trkpt lat="49.5448" lon="0.70224">
        <ele>30</ele>
        <time>2012-02-19T10:45:45Z</time>
      </trkpt>
      <trkpt lat="49.5448" lon="0.70231">
        <ele>29</ele>
        <time>2012-02-19T10:45:51Z</time>
      </trkpt>
      <trkpt lat="49.54478" lon="0.7024">
        <ele>28</ele>
        <time>2012-02-19T10:45:56Z</time>
      </trkpt>
      <trkpt lat="49.54475" lon="0.70252">
        <ele>24</ele>
        <time>2012-02-19T10:46:01Z</time>
      </trkpt>
      <trkpt lat="49.54473" lon="0.70262">
        <ele>25</ele>
        <time>2012-02-19T10:46:06Z</time>
      </trkpt>
      <trkpt lat="49.54471" lon="0.70271">
        <ele>25</ele>
        <time>2012-02-19T10:46:11Z</time>
      </trkpt>
      <trkpt lat="49.54468" lon="0.70282">
        <ele>25</ele>
        <time>2012-02-19T10:46:17Z</time>
      </trkpt>
      <trkpt lat="49.54465" lon="0.70293">
        <ele>25</ele>
        <time>2012-02-19T10:46:23Z</time>
      </trkpt>
      <trkpt lat="49.54462" lon="0.70301">
        <ele>25</ele>
        <time>2012-02-19T10:46:28Z</time>
      </trkpt>
      <trkpt lat="49.54461" lon="0.7031">
        <ele>25</ele>
        <time>2012-02-19T10:46:33Z</time>
      </trkpt>
      <trkpt lat="49.54459" lon="0.70319">
        <ele>25</ele>
        <time>2012-02-19T10:46:38Z</time>
      </trkpt>
      <trkpt lat="49.5446" lon="0.70327">
        <ele>25</ele>
        <time>2012-02-19T10:46:43Z</time>
      </trkpt>
      <trkpt lat="49.54463" lon="0.70336">
        <ele>22</ele>
        <time>2012-02-19T10:46:48Z</time>
      </trkpt>
      <trkpt lat="49.54466" lon="0.70343">
        <ele>22</ele>
        <time>2012-02-19T10:46:53Z</time>
      </trkpt>
      <trkpt lat="49.54471" lon="0.70348">
        <ele>21</ele>
        <time>2012-02-19T10:46:58Z</time>
      </trkpt>
      <trkpt lat="49.54477" lon="0.70353">
        <ele>21</ele>
        <time>2012-02-19T10:47:03Z</time>
      </trkpt>
      <trkpt lat="49.54482" lon="0.70358">
        <ele>20</ele>
        <time>2012-02-19T10:47:08Z</time>
      </trkpt>
      <trkpt lat="49.54487" lon="0.70363">
        <ele>20</ele>
        <time>2012-02-19T10:47:14Z</time>
      </trkpt>
      <trkpt lat="49.54492" lon="0.70369">
        <ele>20</ele>
        <time>2012-02-19T10:47:20Z</time>
      </trkpt>
      <trkpt lat="49.54497" lon="0.70375">
        <ele>20</ele>
        <time>2012-02-19T10:47:26Z</time>
      </trkpt>
      <trkpt lat="49.54502" lon="0.70383">
        <ele>15</ele>
        <time>2012-02-19T10:47:32Z</time>
      </trkpt>
      <trkpt lat="49.54507" lon="0.70392">
        <ele>15</ele>
        <time>2012-02-19T10:47:38Z</time>
      </trkpt>
      <trkpt lat="49.54512" lon="0.704">
        <ele>15</ele>
        <time>2012-02-19T10:47:44Z</time>
      </trkpt>
      <trkpt lat="49.54516" lon="0.70408">
        <ele>15</ele>
        <time>2012-02-19T10:47:49Z</time>
      </trkpt>
      <trkpt lat="49.5452" lon="0.70417">
        <ele>14</ele>
        <time>2012-02-19T10:47:55Z</time>
      </trkpt>
      <trkpt lat="49.54524" lon="0.70426">
        <ele>14</ele>
        <time>2012-02-19T10:48:01Z</time>
      </trkpt>
      <trkpt lat="49.54529" lon="0.70434">
        <ele>14</ele>
        <time>2012-02-19T10:48:07Z</time>
      </trkpt>
      <trkpt lat="49.54532" lon="0.70442">
        <ele>14</ele>
        <time>2012-02-19T10:48:12Z</time>
      </trkpt>
      <trkpt lat="49.54536" lon="0.70452">
        <ele>14</ele>
        <time>2012-02-19T10:48:18Z</time>
      </trkpt>
      <trkpt lat="49.54539" lon="0.70459">
        <ele>14</ele>
        <time>2012-02-19T10:48:23Z</time>
      </trkpt>
      <trkpt lat="49.54542" lon="0.70465">
        <ele>14</ele>
        <time>2012-02-19T10:48:28Z</time>
      </trkpt>
      <trkpt lat="49.54545" lon="0.70472">
        <ele>14</ele>
        <time>2012-02-19T10:48:33Z</time>
      </trkpt>
      <trkpt lat="49.54549" lon="0.70476">
        <ele>14</ele>
        <time>2012-02-19T10:48:39Z</time>
      </trkpt>
      <trkpt lat="49.54554" lon="0.70473">
        <ele>14</ele>
        <time>2012-02-19T10:48:46Z</time>
      </trkpt>
      <trkpt lat="49.54556" lon="0.70472">
        <ele>14</ele>
        <time>2012-02-19T10:48:52Z</time>
      </trkpt>
      <trkpt lat="49.54559" lon="0.70473">
        <ele>14</ele>
        <time>2012-02-19T10:48:57Z</time>
      </trkpt>
      <trkpt lat="49.54566" lon="0.70479">
        <ele>15</ele>
        <time>2012-02-19T10:49:05Z</time>
      </trkpt>
      <trkpt lat="49.54562" lon="0.70481">
        <ele>14</ele>
        <time>2012-02-19T10:49:13Z</time>
      </trkpt>
      <trkpt lat="49.54552" lon="0.7049">
        <ele>14</ele>
        <time>2012-02-19T10:49:24Z</time>
      </trkpt>
      <trkpt lat="49.54548" lon="0.70497">
        <ele>14</ele>
        <time>2012-02-19T10:49:30Z</time>
      </trkpt>
      <trkpt lat="49.54545" lon="0.705">
        <ele>14</ele>
        <time>2012-02-19T10:49:35Z</time>
      </trkpt>
      <trkpt lat="49.54548" lon="0.70516">
        <ele>15</ele>
        <time>2012-02-19T10:49:41Z</time>
      </trkpt>
      <trkpt lat="49.54552" lon="0.70522">
        <ele>15</ele>
        <time>2012-02-19T10:49:47Z</time>
      </trkpt>
      <trkpt lat="49.54557" lon="0.7053">
        <ele>15</ele>
        <time>2012-02-19T10:49:53Z</time>
      </trkpt>
      <trkpt lat="49.54562" lon="0.70534">
        <ele>15</ele>
        <time>2012-02-19T10:49:59Z</time>
      </trkpt>
      <trkpt lat="49.54564" lon="0.7054">
        <ele>15</ele>
        <time>2012-02-19T10:50:06Z</time>
      </trkpt>
      <trkpt lat="49.54568" lon="0.70546">
        <ele>16</ele>
        <time>2012-02-19T10:50:12Z</time>
      </trkpt>
      <trkpt lat="49.54573" lon="0.7055">
        <ele>16</ele>
        <time>2012-02-19T10:50:17Z</time>
      </trkpt>
      <trkpt lat="49.54576" lon="0.70553">
        <ele>16</ele>
        <time>2012-02-19T10:50:22Z</time>
      </trkpt>
      <trkpt lat="49.54581" lon="0.70556">
        <ele>17</ele>
        <time>2012-02-19T10:50:27Z</time>
      </trkpt>
      <trkpt lat="49.54586" lon="0.7056">
        <ele>24</ele>
        <time>2012-02-19T10:50:33Z</time>
      </trkpt>
      <trkpt lat="49.54593" lon="0.7056">
        <ele>24</ele>
        <time>2012-02-19T10:50:39Z</time>
      </trkpt>
      <trkpt lat="49.54597" lon="0.70553">
        <ele>24</ele>
        <time>2012-02-19T10:50:45Z</time>
      </trkpt>
      <trkpt lat="49.54601" lon="0.70548">
        <ele>24</ele>
        <time>2012-02-19T10:50:51Z</time>
      </trkpt>
      <trkpt lat="49.54601" lon="0.70541">
        <ele>24</ele>
        <time>2012-02-19T10:50:58Z</time>
      </trkpt>
      <trkpt lat="49.54595" lon="0.70543">
        <ele>24</ele>
        <time>2012-02-19T10:51:04Z</time>
      </trkpt>
      <trkpt lat="49.54604" lon="0.70539">
        <ele>24</ele>
        <time>2012-02-19T10:51:13Z</time>
      </trkpt>
      <trkpt lat="49.54611" lon="0.70535">
        <ele>24</ele>
        <time>2012-02-19T10:51:19Z</time>
      </trkpt>
      <trkpt lat="49.54617" lon="0.70533">
        <ele>25</ele>
        <time>2012-02-19T10:51:25Z</time>
      </trkpt>
      <trkpt lat="49.54623" lon="0.7053">
        <ele>25</ele>
        <time>2012-02-19T10:51:30Z</time>
      </trkpt>
      <trkpt lat="49.54628" lon="0.70525">
        <ele>25</ele>
        <time>2012-02-19T10:51:36Z</time>
      </trkpt>
      <trkpt lat="49.54633" lon="0.70521">
        <ele>25</ele>
        <time>2012-02-19T10:51:42Z</time>
      </trkpt>
      <trkpt lat="49.54638" lon="0.70517">
        <ele>25</ele>
        <time>2012-02-19T10:51:47Z</time>
      </trkpt>
      <trkpt lat="49.54645" lon="0.70502">
        <ele>25</ele>
        <time>2012-02-19T10:51:57Z</time>
      </trkpt>
      <trkpt lat="49.54649" lon="0.70495">
        <ele>22</ele>
        <time>2012-02-19T10:52:03Z</time>
      </trkpt>
      <trkpt lat="49.54653" lon="0.70488">
        <ele>22</ele>
        <time>2012-02-19T10:52:08Z</time>
      </trkpt>
      <trkpt lat="49.54656" lon="0.7048">
        <ele>22</ele>
        <time>2012-02-19T10:52:14Z</time>
      </trkpt>
      <trkpt lat="49.54658" lon="0.70472">
        <ele>21</ele>
        <time>2012-02-19T10:52:19Z</time>
      </trkpt>
      <trkpt lat="49.54657" lon="0.70462">
        <ele>21</ele>
        <time>2012-02-19T10:52:24Z</time>
      </trkpt>
      <trkpt lat="49.54657" lon="0.70452">
        <ele>20</ele>
        <time>2012-02-19T10:52:29Z</time>
      </trkpt>
      <trkpt lat="49.54657" lon="0.70443">
        <ele>20</ele>
        <time>2012-02-19T10:52:34Z</time>
      </trkpt>
      <trkpt lat="49.54656" lon="0.70433">
        <ele>20</ele>
        <time>2012-02-19T10:52:39Z</time>
      </trkpt>
      <trkpt lat="49.54655" lon="0.70423">
        <ele>20</ele>
        <time>2012-02-19T10:52:45Z</time>
      </trkpt>
      <trkpt lat="49.54654" lon="0.70415">
        <ele>21</ele>
        <time>2012-02-19T10:52:50Z</time>
      </trkpt>
      <trkpt lat="49.54654" lon="0.70407">
        <ele>21</ele>
        <time>2012-02-19T10:52:55Z</time>
      </trkpt>
      <trkpt lat="49.54654" lon="0.70398">
        <ele>21</ele>
        <time>2012-02-19T10:53:00Z</time>
      </trkpt>
      <trkpt lat="49.54654" lon="0.70389">
        <ele>21</ele>
        <time>2012-02-19T10:53:05Z</time>
      </trkpt>
      <trkpt lat="49.54654" lon="0.70381">
        <ele>22</ele>
        <time>2012-02-19T10:53:11Z</time>
      </trkpt>
      <trkpt lat="49.54664" lon="0.70365">
        <ele>24</ele>
        <time>2012-02-19T10:53:22Z</time>
      </trkpt>
      <trkpt lat="49.54665" lon="0.70361">
        <ele>24</ele>
        <time>2012-02-19T10:53:27Z</time>
      </trkpt>
      <trkpt lat="49.54667" lon="0.70357">
        <ele>25</ele>
        <time>2012-02-19T10:53:32Z</time>
      </trkpt>
      <trkpt lat="49.54671" lon="0.70353">
        <ele>30</ele>
        <time>2012-02-19T10:53:38Z</time>
      </trkpt>
      <trkpt lat="49.54674" lon="0.70347">
        <ele>31</ele>
        <time>2012-02-19T10:53:44Z</time>
      </trkpt>
      <trkpt lat="49.54675" lon="0.70345">
        <ele>31</ele>
        <time>2012-02-19T10:53:49Z</time>
      </trkpt>
      <trkpt lat="49.54681" lon="0.7034">
        <ele>31</ele>
        <time>2012-02-19T10:53:58Z</time>
      </trkpt>
      <trkpt lat="49.54685" lon="0.70335">
        <ele>31</ele>
        <time>2012-02-19T10:54:05Z</time>
      </trkpt>
      <trkpt lat="49.54686" lon="0.70331">
        <ele>38</ele>
        <time>2012-02-19T10:54:10Z</time>
      </trkpt>
      <trkpt lat="49.54687" lon="0.70328">
        <ele>38</ele>
        <time>2012-02-19T10:54:16Z</time>
      </trkpt>
      <trkpt lat="49.54688" lon="0.70321">
        <ele>39</ele>
        <time>2012-02-19T10:54:22Z</time>
      </trkpt>
      <trkpt lat="49.54691" lon="0.70317">
        <ele>40</ele>
        <time>2012-02-19T10:54:29Z</time>
      </trkpt>
      <trkpt lat="49.54692" lon="0.70313">
        <ele>41</ele>
        <time>2012-02-19T10:54:35Z</time>
      </trkpt>
      <trkpt lat="49.54694" lon="0.70307">
        <ele>42</ele>
        <time>2012-02-19T10:54:41Z</time>
      </trkpt>
      <trkpt lat="49.54697" lon="0.70302">
        <ele>42</ele>
        <time>2012-02-19T10:54:47Z</time>
      </trkpt>
      <trkpt lat="49.547" lon="0.70299">
        <ele>43</ele>
        <time>2012-02-19T10:54:53Z</time>
      </trkpt>
      <trkpt lat="49.54698" lon="0.70295">
        <ele>43</ele>
        <time>2012-02-19T10:54:59Z</time>
      </trkpt>
      <trkpt lat="49.54698" lon="0.70293">
        <ele>43</ele>
        <time>2012-02-19T10:55:04Z</time>
      </trkpt>
      <trkpt lat="49.54698" lon="0.70288">
        <ele>44</ele>
        <time>2012-02-19T10:55:09Z</time>
      </trkpt>
      <trkpt lat="49.54699" lon="0.70282">
        <ele>44</ele>
        <time>2012-02-19T10:55:15Z</time>
      </trkpt>
      <trkpt lat="49.54698" lon="0.70278">
        <ele>44</ele>
        <time>2012-02-19T10:55:20Z</time>
      </trkpt>
      <trkpt lat="49.547" lon="0.70269">
        <ele>45</ele>
        <time>2012-02-19T10:55:27Z</time>
      </trkpt>
      <trkpt lat="49.54702" lon="0.70265">
        <ele>45</ele>
        <time>2012-02-19T10:55:33Z</time>
      </trkpt>
      <trkpt lat="49.54703" lon="0.70259">
        <ele>46</ele>
        <time>2012-02-19T10:55:39Z</time>
      </trkpt>
      <trkpt lat="49.54706" lon="0.70256">
        <ele>46</ele>
        <time>2012-02-19T10:55:44Z</time>
      </trkpt>
      <trkpt lat="49.54708" lon="0.7025">
        <ele>47</ele>
        <time>2012-02-19T10:55:49Z</time>
      </trkpt>
      <trkpt lat="49.5471" lon="0.70243">
        <ele>54</ele>
        <time>2012-02-19T10:55:55Z</time>
      </trkpt>
      <trkpt lat="49.54711" lon="0.70238">
        <ele>55</ele>
        <time>2012-02-19T10:56:03Z</time>
      </trkpt>
      <trkpt lat="49.54711" lon="0.70225">
        <ele>55</ele>
        <time>2012-02-19T10:56:09Z</time>
      </trkpt>
      <trkpt lat="49.54711" lon="0.70219">
        <ele>55</ele>
        <time>2012-02-19T10:56:15Z</time>
      </trkpt>
      <trkpt lat="49.54721" lon="0.70212">
        <ele>57</ele>
        <time>2012-02-19T10:56:20Z</time>
      </trkpt>
      <trkpt lat="49.54723" lon="0.70214">
        <ele>57</ele>
        <time>2012-02-19T10:56:25Z</time>
      </trkpt>
      <trkpt lat="49.54727" lon="0.70222">
        <ele>58</ele>
        <time>2012-02-19T10:56:31Z</time>
      </trkpt>
      <trkpt lat="49.54729" lon="0.70229">
        <ele>58</ele>
        <time>2012-02-19T10:56:37Z</time>
      </trkpt>
      <trkpt lat="49.54732" lon="0.70236">
        <ele>59</ele>
        <time>2012-02-19T10:56:43Z</time>
      </trkpt>
      <trkpt lat="49.54737" lon="0.70243">
        <ele>60</ele>
        <time>2012-02-19T10:56:49Z</time>
      </trkpt>
      <trkpt lat="49.54739" lon="0.70251">
        <ele>58</ele>
        <time>2012-02-19T10:56:55Z</time>
      </trkpt>
      <trkpt lat="49.54742" lon="0.70257">
        <ele>58</ele>
        <time>2012-02-19T10:57:00Z</time>
      </trkpt>
      <trkpt lat="49.54749" lon="0.70261">
        <ele>58</ele>
        <time>2012-02-19T10:57:05Z</time>
      </trkpt>
      <trkpt lat="49.54754" lon="0.70265">
        <ele>62</ele>
        <time>2012-02-19T10:57:10Z</time>
      </trkpt>
      <trkpt lat="49.5476" lon="0.70269">
        <ele>62</ele>
        <time>2012-02-19T10:57:17Z</time>
      </trkpt>
      <trkpt lat="49.54762" lon="0.70272">
        <ele>61</ele>
        <time>2012-02-19T10:57:22Z</time>
      </trkpt>
      <trkpt lat="49.54768" lon="0.70276">
        <ele>61</ele>
        <time>2012-02-19T10:57:28Z</time>
      </trkpt>
      <trkpt lat="49.54774" lon="0.70274">
        <ele>61</ele>
        <time>2012-02-19T10:57:34Z</time>
      </trkpt>
      <trkpt lat="49.54779" lon="0.70273">
        <ele>61</ele>
        <time>2012-02-19T10:57:40Z</time>
      </trkpt>
      <trkpt lat="49.54786" lon="0.70272">
        <ele>62</ele>
        <time>2012-02-19T10:57:45Z</time>
      </trkpt>
      <trkpt lat="49.5479" lon="0.70272">
        <ele>62</ele>
        <time>2012-02-19T10:57:52Z</time>
      </trkpt>
      <trkpt lat="49.54796" lon="0.70274">
        <ele>63</ele>
        <time>2012-02-19T10:57:58Z</time>
      </trkpt>
      <trkpt lat="49.54801" lon="0.70274">
        <ele>63</ele>
        <time>2012-02-19T10:58:04Z</time>
      </trkpt>
      <trkpt lat="49.54807" lon="0.70272">
        <ele>64</ele>
        <time>2012-02-19T10:58:09Z</time>
      </trkpt>
      <trkpt lat="49.54812" lon="0.70271">
        <ele>65</ele>
        <time>2012-02-19T10:58:14Z</time>
      </trkpt>
      <trkpt lat="49.54818" lon="0.7027">
        <ele>66</ele>
        <time>2012-02-19T10:58:19Z</time>
      </trkpt>
      <trkpt lat="49.54825" lon="0.70268">
        <ele>68</ele>
        <time>2012-02-19T10:58:24Z</time>
      </trkpt>
      <trkpt lat="49.54831" lon="0.70267">
        <ele>69</ele>
        <time>2012-02-19T10:58:30Z</time>
      </trkpt>
      <trkpt lat="49.54836" lon="0.70268">
        <ele>73</ele>
        <time>2012-02-19T10:58:36Z</time>
      </trkpt>
      <trkpt lat="49.54842" lon="0.70269">
        <ele>73</ele>
        <time>2012-02-19T10:58:41Z</time>
      </trkpt>
      <trkpt lat="49.54847" lon="0.70269">
        <ele>73</ele>
        <time>2012-02-19T10:58:46Z</time>
      </trkpt>
      <trkpt lat="49.54852" lon="0.70274">
        <ele>72</ele>
        <time>2012-02-19T10:58:51Z</time>
      </trkpt>
      <trkpt lat="49.54857" lon="0.70278">
        <ele>71</ele>
        <time>2012-02-19T10:58:57Z</time>
      </trkpt>
      <trkpt lat="49.54862" lon="0.70281">
        <ele>71</ele>
        <time>2012-02-19T10:59:03Z</time>
      </trkpt>
      <trkpt lat="49.54868" lon="0.70284">
        <ele>70</ele>
        <time>2012-02-19T10:59:09Z</time>
      </trkpt>
      <trkpt lat="49.54873" lon="0.70287">
        <ele>70</ele>
        <time>2012-02-19T10:59:14Z</time>
      </trkpt>
      <trkpt lat="49.54879" lon="0.70292">
        <ele>70</ele>
        <time>2012-02-19T10:59:20Z</time>
      </trkpt>
      <trkpt lat="49.54884" lon="0.70295">
        <ele>70</ele>
        <time>2012-02-19T10:59:25Z</time>
      </trkpt>
      <trkpt lat="49.5489" lon="0.70297">
        <ele>70</ele>
        <time>2012-02-19T10:59:30Z</time>
      </trkpt>
      <trkpt lat="49.54897" lon="0.70296">
        <ele>70</ele>
        <time>2012-02-19T10:59:36Z</time>
      </trkpt>
      <trkpt lat="49.54903" lon="0.70296">
        <ele>70</ele>
        <time>2012-02-19T10:59:42Z</time>
      </trkpt>
      <trkpt lat="49.54908" lon="0.70292">
        <ele>71</ele>
        <time>2012-02-19T10:59:47Z</time>
      </trkpt>
      <trkpt lat="49.54913" lon="0.70289">
        <ele>72</ele>
        <time>2012-02-19T10:59:52Z</time>
      </trkpt>
      <trkpt lat="49.54918" lon="0.70284">
        <ele>77</ele>
        <time>2012-02-19T10:59:58Z</time>
      </trkpt>
      <trkpt lat="49.54923" lon="0.7028">
        <ele>78</ele>
        <time>2012-02-19T11:00:03Z</time>
      </trkpt>
      <trkpt lat="49.54927" lon="0.70276">
        <ele>79</ele>
        <time>2012-02-19T11:00:09Z</time>
      </trkpt>
      <trkpt lat="49.54932" lon="0.70272">
        <ele>79</ele>
        <time>2012-02-19T11:00:14Z</time>
      </trkpt>
      <trkpt lat="49.54938" lon="0.70268">
        <ele>80</ele>
        <time>2012-02-19T11:00:20Z</time>
      </trkpt>
      <trkpt lat="49.54943" lon="0.70265">
        <ele>80</ele>
        <time>2012-02-19T11:00:25Z</time>
      </trkpt>
      <trkpt lat="49.54949" lon="0.7026">
        <ele>80</ele>
        <time>2012-02-19T11:00:30Z</time>
      </trkpt>
      <trkpt lat="49.54952" lon="0.70253">
        <ele>80</ele>
        <time>2012-02-19T11:00:36Z</time>
      </trkpt>
      <trkpt lat="49.54956" lon="0.70248">
        <ele>90</ele>
        <time>2012-02-19T11:00:41Z</time>
      </trkpt>
      <trkpt lat="49.54961" lon="0.70244">
        <ele>90</ele>
        <time>2012-02-19T11:00:47Z</time>
      </trkpt>
      <trkpt lat="49.54966" lon="0.70245">
        <ele>90</ele>
        <time>2012-02-19T11:00:53Z</time>
      </trkpt>
      <trkpt lat="49.54971" lon="0.70251">
        <ele>80</ele>
        <time>2012-02-19T11:00:59Z</time>
      </trkpt>
      <trkpt lat="49.54973" lon="0.70258">
        <ele>80</ele>
        <time>2012-02-19T11:01:04Z</time>
      </trkpt>
      <trkpt lat="49.54975" lon="0.70268">
        <ele>80</ele>
        <time>2012-02-19T11:01:10Z</time>
      </trkpt>
      <trkpt lat="49.54976" lon="0.70277">
        <ele>79</ele>
        <time>2012-02-19T11:01:15Z</time>
      </trkpt>
      <trkpt lat="49.54979" lon="0.70285">
        <ele>78</ele>
        <time>2012-02-19T11:01:20Z</time>
      </trkpt>
      <trkpt lat="49.54981" lon="0.70293">
        <ele>77</ele>
        <time>2012-02-19T11:01:26Z</time>
      </trkpt>
      <trkpt lat="49.54984" lon="0.70299">
        <ele>77</ele>
        <time>2012-02-19T11:01:31Z</time>
      </trkpt>
      <trkpt lat="49.54988" lon="0.70306">
        <ele>76</ele>
        <time>2012-02-19T11:01:37Z</time>
      </trkpt>
      <trkpt lat="49.54994" lon="0.70312">
        <ele>75</ele>
        <time>2012-02-19T11:01:43Z</time>
      </trkpt>
      <trkpt lat="49.54998" lon="0.70318">
        <ele>75</ele>
        <time>2012-02-19T11:01:49Z</time>
      </trkpt>
      <trkpt lat="49.55001" lon="0.70321">
        <ele>78</ele>
        <time>2012-02-19T11:01:56Z</time>
      </trkpt>
      <trkpt lat="49.55005" lon="0.70325">
        <ele>77</ele>
        <time>2012-02-19T11:02:01Z</time>
      </trkpt>
      <trkpt lat="49.55009" lon="0.70326">
        <ele>78</ele>
        <time>2012-02-19T11:02:07Z</time>
      </trkpt>
      <trkpt lat="49.55013" lon="0.70328">
        <ele>78</ele>
        <time>2012-02-19T11:02:12Z</time>
      </trkpt>
      <trkpt lat="49.55018" lon="0.7033">
        <ele>79</ele>
        <time>2012-02-19T11:02:18Z</time>
      </trkpt>
      <trkpt lat="49.55023" lon="0.70333">
        <ele>80</ele>
        <time>2012-02-19T11:02:23Z</time>
      </trkpt>
      <trkpt lat="49.55029" lon="0.70336">
        <ele>74</ele>
        <time>2012-02-19T11:02:29Z</time>
      </trkpt>
      <trkpt lat="49.55035" lon="0.7034">
        <ele>75</ele>
        <time>2012-02-19T11:02:35Z</time>
      </trkpt>
      <trkpt lat="49.5504" lon="0.70342">
        <ele>75</ele>
        <time>2012-02-19T11:02:40Z</time>
      </trkpt>
      <trkpt lat="49.55045" lon="0.70345">
        <ele>76</ele>
        <time>2012-02-19T11:02:45Z</time>
      </trkpt>
      <trkpt lat="49.55051" lon="0.70347">
        <ele>76</ele>
        <time>2012-02-19T11:02:52Z</time>
      </trkpt>
      <trkpt lat="49.55057" lon="0.70351">
        <ele>77</ele>
        <time>2012-02-19T11:02:57Z</time>
      </trkpt>
      <trkpt lat="49.55062" lon="0.70355">
        <ele>77</ele>
        <time>2012-02-19T11:03:02Z</time>
      </trkpt>
      <trkpt lat="49.55067" lon="0.70359">
        <ele>77</ele>
        <time>2012-02-19T11:03:09Z</time>
      </trkpt>
      <trkpt lat="49.55072" lon="0.70362">
        <ele>77</ele>
        <time>2012-02-19T11:03:14Z</time>
      </trkpt>
      <trkpt lat="49.55077" lon="0.70366">
        <ele>77</ele>
        <time>2012-02-19T11:03:20Z</time>
      </trkpt>
      <trkpt lat="49.55082" lon="0.70368">
        <ele>77</ele>
        <time>2012-02-19T11:03:26Z</time>
      </trkpt>
      <trkpt lat="49.55087" lon="0.7037">
        <ele>84</ele>
        <time>2012-02-19T11:03:31Z</time>
      </trkpt>
      <trkpt lat="49.55091" lon="0.70372">
        <ele>84</ele>
        <time>2012-02-19T11:03:36Z</time>
      </trkpt>
      <trkpt lat="49.55096" lon="0.70373">
        <ele>84</ele>
        <time>2012-02-19T11:03:41Z</time>
      </trkpt>
      <trkpt lat="49.55102" lon="0.70376">
        <ele>84</ele>
        <time>2012-02-19T11:03:46Z</time>
      </trkpt>
      <trkpt lat="49.55107" lon="0.70376">
        <ele>84</ele>
        <time>2012-02-19T11:03:51Z</time>
      </trkpt>
      <trkpt lat="49.55112" lon="0.70378">
        <ele>84</ele>
        <time>2012-02-19T11:03:57Z</time>
      </trkpt>
      <trkpt lat="49.55117" lon="0.70379">
        <ele>84</ele>
        <time>2012-02-19T11:04:03Z</time>
      </trkpt>
      <trkpt lat="49.55122" lon="0.7038">
        <ele>84</ele>
        <time>2012-02-19T11:04:08Z</time>
      </trkpt>
      <trkpt lat="49.55129" lon="0.70381">
        <ele>85</ele>
        <time>2012-02-19T11:04:14Z</time>
      </trkpt>
      <trkpt lat="49.55135" lon="0.7038">
        <ele>85</ele>
        <time>2012-02-19T11:04:20Z</time>
      </trkpt>
      <trkpt lat="49.55141" lon="0.70379">
        <ele>85</ele>
        <time>2012-02-19T11:04:26Z</time>
      </trkpt>
      <trkpt lat="49.55147" lon="0.70376">
        <ele>85</ele>
        <time>2012-02-19T11:04:31Z</time>
      </trkpt>
      <trkpt lat="49.55154" lon="0.70371">
        <ele>86</ele>
        <time>2012-02-19T11:04:37Z</time>
      </trkpt>
      <trkpt lat="49.55158" lon="0.70364">
        <ele>87</ele>
        <time>2012-02-19T11:04:45Z</time>
      </trkpt>
      <trkpt lat="49.55161" lon="0.70359">
        <ele>87</ele>
        <time>2012-02-19T11:04:50Z</time>
      </trkpt>
      <trkpt lat="49.55164" lon="0.7035">
        <ele>88</ele>
        <time>2012-02-19T11:04:55Z</time>
      </trkpt>
      <trkpt lat="49.55167" lon="0.70344">
        <ele>89</ele>
        <time>2012-02-19T11:05:00Z</time>
      </trkpt>
      <trkpt lat="49.55171" lon="0.70336">
        <ele>89</ele>
        <time>2012-02-19T11:05:05Z</time>
      </trkpt>
      <trkpt lat="49.55175" lon="0.70329">
        <ele>90</ele>
        <time>2012-02-19T11:05:11Z</time>
      </trkpt>
      <trkpt lat="49.5518" lon="0.70321">
        <ele>89</ele>
        <time>2012-02-19T11:05:17Z</time>
      </trkpt>
      <trkpt lat="49.55184" lon="0.70314">
        <ele>88</ele>
        <time>2012-02-19T11:05:23Z</time>
      </trkpt>
      <trkpt lat="49.55188" lon="0.70307">
        <ele>88</ele>
        <time>2012-02-19T11:05:28Z</time>
      </trkpt>
      <trkpt lat="49.55193" lon="0.703">
        <ele>88</ele>
        <time>2012-02-19T11:05:34Z</time>
      </trkpt>
      <trkpt lat="49.55197" lon="0.70293">
        <ele>88</ele>
        <time>2012-02-19T11:05:40Z</time>
      </trkpt>
      <trkpt lat="49.55203" lon="0.70286">
        <ele>88</ele>
        <time>2012-02-19T11:05:46Z</time>
      </trkpt>
      <trkpt lat="49.55207" lon="0.7028">
        <ele>88</ele>
        <time>2012-02-19T11:05:51Z</time>
      </trkpt>
      <trkpt lat="49.55213" lon="0.70272">
        <ele>88</ele>
        <time>2012-02-19T11:05:57Z</time>
      </trkpt>
      <trkpt lat="49.55218" lon="0.70265">
        <ele>88</ele>
        <time>2012-02-19T11:06:03Z</time>
      </trkpt>
      <trkpt lat="49.55223" lon="0.70257">
        <ele>88</ele>
        <time>2012-02-19T11:06:09Z</time>
      </trkpt>
      <trkpt lat="49.55226" lon="0.70253">
        <ele>88</ele>
        <time>2012-02-19T11:06:14Z</time>
      </trkpt>
      <trkpt lat="49.5523" lon="0.70248">
        <ele>91</ele>
        <time>2012-02-19T11:06:20Z</time>
      </trkpt>
      <trkpt lat="49.55235" lon="0.7024">
        <ele>91</ele>
        <time>2012-02-19T11:06:25Z</time>
      </trkpt>
      <trkpt lat="49.55242" lon="0.70233">
        <ele>91</ele>
        <time>2012-02-19T11:06:31Z</time>
      </trkpt>
      <trkpt lat="49.55248" lon="0.70228">
        <ele>91</ele>
        <time>2012-02-19T11:06:36Z</time>
      </trkpt>
      <trkpt lat="49.55253" lon="0.70223">
        <ele>84</ele>
        <time>2012-02-19T11:06:41Z</time>
      </trkpt>
      <trkpt lat="49.55259" lon="0.70217">
        <ele>84</ele>
        <time>2012-02-19T11:06:47Z</time>
      </trkpt>
      <trkpt lat="49.55264" lon="0.7021">
        <ele>84</ele>
        <time>2012-02-19T11:06:52Z</time>
      </trkpt>
      <trkpt lat="49.55269" lon="0.70204">
        <ele>84</ele>
        <time>2012-02-19T11:06:57Z</time>
      </trkpt>
      <trkpt lat="49.55275" lon="0.70199">
        <ele>84</ele>
        <time>2012-02-19T11:07:03Z</time>
      </trkpt>
      <trkpt lat="49.55279" lon="0.70193">
        <ele>84</ele>
        <time>2012-02-19T11:07:09Z</time>
      </trkpt>
      <trkpt lat="49.55285" lon="0.70187">
        <ele>83</ele>
        <time>2012-02-19T11:07:15Z</time>
      </trkpt>
      <trkpt lat="49.5529" lon="0.70178">
        <ele>83</ele>
        <time>2012-02-19T11:07:21Z</time>
      </trkpt>
      <trkpt lat="49.55292" lon="0.70169">
        <ele>83</ele>
        <time>2012-02-19T11:07:26Z</time>
      </trkpt>
      <trkpt lat="49.55294" lon="0.70158">
        <ele>85</ele>
        <time>2012-02-19T11:07:31Z</time>
      </trkpt>
      <trkpt lat="49.55294" lon="0.70149">
        <ele>85</ele>
        <time>2012-02-19T11:07:36Z</time>
      </trkpt>
      <trkpt lat="49.55294" lon="0.70139">
        <ele>85</ele>
        <time>2012-02-19T11:07:42Z</time>
      </trkpt>
      <trkpt lat="49.55295" lon="0.70131">
        <ele>85</ele>
        <time>2012-02-19T11:07:47Z</time>
      </trkpt>
      <trkpt lat="49.55295" lon="0.70121">
        <ele>85</ele>
        <time>2012-02-19T11:07:52Z</time>
      </trkpt>
      <trkpt lat="49.55295" lon="0.70111">
        <ele>85</ele>
        <time>2012-02-19T11:07:58Z</time>
      </trkpt>
      <trkpt lat="49.55295" lon="0.70102">
        <ele>85</ele>
        <time>2012-02-19T11:08:04Z</time>
      </trkpt>
      <trkpt lat="49.55295" lon="0.70094">
        <ele>85</ele>
        <time>2012-02-19T11:08:09Z</time>
      </trkpt>
      <trkpt lat="49.55294" lon="0.70083">
        <ele>85</ele>
        <time>2012-02-19T11:08:15Z</time>
      </trkpt>
      <trkpt lat="49.55293" lon="0.70075">
        <ele>85</ele>
        <time>2012-02-19T11:08:20Z</time>
      </trkpt>
      <trkpt lat="49.55293" lon="0.70068">
        <ele>85</ele>
        <time>2012-02-19T11:08:28Z</time>
      </trkpt>
      <trkpt lat="49.5529" lon="0.70061">
        <ele>85</ele>
        <time>2012-02-19T11:08:34Z</time>
      </trkpt>
      <trkpt lat="49.55288" lon="0.70053">
        <ele>85</ele>
        <time>2012-02-19T11:08:39Z</time>
      </trkpt>
      <trkpt lat="49.55288" lon="0.70046">
        <ele>85</ele>
        <time>2012-02-19T11:08:44Z</time>
      </trkpt>
      <trkpt lat="49.55288" lon="0.70038">
        <ele>85</ele>
        <time>2012-02-19T11:08:50Z</time>
      </trkpt>
      <trkpt lat="49.55289" lon="0.70028">
        <ele>85</ele>
        <time>2012-02-19T11:08:55Z</time>
      </trkpt>
      <trkpt lat="49.55289" lon="0.70016">
        <ele>85</ele>
        <time>2012-02-19T11:09:00Z</time>
      </trkpt>
      <trkpt lat="49.55289" lon="0.70007">
        <ele>85</ele>
        <time>2012-02-19T11:09:05Z</time>
      </trkpt>
      <trkpt lat="49.55288" lon="0.69998">
        <ele>84</ele>
        <time>2012-02-19T11:09:10Z</time>
      </trkpt>
      <trkpt lat="49.55288" lon="0.69988">
        <ele>84</ele>
        <time>2012-02-19T11:09:15Z</time>
      </trkpt>
      <trkpt lat="49.55289" lon="0.69979">
        <ele>84</ele>
        <time>2012-02-19T11:09:20Z</time>
      </trkpt>
      <trkpt lat="49.5529" lon="0.6997">
        <ele>84</ele>
        <time>2012-02-19T11:09:26Z</time>
      </trkpt>
      <trkpt lat="49.55291" lon="0.69959">
        <ele>84</ele>
        <time>2012-02-19T11:09:31Z</time>
      </trkpt>
      <trkpt lat="49.55292" lon="0.69948">
        <ele>84</ele>
        <time>2012-02-19T11:09:36Z</time>
      </trkpt>
      <trkpt lat="49.55294" lon="0.69937">
        <ele>84</ele>
        <time>2012-02-19T11:09:42Z</time>
      </trkpt>
      <trkpt lat="49.55295" lon="0.69928">
        <ele>84</ele>
        <time>2012-02-19T11:09:47Z</time>
      </trkpt>
      <trkpt lat="49.55296" lon="0.69918">
        <ele>84</ele>
        <time>2012-02-19T11:09:53Z</time>
      </trkpt>
      <trkpt lat="49.55296" lon="0.69908">
        <ele>84</ele>
        <time>2012-02-19T11:09:59Z</time>
      </trkpt>
      <trkpt lat="49.55298" lon="0.69898">
        <ele>84</ele>
        <time>2012-02-19T11:10:05Z</time>
      </trkpt>
      <trkpt lat="49.55299" lon="0.69888">
        <ele>84</ele>
        <time>2012-02-19T11:10:10Z</time>
      </trkpt>
      <trkpt lat="49.55302" lon="0.6988">
        <ele>84</ele>
        <time>2012-02-19T11:10:16Z</time>
      </trkpt>
      <trkpt lat="49.55306" lon="0.69871">
        <ele>84</ele>
        <time>2012-02-19T11:10:22Z</time>
      </trkpt>
      <trkpt lat="49.5531" lon="0.69863">
        <ele>83</ele>
        <time>2012-02-19T11:10:27Z</time>
      </trkpt>
      <trkpt lat="49.55314" lon="0.69857">
        <ele>83</ele>
        <time>2012-02-19T11:10:32Z</time>
      </trkpt>
      <trkpt lat="49.55319" lon="0.69851">
        <ele>82</ele>
        <time>2012-02-19T11:10:38Z</time>
      </trkpt>
      <trkpt lat="49.55321" lon="0.69841">
        <ele>81</ele>
        <time>2012-02-19T11:10:43Z</time>
      </trkpt>
      <trkpt lat="49.55325" lon="0.69834">
        <ele>80</ele>
        <time>2012-02-19T11:10:48Z</time>
      </trkpt>
      <trkpt lat="49.55327" lon="0.69825">
        <ele>80</ele>
        <time>2012-02-19T11:10:53Z</time>
      </trkpt>
      <trkpt lat="49.5533" lon="0.69817">
        <ele>81</ele>
        <time>2012-02-19T11:10:58Z</time>
      </trkpt>
      <trkpt lat="49.55332" lon="0.69809">
        <ele>81</ele>
        <time>2012-02-19T11:11:03Z</time>
      </trkpt>
      <trkpt lat="49.55335" lon="0.698">
        <ele>81</ele>
        <time>2012-02-19T11:11:09Z</time>
      </trkpt>
      <trkpt lat="49.55339" lon="0.69791">
        <ele>81</ele>
        <time>2012-02-19T11:11:15Z</time>
      </trkpt>
      <trkpt lat="49.55343" lon="0.69784">
        <ele>81</ele>
        <time>2012-02-19T11:11:21Z</time>
      </trkpt>
      <trkpt lat="49.55348" lon="0.69776">
        <ele>81</ele>
        <time>2012-02-19T11:11:27Z</time>
      </trkpt>
      <trkpt lat="49.55352" lon="0.6977">
        <ele>81</ele>
        <time>2012-02-19T11:11:33Z</time>
      </trkpt>
      <trkpt lat="49.55358" lon="0.69763">
        <ele>81</ele>
        <time>2012-02-19T11:11:39Z</time>
      </trkpt>
      <trkpt lat="49.55364" lon="0.69757">
        <ele>81</ele>
        <time>2012-02-19T11:11:45Z</time>
      </trkpt>
      <trkpt lat="49.55368" lon="0.69751">
        <ele>82</ele>
        <time>2012-02-19T11:11:50Z</time>
      </trkpt>
      <trkpt lat="49.55374" lon="0.69742">
        <ele>82</ele>
        <time>2012-02-19T11:11:56Z</time>
      </trkpt>
      <trkpt lat="49.55378" lon="0.69734">
        <ele>82</ele>
        <time>2012-02-19T11:12:01Z</time>
      </trkpt>
      <trkpt lat="49.55383" lon="0.69727">
        <ele>82</ele>
        <time>2012-02-19T11:12:07Z</time>
      </trkpt>
      <trkpt lat="49.55389" lon="0.69722">
        <ele>83</ele>
        <time>2012-02-19T11:12:13Z</time>
      </trkpt>
      <trkpt lat="49.55394" lon="0.69714">
        <ele>83</ele>
        <time>2012-02-19T11:12:19Z</time>
      </trkpt>
      <trkpt lat="49.554" lon="0.69712">
        <ele>83</ele>
        <time>2012-02-19T11:12:24Z</time>
      </trkpt>
      <trkpt lat="49.55405" lon="0.69708">
        <ele>83</ele>
        <time>2012-02-19T11:12:29Z</time>
      </trkpt>
      <trkpt lat="49.5541" lon="0.69703">
        <ele>83</ele>
        <time>2012-02-19T11:12:35Z</time>
      </trkpt>
      <trkpt lat="49.55415" lon="0.69698">
        <ele>83</ele>
        <time>2012-02-19T11:12:40Z</time>
      </trkpt>
      <trkpt lat="49.55421" lon="0.69694">
        <ele>86</ele>
        <time>2012-02-19T11:12:46Z</time>
      </trkpt>
      <trkpt lat="49.55426" lon="0.69689">
        <ele>86</ele>
        <time>2012-02-19T11:12:52Z</time>
      </trkpt>
      <trkpt lat="49.5543" lon="0.69681">
        <ele>86</ele>
        <time>2012-02-19T11:12:57Z</time>
      </trkpt>
      <trkpt lat="49.55435" lon="0.69672">
        <ele>86</ele>
        <time>2012-02-19T11:13:03Z</time>
      </trkpt>
      <trkpt lat="49.5544" lon="0.69664">
        <ele>87</ele>
        <time>2012-02-19T11:13:09Z</time>
      </trkpt>
      <trkpt lat="49.55446" lon="0.69656">
        <ele>87</ele>
        <time>2012-02-19T11:13:15Z</time>
      </trkpt>
      <trkpt lat="49.55451" lon="0.69653">
        <ele>88</ele>
        <time>2012-02-19T11:13:20Z</time>
      </trkpt>
      <trkpt lat="49.55456" lon="0.69647">
        <ele>88</ele>
        <time>2012-02-19T11:13:26Z</time>
      </trkpt>
      <trkpt lat="49.55463" lon="0.69642">
        <ele>88</ele>
        <time>2012-02-19T11:13:32Z</time>
      </trkpt>
      <trkpt lat="49.55469" lon="0.69636">
        <ele>89</ele>
        <time>2012-02-19T11:13:37Z</time>
      </trkpt>
      <trkpt lat="49.55475" lon="0.69633">
        <ele>89</ele>
        <time>2012-02-19T11:13:43Z</time>
      </trkpt>
      <trkpt lat="49.5548" lon="0.69632">
        <ele>89</ele>
        <time>2012-02-19T11:13:48Z</time>
      </trkpt>
      <trkpt lat="49.55486" lon="0.6963">
        <ele>89</ele>
        <time>2012-02-19T11:13:53Z</time>
      </trkpt>
      <trkpt lat="49.55492" lon="0.69628">
        <ele>89</ele>
        <time>2012-02-19T11:13:59Z</time>
      </trkpt>
      <trkpt lat="49.55497" lon="0.69629">
        <ele>89</ele>
        <time>2012-02-19T11:14:05Z</time>
      </trkpt>
      <trkpt lat="49.55502" lon="0.69631">
        <ele>91</ele>
        <time>2012-02-19T11:14:10Z</time>
      </trkpt>
      <trkpt lat="49.55507" lon="0.69634">
        <ele>91</ele>
        <time>2012-02-19T11:14:15Z</time>
      </trkpt>
      <trkpt lat="49.55513" lon="0.69636">
        <ele>91</ele>
        <time>2012-02-19T11:14:21Z</time>
      </trkpt>
      <trkpt lat="49.5552" lon="0.69636">
        <ele>91</ele>
        <time>2012-02-19T11:14:26Z</time>
      </trkpt>
      <trkpt lat="49.55525" lon="0.69635">
        <ele>91</ele>
        <time>2012-02-19T11:14:31Z</time>
      </trkpt>
      <trkpt lat="49.55531" lon="0.69634">
        <ele>92</ele>
        <time>2012-02-19T11:14:36Z</time>
      </trkpt>
      <trkpt lat="49.55536" lon="0.69635">
        <ele>92</ele>
        <time>2012-02-19T11:14:42Z</time>
      </trkpt>
      <trkpt lat="49.55543" lon="0.69632">
        <ele>92</ele>
        <time>2012-02-19T11:14:47Z</time>
      </trkpt>
      <trkpt lat="49.55551" lon="0.69627">
        <ele>92</ele>
        <time>2012-02-19T11:14:53Z</time>
      </trkpt>
      <trkpt lat="49.55555" lon="0.6962">
        <ele>92</ele>
        <time>2012-02-19T11:14:58Z</time>
      </trkpt>
      <trkpt lat="49.55559" lon="0.69616">
        <ele>92</ele>
        <time>2012-02-19T11:15:04Z</time>
      </trkpt>
      <trkpt lat="49.55562" lon="0.69612">
        <ele>93</ele>
        <time>2012-02-19T11:15:10Z</time>
      </trkpt>
      <trkpt lat="49.55566" lon="0.69604">
        <ele>93</ele>
        <time>2012-02-19T11:15:15Z</time>
      </trkpt>
      <trkpt lat="49.55572" lon="0.69601">
        <ele>93</ele>
        <time>2012-02-19T11:15:20Z</time>
      </trkpt>
      <trkpt lat="49.55576" lon="0.69592">
        <ele>93</ele>
        <time>2012-02-19T11:15:26Z</time>
      </trkpt>
      <trkpt lat="49.55581" lon="0.69587">
        <ele>93</ele>
        <time>2012-02-19T11:15:32Z</time>
      </trkpt>
      <trkpt lat="49.55586" lon="0.69581">
        <ele>94</ele>
        <time>2012-02-19T11:15:38Z</time>
      </trkpt>
      <trkpt lat="49.5559" lon="0.69575">
        <ele>95</ele>
        <time>2012-02-19T11:15:43Z</time>
      </trkpt>
      <trkpt lat="49.55596" lon="0.69571">
        <ele>95</ele>
        <time>2012-02-19T11:15:48Z</time>
      </trkpt>
      <trkpt lat="49.55601" lon="0.69564">
        <ele>96</ele>
        <time>2012-02-19T11:15:54Z</time>
      </trkpt>
      <trkpt lat="49.55605" lon="0.69558">
        <ele>96</ele>
        <time>2012-02-19T11:15:59Z</time>
      </trkpt>
      <trkpt lat="49.55611" lon="0.69552">
        <ele>97</ele>
        <time>2012-02-19T11:16:05Z</time>
      </trkpt>
      <trkpt lat="49.55617" lon="0.69546">
        <ele>97</ele>
        <time>2012-02-19T11:16:11Z</time>
      </trkpt>
      <trkpt lat="49.55621" lon="0.69539">
        <ele>97</ele>
        <time>2012-02-19T11:16:16Z</time>
      </trkpt>
      <trkpt lat="49.55626" lon="0.69534">
        <ele>97</ele>
        <time>2012-02-19T11:16:21Z</time>
      </trkpt>
      <trkpt lat="49.5563" lon="0.69525">
        <ele>97</ele>
        <time>2012-02-19T11:16:27Z</time>
      </trkpt>
      <trkpt lat="49.55635" lon="0.69519">
        <ele>97</ele>
        <time>2012-02-19T11:16:33Z</time>
      </trkpt>
      <trkpt lat="49.55639" lon="0.69515">
        <ele>97</ele>
        <time>2012-02-19T11:16:38Z</time>
      </trkpt>
      <trkpt lat="49.55643" lon="0.69508">
        <ele>97</ele>
        <time>2012-02-19T11:16:43Z</time>
      </trkpt>
      <trkpt lat="49.55649" lon="0.69505">
        <ele>97</ele>
        <time>2012-02-19T11:16:48Z</time>
      </trkpt>
      <trkpt lat="49.55653" lon="0.69499">
        <ele>98</ele>
        <time>2012-02-19T11:16:53Z</time>
      </trkpt>
      <trkpt lat="49.55656" lon="0.6949">
        <ele>98</ele>
        <time>2012-02-19T11:16:59Z</time>
      </trkpt>
      <trkpt lat="49.55659" lon="0.69483">
        <ele>98</ele>
        <time>2012-02-19T11:17:04Z</time>
      </trkpt>
      <trkpt lat="49.55666" lon="0.69478">
        <ele>98</ele>
        <time>2012-02-19T11:17:10Z</time>
      </trkpt>
      <trkpt lat="49.55671" lon="0.69469">
        <ele>99</ele>
        <time>2012-02-19T11:17:16Z</time>
      </trkpt>
      <trkpt lat="49.55674" lon="0.69461">
        <ele>99</ele>
        <time>2012-02-19T11:17:22Z</time>
      </trkpt>
      <trkpt lat="49.55677" lon="0.69454">
        <ele>99</ele>
        <time>2012-02-19T11:17:27Z</time>
      </trkpt>
      <trkpt lat="49.5568" lon="0.69446">
        <ele>99</ele>
        <time>2012-02-19T11:17:33Z</time>
      </trkpt>
      <trkpt lat="49.55682" lon="0.69436">
        <ele>98</ele>
        <time>2012-02-19T11:17:39Z</time>
      </trkpt>
      <trkpt lat="49.55685" lon="0.69428">
        <ele>98</ele>
        <time>2012-02-19T11:17:45Z</time>
      </trkpt>
      <trkpt lat="49.55688" lon="0.69421">
        <ele>98</ele>
        <time>2012-02-19T11:17:50Z</time>
      </trkpt>
      <trkpt lat="49.55691" lon="0.69414">
        <ele>98</ele>
        <time>2012-02-19T11:17:55Z</time>
      </trkpt>
      <trkpt lat="49.55693" lon="0.69406">
        <ele>99</ele>
        <time>2012-02-19T11:18:01Z</time>
      </trkpt>
      <trkpt lat="49.55696" lon="0.69399">
        <ele>99</ele>
        <time>2012-02-19T11:18:06Z</time>
      </trkpt>
      <trkpt lat="49.55698" lon="0.69391">
        <ele>99</ele>
        <time>2012-02-19T11:18:12Z</time>
      </trkpt>
      <trkpt lat="49.557" lon="0.69382">
        <ele>99</ele>
        <time>2012-02-19T11:18:17Z</time>
      </trkpt>
      <trkpt lat="49.55701" lon="0.69372">
        <ele>99</ele>
        <time>2012-02-19T11:18:22Z</time>
      </trkpt>
      <trkpt lat="49.55702" lon="0.69364">
        <ele>99</ele>
        <time>2012-02-19T11:18:27Z</time>
      </trkpt>
      <trkpt lat="49.55704" lon="0.69357">
        <ele>99</ele>
        <time>2012-02-19T11:18:33Z</time>
      </trkpt>
      <trkpt lat="49.55706" lon="0.69349">
        <ele>99</ele>
        <time>2012-02-19T11:18:38Z</time>
      </trkpt>
      <trkpt lat="49.55706" lon="0.6934">
        <ele>100</ele>
        <time>2012-02-19T11:18:43Z</time>
      </trkpt>
      <trkpt lat="49.55707" lon="0.69333">
        <ele>101</ele>
        <time>2012-02-19T11:18:48Z</time>
      </trkpt>
      <trkpt lat="49.55707" lon="0.69324">
        <ele>101</ele>
        <time>2012-02-19T11:18:53Z</time>
      </trkpt>
      <trkpt lat="49.55708" lon="0.69315">
        <ele>101</ele>
        <time>2012-02-19T11:18:59Z</time>
      </trkpt>
      <trkpt lat="49.5571" lon="0.69306">
        <ele>101</ele>
        <time>2012-02-19T11:19:05Z</time>
      </trkpt>
      <trkpt lat="49.55708" lon="0.69293">
        <ele>101</ele>
        <time>2012-02-19T11:19:12Z</time>
      </trkpt>
      <trkpt lat="49.55707" lon="0.69282">
        <ele>101</ele>
        <time>2012-02-19T11:19:18Z</time>
      </trkpt>
      <trkpt lat="49.55705" lon="0.69271">
        <ele>102</ele>
        <time>2012-02-19T11:19:24Z</time>
      </trkpt>
      <trkpt lat="49.55704" lon="0.69258">
        <ele>102</ele>
        <time>2012-02-19T11:19:30Z</time>
      </trkpt>
      <trkpt lat="49.55703" lon="0.69248">
        <ele>105</ele>
        <time>2012-02-19T11:19:35Z</time>
      </trkpt>
      <trkpt lat="49.55704" lon="0.69239">
        <ele>105</ele>
        <time>2012-02-19T11:19:40Z</time>
      </trkpt>
      <trkpt lat="49.55704" lon="0.69232">
        <ele>105</ele>
        <time>2012-02-19T11:19:45Z</time>
      </trkpt>
      <trkpt lat="49.55704" lon="0.69223">
        <ele>105</ele>
        <time>2012-02-19T11:19:50Z</time>
      </trkpt>
      <trkpt lat="49.55704" lon="0.69215">
        <ele>105</ele>
        <time>2012-02-19T11:19:55Z</time>
      </trkpt>
      <trkpt lat="49.55706" lon="0.69206">
        <ele>106</ele>
        <time>2012-02-19T11:20:02Z</time>
      </trkpt>
      <trkpt lat="49.55707" lon="0.69198">
        <ele>106</ele>
        <time>2012-02-19T11:20:08Z</time>
      </trkpt>
      <trkpt lat="49.55709" lon="0.69191">
        <ele>106</ele>
        <time>2012-02-19T11:20:13Z</time>
      </trkpt>
      <trkpt lat="49.55714" lon="0.69184">
        <ele>106</ele>
        <time>2012-02-19T11:20:18Z</time>
      </trkpt>
      <trkpt lat="49.55717" lon="0.69178">
        <ele>106</ele>
        <time>2012-02-19T11:20:23Z</time>
      </trkpt>
      <trkpt lat="49.55721" lon="0.69171">
        <ele>106</ele>
        <time>2012-02-19T11:20:29Z</time>
      </trkpt>
      <trkpt lat="49.55727" lon="0.69168">
        <ele>106</ele>
        <time>2012-02-19T11:20:36Z</time>
      </trkpt>
      <trkpt lat="49.55733" lon="0.69165">
        <ele>109</ele>
        <time>2012-02-19T11:20:42Z</time>
      </trkpt>
      <trkpt lat="49.55738" lon="0.69166">
        <ele>108</ele>
        <time>2012-02-19T11:20:47Z</time>
      </trkpt>
      <trkpt lat="49.55745" lon="0.69165">
        <ele>107</ele>
        <time>2012-02-19T11:20:53Z</time>
      </trkpt>
      <trkpt lat="49.5575" lon="0.69163">
        <ele>107</ele>
        <time>2012-02-19T11:20:58Z</time>
      </trkpt>
      <trkpt lat="49.55756" lon="0.69164">
        <ele>107</ele>
        <time>2012-02-19T11:21:04Z</time>
      </trkpt>
      <trkpt lat="49.55763" lon="0.69163">
        <ele>108</ele>
        <time>2012-02-19T11:21:10Z</time>
      </trkpt>
      <trkpt lat="49.55769" lon="0.69165">
        <ele>109</ele>
        <time>2012-02-19T11:21:16Z</time>
      </trkpt>
      <trkpt lat="49.55773" lon="0.69169">
        <ele>106</ele>
        <time>2012-02-19T11:21:21Z</time>
      </trkpt>
      <trkpt lat="49.55778" lon="0.6917">
        <ele>106</ele>
        <time>2012-02-19T11:21:27Z</time>
      </trkpt>
      <trkpt lat="49.55786" lon="0.69175">
        <ele>106</ele>
        <time>2012-02-19T11:21:32Z</time>
      </trkpt>
      <trkpt lat="49.55793" lon="0.69177">
        <ele>106</ele>
        <time>2012-02-19T11:21:38Z</time>
      </trkpt>
      <trkpt lat="49.55799" lon="0.69181">
        <ele>106</ele>
        <time>2012-02-19T11:21:44Z</time>
      </trkpt>
      <trkpt lat="49.55806" lon="0.69181">
        <ele>106</ele>
        <time>2012-02-19T11:21:49Z</time>
      </trkpt>
      <trkpt lat="49.55812" lon="0.69182">
        <ele>106</ele>
        <time>2012-02-19T11:21:55Z</time>
      </trkpt>
      <trkpt lat="49.55817" lon="0.69184">
        <ele>107</ele>
        <time>2012-02-19T11:22:00Z</time>
      </trkpt>
      <trkpt lat="49.55824" lon="0.69187">
        <ele>107</ele>
        <time>2012-02-19T11:22:05Z</time>
      </trkpt>
      <trkpt lat="49.5583" lon="0.6919">
        <ele>107</ele>
        <time>2012-02-19T11:22:11Z</time>
      </trkpt>
      <trkpt lat="49.55836" lon="0.69193">
        <ele>108</ele>
        <time>2012-02-19T11:22:17Z</time>
      </trkpt>
      <trkpt lat="49.55843" lon="0.69195">
        <ele>108</ele>
        <time>2012-02-19T11:22:23Z</time>
      </trkpt>
      <trkpt lat="49.55848" lon="0.69195">
        <ele>108</ele>
        <time>2012-02-19T11:22:29Z</time>
      </trkpt>
      <trkpt lat="49.55854" lon="0.69195">
        <ele>108</ele>
        <time>2012-02-19T11:22:35Z</time>
      </trkpt>
      <trkpt lat="49.55859" lon="0.69195">
        <ele>108</ele>
        <time>2012-02-19T11:22:41Z</time>
      </trkpt>
      <trkpt lat="49.55864" lon="0.69196">
        <ele>108</ele>
        <time>2012-02-19T11:22:46Z</time>
      </trkpt>
      <trkpt lat="49.55871" lon="0.69197">
        <ele>108</ele>
        <time>2012-02-19T11:22:52Z</time>
      </trkpt>
      <trkpt lat="49.55877" lon="0.69199">
        <ele>108</ele>
        <time>2012-02-19T11:22:59Z</time>
      </trkpt>
      <trkpt lat="49.55883" lon="0.69202">
        <ele>108</ele>
        <time>2012-02-19T11:23:04Z</time>
      </trkpt>
      <trkpt lat="49.55889" lon="0.69204">
        <ele>108</ele>
        <time>2012-02-19T11:23:09Z</time>
      </trkpt>
      <trkpt lat="49.55895" lon="0.69206">
        <ele>108</ele>
        <time>2012-02-19T11:23:15Z</time>
      </trkpt>
      <trkpt lat="49.55901" lon="0.69209">
        <ele>108</ele>
        <time>2012-02-19T11:23:21Z</time>
      </trkpt>
      <trkpt lat="49.55906" lon="0.69213">
        <ele>108</ele>
        <time>2012-02-19T11:23:27Z</time>
      </trkpt>
      <trkpt lat="49.55914" lon="0.69217">
        <ele>108</ele>
        <time>2012-02-19T11:23:34Z</time>
      </trkpt>
      <trkpt lat="49.5592" lon="0.69218">
        <ele>110</ele>
        <time>2012-02-19T11:23:39Z</time>
      </trkpt>
      <trkpt lat="49.55925" lon="0.69221">
        <ele>110</ele>
        <time>2012-02-19T11:23:45Z</time>
      </trkpt>
      <trkpt lat="49.55931" lon="0.69225">
        <ele>110</ele>
        <time>2012-02-19T11:23:51Z</time>
      </trkpt>
      <trkpt lat="49.55941" lon="0.69231">
        <ele>110</ele>
        <time>2012-02-19T11:23:58Z</time>
      </trkpt>
      <trkpt lat="49.55945" lon="0.69235">
        <ele>110</ele>
        <time>2012-02-19T11:24:03Z</time>
      </trkpt>
      <trkpt lat="49.55953" lon="0.6924">
        <ele>110</ele>
        <time>2012-02-19T11:24:09Z</time>
      </trkpt>
      <trkpt lat="49.5596" lon="0.69246">
        <ele>110</ele>
        <time>2012-02-19T11:24:16Z</time>
      </trkpt>
      <trkpt lat="49.55966" lon="0.69251">
        <ele>109</ele>
        <time>2012-02-19T11:24:22Z</time>
      </trkpt>
      <trkpt lat="49.55972" lon="0.69255">
        <ele>109</ele>
        <time>2012-02-19T11:24:27Z</time>
      </trkpt>
      <trkpt lat="49.55978" lon="0.6926">
        <ele>109</ele>
        <time>2012-02-19T11:24:32Z</time>
      </trkpt>
      <trkpt lat="49.55984" lon="0.69264">
        <ele>109</ele>
        <time>2012-02-19T11:24:38Z</time>
      </trkpt>
      <trkpt lat="49.55989" lon="0.6927">
        <ele>109</ele>
        <time>2012-02-19T11:24:44Z</time>
      </trkpt>
      <trkpt lat="49.55994" lon="0.69275">
        <ele>109</ele>
        <time>2012-02-19T11:24:50Z</time>
      </trkpt>
      <trkpt lat="49.55999" lon="0.69281">
        <ele>109</ele>
        <time>2012-02-19T11:24:57Z</time>
      </trkpt>
      <trkpt lat="49.56003" lon="0.69287">
        <ele>111</ele>
        <time>2012-02-19T11:25:03Z</time>
      </trkpt>
      <trkpt lat="49.56007" lon="0.69293">
        <ele>111</ele>
        <time>2012-02-19T11:25:11Z</time>
      </trkpt>
      <trkpt lat="49.56013" lon="0.69304">
        <ele>111</ele>
        <time>2012-02-19T11:25:18Z</time>
      </trkpt>
      <trkpt lat="49.56016" lon="0.6931">
        <ele>111</ele>
        <time>2012-02-19T11:25:23Z</time>
      </trkpt>
      <trkpt lat="49.56018" lon="0.69316">
        <ele>111</ele>
        <time>2012-02-19T11:25:29Z</time>
      </trkpt>
      <trkpt lat="49.56023" lon="0.69322">
        <ele>111</ele>
        <time>2012-02-19T11:25:35Z</time>
      </trkpt>
      <trkpt lat="49.56029" lon="0.69325">
        <ele>111</ele>
        <time>2012-02-19T11:25:40Z</time>
      </trkpt>
      <trkpt lat="49.56035" lon="0.69329">
        <ele>111</ele>
        <time>2012-02-19T11:25:45Z</time>
      </trkpt>
      <trkpt lat="49.56041" lon="0.69332">
        <ele>111</ele>
        <time>2012-02-19T11:25:51Z</time>
      </trkpt>
      <trkpt lat="49.56049" lon="0.69336">
        <ele>111</ele>
        <time>2012-02-19T11:25:57Z</time>
      </trkpt>
      <trkpt lat="49.56055" lon="0.69341">
        <ele>111</ele>
        <time>2012-02-19T11:26:04Z</time>
      </trkpt>
      <trkpt lat="49.56063" lon="0.69341">
        <ele>110</ele>
        <time>2012-02-19T11:26:10Z</time>
      </trkpt>
      <trkpt lat="49.56069" lon="0.69336">
        <ele>110</ele>
        <time>2012-02-19T11:26:15Z</time>
      </trkpt>
      <trkpt lat="49.5607" lon="0.69326">
        <ele>110</ele>
        <time>2012-02-19T11:26:22Z</time>
      </trkpt>
      <trkpt lat="49.56068" lon="0.69317">
        <ele>111</ele>
        <time>2012-02-19T11:26:28Z</time>
      </trkpt>
      <trkpt lat="49.56067" lon="0.69309">
        <ele>111</ele>
        <time>2012-02-19T11:26:34Z</time>
      </trkpt>
      <trkpt lat="49.56067" lon="0.693">
        <ele>112</ele>
        <time>2012-02-19T11:26:39Z</time>
      </trkpt>
      <trkpt lat="49.56064" lon="0.6929">
        <ele>112</ele>
        <time>2012-02-19T11:26:46Z</time>
      </trkpt>
      <trkpt lat="49.56061" lon="0.69282">
        <ele>113</ele>
        <time>2012-02-19T11:26:51Z</time>
      </trkpt>
      <trkpt lat="49.56058" lon="0.69272">
        <ele>113</ele>
        <time>2012-02-19T11:26:56Z</time>
      </trkpt>
      <trkpt lat="49.56054" lon="0.69266">
        <ele>113</ele>
        <time>2012-02-19T11:27:01Z</time>
      </trkpt>
      <trkpt lat="49.56051" lon="0.69259">
        <ele>113</ele>
        <time>2012-02-19T11:27:06Z</time>
      </trkpt>
      <trkpt lat="49.56047" lon="0.69252">
        <ele>113</ele>
        <time>2012-02-19T11:27:11Z</time>
      </trkpt>
      <trkpt lat="49.56044" lon="0.69246">
        <ele>117</ele>
        <time>2012-02-19T11:27:16Z</time>
      </trkpt>
      <trkpt lat="49.56041" lon="0.69239">
        <ele>117</ele>
        <time>2012-02-19T11:27:22Z</time>
      </trkpt>
      <trkpt lat="49.56038" lon="0.69233">
        <ele>117</ele>
        <time>2012-02-19T11:27:27Z</time>
      </trkpt>
      <trkpt lat="49.56036" lon="0.69226">
        <ele>117</ele>
        <time>2012-02-19T11:27:32Z</time>
      </trkpt>
      <trkpt lat="49.56033" lon="0.6922">
        <ele>118</ele>
        <time>2012-02-19T11:27:38Z</time>
      </trkpt>
      <trkpt lat="49.5603" lon="0.69215">
        <ele>118</ele>
        <time>2012-02-19T11:27:43Z</time>
      </trkpt>
      <trkpt lat="49.5602" lon="0.69204">
        <ele>118</ele>
        <time>2012-02-19T11:27:50Z</time>
      </trkpt>
      <trkpt lat="49.56019" lon="0.69196">
        <ele>118</ele>
        <time>2012-02-19T11:27:55Z</time>
      </trkpt>
      <trkpt lat="49.5602" lon="0.69191">
        <ele>119</ele>
        <time>2012-02-19T11:28:00Z</time>
      </trkpt>
      <trkpt lat="49.56017" lon="0.69183">
        <ele>119</ele>
        <time>2012-02-19T11:28:06Z</time>
      </trkpt>
      <trkpt lat="49.56015" lon="0.69175">
        <ele>119</ele>
        <time>2012-02-19T11:28:12Z</time>
      </trkpt>
      <trkpt lat="49.56014" lon="0.69167">
        <ele>119</ele>
        <time>2012-02-19T11:28:18Z</time>
      </trkpt>
      <trkpt lat="49.56012" lon="0.69161">
        <ele>121</ele>
        <time>2012-02-19T11:28:23Z</time>
      </trkpt>
      <trkpt lat="49.56009" lon="0.69152">
        <ele>121</ele>
        <time>2012-02-19T11:28:29Z</time>
      </trkpt>
      <trkpt lat="49.56006" lon="0.69145">
        <ele>122</ele>
        <time>2012-02-19T11:28:35Z</time>
      </trkpt>
      <trkpt lat="49.56004" lon="0.69137">
        <ele>122</ele>
        <time>2012-02-19T11:28:40Z</time>
      </trkpt>
      <trkpt lat="49.56002" lon="0.69131">
        <ele>122</ele>
        <time>2012-02-19T11:28:46Z</time>
      </trkpt>
      <trkpt lat="49.56001" lon="0.69125">
        <ele>122</ele>
        <time>2012-02-19T11:28:52Z</time>
      </trkpt>
      <trkpt lat="49.55998" lon="0.69118">
        <ele>120</ele>
        <time>2012-02-19T11:28:57Z</time>
      </trkpt>
      <trkpt lat="49.55994" lon="0.69112">
        <ele>120</ele>
        <time>2012-02-19T11:29:03Z</time>
      </trkpt>
      <trkpt lat="49.55991" lon="0.69106">
        <ele>120</ele>
        <time>2012-02-19T11:29:08Z</time>
      </trkpt>
      <trkpt lat="49.55988" lon="0.691">
        <ele>121</ele>
        <time>2012-02-19T11:29:13Z</time>
      </trkpt>
      <trkpt lat="49.55983" lon="0.69095">
        <ele>121</ele>
        <time>2012-02-19T11:29:19Z</time>
      </trkpt>
      <trkpt lat="49.55979" lon="0.69088">
        <ele>120</ele>
        <time>2012-02-19T11:29:25Z</time>
      </trkpt>
      <trkpt lat="49.55975" lon="0.6908">
        <ele>122</ele>
        <time>2012-02-19T11:29:31Z</time>
      </trkpt>
      <trkpt lat="49.55968" lon="0.69074">
        <ele>122</ele>
        <time>2012-02-19T11:29:37Z</time>
      </trkpt>
      <trkpt lat="49.55966" lon="0.69068">
        <ele>122</ele>
        <time>2012-02-19T11:29:42Z</time>
      </trkpt>
      <trkpt lat="49.55962" lon="0.69061">
        <ele>121</ele>
        <time>2012-02-19T11:29:48Z</time>
      </trkpt>
      <trkpt lat="49.55958" lon="0.69053">
        <ele>121</ele>
        <time>2012-02-19T11:29:53Z</time>
      </trkpt>
      <trkpt lat="49.55956" lon="0.69045">
        <ele>121</ele>
        <time>2012-02-19T11:29:59Z</time>
      </trkpt>
      <trkpt lat="49.55957" lon="0.6904">
        <ele>121</ele>
        <time>2012-02-19T11:30:04Z</time>
      </trkpt>
      <trkpt lat="49.55955" lon="0.69031">
        <ele>121</ele>
        <time>2012-02-19T11:30:09Z</time>
      </trkpt>
      <trkpt lat="49.55954" lon="0.69023">
        <ele>121</ele>
        <time>2012-02-19T11:30:14Z</time>
      </trkpt>
      <trkpt lat="49.55952" lon="0.69013">
        <ele>121</ele>
        <time>2012-02-19T11:30:20Z</time>
      </trkpt>
      <trkpt lat="49.55951" lon="0.69001">
        <ele>121</ele>
        <time>2012-02-19T11:30:25Z</time>
      </trkpt>
      <trkpt lat="49.55951" lon="0.68996">
        <ele>120</ele>
        <time>2012-02-19T11:30:30Z</time>
      </trkpt>
      <trkpt lat="49.55949" lon="0.68972">
        <ele>120</ele>
        <time>2012-02-19T11:30:40Z</time>
      </trkpt>
      <trkpt lat="49.55946" lon="0.68958">
        <ele>119</ele>
        <time>2012-02-19T11:30:48Z</time>
      </trkpt>
      <trkpt lat="49.55943" lon="0.68945">
        <ele>119</ele>
        <time>2012-02-19T11:30:55Z</time>
      </trkpt>
      <trkpt lat="49.5594" lon="0.68936">
        <ele>119</ele>
        <time>2012-02-19T11:31:02Z</time>
      </trkpt>
      <trkpt lat="49.55938" lon="0.68922">
        <ele>118</ele>
        <time>2012-02-19T11:31:08Z</time>
      </trkpt>
      <trkpt lat="49.55939" lon="0.68916">
        <ele>116</ele>
        <time>2012-02-19T11:31:13Z</time>
      </trkpt>
      <trkpt lat="49.55943" lon="0.68905">
        <ele>116</ele>
        <time>2012-02-19T11:31:19Z</time>
      </trkpt>
      <trkpt lat="49.55946" lon="0.68897">
        <ele>116</ele>
        <time>2012-02-19T11:31:25Z</time>
      </trkpt>
      <trkpt lat="49.55952" lon="0.68886">
        <ele>115</ele>
        <time>2012-02-19T11:31:33Z</time>
      </trkpt>
      <trkpt lat="49.55956" lon="0.68875">
        <ele>115</ele>
        <time>2012-02-19T11:31:39Z</time>
      </trkpt>
      <trkpt lat="49.55962" lon="0.68866">
        <ele>115</ele>
        <time>2012-02-19T11:31:46Z</time>
      </trkpt>
      <trkpt lat="49.55968" lon="0.68858">
        <ele>115</ele>
        <time>2012-02-19T11:31:54Z</time>
      </trkpt>
      <trkpt lat="49.55972" lon="0.68845">
        <ele>115</ele>
        <time>2012-02-19T11:32:00Z</time>
      </trkpt>
      <trkpt lat="49.55972" lon="0.68835">
        <ele>115</ele>
        <time>2012-02-19T11:32:06Z</time>
      </trkpt>
      <trkpt lat="49.55966" lon="0.68828">
        <ele>113</ele>
        <time>2012-02-19T11:32:13Z</time>
      </trkpt>
      <trkpt lat="49.5596" lon="0.6883">
        <ele>113</ele>
        <time>2012-02-19T11:32:18Z</time>
      </trkpt>
      <trkpt lat="49.55954" lon="0.68831">
        <ele>113</ele>
        <time>2012-02-19T11:32:24Z</time>
      </trkpt>
      <trkpt lat="49.55948" lon="0.68832">
        <ele>113</ele>
        <time>2012-02-19T11:32:31Z</time>
      </trkpt>
      <trkpt lat="49.55936" lon="0.68834">
        <ele>113</ele>
        <time>2012-02-19T11:32:38Z</time>
      </trkpt>
      <trkpt lat="49.55928" lon="0.68835">
        <ele>113</ele>
        <time>2012-02-19T11:32:43Z</time>
      </trkpt>
      <trkpt lat="49.55922" lon="0.68835">
        <ele>112</ele>
        <time>2012-02-19T11:32:49Z</time>
      </trkpt>
      <trkpt lat="49.55914" lon="0.68834">
        <ele>111</ele>
        <time>2012-02-19T11:32:55Z</time>
      </trkpt>
      <trkpt lat="49.55908" lon="0.6883">
        <ele>109</ele>
        <time>2012-02-19T11:33:01Z</time>
      </trkpt>
      <trkpt lat="49.55897" lon="0.68832">
        <ele>108</ele>
        <time>2012-02-19T11:33:08Z</time>
      </trkpt>
      <trkpt lat="49.55888" lon="0.68831">
        <ele>107</ele>
        <time>2012-02-19T11:33:14Z</time>
      </trkpt>
      <trkpt lat="49.55879" lon="0.68831">
        <ele>106</ele>
        <time>2012-02-19T11:33:20Z</time>
      </trkpt>
      <trkpt lat="49.55875" lon="0.68831">
        <ele>106</ele>
        <time>2012-02-19T11:33:25Z</time>
      </trkpt>
      <trkpt lat="49.5587" lon="0.68827">
        <ele>106</ele>
        <time>2012-02-19T11:33:31Z</time>
      </trkpt>
      <trkpt lat="49.55862" lon="0.68828">
        <ele>105</ele>
        <time>2012-02-19T11:33:37Z</time>
      </trkpt>
      <trkpt lat="49.55856" lon="0.68823">
        <ele>105</ele>
        <time>2012-02-19T11:33:43Z</time>
      </trkpt>
      <trkpt lat="49.55851" lon="0.6882">
        <ele>105</ele>
        <time>2012-02-19T11:33:49Z</time>
      </trkpt>
      <trkpt lat="49.55848" lon="0.68814">
        <ele>105</ele>
        <time>2012-02-19T11:33:55Z</time>
      </trkpt>
      <trkpt lat="49.55845" lon="0.68808">
        <ele>105</ele>
        <time>2012-02-19T11:34:01Z</time>
      </trkpt>
      <trkpt lat="49.55841" lon="0.68797">
        <ele>104</ele>
        <time>2012-02-19T11:34:06Z</time>
      </trkpt>
      <trkpt lat="49.55839" lon="0.68787">
        <ele>104</ele>
        <time>2012-02-19T11:34:14Z</time>
      </trkpt>
      <trkpt lat="49.55838" lon="0.68773">
        <ele>103</ele>
        <time>2012-02-19T11:34:20Z</time>
      </trkpt>
      <trkpt lat="49.55837" lon="0.68763">
        <ele>102</ele>
        <time>2012-02-19T11:34:26Z</time>
      </trkpt>
      <trkpt lat="49.55838" lon="0.68755">
        <ele>101</ele>
        <time>2012-02-19T11:34:31Z</time>
      </trkpt>
      <trkpt lat="49.5584" lon="0.68746">
        <ele>99</ele>
        <time>2012-02-19T11:34:38Z</time>
      </trkpt>
      <trkpt lat="49.55841" lon="0.68732">
        <ele>99</ele>
        <time>2012-02-19T11:34:44Z</time>
      </trkpt>
      <trkpt lat="49.55842" lon="0.68723">
        <ele>99</ele>
        <time>2012-02-19T11:34:50Z</time>
      </trkpt>
      <trkpt lat="49.55842" lon="0.68715">
        <ele>99</ele>
        <time>2012-02-19T11:34:55Z</time>
      </trkpt>
      <trkpt lat="49.55843" lon="0.68709">
        <ele>98</ele>
        <time>2012-02-19T11:35:00Z</time>
      </trkpt>
      <trkpt lat="49.55842" lon="0.68698">
        <ele>98</ele>
        <time>2012-02-19T11:35:07Z</time>
      </trkpt>
      <trkpt lat="49.55841" lon="0.68683">
        <ele>96</ele>
        <time>2012-02-19T11:35:13Z</time>
      </trkpt>
      <trkpt lat="49.55839" lon="0.68677">
        <ele>95</ele>
        <time>2012-02-19T11:35:18Z</time>
      </trkpt>
      <trkpt lat="49.55839" lon="0.68669">
        <ele>94</ele>
        <time>2012-02-19T11:35:23Z</time>
      </trkpt>
      <trkpt lat="49.55841" lon="0.68659">
        <ele>92</ele>
        <time>2012-02-19T11:35:29Z</time>
      </trkpt>
      <trkpt lat="49.5584" lon="0.6865">
        <ele>92</ele>
        <time>2012-02-19T11:35:34Z</time>
      </trkpt>
      <trkpt lat="49.55842" lon="0.68641">
        <ele>91</ele>
        <time>2012-02-19T11:35:41Z</time>
      </trkpt>
      <trkpt lat="49.55842" lon="0.68626">
        <ele>91</ele>
        <time>2012-02-19T11:35:48Z</time>
      </trkpt>
      <trkpt lat="49.55842" lon="0.68616">
        <ele>90</ele>
        <time>2012-02-19T11:35:54Z</time>
      </trkpt>
      <trkpt lat="49.55845" lon="0.68603">
        <ele>88</ele>
        <time>2012-02-19T11:35:59Z</time>
      </trkpt>
      <trkpt lat="49.55846" lon="0.68594">
        <ele>87</ele>
        <time>2012-02-19T11:36:04Z</time>
      </trkpt>
      <trkpt lat="49.55848" lon="0.68591">
        <ele>87</ele>
        <time>2012-02-19T11:36:11Z</time>
      </trkpt>
      <trkpt lat="49.55852" lon="0.68592">
        <ele>88</ele>
        <time>2012-02-19T11:36:19Z</time>
      </trkpt>
      <trkpt lat="49.5585" lon="0.68589">
        <ele>88</ele>
        <time>2012-02-19T11:36:24Z</time>
      </trkpt>
      <trkpt lat="49.5585" lon="0.68586">
        <ele>87</ele>
        <time>2012-02-19T11:36:29Z</time>
      </trkpt>
      <trkpt lat="49.55852" lon="0.6858">
        <ele>83</ele>
        <time>2012-02-19T11:36:37Z</time>
      </trkpt>
      <trkpt lat="49.5585" lon="0.68572">
        <ele>83</ele>
        <time>2012-02-19T11:36:42Z</time>
      </trkpt>
      <trkpt lat="49.55851" lon="0.68567">
        <ele>82</ele>
        <time>2012-02-19T11:36:47Z</time>
      </trkpt>
      <trkpt lat="49.55851" lon="0.6856">
        <ele>82</ele>
        <time>2012-02-19T11:36:53Z</time>
      </trkpt>
      <trkpt lat="49.55851" lon="0.68552">
        <ele>82</ele>
        <time>2012-02-19T11:36:58Z</time>
      </trkpt>
      <trkpt lat="49.55851" lon="0.68543">
        <ele>81</ele>
        <time>2012-02-19T11:37:04Z</time>
      </trkpt>
      <trkpt lat="49.55851" lon="0.68531">
        <ele>80</ele>
        <time>2012-02-19T11:37:09Z</time>
      </trkpt>
      <trkpt lat="49.55852" lon="0.68522">
        <ele>79</ele>
        <time>2012-02-19T11:37:15Z</time>
      </trkpt>
      <trkpt lat="49.55851" lon="0.68513">
        <ele>78</ele>
        <time>2012-02-19T11:37:21Z</time>
      </trkpt>
      <trkpt lat="49.55852" lon="0.68503">
        <ele>77</ele>
        <time>2012-02-19T11:37:26Z</time>
      </trkpt>
      <trkpt lat="49.55855" lon="0.68493">
        <ele>72</ele>
        <time>2012-02-19T11:37:31Z</time>
      </trkpt>
      <trkpt lat="49.55857" lon="0.68481">
        <ele>71</ele>
        <time>2012-02-19T11:37:37Z</time>
      </trkpt>
      <trkpt lat="49.5586" lon="0.68471">
        <ele>71</ele>
        <time>2012-02-19T11:37:42Z</time>
      </trkpt>
      <trkpt lat="49.55862" lon="0.68462">
        <ele>71</ele>
        <time>2012-02-19T11:37:48Z</time>
      </trkpt>
      <trkpt lat="49.55866" lon="0.68454">
        <ele>70</ele>
        <time>2012-02-19T11:37:53Z</time>
      </trkpt>
      <trkpt lat="49.55872" lon="0.68451">
        <ele>70</ele>
        <time>2012-02-19T11:37:58Z</time>
      </trkpt>
      <trkpt lat="49.55878" lon="0.6845">
        <ele>71</ele>
        <time>2012-02-19T11:38:03Z</time>
      </trkpt>
      <trkpt lat="49.55883" lon="0.68449">
        <ele>71</ele>
        <time>2012-02-19T11:38:08Z</time>
      </trkpt>
      <trkpt lat="49.5589" lon="0.68447">
        <ele>71</ele>
        <time>2012-02-19T11:38:14Z</time>
      </trkpt>
      <trkpt lat="49.55893" lon="0.68441">
        <ele>71</ele>
        <time>2012-02-19T11:38:19Z</time>
      </trkpt>
      <trkpt lat="49.55896" lon="0.68439">
        <ele>71</ele>
        <time>2012-02-19T11:38:25Z</time>
      </trkpt>
      <trkpt lat="49.55902" lon="0.68437">
        <ele>71</ele>
        <time>2012-02-19T11:38:31Z</time>
      </trkpt>
      <trkpt lat="49.55907" lon="0.68433">
        <ele>71</ele>
        <time>2012-02-19T11:38:36Z</time>
      </trkpt>
      <trkpt lat="49.55913" lon="0.68429">
        <ele>71</ele>
        <time>2012-02-19T11:38:41Z</time>
      </trkpt>
      <trkpt lat="49.55919" lon="0.68423">
        <ele>74</ele>
        <time>2012-02-19T11:38:46Z</time>
      </trkpt>
      <trkpt lat="49.55923" lon="0.68415">
        <ele>72</ele>
        <time>2012-02-19T11:38:51Z</time>
      </trkpt>
      <trkpt lat="49.5593" lon="0.68407">
        <ele>75</ele>
        <time>2012-02-19T11:38:56Z</time>
      </trkpt>
      <trkpt lat="49.55934" lon="0.68401">
        <ele>76</ele>
        <time>2012-02-19T11:39:01Z</time>
      </trkpt>
      <trkpt lat="49.55941" lon="0.68393">
        <ele>77</ele>
        <time>2012-02-19T11:39:07Z</time>
      </trkpt>
      <trkpt lat="49.55944" lon="0.68389">
        <ele>78</ele>
        <time>2012-02-19T11:39:13Z</time>
      </trkpt>
      <trkpt lat="49.55949" lon="0.6838">
        <ele>78</ele>
        <time>2012-02-19T11:39:20Z</time>
      </trkpt>
      <trkpt lat="49.55951" lon="0.68372">
        <ele>78</ele>
        <time>2012-02-19T11:39:25Z</time>
      </trkpt>
      <trkpt lat="49.55953" lon="0.68369">
        <ele>79</ele>
        <time>2012-02-19T11:39:30Z</time>
      </trkpt>
      <trkpt lat="49.55953" lon="0.68365">
        <ele>78</ele>
        <time>2012-02-19T11:39:35Z</time>
      </trkpt>
      <trkpt lat="49.55953" lon="0.68361">
        <ele>78</ele>
        <time>2012-02-19T11:39:43Z</time>
      </trkpt>
      <trkpt lat="49.55955" lon="0.68352">
        <ele>78</ele>
        <time>2012-02-19T11:39:50Z</time>
      </trkpt>
      <trkpt lat="49.55958" lon="0.6834">
        <ele>79</ele>
        <time>2012-02-19T11:39:55Z</time>
      </trkpt>
      <trkpt lat="49.55958" lon="0.68331">
        <ele>78</ele>
        <time>2012-02-19T11:40:01Z</time>
      </trkpt>
      <trkpt lat="49.55959" lon="0.68319">
        <ele>79</ele>
        <time>2012-02-19T11:40:06Z</time>
      </trkpt>
      <trkpt lat="49.55962" lon="0.68309">
        <ele>79</ele>
        <time>2012-02-19T11:40:11Z</time>
      </trkpt>
      <trkpt lat="49.55965" lon="0.68301">
        <ele>79</ele>
        <time>2012-02-19T11:40:16Z</time>
      </trkpt>
      <trkpt lat="49.55967" lon="0.68295">
        <ele>79</ele>
        <time>2012-02-19T11:40:21Z</time>
      </trkpt>
      <trkpt lat="49.55968" lon="0.68291">
        <ele>80</ele>
        <time>2012-02-19T11:40:26Z</time>
      </trkpt>
      <trkpt lat="49.5597" lon="0.68282">
        <ele>80</ele>
        <time>2012-02-19T11:40:32Z</time>
      </trkpt>
      <trkpt lat="49.55972" lon="0.68274">
        <ele>80</ele>
        <time>2012-02-19T11:40:37Z</time>
      </trkpt>
      <trkpt lat="49.55976" lon="0.68264">
        <ele>80</ele>
        <time>2012-02-19T11:40:42Z</time>
      </trkpt>
      <trkpt lat="49.55981" lon="0.68256">
        <ele>81</ele>
        <time>2012-02-19T11:40:47Z</time>
      </trkpt>
      <trkpt lat="49.55984" lon="0.6825">
        <ele>84</ele>
        <time>2012-02-19T11:40:55Z</time>
      </trkpt>
      <trkpt lat="49.55984" lon="0.68246">
        <ele>84</ele>
        <time>2012-02-19T11:41:00Z</time>
      </trkpt>
      <trkpt lat="49.55981" lon="0.6824">
        <ele>84</ele>
        <time>2012-02-19T11:41:06Z</time>
      </trkpt>
      <trkpt lat="49.55979" lon="0.68234">
        <ele>85</ele>
        <time>2012-02-19T11:41:12Z</time>
      </trkpt>
      <trkpt lat="49.55981" lon="0.68229">
        <ele>85</ele>
        <time>2012-02-19T11:41:17Z</time>
      </trkpt>
      <trkpt lat="49.55982" lon="0.68222">
        <ele>85</ele>
        <time>2012-02-19T11:41:23Z</time>
      </trkpt>
      <trkpt lat="49.55981" lon="0.68215">
        <ele>86</ele>
        <time>2012-02-19T11:41:29Z</time>
      </trkpt>
      <trkpt lat="49.55983" lon="0.68208">
        <ele>86</ele>
        <time>2012-02-19T11:41:35Z</time>
      </trkpt>
      <trkpt lat="49.55983" lon="0.68202">
        <ele>87</ele>
        <time>2012-02-19T11:41:41Z</time>
      </trkpt>
      <trkpt lat="49.55983" lon="0.68196">
        <ele>87</ele>
        <time>2012-02-19T11:41:46Z</time>
      </trkpt>
      <trkpt lat="49.55984" lon="0.68189">
        <ele>88</ele>
        <time>2012-02-19T11:41:52Z</time>
      </trkpt>
      <trkpt lat="49.55983" lon="0.68183">
        <ele>88</ele>
        <time>2012-02-19T11:41:58Z</time>
      </trkpt>
      <trkpt lat="49.55983" lon="0.68177">
        <ele>89</ele>
        <time>2012-02-19T11:42:04Z</time>
      </trkpt>
      <trkpt lat="49.55982" lon="0.68169">
        <ele>89</ele>
        <time>2012-02-19T11:42:10Z</time>
      </trkpt>
      <trkpt lat="49.55984" lon="0.68163">
        <ele>95</ele>
        <time>2012-02-19T11:42:16Z</time>
      </trkpt>
      <trkpt lat="49.55985" lon="0.68156">
        <ele>95</ele>
        <time>2012-02-19T11:42:22Z</time>
      </trkpt>
      <trkpt lat="49.55986" lon="0.6815">
        <ele>96</ele>
        <time>2012-02-19T11:42:28Z</time>
      </trkpt>
      <trkpt lat="49.55986" lon="0.68145">
        <ele>96</ele>
        <time>2012-02-19T11:42:33Z</time>
      </trkpt>
      <trkpt lat="49.55987" lon="0.68138">
        <ele>97</ele>
        <time>2012-02-19T11:42:39Z</time>
      </trkpt>
      <trkpt lat="49.55988" lon="0.68132">
        <ele>97</ele>
        <time>2012-02-19T11:42:46Z</time>
      </trkpt>
      <trkpt lat="49.5599" lon="0.68127">
        <ele>98</ele>
        <time>2012-02-19T11:42:52Z</time>
      </trkpt>
      <trkpt lat="49.5599" lon="0.68122">
        <ele>98</ele>
        <time>2012-02-19T11:42:57Z</time>
      </trkpt>
      <trkpt lat="49.55989" lon="0.68116">
        <ele>99</ele>
        <time>2012-02-19T11:43:03Z</time>
      </trkpt>
      <trkpt lat="49.5599" lon="0.68109">
        <ele>100</ele>
        <time>2012-02-19T11:43:10Z</time>
      </trkpt>
      <trkpt lat="49.55991" lon="0.68103">
        <ele>101</ele>
        <time>2012-02-19T11:43:17Z</time>
      </trkpt>
      <trkpt lat="49.55991" lon="0.681">
        <ele>102</ele>
        <time>2012-02-19T11:43:22Z</time>
      </trkpt>
      <trkpt lat="49.55991" lon="0.68095">
        <ele>103</ele>
        <time>2012-02-19T11:43:27Z</time>
      </trkpt>
      <trkpt lat="49.55993" lon="0.68092">
        <ele>104</ele>
        <time>2012-02-19T11:43:32Z</time>
      </trkpt>
      <trkpt lat="49.55994" lon="0.68088">
        <ele>105</ele>
        <time>2012-02-19T11:43:37Z</time>
      </trkpt>
      <trkpt lat="49.55993" lon="0.68081">
        <ele>107</ele>
        <time>2012-02-19T11:43:43Z</time>
      </trkpt>
      <trkpt lat="49.55993" lon="0.68076">
        <ele>107</ele>
        <time>2012-02-19T11:43:48Z</time>
      </trkpt>
      <trkpt lat="49.55995" lon="0.68073">
        <ele>107</ele>
        <time>2012-02-19T11:43:53Z</time>
      </trkpt>
      <trkpt lat="49.55995" lon="0.68069">
        <ele>107</ele>
        <time>2012-02-19T11:43:59Z</time>
      </trkpt>
      <trkpt lat="49.55997" lon="0.68064">
        <ele>107</ele>
        <time>2012-02-19T11:44:04Z</time>
      </trkpt>
      <trkpt lat="49.55998" lon="0.6806">
        <ele>107</ele>
        <time>2012-02-19T11:44:10Z</time>
      </trkpt>
      <trkpt lat="49.55998" lon="0.68054">
        <ele>107</ele>
        <time>2012-02-19T11:44:16Z</time>
      </trkpt>
      <trkpt lat="49.55998" lon="0.68047">
        <ele>107</ele>
        <time>2012-02-19T11:44:22Z</time>
      </trkpt>
      <trkpt lat="49.55998" lon="0.6804">
        <ele>108</ele>
        <time>2012-02-19T11:44:28Z</time>
      </trkpt>
      <trkpt lat="49.55999" lon="0.68033">
        <ele>108</ele>
        <time>2012-02-19T11:44:34Z</time>
      </trkpt>
      <trkpt lat="49.56001" lon="0.68026">
        <ele>115</ele>
        <time>2012-02-19T11:44:40Z</time>
      </trkpt>
      <trkpt lat="49.56004" lon="0.6802">
        <ele>115</ele>
        <time>2012-02-19T11:44:46Z</time>
      </trkpt>
      <trkpt lat="49.56001" lon="0.68022">
        <ele>115</ele>
        <time>2012-02-19T11:44:59Z</time>
      </trkpt>
      <trkpt lat="49.55996" lon="0.68023">
        <ele>109</ele>
        <time>2012-02-19T11:45:07Z</time>
      </trkpt>
      <trkpt lat="49.55997" lon="0.68027">
        <ele>108</ele>
        <time>2012-02-19T11:45:14Z</time>
      </trkpt>
      <trkpt lat="49.56004" lon="0.68003">
        <ele>114</ele>
        <time>2012-02-19T11:45:20Z</time>
      </trkpt>
      <trkpt lat="49.56005" lon="0.67994">
        <ele>115</ele>
        <time>2012-02-19T11:45:26Z</time>
      </trkpt>
      <trkpt lat="49.56007" lon="0.67985">
        <ele>116</ele>
        <time>2012-02-19T11:45:32Z</time>
      </trkpt>
      <trkpt lat="49.56007" lon="0.67975">
        <ele>116</ele>
        <time>2012-02-19T11:45:37Z</time>
      </trkpt>
      <trkpt lat="49.5601" lon="0.67967">
        <ele>117</ele>
        <time>2012-02-19T11:45:43Z</time>
      </trkpt>
      <trkpt lat="49.56008" lon="0.67957">
        <ele>117</ele>
        <time>2012-02-19T11:45:48Z</time>
      </trkpt>
      <trkpt lat="49.5601" lon="0.67949">
        <ele>117</ele>
        <time>2012-02-19T11:45:53Z</time>
      </trkpt>
      <trkpt lat="49.56012" lon="0.67941">
        <ele>117</ele>
        <time>2012-02-19T11:45:58Z</time>
      </trkpt>
      <trkpt lat="49.56014" lon="0.67934">
        <ele>117</ele>
        <time>2012-02-19T11:46:03Z</time>
      </trkpt>
      <trkpt lat="49.56015" lon="0.67926">
        <ele>116</ele>
        <time>2012-02-19T11:46:08Z</time>
      </trkpt>
      <trkpt lat="49.56015" lon="0.67916">
        <ele>116</ele>
        <time>2012-02-19T11:46:13Z</time>
      </trkpt>
      <trkpt lat="49.56017" lon="0.67908">
        <ele>116</ele>
        <time>2012-02-19T11:46:18Z</time>
      </trkpt>
      <trkpt lat="49.56019" lon="0.67898">
        <ele>116</ele>
        <time>2012-02-19T11:46:23Z</time>
      </trkpt>
      <trkpt lat="49.56021" lon="0.67888">
        <ele>117</ele>
        <time>2012-02-19T11:46:28Z</time>
      </trkpt>
      <trkpt lat="49.56021" lon="0.67877">
        <ele>117</ele>
        <time>2012-02-19T11:46:33Z</time>
      </trkpt>
      <trkpt lat="49.56022" lon="0.67867">
        <ele>117</ele>
        <time>2012-02-19T11:46:38Z</time>
      </trkpt>
      <trkpt lat="49.56021" lon="0.67857">
        <ele>116</ele>
        <time>2012-02-19T11:46:43Z</time>
      </trkpt>
      <trkpt lat="49.56022" lon="0.67846">
        <ele>116</ele>
        <time>2012-02-19T11:46:49Z</time>
      </trkpt>
      <trkpt lat="49.56023" lon="0.67836">
        <ele>116</ele>
        <time>2012-02-19T11:46:55Z</time>
      </trkpt>
      <trkpt lat="49.56026" lon="0.6783">
        <ele>115</ele>
        <time>2012-02-19T11:47:00Z</time>
      </trkpt>
      <trkpt lat="49.56027" lon="0.67822">
        <ele>115</ele>
        <time>2012-02-19T11:47:05Z</time>
      </trkpt>
      <trkpt lat="49.56027" lon="0.67813">
        <ele>115</ele>
        <time>2012-02-19T11:47:10Z</time>
      </trkpt>
      <trkpt lat="49.56026" lon="0.67801">
        <ele>115</ele>
        <time>2012-02-19T11:47:16Z</time>
      </trkpt>
      <trkpt lat="49.56028" lon="0.6779">
        <ele>115</ele>
        <time>2012-02-19T11:47:25Z</time>
      </trkpt>
      <trkpt lat="49.56028" lon="0.6778">
        <ele>115</ele>
        <time>2012-02-19T11:47:33Z</time>
      </trkpt>
      <trkpt lat="49.5603" lon="0.67779">
        <ele>115</ele>
        <time>2012-02-19T11:47:39Z</time>
      </trkpt>
      <trkpt lat="49.56038" lon="0.67781">
        <ele>116</ele>
        <time>2012-02-19T11:47:45Z</time>
      </trkpt>
      <trkpt lat="49.56042" lon="0.67782">
        <ele>116</ele>
        <time>2012-02-19T11:47:53Z</time>
      </trkpt>
      <trkpt lat="49.56048" lon="0.67784">
        <ele>116</ele>
        <time>2012-02-19T11:47:58Z</time>
      </trkpt>
      <trkpt lat="49.56055" lon="0.67786">
        <ele>117</ele>
        <time>2012-02-19T11:48:05Z</time>
      </trkpt>
      <trkpt lat="49.56062" lon="0.67787">
        <ele>117</ele>
        <time>2012-02-19T11:48:10Z</time>
      </trkpt>
      <trkpt lat="49.56069" lon="0.6779">
        <ele>117</ele>
        <time>2012-02-19T11:48:15Z</time>
      </trkpt>
      <trkpt lat="49.56075" lon="0.67791">
        <ele>117</ele>
        <time>2012-02-19T11:48:21Z</time>
      </trkpt>
      <trkpt lat="49.5608" lon="0.67782">
        <ele>118</ele>
        <time>2012-02-19T11:48:28Z</time>
      </trkpt>
      <trkpt lat="49.56078" lon="0.67775">
        <ele>118</ele>
        <time>2012-02-19T11:48:33Z</time>
      </trkpt>
      <trkpt lat="49.56078" lon="0.67763">
        <ele>118</ele>
        <time>2012-02-19T11:48:38Z</time>
      </trkpt>
      <trkpt lat="49.5608" lon="0.67755">
        <ele>119</ele>
        <time>2012-02-19T11:48:46Z</time>
      </trkpt>
      <trkpt lat="49.5608" lon="0.67747">
        <ele>119</ele>
        <time>2012-02-19T11:48:52Z</time>
      </trkpt>
      <trkpt lat="49.56081" lon="0.67738">
        <ele>118</ele>
        <time>2012-02-19T11:49:00Z</time>
      </trkpt>
      <trkpt lat="49.56083" lon="0.67731">
        <ele>117</ele>
        <time>2012-02-19T11:49:06Z</time>
      </trkpt>
      <trkpt lat="49.56083" lon="0.67715">
        <ele>117</ele>
        <time>2012-02-19T11:49:12Z</time>
      </trkpt>
      <trkpt lat="49.56084" lon="0.67699">
        <ele>119</ele>
        <time>2012-02-19T11:49:20Z</time>
      </trkpt>
      <trkpt lat="49.56087" lon="0.67684">
        <ele>120</ele>
        <time>2012-02-19T11:49:26Z</time>
      </trkpt>
      <trkpt lat="49.5609" lon="0.67677">
        <ele>120</ele>
        <time>2012-02-19T11:49:32Z</time>
      </trkpt>
      <trkpt lat="49.56092" lon="0.67672">
        <ele>120</ele>
        <time>2012-02-19T11:49:38Z</time>
      </trkpt>
      <trkpt lat="49.56091" lon="0.67664">
        <ele>120</ele>
        <time>2012-02-19T11:49:45Z</time>
      </trkpt>
      <trkpt lat="49.56092" lon="0.67655">
        <ele>120</ele>
        <time>2012-02-19T11:49:50Z</time>
      </trkpt>
      <trkpt lat="49.56096" lon="0.67649">
        <ele>120</ele>
        <time>2012-02-19T11:49:55Z</time>
      </trkpt>
      <trkpt lat="49.561" lon="0.67635">
        <ele>119</ele>
        <time>2012-02-19T11:50:03Z</time>
      </trkpt>
      <trkpt lat="49.56108" lon="0.67622">
        <ele>119</ele>
        <time>2012-02-19T11:50:08Z</time>
      </trkpt>
      <trkpt lat="49.56113" lon="0.6761">
        <ele>119</ele>
        <time>2012-02-19T11:50:15Z</time>
      </trkpt>
      <trkpt lat="49.56117" lon="0.67607">
        <ele>119</ele>
        <time>2012-02-19T11:50:22Z</time>
      </trkpt>
      <trkpt lat="49.5612" lon="0.67602">
        <ele>119</ele>
        <time>2012-02-19T11:50:28Z</time>
      </trkpt>
      <trkpt lat="49.56126" lon="0.67591">
        <ele>119</ele>
        <time>2012-02-19T11:50:34Z</time>
      </trkpt>
      <trkpt lat="49.56131" lon="0.67586">
        <ele>119</ele>
        <time>2012-02-19T11:50:39Z</time>
      </trkpt>
      <trkpt lat="49.56135" lon="0.67575">
        <ele>117</ele>
        <time>2012-02-19T11:50:45Z</time>
      </trkpt>
      <trkpt lat="49.56137" lon="0.67566">
        <ele>117</ele>
        <time>2012-02-19T11:50:52Z</time>
      </trkpt>
      <trkpt lat="49.56142" lon="0.67553">
        <ele>117</ele>
        <time>2012-02-19T11:50:59Z</time>
      </trkpt>
      <trkpt lat="49.56144" lon="0.6755">
        <ele>116</ele>
        <time>2012-02-19T11:51:05Z</time>
      </trkpt>
      <trkpt lat="49.56147" lon="0.67538">
        <ele>116</ele>
        <time>2012-02-19T11:51:13Z</time>
      </trkpt>
      <trkpt lat="49.5615" lon="0.67525">
        <ele>116</ele>
        <time>2012-02-19T11:51:19Z</time>
      </trkpt>
      <trkpt lat="49.5615" lon="0.67517">
        <ele>115</ele>
        <time>2012-02-19T11:51:25Z</time>
      </trkpt>
      <trkpt lat="49.5615" lon="0.67508">
        <ele>115</ele>
        <time>2012-02-19T11:51:32Z</time>
      </trkpt>
      <trkpt lat="49.56153" lon="0.67497">
        <ele>111</ele>
        <time>2012-02-19T11:51:37Z</time>
      </trkpt>
      <trkpt lat="49.56151" lon="0.67487">
        <ele>110</ele>
        <time>2012-02-19T11:51:42Z</time>
      </trkpt>
      <trkpt lat="49.56152" lon="0.67481">
        <ele>110</ele>
        <time>2012-02-19T11:51:50Z</time>
      </trkpt>
      <trkpt lat="49.56149" lon="0.67471">
        <ele>109</ele>
        <time>2012-02-19T11:51:56Z</time>
      </trkpt>
      <trkpt lat="49.56146" lon="0.67458">
        <ele>108</ele>
        <time>2012-02-19T11:52:03Z</time>
      </trkpt>
      <trkpt lat="49.56144" lon="0.6745">
        <ele>107</ele>
        <time>2012-02-19T11:52:09Z</time>
      </trkpt>
      <trkpt lat="49.5614" lon="0.67441">
        <ele>107</ele>
        <time>2012-02-19T11:52:15Z</time>
      </trkpt>
      <trkpt lat="49.56136" lon="0.6743">
        <ele>106</ele>
        <time>2012-02-19T11:52:25Z</time>
      </trkpt>
      <trkpt lat="49.56133" lon="0.6742">
        <ele>106</ele>
        <time>2012-02-19T11:52:30Z</time>
      </trkpt>
      <trkpt lat="49.56128" lon="0.67414">
        <ele>99</ele>
        <time>2012-02-19T11:52:35Z</time>
      </trkpt>
      <trkpt lat="49.56126" lon="0.67408">
        <ele>99</ele>
        <time>2012-02-19T11:52:42Z</time>
      </trkpt>
      <trkpt lat="49.56121" lon="0.67396">
        <ele>98</ele>
        <time>2012-02-19T11:52:49Z</time>
      </trkpt>
      <trkpt lat="49.56118" lon="0.67387">
        <ele>98</ele>
        <time>2012-02-19T11:52:55Z</time>
      </trkpt>
      <trkpt lat="49.56115" lon="0.6738">
        <ele>97</ele>
        <time>2012-02-19T11:53:01Z</time>
      </trkpt>
      <trkpt lat="49.56108" lon="0.67368">
        <ele>96</ele>
        <time>2012-02-19T11:53:07Z</time>
      </trkpt>
      <trkpt lat="49.56104" lon="0.67357">
        <ele>95</ele>
        <time>2012-02-19T11:53:17Z</time>
      </trkpt>
      <trkpt lat="49.56103" lon="0.67346">
        <ele>94</ele>
        <time>2012-02-19T11:53:24Z</time>
      </trkpt>
      <trkpt lat="49.56101" lon="0.67335">
        <ele>93</ele>
        <time>2012-02-19T11:53:29Z</time>
      </trkpt>
      <trkpt lat="49.56099" lon="0.67327">
        <ele>87</ele>
        <time>2012-02-19T11:53:34Z</time>
      </trkpt>
      <trkpt lat="49.56098" lon="0.67321">
        <ele>87</ele>
        <time>2012-02-19T11:53:40Z</time>
      </trkpt>
      <trkpt lat="49.56097" lon="0.67309">
        <ele>86</ele>
        <time>2012-02-19T11:53:45Z</time>
      </trkpt>
      <trkpt lat="49.56096" lon="0.67299">
        <ele>85</ele>
        <time>2012-02-19T11:53:51Z</time>
      </trkpt>
      <trkpt lat="49.56095" lon="0.67293">
        <ele>84</ele>
        <time>2012-02-19T11:53:57Z</time>
      </trkpt>
      <trkpt lat="49.56095" lon="0.67283">
        <ele>83</ele>
        <time>2012-02-19T11:54:02Z</time>
      </trkpt>
      <trkpt lat="49.56092" lon="0.67269">
        <ele>81</ele>
        <time>2012-02-19T11:54:08Z</time>
      </trkpt>
      <trkpt lat="49.56094" lon="0.67261">
        <ele>80</ele>
        <time>2012-02-19T11:54:15Z</time>
      </trkpt>
      <trkpt lat="49.56093" lon="0.67254">
        <ele>79</ele>
        <time>2012-02-19T11:54:21Z</time>
      </trkpt>
      <trkpt lat="49.56094" lon="0.67241">
        <ele>73</ele>
        <time>2012-02-19T11:54:27Z</time>
      </trkpt>
      <trkpt lat="49.56094" lon="0.6723">
        <ele>72</ele>
        <time>2012-02-19T11:54:36Z</time>
      </trkpt>
      <trkpt lat="49.56093" lon="0.67223">
        <ele>71</ele>
        <time>2012-02-19T11:54:41Z</time>
      </trkpt>
      <trkpt lat="49.56092" lon="0.6721">
        <ele>70</ele>
        <time>2012-02-19T11:54:48Z</time>
      </trkpt>
      <trkpt lat="49.56089" lon="0.67199">
        <ele>69</ele>
        <time>2012-02-19T11:54:56Z</time>
      </trkpt>
      <trkpt lat="49.56086" lon="0.67191">
        <ele>68</ele>
        <time>2012-02-19T11:55:02Z</time>
      </trkpt>
      <trkpt lat="49.56085" lon="0.67185">
        <ele>67</ele>
        <time>2012-02-19T11:55:08Z</time>
      </trkpt>
      <trkpt lat="49.56084" lon="0.67175">
        <ele>65</ele>
        <time>2012-02-19T11:55:13Z</time>
      </trkpt>
      <trkpt lat="49.56081" lon="0.67167">
        <ele>63</ele>
        <time>2012-02-19T11:55:18Z</time>
      </trkpt>
      <trkpt lat="49.5608" lon="0.67159">
        <ele>62</ele>
        <time>2012-02-19T11:55:24Z</time>
      </trkpt>
      <trkpt lat="49.56075" lon="0.67154">
        <ele>62</ele>
        <time>2012-02-19T11:55:31Z</time>
      </trkpt>
      <trkpt lat="49.56074" lon="0.67142">
        <ele>61</ele>
        <time>2012-02-19T11:55:38Z</time>
      </trkpt>
      <trkpt lat="49.56071" lon="0.67127">
        <ele>60</ele>
        <time>2012-02-19T11:55:46Z</time>
      </trkpt>
      <trkpt lat="49.56067" lon="0.67125">
        <ele>60</ele>
        <time>2012-02-19T11:55:52Z</time>
      </trkpt>
      <trkpt lat="49.56061" lon="0.67129">
        <ele>61</ele>
        <time>2012-02-19T11:55:58Z</time>
      </trkpt>
      <trkpt lat="49.56056" lon="0.6713">
        <ele>61</ele>
        <time>2012-02-19T11:56:03Z</time>
      </trkpt>
      <trkpt lat="49.56052" lon="0.67131">
        <ele>61</ele>
        <time>2012-02-19T11:56:08Z</time>
      </trkpt>
      <trkpt lat="49.56047" lon="0.67132">
        <ele>61</ele>
        <time>2012-02-19T11:56:13Z</time>
      </trkpt>
      <trkpt lat="49.56042" lon="0.6713">
        <ele>61</ele>
        <time>2012-02-19T11:56:19Z</time>
      </trkpt>
      <trkpt lat="49.56037" lon="0.67122">
        <ele>61</ele>
        <time>2012-02-19T11:56:25Z</time>
      </trkpt>
      <trkpt lat="49.56033" lon="0.67121">
        <ele>61</ele>
        <time>2012-02-19T11:56:34Z</time>
      </trkpt>
      <trkpt lat="49.56044" lon="0.67107">
        <ele>60</ele>
        <time>2012-02-19T11:56:40Z</time>
      </trkpt>
      <trkpt lat="49.56047" lon="0.67092">
        <ele>60</ele>
        <time>2012-02-19T11:56:47Z</time>
      </trkpt>
      <trkpt lat="49.56051" lon="0.67085">
        <ele>60</ele>
        <time>2012-02-19T11:56:55Z</time>
      </trkpt>
      <trkpt lat="49.56056" lon="0.67079">
        <ele>60</ele>
        <time>2012-02-19T11:57:03Z</time>
      </trkpt>
      <trkpt lat="49.56062" lon="0.67066">
        <ele>60</ele>
        <time>2012-02-19T11:57:08Z</time>
      </trkpt>
      <trkpt lat="49.56066" lon="0.67058">
        <ele>60</ele>
        <time>2012-02-19T11:57:13Z</time>
      </trkpt>
      <trkpt lat="49.56069" lon="0.67052">
        <ele>61</ele>
        <time>2012-02-19T11:57:18Z</time>
      </trkpt>
      <trkpt lat="49.56072" lon="0.67045">
        <ele>61</ele>
        <time>2012-02-19T11:57:24Z</time>
      </trkpt>
      <trkpt lat="49.56076" lon="0.67038">
        <ele>61</ele>
        <time>2012-02-19T11:57:29Z</time>
      </trkpt>
      <trkpt lat="49.56081" lon="0.67031">
        <ele>61</ele>
        <time>2012-02-19T11:57:34Z</time>
      </trkpt>
      <trkpt lat="49.56086" lon="0.67022">
        <ele>60</ele>
        <time>2012-02-19T11:57:39Z</time>
      </trkpt>
      <trkpt lat="49.5609" lon="0.67015">
        <ele>61</ele>
        <time>2012-02-19T11:57:44Z</time>
      </trkpt>
      <trkpt lat="49.56093" lon="0.67007">
        <ele>61</ele>
        <time>2012-02-19T11:57:49Z</time>
      </trkpt>
      <trkpt lat="49.56096" lon="0.66999">
        <ele>62</ele>
        <time>2012-02-19T11:57:54Z</time>
      </trkpt>
      <trkpt lat="49.56099" lon="0.6699">
        <ele>62</ele>
        <time>2012-02-19T11:57:59Z</time>
      </trkpt>
      <trkpt lat="49.56102" lon="0.66981">
        <ele>63</ele>
        <time>2012-02-19T11:58:04Z</time>
      </trkpt>
      <trkpt lat="49.56106" lon="0.66974">
        <ele>63</ele>
        <time>2012-02-19T11:58:09Z</time>
      </trkpt>
      <trkpt lat="49.5611" lon="0.66967">
        <ele>63</ele>
        <time>2012-02-19T11:58:14Z</time>
      </trkpt>
      <trkpt lat="49.56114" lon="0.66959">
        <ele>63</ele>
        <time>2012-02-19T11:58:19Z</time>
      </trkpt>
      <trkpt lat="49.56118" lon="0.66947">
        <ele>63</ele>
        <time>2012-02-19T11:58:27Z</time>
      </trkpt>
      <trkpt lat="49.56119" lon="0.66938">
        <ele>64</ele>
        <time>2012-02-19T11:58:33Z</time>
      </trkpt>
      <trkpt lat="49.56124" lon="0.6693">
        <ele>64</ele>
        <time>2012-02-19T11:58:38Z</time>
      </trkpt>
      <trkpt lat="49.56127" lon="0.66921">
        <ele>63</ele>
        <time>2012-02-19T11:58:43Z</time>
      </trkpt>
      <trkpt lat="49.56131" lon="0.66911">
        <ele>64</ele>
        <time>2012-02-19T11:58:49Z</time>
      </trkpt>
      <trkpt lat="49.56133" lon="0.66904">
        <ele>64</ele>
        <time>2012-02-19T11:58:55Z</time>
      </trkpt>
      <trkpt lat="49.56136" lon="0.66894">
        <ele>64</ele>
        <time>2012-02-19T11:59:01Z</time>
      </trkpt>
      <trkpt lat="49.56141" lon="0.66883">
        <ele>64</ele>
        <time>2012-02-19T11:59:06Z</time>
      </trkpt>
      <trkpt lat="49.56144" lon="0.66874">
        <ele>64</ele>
        <time>2012-02-19T11:59:12Z</time>
      </trkpt>
      <trkpt lat="49.56147" lon="0.66864">
        <ele>64</ele>
        <time>2012-02-19T11:59:19Z</time>
      </trkpt>
      <trkpt lat="49.56151" lon="0.66853">
        <ele>64</ele>
        <time>2012-02-19T11:59:25Z</time>
      </trkpt>
      <trkpt lat="49.56153" lon="0.66846">
        <ele>63</ele>
        <time>2012-02-19T11:59:30Z</time>
      </trkpt>
      <trkpt lat="49.56162" lon="0.66834">
        <ele>62</ele>
        <time>2012-02-19T11:59:38Z</time>
      </trkpt>
      <trkpt lat="49.56168" lon="0.66823">
        <ele>64</ele>
        <time>2012-02-19T11:59:45Z</time>
      </trkpt>
      <trkpt lat="49.56173" lon="0.66815">
        <ele>65</ele>
        <time>2012-02-19T11:59:50Z</time>
      </trkpt>
      <trkpt lat="49.56181" lon="0.66805">
        <ele>66</ele>
        <time>2012-02-19T11:59:56Z</time>
      </trkpt>
      <trkpt lat="49.56187" lon="0.66796">
        <ele>67</ele>
        <time>2012-02-19T12:00:01Z</time>
      </trkpt>
      <trkpt lat="49.56189" lon="0.66789">
        <ele>67</ele>
        <time>2012-02-19T12:00:06Z</time>
      </trkpt>
      <trkpt lat="49.5619" lon="0.66782">
        <ele>67</ele>
        <time>2012-02-19T12:00:12Z</time>
      </trkpt>
      <trkpt lat="49.56192" lon="0.66774">
        <ele>67</ele>
        <time>2012-02-19T12:00:20Z</time>
      </trkpt>
      <trkpt lat="49.56196" lon="0.6677">
        <ele>67</ele>
        <time>2012-02-19T12:00:26Z</time>
      </trkpt>
      <trkpt lat="49.56201" lon="0.66764">
        <ele>67</ele>
        <time>2012-02-19T12:00:32Z</time>
      </trkpt>
      <trkpt lat="49.56206" lon="0.66756">
        <ele>67</ele>
        <time>2012-02-19T12:00:38Z</time>
      </trkpt>
      <trkpt lat="49.56211" lon="0.66749">
        <ele>66</ele>
        <time>2012-02-19T12:00:44Z</time>
      </trkpt>
      <trkpt lat="49.56216" lon="0.66744">
        <ele>66</ele>
        <time>2012-02-19T12:00:49Z</time>
      </trkpt>
      <trkpt lat="49.5622" lon="0.66737">
        <ele>66</ele>
        <time>2012-02-19T12:00:54Z</time>
      </trkpt>
      <trkpt lat="49.56225" lon="0.66732">
        <ele>66</ele>
        <time>2012-02-19T12:00:59Z</time>
      </trkpt>
      <trkpt lat="49.56231" lon="0.66725">
        <ele>66</ele>
        <time>2012-02-19T12:01:04Z</time>
      </trkpt>
      <trkpt lat="49.56239" lon="0.66721">
        <ele>66</ele>
        <time>2012-02-19T12:01:09Z</time>
      </trkpt>
      <trkpt lat="49.56244" lon="0.66717">
        <ele>66</ele>
        <time>2012-02-19T12:01:14Z</time>
      </trkpt>
      <trkpt lat="49.56248" lon="0.66714">
        <ele>66</ele>
        <time>2012-02-19T12:01:19Z</time>
      </trkpt>
      <trkpt lat="49.56252" lon="0.66709">
        <ele>67</ele>
        <time>2012-02-19T12:01:25Z</time>
      </trkpt>
      <trkpt lat="49.56257" lon="0.66702">
        <ele>66</ele>
        <time>2012-02-19T12:01:32Z</time>
      </trkpt>
      <trkpt lat="49.56262" lon="0.66698">
        <ele>66</ele>
        <time>2012-02-19T12:01:38Z</time>
      </trkpt>
      <trkpt lat="49.56266" lon="0.66698">
        <ele>66</ele>
        <time>2012-02-19T12:01:43Z</time>
      </trkpt>
      <trkpt lat="49.56274" lon="0.66696">
        <ele>66</ele>
        <time>2012-02-19T12:01:50Z</time>
      </trkpt>
      <trkpt lat="49.56281" lon="0.66692">
        <ele>66</ele>
        <time>2012-02-19T12:01:56Z</time>
      </trkpt>
      <trkpt lat="49.56288" lon="0.66688">
        <ele>66</ele>
        <time>2012-02-19T12:02:03Z</time>
      </trkpt>
      <trkpt lat="49.56294" lon="0.66687">
        <ele>66</ele>
        <time>2012-02-19T12:02:08Z</time>
      </trkpt>
      <trkpt lat="49.56299" lon="0.66685">
        <ele>66</ele>
        <time>2012-02-19T12:02:13Z</time>
      </trkpt>
      <trkpt lat="49.56305" lon="0.6668">
        <ele>66</ele>
        <time>2012-02-19T12:02:20Z</time>
      </trkpt>
      <trkpt lat="49.5631" lon="0.66677">
        <ele>65</ele>
        <time>2012-02-19T12:02:25Z</time>
      </trkpt>
      <trkpt lat="49.56319" lon="0.66674">
        <ele>64</ele>
        <time>2012-02-19T12:02:31Z</time>
      </trkpt>
      <trkpt lat="49.56327" lon="0.66672">
        <ele>63</ele>
        <time>2012-02-19T12:02:38Z</time>
      </trkpt>
      <trkpt lat="49.56332" lon="0.66672">
        <ele>62</ele>
        <time>2012-02-19T12:02:43Z</time>
      </trkpt>
      <trkpt lat="49.56339" lon="0.6667">
        <ele>64</ele>
        <time>2012-02-19T12:02:49Z</time>
      </trkpt>
      <trkpt lat="49.56345" lon="0.66669">
        <ele>66</ele>
        <time>2012-02-19T12:02:54Z</time>
      </trkpt>
      <trkpt lat="49.56351" lon="0.66669">
        <ele>67</ele>
        <time>2012-02-19T12:02:59Z</time>
      </trkpt>
      <trkpt lat="49.56359" lon="0.66669">
        <ele>68</ele>
        <time>2012-02-19T12:03:05Z</time>
      </trkpt>
      <trkpt lat="49.56364" lon="0.66668">
        <ele>69</ele>
        <time>2012-02-19T12:03:10Z</time>
      </trkpt>
      <trkpt lat="49.56369" lon="0.66665">
        <ele>62</ele>
        <time>2012-02-19T12:03:16Z</time>
      </trkpt>
      <trkpt lat="49.56375" lon="0.66664">
        <ele>62</ele>
        <time>2012-02-19T12:03:22Z</time>
      </trkpt>
      <trkpt lat="49.56381" lon="0.66662">
        <ele>62</ele>
        <time>2012-02-19T12:03:29Z</time>
      </trkpt>
      <trkpt lat="49.56385" lon="0.66661">
        <ele>62</ele>
        <time>2012-02-19T12:03:35Z</time>
      </trkpt>
      <trkpt lat="49.56393" lon="0.66659">
        <ele>63</ele>
        <time>2012-02-19T12:03:40Z</time>
      </trkpt>
      <trkpt lat="49.56398" lon="0.66658">
        <ele>63</ele>
        <time>2012-02-19T12:03:46Z</time>
      </trkpt>
      <trkpt lat="49.56405" lon="0.66657">
        <ele>63</ele>
        <time>2012-02-19T12:03:51Z</time>
      </trkpt>
      <trkpt lat="49.5641" lon="0.66656">
        <ele>63</ele>
        <time>2012-02-19T12:03:56Z</time>
      </trkpt>
      <trkpt lat="49.56415" lon="0.66658">
        <ele>64</ele>
        <time>2012-02-19T12:04:02Z</time>
      </trkpt>
      <trkpt lat="49.56424" lon="0.66658">
        <ele>65</ele>
        <time>2012-02-19T12:04:08Z</time>
      </trkpt>
      <trkpt lat="49.5643" lon="0.66658">
        <ele>65</ele>
        <time>2012-02-19T12:04:15Z</time>
      </trkpt>
      <trkpt lat="49.56435" lon="0.66659">
        <ele>66</ele>
        <time>2012-02-19T12:04:21Z</time>
      </trkpt>
      <trkpt lat="49.56439" lon="0.6666">
        <ele>66</ele>
        <time>2012-02-19T12:04:27Z</time>
      </trkpt>
      <trkpt lat="49.56443" lon="0.66661">
        <ele>66</ele>
        <time>2012-02-19T12:04:34Z</time>
      </trkpt>
      <trkpt lat="49.56454" lon="0.66659">
        <ele>66</ele>
        <time>2012-02-19T12:04:39Z</time>
      </trkpt>
      <trkpt lat="49.56465" lon="0.66659">
        <ele>67</ele>
        <time>2012-02-19T12:04:45Z</time>
      </trkpt>
      <trkpt lat="49.56471" lon="0.66658">
        <ele>67</ele>
        <time>2012-02-19T12:04:50Z</time>
      </trkpt>
      <trkpt lat="49.56476" lon="0.66658">
        <ele>68</ele>
        <time>2012-02-19T12:04:55Z</time>
      </trkpt>
      <trkpt lat="49.56483" lon="0.66658">
        <ele>68</ele>
        <time>2012-02-19T12:05:00Z</time>
      </trkpt>
      <trkpt lat="49.56486" lon="0.66655">
        <ele>68</ele>
        <time>2012-02-19T12:05:06Z</time>
      </trkpt>
      <trkpt lat="49.56491" lon="0.66652">
        <ele>68</ele>
        <time>2012-02-19T12:05:11Z</time>
      </trkpt>
      <trkpt lat="49.56499" lon="0.66652">
        <ele>69</ele>
        <time>2012-02-19T12:05:18Z</time>
      </trkpt>
      <trkpt lat="49.56505" lon="0.66655">
        <ele>70</ele>
        <time>2012-02-19T12:05:23Z</time>
      </trkpt>
      <trkpt lat="49.56512" lon="0.66657">
        <ele>70</ele>
        <time>2012-02-19T12:05:29Z</time>
      </trkpt>
      <trkpt lat="49.56521" lon="0.66659">
        <ele>70</ele>
        <time>2012-02-19T12:05:36Z</time>
      </trkpt>
      <trkpt lat="49.56527" lon="0.66662">
        <ele>70</ele>
        <time>2012-02-19T12:05:41Z</time>
      </trkpt>
      <trkpt lat="49.56536" lon="0.66667">
        <ele>78</ele>
        <time>2012-02-19T12:05:48Z</time>
      </trkpt>
      <trkpt lat="49.56542" lon="0.66672">
        <ele>78</ele>
        <time>2012-02-19T12:05:54Z</time>
      </trkpt>
      <trkpt lat="49.5655" lon="0.66677">
        <ele>78</ele>
        <time>2012-02-19T12:05:59Z</time>
      </trkpt>
      <trkpt lat="49.56558" lon="0.66681">
        <ele>78</ele>
        <time>2012-02-19T12:06:05Z</time>
      </trkpt>
      <trkpt lat="49.56561" lon="0.66689">
        <ele>79</ele>
        <time>2012-02-19T12:06:12Z</time>
      </trkpt>
      <trkpt lat="49.56565" lon="0.66694">
        <ele>80</ele>
        <time>2012-02-19T12:06:18Z</time>
      </trkpt>
      <trkpt lat="49.56569" lon="0.66697">
        <ele>80</ele>
        <time>2012-02-19T12:06:24Z</time>
      </trkpt>
      <trkpt lat="49.56575" lon="0.667">
        <ele>80</ele>
        <time>2012-02-19T12:06:30Z</time>
      </trkpt>
      <trkpt lat="49.5658" lon="0.66702">
        <ele>80</ele>
        <time>2012-02-19T12:06:36Z</time>
      </trkpt>
      <trkpt lat="49.56586" lon="0.66704">
        <ele>82</ele>
        <time>2012-02-19T12:06:42Z</time>
      </trkpt>
      <trkpt lat="49.56593" lon="0.66706">
        <ele>82</ele>
        <time>2012-02-19T12:06:48Z</time>
      </trkpt>
      <trkpt lat="49.56598" lon="0.66702">
        <ele>82</ele>
        <time>2012-02-19T12:06:53Z</time>
      </trkpt>
      <trkpt lat="49.56606" lon="0.66701">
        <ele>82</ele>
        <time>2012-02-19T12:07:00Z</time>
      </trkpt>
      <trkpt lat="49.56613" lon="0.66701">
        <ele>82</ele>
        <time>2012-02-19T12:07:06Z</time>
      </trkpt>
      <trkpt lat="49.56626" lon="0.66695">
        <ele>82</ele>
        <time>2012-02-19T12:07:12Z</time>
      </trkpt>
      <trkpt lat="49.56631" lon="0.66693">
        <ele>82</ele>
        <time>2012-02-19T12:07:17Z</time>
      </trkpt>
      <trkpt lat="49.56638" lon="0.66692">
        <ele>82</ele>
        <time>2012-02-19T12:07:23Z</time>
      </trkpt>
      <trkpt lat="49.56643" lon="0.66689">
        <ele>82</ele>
        <time>2012-02-19T12:07:29Z</time>
      </trkpt>
      <trkpt lat="49.56651" lon="0.66689">
        <ele>82</ele>
        <time>2012-02-19T12:07:35Z</time>
      </trkpt>
      <trkpt lat="49.56657" lon="0.66686">
        <ele>81</ele>
        <time>2012-02-19T12:07:42Z</time>
      </trkpt>
      <trkpt lat="49.56661" lon="0.66684">
        <ele>80</ele>
        <time>2012-02-19T12:07:47Z</time>
      </trkpt>
      <trkpt lat="49.56667" lon="0.66677">
        <ele>82</ele>
        <time>2012-02-19T12:07:54Z</time>
      </trkpt>
      <trkpt lat="49.56674" lon="0.66673">
        <ele>82</ele>
        <time>2012-02-19T12:08:01Z</time>
      </trkpt>
      <trkpt lat="49.5668" lon="0.66673">
        <ele>84</ele>
        <time>2012-02-19T12:08:07Z</time>
      </trkpt>
      <trkpt lat="49.56688" lon="0.66668">
        <ele>86</ele>
        <time>2012-02-19T12:08:13Z</time>
      </trkpt>
      <trkpt lat="49.56694" lon="0.66663">
        <ele>79</ele>
        <time>2012-02-19T12:08:21Z</time>
      </trkpt>
      <trkpt lat="49.56697" lon="0.66656">
        <ele>79</ele>
        <time>2012-02-19T12:08:27Z</time>
      </trkpt>
      <trkpt lat="49.56701" lon="0.66649">
        <ele>80</ele>
        <time>2012-02-19T12:08:32Z</time>
      </trkpt>
      <trkpt lat="49.56709" lon="0.66647">
        <ele>80</ele>
        <time>2012-02-19T12:08:38Z</time>
      </trkpt>
      <trkpt lat="49.56714" lon="0.66642">
        <ele>81</ele>
        <time>2012-02-19T12:08:44Z</time>
      </trkpt>
      <trkpt lat="49.5672" lon="0.66637">
        <ele>81</ele>
        <time>2012-02-19T12:08:50Z</time>
      </trkpt>
      <trkpt lat="49.56725" lon="0.66632">
        <ele>81</ele>
        <time>2012-02-19T12:08:57Z</time>
      </trkpt>
      <trkpt lat="49.56731" lon="0.66627">
        <ele>81</ele>
        <time>2012-02-19T12:09:03Z</time>
      </trkpt>
      <trkpt lat="49.56735" lon="0.66621">
        <ele>80</ele>
        <time>2012-02-19T12:09:09Z</time>
      </trkpt>
      <trkpt lat="49.56742" lon="0.66613">
        <ele>80</ele>
        <time>2012-02-19T12:09:17Z</time>
      </trkpt>
      <trkpt lat="49.56746" lon="0.66609">
        <ele>80</ele>
        <time>2012-02-19T12:09:22Z</time>
      </trkpt>
      <trkpt lat="49.5675" lon="0.66601">
        <ele>87</ele>
        <time>2012-02-19T12:09:28Z</time>
      </trkpt>
      <trkpt lat="49.56755" lon="0.66595">
        <ele>85</ele>
        <time>2012-02-19T12:09:34Z</time>
      </trkpt>
      <trkpt lat="49.5676" lon="0.66588">
        <ele>85</ele>
        <time>2012-02-19T12:09:40Z</time>
      </trkpt>
      <trkpt lat="49.56764" lon="0.66581">
        <ele>81</ele>
        <time>2012-02-19T12:09:46Z</time>
      </trkpt>
      <trkpt lat="49.5677" lon="0.66579">
        <ele>82</ele>
        <time>2012-02-19T12:09:52Z</time>
      </trkpt>
      <trkpt lat="49.56775" lon="0.66573">
        <ele>83</ele>
        <time>2012-02-19T12:09:59Z</time>
      </trkpt>
      <trkpt lat="49.56782" lon="0.66568">
        <ele>84</ele>
        <time>2012-02-19T12:10:06Z</time>
      </trkpt>
      <trkpt lat="49.56786" lon="0.66561">
        <ele>84</ele>
        <time>2012-02-19T12:10:12Z</time>
      </trkpt>
      <trkpt lat="49.56791" lon="0.66553">
        <ele>85</ele>
        <time>2012-02-19T12:10:18Z</time>
      </trkpt>
      <trkpt lat="49.56796" lon="0.66547">
        <ele>85</ele>
        <time>2012-02-19T12:10:24Z</time>
      </trkpt>
      <trkpt lat="49.56801" lon="0.66543">
        <ele>85</ele>
        <time>2012-02-19T12:10:30Z</time>
      </trkpt>
      <trkpt lat="49.56805" lon="0.66535">
        <ele>85</ele>
        <time>2012-02-19T12:10:36Z</time>
      </trkpt>
      <trkpt lat="49.56809" lon="0.66527">
        <ele>84</ele>
        <time>2012-02-19T12:10:42Z</time>
      </trkpt>
      <trkpt lat="49.56815" lon="0.66518">
        <ele>84</ele>
        <time>2012-02-19T12:10:49Z</time>
      </trkpt>
      <trkpt lat="49.56818" lon="0.66511">
        <ele>84</ele>
        <time>2012-02-19T12:10:55Z</time>
      </trkpt>
      <trkpt lat="49.56824" lon="0.66504">
        <ele>84</ele>
        <time>2012-02-19T12:11:02Z</time>
      </trkpt>
      <trkpt lat="49.56828" lon="0.66497">
        <ele>82</ele>
        <time>2012-02-19T12:11:07Z</time>
      </trkpt>
      <trkpt lat="49.56833" lon="0.66488">
        <ele>81</ele>
        <time>2012-02-19T12:11:14Z</time>
      </trkpt>
      <trkpt lat="49.56836" lon="0.66484">
        <ele>87</ele>
        <time>2012-02-19T12:11:20Z</time>
      </trkpt>
      <trkpt lat="49.5684" lon="0.66474">
        <ele>88</ele>
        <time>2012-02-19T12:11:25Z</time>
      </trkpt>
      <trkpt lat="49.56842" lon="0.66466">
        <ele>88</ele>
        <time>2012-02-19T12:11:31Z</time>
      </trkpt>
      <trkpt lat="49.56846" lon="0.66457">
        <ele>88</ele>
        <time>2012-02-19T12:11:36Z</time>
      </trkpt>
      <trkpt lat="49.56848" lon="0.66445">
        <ele>87</ele>
        <time>2012-02-19T12:11:42Z</time>
      </trkpt>
      <trkpt lat="49.56849" lon="0.66435">
        <ele>86</ele>
        <time>2012-02-19T12:11:48Z</time>
      </trkpt>
      <trkpt lat="49.56851" lon="0.66428">
        <ele>86</ele>
        <time>2012-02-19T12:11:53Z</time>
      </trkpt>
      <trkpt lat="49.56854" lon="0.66417">
        <ele>85</ele>
        <time>2012-02-19T12:11:59Z</time>
      </trkpt>
      <trkpt lat="49.56857" lon="0.66408">
        <ele>86</ele>
        <time>2012-02-19T12:12:05Z</time>
      </trkpt>
      <trkpt lat="49.56859" lon="0.66398">
        <ele>86</ele>
        <time>2012-02-19T12:12:12Z</time>
      </trkpt>
      <trkpt lat="49.5686" lon="0.66392">
        <ele>87</ele>
        <time>2012-02-19T12:12:17Z</time>
      </trkpt>
      <trkpt lat="49.5686" lon="0.66386">
        <ele>87</ele>
        <time>2012-02-19T12:12:22Z</time>
      </trkpt>
      <trkpt lat="49.56861" lon="0.66374">
        <ele>87</ele>
        <time>2012-02-19T12:12:28Z</time>
      </trkpt>
      <trkpt lat="49.56863" lon="0.66365">
        <ele>88</ele>
        <time>2012-02-19T12:12:33Z</time>
      </trkpt>
      <trkpt lat="49.56863" lon="0.66357">
        <ele>88</ele>
        <time>2012-02-19T12:12:39Z</time>
      </trkpt>
      <trkpt lat="49.56862" lon="0.66352">
        <ele>87</ele>
        <time>2012-02-19T12:12:44Z</time>
      </trkpt>
      <trkpt lat="49.56864" lon="0.66341">
        <ele>87</ele>
        <time>2012-02-19T12:12:52Z</time>
      </trkpt>
      <trkpt lat="49.56865" lon="0.66334">
        <ele>87</ele>
        <time>2012-02-19T12:13:00Z</time>
      </trkpt>
      <trkpt lat="49.56866" lon="0.66326">
        <ele>87</ele>
        <time>2012-02-19T12:13:05Z</time>
      </trkpt>
      <trkpt lat="49.56868" lon="0.66316">
        <ele>87</ele>
        <time>2012-02-19T12:13:11Z</time>
      </trkpt>
      <trkpt lat="49.56871" lon="0.66302">
        <ele>87</ele>
        <time>2012-02-19T12:13:16Z</time>
      </trkpt>
      <trkpt lat="49.56873" lon="0.66293">
        <ele>87</ele>
        <time>2012-02-19T12:13:21Z</time>
      </trkpt>
      <trkpt lat="49.56876" lon="0.66292">
        <ele>87</ele>
        <time>2012-02-19T12:13:27Z</time>
      </trkpt>
      <trkpt lat="49.56881" lon="0.66293">
        <ele>88</ele>
        <time>2012-02-19T12:13:34Z</time>
      </trkpt>
      <trkpt lat="49.56883" lon="0.66295">
        <ele>88</ele>
        <time>2012-02-19T12:13:41Z</time>
      </trkpt>
      <trkpt lat="49.56882" lon="0.66306">
        <ele>88</ele>
        <time>2012-02-19T12:13:48Z</time>
      </trkpt>
      <trkpt lat="49.56881" lon="0.66299">
        <ele>88</ele>
        <time>2012-02-19T12:13:53Z</time>
      </trkpt>
      <trkpt lat="49.56883" lon="0.66284">
        <ele>88</ele>
        <time>2012-02-19T12:13:58Z</time>
      </trkpt>
      <trkpt lat="49.56882" lon="0.66272">
        <ele>87</ele>
        <time>2012-02-19T12:14:03Z</time>
      </trkpt>
      <trkpt lat="49.56884" lon="0.66261">
        <ele>87</ele>
        <time>2012-02-19T12:14:08Z</time>
      </trkpt>
      <trkpt lat="49.56887" lon="0.6625">
        <ele>87</ele>
        <time>2012-02-19T12:14:13Z</time>
      </trkpt>
      <trkpt lat="49.5689" lon="0.6624">
        <ele>87</ele>
        <time>2012-02-19T12:14:18Z</time>
      </trkpt>
      <trkpt lat="49.56891" lon="0.66228">
        <ele>86</ele>
        <time>2012-02-19T12:14:23Z</time>
      </trkpt>
      <trkpt lat="49.56892" lon="0.66218">
        <ele>86</ele>
        <time>2012-02-19T12:14:28Z</time>
      </trkpt>
      <trkpt lat="49.56893" lon="0.66207">
        <ele>86</ele>
        <time>2012-02-19T12:14:33Z</time>
      </trkpt>
      <trkpt lat="49.56895" lon="0.66197">
        <ele>86</ele>
        <time>2012-02-19T12:14:38Z</time>
      </trkpt>
      <trkpt lat="49.56898" lon="0.66187">
        <ele>86</ele>
        <time>2012-02-19T12:14:43Z</time>
      </trkpt>
      <trkpt lat="49.569" lon="0.66179">
        <ele>86</ele>
        <time>2012-02-19T12:14:48Z</time>
      </trkpt>
      <trkpt lat="49.56905" lon="0.66173">
        <ele>86</ele>
        <time>2012-02-19T12:14:53Z</time>
      </trkpt>
      <trkpt lat="49.56909" lon="0.66164">
        <ele>86</ele>
        <time>2012-02-19T12:14:58Z</time>
      </trkpt>
      <trkpt lat="49.56912" lon="0.66155">
        <ele>86</ele>
        <time>2012-02-19T12:15:03Z</time>
      </trkpt>
      <trkpt lat="49.56916" lon="0.66145">
        <ele>86</ele>
        <time>2012-02-19T12:15:09Z</time>
      </trkpt>
      <trkpt lat="49.56921" lon="0.66138">
        <ele>88</ele>
        <time>2012-02-19T12:15:15Z</time>
      </trkpt>
      <trkpt lat="49.56924" lon="0.66129">
        <ele>87</ele>
        <time>2012-02-19T12:15:20Z</time>
      </trkpt>
      <trkpt lat="49.56927" lon="0.66119">
        <ele>87</ele>
        <time>2012-02-19T12:15:25Z</time>
      </trkpt>
      <trkpt lat="49.56929" lon="0.66109">
        <ele>86</ele>
        <time>2012-02-19T12:15:30Z</time>
      </trkpt>
      <trkpt lat="49.56935" lon="0.66101">
        <ele>86</ele>
        <time>2012-02-19T12:15:36Z</time>
      </trkpt>
      <trkpt lat="49.56942" lon="0.66096">
        <ele>86</ele>
        <time>2012-02-19T12:15:42Z</time>
      </trkpt>
      <trkpt lat="49.56946" lon="0.6609">
        <ele>86</ele>
        <time>2012-02-19T12:15:47Z</time>
      </trkpt>
      <trkpt lat="49.56952" lon="0.66085">
        <ele>87</ele>
        <time>2012-02-19T12:15:52Z</time>
      </trkpt>
      <trkpt lat="49.56959" lon="0.66082">
        <ele>84</ele>
        <time>2012-02-19T12:15:57Z</time>
      </trkpt>
      <trkpt lat="49.56966" lon="0.66079">
        <ele>84</ele>
        <time>2012-02-19T12:16:02Z</time>
      </trkpt>
      <trkpt lat="49.56975" lon="0.66077">
        <ele>84</ele>
        <time>2012-02-19T12:16:07Z</time>
      </trkpt>
      <trkpt lat="49.56984" lon="0.66078">
        <ele>85</ele>
        <time>2012-02-19T12:16:12Z</time>
      </trkpt>
      <trkpt lat="49.56992" lon="0.66077">
        <ele>85</ele>
        <time>2012-02-19T12:16:17Z</time>
      </trkpt>
      <trkpt lat="49.57001" lon="0.66075">
        <ele>85</ele>
        <time>2012-02-19T12:16:23Z</time>
      </trkpt>
      <trkpt lat="49.57006" lon="0.66075">
        <ele>84</ele>
        <time>2012-02-19T12:16:28Z</time>
      </trkpt>
      <trkpt lat="49.57014" lon="0.66076">
        <ele>84</ele>
        <time>2012-02-19T12:16:34Z</time>
      </trkpt>
      <trkpt lat="49.57023" lon="0.66077">
        <ele>84</ele>
        <time>2012-02-19T12:16:40Z</time>
      </trkpt>
      <trkpt lat="49.57032" lon="0.66076">
        <ele>84</ele>
        <time>2012-02-19T12:16:45Z</time>
      </trkpt>
      <trkpt lat="49.57037" lon="0.66076">
        <ele>84</ele>
        <time>2012-02-19T12:16:50Z</time>
      </trkpt>
      <trkpt lat="49.57044" lon="0.66078">
        <ele>84</ele>
        <time>2012-02-19T12:16:56Z</time>
      </trkpt>
      <trkpt lat="49.5705" lon="0.66078">
        <ele>85</ele>
        <time>2012-02-19T12:17:01Z</time>
      </trkpt>
      <trkpt lat="49.57057" lon="0.66079">
        <ele>85</ele>
        <time>2012-02-19T12:17:06Z</time>
      </trkpt>
      <trkpt lat="49.57063" lon="0.6608">
        <ele>85</ele>
        <time>2012-02-19T12:17:11Z</time>
      </trkpt>
      <trkpt lat="49.57069" lon="0.66081">
        <ele>86</ele>
        <time>2012-02-19T12:17:16Z</time>
      </trkpt>
      <trkpt lat="49.57077" lon="0.66082">
        <ele>87</ele>
        <time>2012-02-19T12:17:22Z</time>
      </trkpt>
      <trkpt lat="49.57085" lon="0.66082">
        <ele>88</ele>
        <time>2012-02-19T12:17:28Z</time>
      </trkpt>
      <trkpt lat="49.57092" lon="0.66083">
        <ele>87</ele>
        <time>2012-02-19T12:17:33Z</time>
      </trkpt>
      <trkpt lat="49.571" lon="0.66084">
        <ele>92</ele>
        <time>2012-02-19T12:17:40Z</time>
      </trkpt>
      <trkpt lat="49.57106" lon="0.66085">
        <ele>93</ele>
        <time>2012-02-19T12:17:45Z</time>
      </trkpt>
      <trkpt lat="49.57113" lon="0.66088">
        <ele>94</ele>
        <time>2012-02-19T12:17:52Z</time>
      </trkpt>
      <trkpt lat="49.5712" lon="0.6609">
        <ele>94</ele>
        <time>2012-02-19T12:17:57Z</time>
      </trkpt>
      <trkpt lat="49.57126" lon="0.66092">
        <ele>95</ele>
        <time>2012-02-19T12:18:03Z</time>
      </trkpt>
      <trkpt lat="49.57134" lon="0.66094">
        <ele>95</ele>
        <time>2012-02-19T12:18:08Z</time>
      </trkpt>
      <trkpt lat="49.5714" lon="0.66097">
        <ele>95</ele>
        <time>2012-02-19T12:18:14Z</time>
      </trkpt>
      <trkpt lat="49.57151" lon="0.661">
        <ele>94</ele>
        <time>2012-02-19T12:18:20Z</time>
      </trkpt>
      <trkpt lat="49.57153" lon="0.66099">
        <ele>94</ele>
        <time>2012-02-19T12:18:25Z</time>
      </trkpt>
      <trkpt lat="49.57158" lon="0.66103">
        <ele>94</ele>
        <time>2012-02-19T12:18:32Z</time>
      </trkpt>
      <trkpt lat="49.57164" lon="0.66105">
        <ele>94</ele>
        <time>2012-02-19T12:18:37Z</time>
      </trkpt>
      <trkpt lat="49.57172" lon="0.66106">
        <ele>95</ele>
        <time>2012-02-19T12:18:44Z</time>
      </trkpt>
      <trkpt lat="49.57179" lon="0.66108">
        <ele>96</ele>
        <time>2012-02-19T12:18:50Z</time>
      </trkpt>
      <trkpt lat="49.57184" lon="0.66113">
        <ele>97</ele>
        <time>2012-02-19T12:18:55Z</time>
      </trkpt>
      <trkpt lat="49.5719" lon="0.66111">
        <ele>97</ele>
        <time>2012-02-19T12:19:00Z</time>
      </trkpt>
      <trkpt lat="49.57197" lon="0.66108">
        <ele>97</ele>
        <time>2012-02-19T12:19:05Z</time>
      </trkpt>
      <trkpt lat="49.57206" lon="0.66105">
        <ele>97</ele>
        <time>2012-02-19T12:19:11Z</time>
      </trkpt>
      <trkpt lat="49.57212" lon="0.66103">
        <ele>97</ele>
        <time>2012-02-19T12:19:16Z</time>
      </trkpt>
      <trkpt lat="49.57221" lon="0.66096">
        <ele>96</ele>
        <time>2012-02-19T12:19:21Z</time>
      </trkpt>
      <trkpt lat="49.57227" lon="0.66091">
        <ele>95</ele>
        <time>2012-02-19T12:19:26Z</time>
      </trkpt>
      <trkpt lat="49.57233" lon="0.66087">
        <ele>94</ele>
        <time>2012-02-19T12:19:32Z</time>
      </trkpt>
      <trkpt lat="49.57237" lon="0.66084">
        <ele>93</ele>
        <time>2012-02-19T12:19:38Z</time>
      </trkpt>
      <trkpt lat="49.57243" lon="0.66081">
        <ele>89</ele>
        <time>2012-02-19T12:19:43Z</time>
      </trkpt>
      <trkpt lat="49.57251" lon="0.66079">
        <ele>90</ele>
        <time>2012-02-19T12:19:49Z</time>
      </trkpt>
      <trkpt lat="49.57257" lon="0.66078">
        <ele>91</ele>
        <time>2012-02-19T12:19:54Z</time>
      </trkpt>
      <trkpt lat="49.57264" lon="0.66076">
        <ele>92</ele>
        <time>2012-02-19T12:20:00Z</time>
      </trkpt>
      <trkpt lat="49.5727" lon="0.66077">
        <ele>92</ele>
        <time>2012-02-19T12:20:05Z</time>
      </trkpt>
      <trkpt lat="49.5728" lon="0.66075">
        <ele>93</ele>
        <time>2012-02-19T12:20:11Z</time>
      </trkpt>
      <trkpt lat="49.57286" lon="0.66076">
        <ele>94</ele>
        <time>2012-02-19T12:20:16Z</time>
      </trkpt>
      <trkpt lat="49.57291" lon="0.66078">
        <ele>94</ele>
        <time>2012-02-19T12:20:21Z</time>
      </trkpt>
      <trkpt lat="49.57297" lon="0.66078">
        <ele>95</ele>
        <time>2012-02-19T12:20:26Z</time>
      </trkpt>
      <trkpt lat="49.57301" lon="0.66075">
        <ele>95</ele>
        <time>2012-02-19T12:20:33Z</time>
      </trkpt>
      <trkpt lat="49.57304" lon="0.66067">
        <ele>95</ele>
        <time>2012-02-19T12:20:38Z</time>
      </trkpt>
      <trkpt lat="49.57308" lon="0.66062">
        <ele>96</ele>
        <time>2012-02-19T12:20:43Z</time>
      </trkpt>
      <trkpt lat="49.57312" lon="0.66057">
        <ele>96</ele>
        <time>2012-02-19T12:20:49Z</time>
      </trkpt>
      <trkpt lat="49.57318" lon="0.66053">
        <ele>96</ele>
        <time>2012-02-19T12:20:55Z</time>
      </trkpt>
      <trkpt lat="49.57326" lon="0.66047">
        <ele>96</ele>
        <time>2012-02-19T12:21:01Z</time>
      </trkpt>
      <trkpt lat="49.5733" lon="0.6604">
        <ele>95</ele>
        <time>2012-02-19T12:21:06Z</time>
      </trkpt>
      <trkpt lat="49.57336" lon="0.66038">
        <ele>105</ele>
        <time>2012-02-19T12:21:12Z</time>
      </trkpt>
      <trkpt lat="49.5734" lon="0.66034">
        <ele>104</ele>
        <time>2012-02-19T12:21:18Z</time>
      </trkpt>
      <trkpt lat="49.57346" lon="0.66035">
        <ele>105</ele>
        <time>2012-02-19T12:21:26Z</time>
      </trkpt>
      <trkpt lat="49.57337" lon="0.66032">
        <ele>104</ele>
        <time>2012-02-19T12:21:35Z</time>
      </trkpt>
      <trkpt lat="49.5733" lon="0.66032">
        <ele>95</ele>
        <time>2012-02-19T12:21:40Z</time>
      </trkpt>
      <trkpt lat="49.57333" lon="0.66034">
        <ele>95</ele>
        <time>2012-02-19T12:21:48Z</time>
      </trkpt>
      <trkpt lat="49.57343" lon="0.66038">
        <ele>105</ele>
        <time>2012-02-19T12:21:54Z</time>
      </trkpt>
      <trkpt lat="49.57345" lon="0.6604">
        <ele>105</ele>
        <time>2012-02-19T12:21:59Z</time>
      </trkpt>
      <trkpt lat="49.57339" lon="0.66027">
        <ele>104</ele>
        <time>2012-02-19T12:22:04Z</time>
      </trkpt>
      <trkpt lat="49.57337" lon="0.66019">
        <ele>102</ele>
        <time>2012-02-19T12:22:09Z</time>
      </trkpt>
      <trkpt lat="49.57335" lon="0.6601">
        <ele>100</ele>
        <time>2012-02-19T12:22:14Z</time>
      </trkpt>
      <trkpt lat="49.57334" lon="0.66001">
        <ele>97</ele>
        <time>2012-02-19T12:22:19Z</time>
      </trkpt>
      <trkpt lat="49.57331" lon="0.6599">
        <ele>95</ele>
        <time>2012-02-19T12:22:24Z</time>
      </trkpt>
      <trkpt lat="49.5733" lon="0.65983">
        <ele>95</ele>
        <time>2012-02-19T12:22:29Z</time>
      </trkpt>
      <trkpt lat="49.57327" lon="0.65972">
        <ele>94</ele>
        <time>2012-02-19T12:22:34Z</time>
      </trkpt>
      <trkpt lat="49.57325" lon="0.65962">
        <ele>94</ele>
        <time>2012-02-19T12:22:40Z</time>
      </trkpt>
      <trkpt lat="49.57323" lon="0.65952">
        <ele>95</ele>
        <time>2012-02-19T12:22:45Z</time>
      </trkpt>
      <trkpt lat="49.57322" lon="0.65943">
        <ele>95</ele>
        <time>2012-02-19T12:22:51Z</time>
      </trkpt>
      <trkpt lat="49.57322" lon="0.65934">
        <ele>96</ele>
        <time>2012-02-19T12:22:56Z</time>
      </trkpt>
      <trkpt lat="49.57321" lon="0.65925">
        <ele>97</ele>
        <time>2012-02-19T12:23:01Z</time>
      </trkpt>
      <trkpt lat="49.57319" lon="0.65913">
        <ele>99</ele>
        <time>2012-02-19T12:23:06Z</time>
      </trkpt>
      <trkpt lat="49.57319" lon="0.65904">
        <ele>99</ele>
        <time>2012-02-19T12:23:11Z</time>
      </trkpt>
      <trkpt lat="49.5732" lon="0.65895">
        <ele>99</ele>
        <time>2012-02-19T12:23:17Z</time>
      </trkpt>
      <trkpt lat="49.5732" lon="0.65885">
        <ele>99</ele>
        <time>2012-02-19T12:23:23Z</time>
      </trkpt>
      <trkpt lat="49.5732" lon="0.65876">
        <ele>100</ele>
        <time>2012-02-19T12:23:28Z</time>
      </trkpt>
      <trkpt lat="49.57318" lon="0.65867">
        <ele>100</ele>
        <time>2012-02-19T12:23:33Z</time>
      </trkpt>
      <trkpt lat="49.57317" lon="0.6586">
        <ele>101</ele>
        <time>2012-02-19T12:23:38Z</time>
      </trkpt>
      <trkpt lat="49.57314" lon="0.6585">
        <ele>101</ele>
        <time>2012-02-19T12:23:43Z</time>
      </trkpt>
      <trkpt lat="49.57313" lon="0.65842">
        <ele>102</ele>
        <time>2012-02-19T12:23:48Z</time>
      </trkpt>
      <trkpt lat="49.57314" lon="0.65831">
        <ele>104</ele>
        <time>2012-02-19T12:23:54Z</time>
      </trkpt>
      <trkpt lat="49.57313" lon="0.6582">
        <ele>104</ele>
        <time>2012-02-19T12:24:00Z</time>
      </trkpt>
      <trkpt lat="49.57313" lon="0.65812">
        <ele>104</ele>
        <time>2012-02-19T12:24:05Z</time>
      </trkpt>
      <trkpt lat="49.57311" lon="0.65801">
        <ele>104</ele>
        <time>2012-02-19T12:24:10Z</time>
      </trkpt>
      <trkpt lat="49.57308" lon="0.6579">
        <ele>104</ele>
        <time>2012-02-19T12:24:15Z</time>
      </trkpt>
      <trkpt lat="49.57306" lon="0.6578">
        <ele>104</ele>
        <time>2012-02-19T12:24:20Z</time>
      </trkpt>
      <trkpt lat="49.57306" lon="0.65772">
        <ele>104</ele>
        <time>2012-02-19T12:24:25Z</time>
      </trkpt>
      <trkpt lat="49.57303" lon="0.65761">
        <ele>104</ele>
        <time>2012-02-19T12:24:30Z</time>
      </trkpt>
      <trkpt lat="49.57299" lon="0.65749">
        <ele>106</ele>
        <time>2012-02-19T12:24:35Z</time>
      </trkpt>
      <trkpt lat="49.57298" lon="0.65741">
        <ele>106</ele>
        <time>2012-02-19T12:24:40Z</time>
      </trkpt>
      <trkpt lat="49.57295" lon="0.6573">
        <ele>106</ele>
        <time>2012-02-19T12:24:45Z</time>
      </trkpt>
      <trkpt lat="49.57295" lon="0.65721">
        <ele>106</ele>
        <time>2012-02-19T12:24:50Z</time>
      </trkpt>
      <trkpt lat="49.57293" lon="0.65712">
        <ele>106</ele>
        <time>2012-02-19T12:24:55Z</time>
      </trkpt>
      <trkpt lat="49.57293" lon="0.65703">
        <ele>106</ele>
        <time>2012-02-19T12:25:00Z</time>
      </trkpt>
      <trkpt lat="49.57293" lon="0.65694">
        <ele>107</ele>
        <time>2012-02-19T12:25:06Z</time>
      </trkpt>
      <trkpt lat="49.57293" lon="0.65686">
        <ele>107</ele>
        <time>2012-02-19T12:25:11Z</time>
      </trkpt>
      <trkpt lat="49.57292" lon="0.65676">
        <ele>107</ele>
        <time>2012-02-19T12:25:16Z</time>
      </trkpt>
      <trkpt lat="49.57291" lon="0.65667">
        <ele>107</ele>
        <time>2012-02-19T12:25:21Z</time>
      </trkpt>
      <trkpt lat="49.57291" lon="0.65658">
        <ele>109</ele>
        <time>2012-02-19T12:25:27Z</time>
      </trkpt>
      <trkpt lat="49.5729" lon="0.6565">
        <ele>109</ele>
        <time>2012-02-19T12:25:32Z</time>
      </trkpt>
      <trkpt lat="49.5729" lon="0.65642">
        <ele>109</ele>
        <time>2012-02-19T12:25:37Z</time>
      </trkpt>
      <trkpt lat="49.5729" lon="0.65633">
        <ele>109</ele>
        <time>2012-02-19T12:25:42Z</time>
      </trkpt>
      <trkpt lat="49.57289" lon="0.65622">
        <ele>109</ele>
        <time>2012-02-19T12:25:47Z</time>
      </trkpt>
      <trkpt lat="49.57288" lon="0.65613">
        <ele>109</ele>
        <time>2012-02-19T12:25:52Z</time>
      </trkpt>
      <trkpt lat="49.57288" lon="0.65604">
        <ele>109</ele>
        <time>2012-02-19T12:25:58Z</time>
      </trkpt>
      <trkpt lat="49.57288" lon="0.65594">
        <ele>109</ele>
        <time>2012-02-19T12:26:03Z</time>
      </trkpt>
      <trkpt lat="49.57286" lon="0.65583">
        <ele>111</ele>
        <time>2012-02-19T12:26:08Z</time>
      </trkpt>
      <trkpt lat="49.57281" lon="0.65569">
        <ele>111</ele>
        <time>2012-02-19T12:26:14Z</time>
      </trkpt>
      <trkpt lat="49.5728" lon="0.65559">
        <ele>111</ele>
        <time>2012-02-19T12:26:19Z</time>
      </trkpt>
      <trkpt lat="49.5728" lon="0.65549">
        <ele>111</ele>
        <time>2012-02-19T12:26:24Z</time>
      </trkpt>
      <trkpt lat="49.57278" lon="0.65539">
        <ele>111</ele>
        <time>2012-02-19T12:26:29Z</time>
      </trkpt>
      <trkpt lat="49.57276" lon="0.65529">
        <ele>111</ele>
        <time>2012-02-19T12:26:34Z</time>
      </trkpt>
      <trkpt lat="49.57273" lon="0.65517">
        <ele>110</ele>
        <time>2012-02-19T12:26:40Z</time>
      </trkpt>
      <trkpt lat="49.57271" lon="0.65507">
        <ele>110</ele>
        <time>2012-02-19T12:26:45Z</time>
      </trkpt>
      <trkpt lat="49.57271" lon="0.65498">
        <ele>111</ele>
        <time>2012-02-19T12:26:50Z</time>
      </trkpt>
      <trkpt lat="49.57269" lon="0.65489">
        <ele>112</ele>
        <time>2012-02-19T12:26:55Z</time>
      </trkpt>
      <trkpt lat="49.57266" lon="0.65479">
        <ele>112</ele>
        <time>2012-02-19T12:27:00Z</time>
      </trkpt>
      <trkpt lat="49.57265" lon="0.65469">
        <ele>113</ele>
        <time>2012-02-19T12:27:06Z</time>
      </trkpt>
      <trkpt lat="49.57261" lon="0.65457">
        <ele>113</ele>
        <time>2012-02-19T12:27:12Z</time>
      </trkpt>
      <trkpt lat="49.57259" lon="0.65448">
        <ele>113</ele>
        <time>2012-02-19T12:27:17Z</time>
      </trkpt>
      <trkpt lat="49.57256" lon="0.65438">
        <ele>113</ele>
        <time>2012-02-19T12:27:22Z</time>
      </trkpt>
      <trkpt lat="49.57253" lon="0.6543">
        <ele>112</ele>
        <time>2012-02-19T12:27:27Z</time>
      </trkpt>
      <trkpt lat="49.5725" lon="0.65424">
        <ele>112</ele>
        <time>2012-02-19T12:27:32Z</time>
      </trkpt>
      <trkpt lat="49.57247" lon="0.65414">
        <ele>112</ele>
        <time>2012-02-19T12:27:37Z</time>
      </trkpt>
      <trkpt lat="49.57243" lon="0.65407">
        <ele>114</ele>
        <time>2012-02-19T12:27:42Z</time>
      </trkpt>
      <trkpt lat="49.5724" lon="0.654">
        <ele>115</ele>
        <time>2012-02-19T12:27:47Z</time>
      </trkpt>
      <trkpt lat="49.57236" lon="0.65393">
        <ele>115</ele>
        <time>2012-02-19T12:27:53Z</time>
      </trkpt>
      <trkpt lat="49.57233" lon="0.65386">
        <ele>116</ele>
        <time>2012-02-19T12:27:58Z</time>
      </trkpt>
      <trkpt lat="49.57228" lon="0.65383">
        <ele>116</ele>
        <time>2012-02-19T12:28:03Z</time>
      </trkpt>
      <trkpt lat="49.57225" lon="0.65377">
        <ele>117</ele>
        <time>2012-02-19T12:28:09Z</time>
      </trkpt>
      <trkpt lat="49.57222" lon="0.65369">
        <ele>117</ele>
        <time>2012-02-19T12:28:14Z</time>
      </trkpt>
      <trkpt lat="49.57219" lon="0.6536">
        <ele>117</ele>
        <time>2012-02-19T12:28:19Z</time>
      </trkpt>
      <trkpt lat="49.57216" lon="0.6535">
        <ele>118</ele>
        <time>2012-02-19T12:28:24Z</time>
      </trkpt>
      <trkpt lat="49.57213" lon="0.65342">
        <ele>118</ele>
        <time>2012-02-19T12:28:29Z</time>
      </trkpt>
      <trkpt lat="49.57209" lon="0.65334">
        <ele>118</ele>
        <time>2012-02-19T12:28:35Z</time>
      </trkpt>
      <trkpt lat="49.57206" lon="0.65324">
        <ele>120</ele>
        <time>2012-02-19T12:28:41Z</time>
      </trkpt>
      <trkpt lat="49.57203" lon="0.65315">
        <ele>120</ele>
        <time>2012-02-19T12:28:47Z</time>
      </trkpt>
      <trkpt lat="49.57198" lon="0.65306">
        <ele>120</ele>
        <time>2012-02-19T12:28:52Z</time>
      </trkpt>
      <trkpt lat="49.57196" lon="0.65297">
        <ele>120</ele>
        <time>2012-02-19T12:28:58Z</time>
      </trkpt>
      <trkpt lat="49.57193" lon="0.65288">
        <ele>121</ele>
        <time>2012-02-19T12:29:04Z</time>
      </trkpt>
      <trkpt lat="49.57194" lon="0.65281">
        <ele>121</ele>
        <time>2012-02-19T12:29:10Z</time>
      </trkpt>
      <trkpt lat="49.57195" lon="0.65278">
        <ele>121</ele>
        <time>2012-02-19T12:29:19Z</time>
      </trkpt>
      <trkpt lat="49.57193" lon="0.6527">
        <ele>121</ele>
        <time>2012-02-19T12:29:24Z</time>
      </trkpt>
      <trkpt lat="49.57192" lon="0.65261">
        <ele>121</ele>
        <time>2012-02-19T12:29:29Z</time>
      </trkpt>
      <trkpt lat="49.57189" lon="0.65249">
        <ele>122</ele>
        <time>2012-02-19T12:29:34Z</time>
      </trkpt>
      <trkpt lat="49.57186" lon="0.65237">
        <ele>122</ele>
        <time>2012-02-19T12:29:39Z</time>
      </trkpt>
      <trkpt lat="49.57185" lon="0.65229">
        <ele>123</ele>
        <time>2012-02-19T12:29:45Z</time>
      </trkpt>
      <trkpt lat="49.57182" lon="0.65217">
        <ele>123</ele>
        <time>2012-02-19T12:29:50Z</time>
      </trkpt>
      <trkpt lat="49.57179" lon="0.65206">
        <ele>123</ele>
        <time>2012-02-19T12:29:56Z</time>
      </trkpt>
      <trkpt lat="49.57177" lon="0.65196">
        <ele>123</ele>
        <time>2012-02-19T12:30:01Z</time>
      </trkpt>
      <trkpt lat="49.57173" lon="0.65185">
        <ele>123</ele>
        <time>2012-02-19T12:30:06Z</time>
      </trkpt>
      <trkpt lat="49.57173" lon="0.65177">
        <ele>123</ele>
        <time>2012-02-19T12:30:11Z</time>
      </trkpt>
      <trkpt lat="49.57174" lon="0.65168">
        <ele>123</ele>
        <time>2012-02-19T12:30:16Z</time>
      </trkpt>
      <trkpt lat="49.57172" lon="0.65159">
        <ele>124</ele>
        <time>2012-02-19T12:30:21Z</time>
      </trkpt>
      <trkpt lat="49.57172" lon="0.65152">
        <ele>125</ele>
        <time>2012-02-19T12:30:26Z</time>
      </trkpt>
      <trkpt lat="49.57174" lon="0.65141">
        <ele>126</ele>
        <time>2012-02-19T12:30:32Z</time>
      </trkpt>
      <trkpt lat="49.57173" lon="0.6513">
        <ele>126</ele>
        <time>2012-02-19T12:30:38Z</time>
      </trkpt>
      <trkpt lat="49.57172" lon="0.65119">
        <ele>126</ele>
        <time>2012-02-19T12:30:44Z</time>
      </trkpt>
      <trkpt lat="49.57173" lon="0.65113">
        <ele>126</ele>
        <time>2012-02-19T12:30:49Z</time>
      </trkpt>
      <trkpt lat="49.57171" lon="0.651">
        <ele>126</ele>
        <time>2012-02-19T12:30:54Z</time>
      </trkpt>
      <trkpt lat="49.5717" lon="0.65092">
        <ele>126</ele>
        <time>2012-02-19T12:30:59Z</time>
      </trkpt>
      <trkpt lat="49.5717" lon="0.65083">
        <ele>126</ele>
        <time>2012-02-19T12:31:04Z</time>
      </trkpt>
      <trkpt lat="49.57168" lon="0.65074">
        <ele>126</ele>
        <time>2012-02-19T12:31:09Z</time>
      </trkpt>
      <trkpt lat="49.57168" lon="0.65066">
        <ele>127</ele>
        <time>2012-02-19T12:31:14Z</time>
      </trkpt>
      <trkpt lat="49.57167" lon="0.65057">
        <ele>128</ele>
        <time>2012-02-19T12:31:19Z</time>
      </trkpt>
      <trkpt lat="49.57167" lon="0.6505">
        <ele>128</ele>
        <time>2012-02-19T12:31:24Z</time>
      </trkpt>
      <trkpt lat="49.57166" lon="0.6504">
        <ele>128</ele>
        <time>2012-02-19T12:31:30Z</time>
      </trkpt>
      <trkpt lat="49.57164" lon="0.6503">
        <ele>129</ele>
        <time>2012-02-19T12:31:35Z</time>
      </trkpt>
      <trkpt lat="49.57162" lon="0.65023">
        <ele>129</ele>
        <time>2012-02-19T12:31:40Z</time>
      </trkpt>
      <trkpt lat="49.57159" lon="0.65015">
        <ele>129</ele>
        <time>2012-02-19T12:31:45Z</time>
      </trkpt>
      <trkpt lat="49.57158" lon="0.65004">
        <ele>128</ele>
        <time>2012-02-19T12:31:51Z</time>
      </trkpt>
      <trkpt lat="49.57156" lon="0.64997">
        <ele>129</ele>
        <time>2012-02-19T12:31:56Z</time>
      </trkpt>
      <trkpt lat="49.57155" lon="0.64987">
        <ele>129</ele>
        <time>2012-02-19T12:32:02Z</time>
      </trkpt>
      <trkpt lat="49.57152" lon="0.64977">
        <ele>129</ele>
        <time>2012-02-19T12:32:08Z</time>
      </trkpt>
      <trkpt lat="49.57148" lon="0.64968">
        <ele>129</ele>
        <time>2012-02-19T12:32:14Z</time>
      </trkpt>
      <trkpt lat="49.57146" lon="0.64961">
        <ele>130</ele>
        <time>2012-02-19T12:32:19Z</time>
      </trkpt>
      <trkpt lat="49.57146" lon="0.64953">
        <ele>130</ele>
        <time>2012-02-19T12:32:24Z</time>
      </trkpt>
      <trkpt lat="49.57143" lon="0.64943">
        <ele>129</ele>
        <time>2012-02-19T12:32:29Z</time>
      </trkpt>
      <trkpt lat="49.5714" lon="0.64934">
        <ele>129</ele>
        <time>2012-02-19T12:32:34Z</time>
      </trkpt>
      <trkpt lat="49.57139" lon="0.64925">
        <ele>129</ele>
        <time>2012-02-19T12:32:39Z</time>
      </trkpt>
      <trkpt lat="49.57138" lon="0.64915">
        <ele>129</ele>
        <time>2012-02-19T12:32:45Z</time>
      </trkpt>
      <trkpt lat="49.57137" lon="0.64906">
        <ele>129</ele>
        <time>2012-02-19T12:32:50Z</time>
      </trkpt>
      <trkpt lat="49.57136" lon="0.64898">
        <ele>129</ele>
        <time>2012-02-19T12:32:55Z</time>
      </trkpt>
      <trkpt lat="49.57136" lon="0.64891">
        <ele>129</ele>
        <time>2012-02-19T12:33:00Z</time>
      </trkpt>
      <trkpt lat="49.57136" lon="0.64882">
        <ele>129</ele>
        <time>2012-02-19T12:33:05Z</time>
      </trkpt>
      <trkpt lat="49.57136" lon="0.64873">
        <ele>129</ele>
        <time>2012-02-19T12:33:10Z</time>
      </trkpt>
      <trkpt lat="49.57136" lon="0.64861">
        <ele>129</ele>
        <time>2012-02-19T12:33:17Z</time>
      </trkpt>
      <trkpt lat="49.57135" lon="0.64852">
        <ele>129</ele>
        <time>2012-02-19T12:33:22Z</time>
      </trkpt>
      <trkpt lat="49.57136" lon="0.64843">
        <ele>128</ele>
        <time>2012-02-19T12:33:27Z</time>
      </trkpt>
      <trkpt lat="49.57136" lon="0.64834">
        <ele>128</ele>
        <time>2012-02-19T12:33:32Z</time>
      </trkpt>
      <trkpt lat="49.57137" lon="0.64825">
        <ele>128</ele>
        <time>2012-02-19T12:33:37Z</time>
      </trkpt>
      <trkpt lat="49.57137" lon="0.64814">
        <ele>129</ele>
        <time>2012-02-19T12:33:42Z</time>
      </trkpt>
      <trkpt lat="49.57138" lon="0.64807">
        <ele>129</ele>
        <time>2012-02-19T12:33:47Z</time>
      </trkpt>
      <trkpt lat="49.57136" lon="0.64801">
        <ele>129</ele>
        <time>2012-02-19T12:33:52Z</time>
      </trkpt>
      <trkpt lat="49.57138" lon="0.64793">
        <ele>129</ele>
        <time>2012-02-19T12:33:57Z</time>
      </trkpt>
      <trkpt lat="49.57138" lon="0.64783">
        <ele>129</ele>
        <time>2012-02-19T12:34:02Z</time>
      </trkpt>
      <trkpt lat="49.57138" lon="0.64775">
        <ele>129</ele>
        <time>2012-02-19T12:34:07Z</time>
      </trkpt>
      <trkpt lat="49.57139" lon="0.64764">
        <ele>129</ele>
        <time>2012-02-19T12:34:13Z</time>
      </trkpt>
      <trkpt lat="49.57142" lon="0.64756">
        <ele>129</ele>
        <time>2012-02-19T12:34:18Z</time>
      </trkpt>
      <trkpt lat="49.57144" lon="0.64748">
        <ele>129</ele>
        <time>2012-02-19T12:34:23Z</time>
      </trkpt>
      <trkpt lat="49.57145" lon="0.6474">
        <ele>129</ele>
        <time>2012-02-19T12:34:28Z</time>
      </trkpt>
      <trkpt lat="49.57147" lon="0.64731">
        <ele>129</ele>
        <time>2012-02-19T12:34:33Z</time>
      </trkpt>
      <trkpt lat="49.57149" lon="0.64722">
        <ele>129</ele>
        <time>2012-02-19T12:34:38Z</time>
      </trkpt>
      <trkpt lat="49.57151" lon="0.64714">
        <ele>129</ele>
        <time>2012-02-19T12:34:43Z</time>
      </trkpt>
      <trkpt lat="49.57153" lon="0.64705">
        <ele>129</ele>
        <time>2012-02-19T12:34:48Z</time>
      </trkpt>
      <trkpt lat="49.57155" lon="0.64696">
        <ele>129</ele>
        <time>2012-02-19T12:34:53Z</time>
      </trkpt>
      <trkpt lat="49.57157" lon="0.64688">
        <ele>129</ele>
        <time>2012-02-19T12:34:58Z</time>
      </trkpt>
      <trkpt lat="49.57159" lon="0.64679">
        <ele>129</ele>
        <time>2012-02-19T12:35:04Z</time>
      </trkpt>
      <trkpt lat="49.57161" lon="0.64672">
        <ele>129</ele>
        <time>2012-02-19T12:35:09Z</time>
      </trkpt>
      <trkpt lat="49.57163" lon="0.64663">
        <ele>129</ele>
        <time>2012-02-19T12:35:14Z</time>
      </trkpt>
      <trkpt lat="49.57164" lon="0.64654">
        <ele>130</ele>
        <time>2012-02-19T12:35:19Z</time>
      </trkpt>
      <trkpt lat="49.57166" lon="0.64645">
        <ele>130</ele>
        <time>2012-02-19T12:35:24Z</time>
      </trkpt>
      <trkpt lat="49.57167" lon="0.64637">
        <ele>131</ele>
        <time>2012-02-19T12:35:29Z</time>
      </trkpt>
      <trkpt lat="49.57169" lon="0.64628">
        <ele>132</ele>
        <time>2012-02-19T12:35:34Z</time>
      </trkpt>
      <trkpt lat="49.57171" lon="0.64621">
        <ele>132</ele>
        <time>2012-02-19T12:35:39Z</time>
      </trkpt>
      <trkpt lat="49.57172" lon="0.64612">
        <ele>132</ele>
        <time>2012-02-19T12:35:44Z</time>
      </trkpt>
      <trkpt lat="49.57174" lon="0.64602">
        <ele>131</ele>
        <time>2012-02-19T12:35:50Z</time>
      </trkpt>
      <trkpt lat="49.57175" lon="0.64593">
        <ele>131</ele>
        <time>2012-02-19T12:35:55Z</time>
      </trkpt>
      <trkpt lat="49.57177" lon="0.64585">
        <ele>131</ele>
        <time>2012-02-19T12:36:00Z</time>
      </trkpt>
      <trkpt lat="49.57177" lon="0.64576">
        <ele>132</ele>
        <time>2012-02-19T12:36:05Z</time>
      </trkpt>
      <trkpt lat="49.57177" lon="0.64567">
        <ele>132</ele>
        <time>2012-02-19T12:36:10Z</time>
      </trkpt>
      <trkpt lat="49.57178" lon="0.64559">
        <ele>133</ele>
        <time>2012-02-19T12:36:15Z</time>
      </trkpt>
      <trkpt lat="49.57178" lon="0.64548">
        <ele>133</ele>
        <time>2012-02-19T12:36:20Z</time>
      </trkpt>
      <trkpt lat="49.5718" lon="0.64538">
        <ele>133</ele>
        <time>2012-02-19T12:36:26Z</time>
      </trkpt>
      <trkpt lat="49.5718" lon="0.64529">
        <ele>133</ele>
        <time>2012-02-19T12:36:31Z</time>
      </trkpt>
      <trkpt lat="49.57182" lon="0.6452">
        <ele>133</ele>
        <time>2012-02-19T12:36:36Z</time>
      </trkpt>
      <trkpt lat="49.57183" lon="0.64512">
        <ele>133</ele>
        <time>2012-02-19T12:36:41Z</time>
      </trkpt>
      <trkpt lat="49.57184" lon="0.64503">
        <ele>133</ele>
        <time>2012-02-19T12:36:46Z</time>
      </trkpt>
      <trkpt lat="49.57186" lon="0.64493">
        <ele>133</ele>
        <time>2012-02-19T12:36:52Z</time>
      </trkpt>
      <trkpt lat="49.57187" lon="0.64482">
        <ele>133</ele>
        <time>2012-02-19T12:36:58Z</time>
      </trkpt>
      <trkpt lat="49.57189" lon="0.64471">
        <ele>134</ele>
        <time>2012-02-19T12:37:04Z</time>
      </trkpt>
      <trkpt lat="49.5719" lon="0.64461">
        <ele>134</ele>
        <time>2012-02-19T12:37:10Z</time>
      </trkpt>
      <trkpt lat="49.57191" lon="0.6445">
        <ele>134</ele>
        <time>2012-02-19T12:37:16Z</time>
      </trkpt>
      <trkpt lat="49.57192" lon="0.64437">
        <ele>134</ele>
        <time>2012-02-19T12:37:23Z</time>
      </trkpt>
      <trkpt lat="49.57194" lon="0.6443">
        <ele>134</ele>
        <time>2012-02-19T12:37:28Z</time>
      </trkpt>
      <trkpt lat="49.57196" lon="0.6442">
        <ele>134</ele>
        <time>2012-02-19T12:37:34Z</time>
      </trkpt>
      <trkpt lat="49.57198" lon="0.6441">
        <ele>133</ele>
        <time>2012-02-19T12:37:40Z</time>
      </trkpt>
      <trkpt lat="49.57199" lon="0.64398">
        <ele>133</ele>
        <time>2012-02-19T12:37:47Z</time>
      </trkpt>
      <trkpt lat="49.57201" lon="0.64385">
        <ele>133</ele>
        <time>2012-02-19T12:37:56Z</time>
      </trkpt>
      <trkpt lat="49.57203" lon="0.64377">
        <ele>133</ele>
        <time>2012-02-19T12:38:01Z</time>
      </trkpt>
      <trkpt lat="49.57205" lon="0.64367">
        <ele>133</ele>
        <time>2012-02-19T12:38:08Z</time>
      </trkpt>
      <trkpt lat="49.57207" lon="0.64355">
        <ele>133</ele>
        <time>2012-02-19T12:38:16Z</time>
      </trkpt>
      <trkpt lat="49.57208" lon="0.64347">
        <ele>133</ele>
        <time>2012-02-19T12:38:22Z</time>
      </trkpt>
      <trkpt lat="49.57206" lon="0.64343">
        <ele>133</ele>
        <time>2012-02-19T12:38:27Z</time>
      </trkpt>
      <trkpt lat="49.57205" lon="0.64341">
        <ele>133</ele>
        <time>2012-02-19T12:38:32Z</time>
      </trkpt>
      <trkpt lat="49.57194" lon="0.64358">
        <ele>133</ele>
        <time>2012-02-19T12:38:39Z</time>
      </trkpt>
      <trkpt lat="49.57189" lon="0.64365">
        <ele>133</ele>
        <time>2012-02-19T12:38:45Z</time>
      </trkpt>
      <trkpt lat="49.57184" lon="0.64373">
        <ele>133</ele>
        <time>2012-02-19T12:38:51Z</time>
      </trkpt>
      <trkpt lat="49.57179" lon="0.6438">
        <ele>133</ele>
        <time>2012-02-19T12:38:58Z</time>
      </trkpt>
      <trkpt lat="49.57174" lon="0.6439">
        <ele>133</ele>
        <time>2012-02-19T12:39:03Z</time>
      </trkpt>
      <trkpt lat="49.5717" lon="0.64398">
        <ele>133</ele>
        <time>2012-02-19T12:39:10Z</time>
      </trkpt>
      <trkpt lat="49.57166" lon="0.64405">
        <ele>133</ele>
        <time>2012-02-19T12:39:15Z</time>
      </trkpt>
      <trkpt lat="49.57162" lon="0.64414">
        <ele>132</ele>
        <time>2012-02-19T12:39:20Z</time>
      </trkpt>
      <trkpt lat="49.57159" lon="0.64421">
        <ele>132</ele>
        <time>2012-02-19T12:39:25Z</time>
      </trkpt>
      <trkpt lat="49.57155" lon="0.64429">
        <ele>133</ele>
        <time>2012-02-19T12:39:32Z</time>
      </trkpt>
      <trkpt lat="49.57152" lon="0.64438">
        <ele>133</ele>
        <time>2012-02-19T12:39:38Z</time>
      </trkpt>
      <trkpt lat="49.57148" lon="0.64445">
        <ele>133</ele>
        <time>2012-02-19T12:39:43Z</time>
      </trkpt>
      <trkpt lat="49.57142" lon="0.64456">
        <ele>133</ele>
        <time>2012-02-19T12:39:52Z</time>
      </trkpt>
      <trkpt lat="49.57137" lon="0.64464">
        <ele>133</ele>
        <time>2012-02-19T12:39:58Z</time>
      </trkpt>
      <trkpt lat="49.57132" lon="0.64469">
        <ele>133</ele>
        <time>2012-02-19T12:40:03Z</time>
      </trkpt>
      <trkpt lat="49.57124" lon="0.64473">
        <ele>133</ele>
        <time>2012-02-19T12:40:10Z</time>
      </trkpt>
      <trkpt lat="49.57119" lon="0.64476">
        <ele>134</ele>
        <time>2012-02-19T12:40:15Z</time>
      </trkpt>
      <trkpt lat="49.57111" lon="0.64478">
        <ele>134</ele>
        <time>2012-02-19T12:40:22Z</time>
      </trkpt>
      <trkpt lat="49.57103" lon="0.6448">
        <ele>134</ele>
        <time>2012-02-19T12:40:28Z</time>
      </trkpt>
      <trkpt lat="49.57097" lon="0.64482">
        <ele>134</ele>
        <time>2012-02-19T12:40:34Z</time>
      </trkpt>
      <trkpt lat="49.57087" lon="0.64486">
        <ele>134</ele>
        <time>2012-02-19T12:40:42Z</time>
      </trkpt>
      <trkpt lat="49.5708" lon="0.64488">
        <ele>137</ele>
        <time>2012-02-19T12:40:48Z</time>
      </trkpt>
      <trkpt lat="49.57073" lon="0.6449">
        <ele>137</ele>
        <time>2012-02-19T12:40:54Z</time>
      </trkpt>
      <trkpt lat="49.57067" lon="0.64491">
        <ele>137</ele>
        <time>2012-02-19T12:40:59Z</time>
      </trkpt>
      <trkpt lat="49.57059" lon="0.64494">
        <ele>138</ele>
        <time>2012-02-19T12:41:07Z</time>
      </trkpt>
      <trkpt lat="49.57049" lon="0.64499">
        <ele>138</ele>
        <time>2012-02-19T12:41:15Z</time>
      </trkpt>
      <trkpt lat="49.57039" lon="0.64503">
        <ele>138</ele>
        <time>2012-02-19T12:41:23Z</time>
      </trkpt>
      <trkpt lat="49.57033" lon="0.64506">
        <ele>139</ele>
        <time>2012-02-19T12:41:28Z</time>
      </trkpt>
      <trkpt lat="49.57028" lon="0.64506">
        <ele>139</ele>
        <time>2012-02-19T12:41:33Z</time>
      </trkpt>
      <trkpt lat="49.57019" lon="0.6451">
        <ele>139</ele>
        <time>2012-02-19T12:41:41Z</time>
      </trkpt>
      <trkpt lat="49.57012" lon="0.64512">
        <ele>140</ele>
        <time>2012-02-19T12:41:46Z</time>
      </trkpt>
      <trkpt lat="49.57005" lon="0.64511">
        <ele>140</ele>
        <time>2012-02-19T12:41:51Z</time>
      </trkpt>
      <trkpt lat="49.56996" lon="0.64512">
        <ele>142</ele>
        <time>2012-02-19T12:41:58Z</time>
      </trkpt>
      <trkpt lat="49.56989" lon="0.64514">
        <ele>142</ele>
        <time>2012-02-19T12:42:04Z</time>
      </trkpt>
      <trkpt lat="49.56983" lon="0.64515">
        <ele>142</ele>
        <time>2012-02-19T12:42:09Z</time>
      </trkpt>
      <trkpt lat="49.56976" lon="0.64516">
        <ele>142</ele>
        <time>2012-02-19T12:42:15Z</time>
      </trkpt>
      <trkpt lat="49.56969" lon="0.64517">
        <ele>142</ele>
        <time>2012-02-19T12:42:20Z</time>
      </trkpt>
      <trkpt lat="49.56964" lon="0.64516">
        <ele>142</ele>
        <time>2012-02-19T12:42:25Z</time>
      </trkpt>
      <trkpt lat="49.56955" lon="0.64512">
        <ele>142</ele>
        <time>2012-02-19T12:42:34Z</time>
      </trkpt>
      <trkpt lat="49.56948" lon="0.64508">
        <ele>142</ele>
        <time>2012-02-19T12:42:39Z</time>
      </trkpt>
      <trkpt lat="49.5694" lon="0.64503">
        <ele>142</ele>
        <time>2012-02-19T12:42:46Z</time>
      </trkpt>
      <trkpt lat="49.56935" lon="0.64498">
        <ele>142</ele>
        <time>2012-02-19T12:42:51Z</time>
      </trkpt>
      <trkpt lat="49.56928" lon="0.64492">
        <ele>142</ele>
        <time>2012-02-19T12:42:58Z</time>
      </trkpt>
      <trkpt lat="49.56921" lon="0.64486">
        <ele>142</ele>
        <time>2012-02-19T12:43:04Z</time>
      </trkpt>
      <trkpt lat="49.56915" lon="0.64481">
        <ele>142</ele>
        <time>2012-02-19T12:43:10Z</time>
      </trkpt>
      <trkpt lat="49.56909" lon="0.64477">
        <ele>142</ele>
        <time>2012-02-19T12:43:16Z</time>
      </trkpt>
      <trkpt lat="49.56903" lon="0.64472">
        <ele>141</ele>
        <time>2012-02-19T12:43:23Z</time>
      </trkpt>
      <trkpt lat="49.56897" lon="0.64466">
        <ele>141</ele>
        <time>2012-02-19T12:43:28Z</time>
      </trkpt>
      <trkpt lat="49.56891" lon="0.64459">
        <ele>141</ele>
        <time>2012-02-19T12:43:35Z</time>
      </trkpt>
      <trkpt lat="49.56883" lon="0.64452">
        <ele>141</ele>
        <time>2012-02-19T12:43:40Z</time>
      </trkpt>
      <trkpt lat="49.56878" lon="0.6445">
        <ele>141</ele>
        <time>2012-02-19T12:43:45Z</time>
      </trkpt>
      <trkpt lat="49.56874" lon="0.64447">
        <ele>141</ele>
        <time>2012-02-19T12:43:50Z</time>
      </trkpt>
      <trkpt lat="49.56869" lon="0.64443">
        <ele>141</ele>
        <time>2012-02-19T12:43:55Z</time>
      </trkpt>
      <trkpt lat="49.56864" lon="0.64439">
        <ele>141</ele>
        <time>2012-02-19T12:44:01Z</time>
      </trkpt>
      <trkpt lat="49.56859" lon="0.64435">
        <ele>141</ele>
        <time>2012-02-19T12:44:06Z</time>
      </trkpt>
      <trkpt lat="49.56852" lon="0.64432">
        <ele>141</ele>
        <time>2012-02-19T12:44:12Z</time>
      </trkpt>
      <trkpt lat="49.56846" lon="0.64427">
        <ele>141</ele>
        <time>2012-02-19T12:44:18Z</time>
      </trkpt>
      <trkpt lat="49.5684" lon="0.64423">
        <ele>140</ele>
        <time>2012-02-19T12:44:24Z</time>
      </trkpt>
      <trkpt lat="49.56835" lon="0.64419">
        <ele>140</ele>
        <time>2012-02-19T12:44:29Z</time>
      </trkpt>
      <trkpt lat="49.56828" lon="0.64413">
        <ele>140</ele>
        <time>2012-02-19T12:44:35Z</time>
      </trkpt>
      <trkpt lat="49.56823" lon="0.64408">
        <ele>140</ele>
        <time>2012-02-19T12:44:41Z</time>
      </trkpt>
      <trkpt lat="49.56817" lon="0.64404">
        <ele>140</ele>
        <time>2012-02-19T12:44:47Z</time>
      </trkpt>
      <trkpt lat="49.56811" lon="0.64399">
        <ele>140</ele>
        <time>2012-02-19T12:44:53Z</time>
      </trkpt>
      <trkpt lat="49.56807" lon="0.64395">
        <ele>140</ele>
        <time>2012-02-19T12:44:58Z</time>
      </trkpt>
      <trkpt lat="49.568" lon="0.64391">
        <ele>140</ele>
        <time>2012-02-19T12:45:04Z</time>
      </trkpt>
      <trkpt lat="49.56795" lon="0.64386">
        <ele>140</ele>
        <time>2012-02-19T12:45:10Z</time>
      </trkpt>
      <trkpt lat="49.56789" lon="0.64382">
        <ele>140</ele>
        <time>2012-02-19T12:45:16Z</time>
      </trkpt>
      <trkpt lat="49.56784" lon="0.64378">
        <ele>140</ele>
        <time>2012-02-19T12:45:22Z</time>
      </trkpt>
      <trkpt lat="49.56778" lon="0.64375">
        <ele>140</ele>
        <time>2012-02-19T12:45:27Z</time>
      </trkpt>
      <trkpt lat="49.56773" lon="0.64369">
        <ele>140</ele>
        <time>2012-02-19T12:45:33Z</time>
      </trkpt>
      <trkpt lat="49.56767" lon="0.64364">
        <ele>140</ele>
        <time>2012-02-19T12:45:39Z</time>
      </trkpt>
      <trkpt lat="49.5676" lon="0.64359">
        <ele>140</ele>
        <time>2012-02-19T12:45:45Z</time>
      </trkpt>
      <trkpt lat="49.56755" lon="0.64355">
        <ele>140</ele>
        <time>2012-02-19T12:45:50Z</time>
      </trkpt>
      <trkpt lat="49.56749" lon="0.64349">
        <ele>139</ele>
        <time>2012-02-19T12:45:56Z</time>
      </trkpt>
      <trkpt lat="49.56744" lon="0.64344">
        <ele>139</ele>
        <time>2012-02-19T12:46:01Z</time>
      </trkpt>
      <trkpt lat="49.56738" lon="0.64339">
        <ele>139</ele>
        <time>2012-02-19T12:46:07Z</time>
      </trkpt>
      <trkpt lat="49.56733" lon="0.64333">
        <ele>139</ele>
        <time>2012-02-19T12:46:13Z</time>
      </trkpt>
      <trkpt lat="49.56726" lon="0.64329">
        <ele>139</ele>
        <time>2012-02-19T12:46:19Z</time>
      </trkpt>
      <trkpt lat="49.5672" lon="0.64325">
        <ele>140</ele>
        <time>2012-02-19T12:46:25Z</time>
      </trkpt>
      <trkpt lat="49.56715" lon="0.64322">
        <ele>140</ele>
        <time>2012-02-19T12:46:30Z</time>
      </trkpt>
      <trkpt lat="49.56709" lon="0.6432">
        <ele>140</ele>
        <time>2012-02-19T12:46:35Z</time>
      </trkpt>
      <trkpt lat="49.56702" lon="0.64319">
        <ele>140</ele>
        <time>2012-02-19T12:46:40Z</time>
      </trkpt>
      <trkpt lat="49.56696" lon="0.64318">
        <ele>139</ele>
        <time>2012-02-19T12:46:45Z</time>
      </trkpt>
      <trkpt lat="49.5669" lon="0.64316">
        <ele>139</ele>
        <time>2012-02-19T12:46:50Z</time>
      </trkpt>
      <trkpt lat="49.56685" lon="0.64314">
        <ele>139</ele>
        <time>2012-02-19T12:46:55Z</time>
      </trkpt>
      <trkpt lat="49.56679" lon="0.64313">
        <ele>139</ele>
        <time>2012-02-19T12:47:00Z</time>
      </trkpt>
      <trkpt lat="49.56673" lon="0.64312">
        <ele>139</ele>
        <time>2012-02-19T12:47:05Z</time>
      </trkpt>
      <trkpt lat="49.56667" lon="0.64311">
        <ele>139</ele>
        <time>2012-02-19T12:47:10Z</time>
      </trkpt>
      <trkpt lat="49.56661" lon="0.6431">
        <ele>139</ele>
        <time>2012-02-19T12:47:15Z</time>
      </trkpt>
      <trkpt lat="49.56655" lon="0.64309">
        <ele>139</ele>
        <time>2012-02-19T12:47:20Z</time>
      </trkpt>
      <trkpt lat="49.56649" lon="0.64308">
        <ele>139</ele>
        <time>2012-02-19T12:47:25Z</time>
      </trkpt>
      <trkpt lat="49.56643" lon="0.64307">
        <ele>139</ele>
        <time>2012-02-19T12:47:30Z</time>
      </trkpt>
      <trkpt lat="49.56636" lon="0.64306">
        <ele>139</ele>
        <time>2012-02-19T12:47:35Z</time>
      </trkpt>
      <trkpt lat="49.5663" lon="0.64305">
        <ele>139</ele>
        <time>2012-02-19T12:47:40Z</time>
      </trkpt>
      <trkpt lat="49.56624" lon="0.64305">
        <ele>139</ele>
        <time>2012-02-19T12:47:45Z</time>
      </trkpt>
      <trkpt lat="49.56618" lon="0.64304">
        <ele>139</ele>
        <time>2012-02-19T12:47:50Z</time>
      </trkpt>
      <trkpt lat="49.56613" lon="0.64302">
        <ele>139</ele>
        <time>2012-02-19T12:47:55Z</time>
      </trkpt>
      <trkpt lat="49.56607" lon="0.64301">
        <ele>139</ele>
        <time>2012-02-19T12:48:00Z</time>
      </trkpt>
      <trkpt lat="49.56601" lon="0.643">
        <ele>139</ele>
        <time>2012-02-19T12:48:05Z</time>
      </trkpt>
      <trkpt lat="49.56595" lon="0.64298">
        <ele>139</ele>
        <time>2012-02-19T12:48:10Z</time>
      </trkpt>
      <trkpt lat="49.56589" lon="0.64296">
        <ele>139</ele>
        <time>2012-02-19T12:48:16Z</time>
      </trkpt>
      <trkpt lat="49.56583" lon="0.64294">
        <ele>140</ele>
        <time>2012-02-19T12:48:21Z</time>
      </trkpt>
      <trkpt lat="49.56577" lon="0.64292">
        <ele>140</ele>
        <time>2012-02-19T12:48:26Z</time>
      </trkpt>
      <trkpt lat="49.56571" lon="0.6429">
        <ele>140</ele>
        <time>2012-02-19T12:48:31Z</time>
      </trkpt>
      <trkpt lat="49.56565" lon="0.64288">
        <ele>140</ele>
        <time>2012-02-19T12:48:36Z</time>
      </trkpt>
      <trkpt lat="49.56559" lon="0.64284">
        <ele>140</ele>
        <time>2012-02-19T12:48:42Z</time>
      </trkpt>
      <trkpt lat="49.56554" lon="0.64281">
        <ele>140</ele>
        <time>2012-02-19T12:48:47Z</time>
      </trkpt>
      <trkpt lat="49.56547" lon="0.64279">
        <ele>140</ele>
        <time>2012-02-19T12:48:52Z</time>
      </trkpt>
      <trkpt lat="49.56541" lon="0.64275">
        <ele>140</ele>
        <time>2012-02-19T12:48:57Z</time>
      </trkpt>
      <trkpt lat="49.56536" lon="0.64272">
        <ele>140</ele>
        <time>2012-02-19T12:49:02Z</time>
      </trkpt>
      <trkpt lat="49.5653" lon="0.64269">
        <ele>140</ele>
        <time>2012-02-19T12:49:08Z</time>
      </trkpt>
      <trkpt lat="49.56524" lon="0.64266">
        <ele>140</ele>
        <time>2012-02-19T12:49:13Z</time>
      </trkpt>
      <trkpt lat="49.56517" lon="0.64263">
        <ele>140</ele>
        <time>2012-02-19T12:49:19Z</time>
      </trkpt>
      <trkpt lat="49.56512" lon="0.64259">
        <ele>140</ele>
        <time>2012-02-19T12:49:24Z</time>
      </trkpt>
      <trkpt lat="49.56506" lon="0.64257">
        <ele>140</ele>
        <time>2012-02-19T12:49:29Z</time>
      </trkpt>
      <trkpt lat="49.56499" lon="0.64254">
        <ele>140</ele>
        <time>2012-02-19T12:49:34Z</time>
      </trkpt>
      <trkpt lat="49.56494" lon="0.64252">
        <ele>140</ele>
        <time>2012-02-19T12:49:39Z</time>
      </trkpt>
      <trkpt lat="49.56488" lon="0.64249">
        <ele>140</ele>
        <time>2012-02-19T12:49:44Z</time>
      </trkpt>
      <trkpt lat="49.56481" lon="0.64247">
        <ele>139</ele>
        <time>2012-02-19T12:49:49Z</time>
      </trkpt>
      <trkpt lat="49.56474" lon="0.64244">
        <ele>139</ele>
        <time>2012-02-19T12:49:55Z</time>
      </trkpt>
      <trkpt lat="49.56469" lon="0.6424">
        <ele>139</ele>
        <time>2012-02-19T12:50:00Z</time>
      </trkpt>
      <trkpt lat="49.56464" lon="0.64237">
        <ele>139</ele>
        <time>2012-02-19T12:50:05Z</time>
      </trkpt>
      <trkpt lat="49.56458" lon="0.64234">
        <ele>139</ele>
        <time>2012-02-19T12:50:10Z</time>
      </trkpt>
      <trkpt lat="49.56453" lon="0.64231">
        <ele>139</ele>
        <time>2012-02-19T12:50:15Z</time>
      </trkpt>
      <trkpt lat="49.56443" lon="0.64226">
        <ele>139</ele>
        <time>2012-02-19T12:50:22Z</time>
      </trkpt>
      <trkpt lat="49.56437" lon="0.64223">
        <ele>139</ele>
        <time>2012-02-19T12:50:27Z</time>
      </trkpt>
      <trkpt lat="49.56432" lon="0.64219">
        <ele>139</ele>
        <time>2012-02-19T12:50:32Z</time>
      </trkpt>
      <trkpt lat="49.56426" lon="0.64215">
        <ele>139</ele>
        <time>2012-02-19T12:50:37Z</time>
      </trkpt>
      <trkpt lat="49.56421" lon="0.64211">
        <ele>139</ele>
        <time>2012-02-19T12:50:42Z</time>
      </trkpt>
      <trkpt lat="49.56414" lon="0.64207">
        <ele>138</ele>
        <time>2012-02-19T12:50:47Z</time>
      </trkpt>
      <trkpt lat="49.56408" lon="0.64203">
        <ele>138</ele>
        <time>2012-02-19T12:50:52Z</time>
      </trkpt>
      <trkpt lat="49.56403" lon="0.642">
        <ele>138</ele>
        <time>2012-02-19T12:50:57Z</time>
      </trkpt>
      <trkpt lat="49.56397" lon="0.64195">
        <ele>138</ele>
        <time>2012-02-19T12:51:02Z</time>
      </trkpt>
      <trkpt lat="49.56392" lon="0.64191">
        <ele>138</ele>
        <time>2012-02-19T12:51:07Z</time>
      </trkpt>
      <trkpt lat="49.56385" lon="0.64186">
        <ele>137</ele>
        <time>2012-02-19T12:51:13Z</time>
      </trkpt>
      <trkpt lat="49.5638" lon="0.64181">
        <ele>137</ele>
        <time>2012-02-19T12:51:18Z</time>
      </trkpt>
      <trkpt lat="49.56374" lon="0.64176">
        <ele>137</ele>
        <time>2012-02-19T12:51:23Z</time>
      </trkpt>
      <trkpt lat="49.56368" lon="0.64171">
        <ele>137</ele>
        <time>2012-02-19T12:51:28Z</time>
      </trkpt>
      <trkpt lat="49.56364" lon="0.64169">
        <ele>137</ele>
        <time>2012-02-19T12:51:33Z</time>
      </trkpt>
      <trkpt lat="49.56357" lon="0.64163">
        <ele>136</ele>
        <time>2012-02-19T12:51:40Z</time>
      </trkpt>
      <trkpt lat="49.56353" lon="0.64159">
        <ele>136</ele>
        <time>2012-02-19T12:51:47Z</time>
      </trkpt>
      <trkpt lat="49.56348" lon="0.64155">
        <ele>136</ele>
        <time>2012-02-19T12:51:53Z</time>
      </trkpt>
      <trkpt lat="49.56342" lon="0.64146">
        <ele>136</ele>
        <time>2012-02-19T12:52:00Z</time>
      </trkpt>
      <trkpt lat="49.56337" lon="0.64138">
        <ele>136</ele>
        <time>2012-02-19T12:52:06Z</time>
      </trkpt>
      <trkpt lat="49.56331" lon="0.6413">
        <ele>134</ele>
        <time>2012-02-19T12:52:12Z</time>
      </trkpt>
      <trkpt lat="49.56326" lon="0.64122">
        <ele>134</ele>
        <time>2012-02-19T12:52:18Z</time>
      </trkpt>
      <trkpt lat="49.5632" lon="0.64112">
        <ele>134</ele>
        <time>2012-02-19T12:52:25Z</time>
      </trkpt>
      <trkpt lat="49.56315" lon="0.64103">
        <ele>134</ele>
        <time>2012-02-19T12:52:31Z</time>
      </trkpt>
      <trkpt lat="49.56311" lon="0.64094">
        <ele>134</ele>
        <time>2012-02-19T12:52:37Z</time>
      </trkpt>
      <trkpt lat="49.56306" lon="0.64085">
        <ele>134</ele>
        <time>2012-02-19T12:52:43Z</time>
      </trkpt>
      <trkpt lat="49.56301" lon="0.64076">
        <ele>134</ele>
        <time>2012-02-19T12:52:50Z</time>
      </trkpt>
      <trkpt lat="49.56295" lon="0.64063">
        <ele>133</ele>
        <time>2012-02-19T12:52:58Z</time>
      </trkpt>
      <trkpt lat="49.56291" lon="0.64055">
        <ele>133</ele>
        <time>2012-02-19T12:53:04Z</time>
      </trkpt>
      <trkpt lat="49.56286" lon="0.64046">
        <ele>133</ele>
        <time>2012-02-19T12:53:10Z</time>
      </trkpt>
      <trkpt lat="49.56281" lon="0.64037">
        <ele>133</ele>
        <time>2012-02-19T12:53:16Z</time>
      </trkpt>
      <trkpt lat="49.56276" lon="0.64027">
        <ele>133</ele>
        <time>2012-02-19T12:53:23Z</time>
      </trkpt>
      <trkpt lat="49.56269" lon="0.64013">
        <ele>133</ele>
        <time>2012-02-19T12:53:31Z</time>
      </trkpt>
      <trkpt lat="49.56264" lon="0.64004">
        <ele>133</ele>
        <time>2012-02-19T12:53:37Z</time>
      </trkpt>
      <trkpt lat="49.5626" lon="0.63997">
        <ele>133</ele>
        <time>2012-02-19T12:53:43Z</time>
      </trkpt>
      <trkpt lat="49.56251" lon="0.63982">
        <ele>133</ele>
        <time>2012-02-19T12:53:56Z</time>
      </trkpt>
      <trkpt lat="49.56246" lon="0.63974">
        <ele>132</ele>
        <time>2012-02-19T12:54:02Z</time>
      </trkpt>
      <trkpt lat="49.56242" lon="0.63965">
        <ele>132</ele>
        <time>2012-02-19T12:54:08Z</time>
      </trkpt>
      <trkpt lat="49.56237" lon="0.63956">
        <ele>132</ele>
        <time>2012-02-19T12:54:15Z</time>
      </trkpt>
      <trkpt lat="49.56232" lon="0.63947">
        <ele>132</ele>
        <time>2012-02-19T12:54:20Z</time>
      </trkpt>
      <trkpt lat="49.56227" lon="0.63938">
        <ele>132</ele>
        <time>2012-02-19T12:54:27Z</time>
      </trkpt>
      <trkpt lat="49.56222" lon="0.63928">
        <ele>132</ele>
        <time>2012-02-19T12:54:32Z</time>
      </trkpt>
      <trkpt lat="49.56218" lon="0.63916">
        <ele>133</ele>
        <time>2012-02-19T12:54:39Z</time>
      </trkpt>
      <trkpt lat="49.56214" lon="0.63905">
        <ele>133</ele>
        <time>2012-02-19T12:54:45Z</time>
      </trkpt>
      <trkpt lat="49.5621" lon="0.63894">
        <ele>133</ele>
        <time>2012-02-19T12:54:52Z</time>
      </trkpt>
      <trkpt lat="49.56206" lon="0.63883">
        <ele>132</ele>
        <time>2012-02-19T12:54:57Z</time>
      </trkpt>
      <trkpt lat="49.56202" lon="0.6387">
        <ele>132</ele>
        <time>2012-02-19T12:55:04Z</time>
      </trkpt>
      <trkpt lat="49.56198" lon="0.63858">
        <ele>132</ele>
        <time>2012-02-19T12:55:11Z</time>
      </trkpt>
      <trkpt lat="49.56194" lon="0.63849">
        <ele>132</ele>
        <time>2012-02-19T12:55:18Z</time>
      </trkpt>
      <trkpt lat="49.56188" lon="0.63841">
        <ele>132</ele>
        <time>2012-02-19T12:55:23Z</time>
      </trkpt>
      <trkpt lat="49.56182" lon="0.63833">
        <ele>131</ele>
        <time>2012-02-19T12:55:30Z</time>
      </trkpt>
      <trkpt lat="49.56174" lon="0.63822">
        <ele>131</ele>
        <time>2012-02-19T12:55:38Z</time>
      </trkpt>
      <trkpt lat="49.56168" lon="0.63811">
        <ele>131</ele>
        <time>2012-02-19T12:55:44Z</time>
      </trkpt>
      <trkpt lat="49.56162" lon="0.63802">
        <ele>128</ele>
        <time>2012-02-19T12:55:51Z</time>
      </trkpt>
      <trkpt lat="49.56157" lon="0.63794">
        <ele>128</ele>
        <time>2012-02-19T12:55:56Z</time>
      </trkpt>
      <trkpt lat="49.56152" lon="0.63783">
        <ele>128</ele>
        <time>2012-02-19T12:56:03Z</time>
      </trkpt>
      <trkpt lat="49.56148" lon="0.63778">
        <ele>128</ele>
        <time>2012-02-19T12:56:09Z</time>
      </trkpt>
      <trkpt lat="49.56143" lon="0.63765">
        <ele>128</ele>
        <time>2012-02-19T12:56:14Z</time>
      </trkpt>
      <trkpt lat="49.56138" lon="0.63755">
        <ele>128</ele>
        <time>2012-02-19T12:56:21Z</time>
      </trkpt>
      <trkpt lat="49.56133" lon="0.63744">
        <ele>128</ele>
        <time>2012-02-19T12:56:26Z</time>
      </trkpt>
      <trkpt lat="49.56129" lon="0.63736">
        <ele>128</ele>
        <time>2012-02-19T12:56:31Z</time>
      </trkpt>
      <trkpt lat="49.56124" lon="0.63725">
        <ele>128</ele>
        <time>2012-02-19T12:56:38Z</time>
      </trkpt>
      <trkpt lat="49.5612" lon="0.63715">
        <ele>128</ele>
        <time>2012-02-19T12:56:43Z</time>
      </trkpt>
      <trkpt lat="49.56115" lon="0.63704">
        <ele>128</ele>
        <time>2012-02-19T12:56:49Z</time>
      </trkpt>
      <trkpt lat="49.5611" lon="0.63694">
        <ele>128</ele>
        <time>2012-02-19T12:56:56Z</time>
      </trkpt>
      <trkpt lat="49.56107" lon="0.63683">
        <ele>128</ele>
        <time>2012-02-19T12:57:01Z</time>
      </trkpt>
      <trkpt lat="49.56102" lon="0.63673">
        <ele>129</ele>
        <time>2012-02-19T12:57:08Z</time>
      </trkpt>
      <trkpt lat="49.56098" lon="0.63664">
        <ele>130</ele>
        <time>2012-02-19T12:57:14Z</time>
      </trkpt>
      <trkpt lat="49.56093" lon="0.63654">
        <ele>130</ele>
        <time>2012-02-19T12:57:19Z</time>
      </trkpt>
      <trkpt lat="49.56088" lon="0.63643">
        <ele>130</ele>
        <time>2012-02-19T12:57:24Z</time>
      </trkpt>
      <trkpt lat="49.56084" lon="0.63635">
        <ele>130</ele>
        <time>2012-02-19T12:57:29Z</time>
      </trkpt>
      <trkpt lat="49.5608" lon="0.63625">
        <ele>130</ele>
        <time>2012-02-19T12:57:36Z</time>
      </trkpt>
      <trkpt lat="49.56077" lon="0.63615">
        <ele>130</ele>
        <time>2012-02-19T12:57:42Z</time>
      </trkpt>
      <trkpt lat="49.56071" lon="0.63606">
        <ele>130</ele>
        <time>2012-02-19T12:57:48Z</time>
      </trkpt>
      <trkpt lat="49.56065" lon="0.63599">
        <ele>130</ele>
        <time>2012-02-19T12:57:54Z</time>
      </trkpt>
      <trkpt lat="49.5606" lon="0.63592">
        <ele>130</ele>
        <time>2012-02-19T12:58:01Z</time>
      </trkpt>
      <trkpt lat="49.56054" lon="0.63585">
        <ele>130</ele>
        <time>2012-02-19T12:58:06Z</time>
      </trkpt>
      <trkpt lat="49.56047" lon="0.63579">
        <ele>132</ele>
        <time>2012-02-19T12:58:13Z</time>
      </trkpt>
      <trkpt lat="49.56038" lon="0.63569">
        <ele>132</ele>
        <time>2012-02-19T12:58:22Z</time>
      </trkpt>
      <trkpt lat="49.56031" lon="0.63562">
        <ele>132</ele>
        <time>2012-02-19T12:58:27Z</time>
      </trkpt>
      <trkpt lat="49.56023" lon="0.63554">
        <ele>132</ele>
        <time>2012-02-19T12:58:34Z</time>
      </trkpt>
      <trkpt lat="49.56018" lon="0.63548">
        <ele>132</ele>
        <time>2012-02-19T12:58:39Z</time>
      </trkpt>
      <trkpt lat="49.56013" lon="0.63542">
        <ele>132</ele>
        <time>2012-02-19T12:58:44Z</time>
      </trkpt>
      <trkpt lat="49.56007" lon="0.63536">
        <ele>132</ele>
        <time>2012-02-19T12:58:51Z</time>
      </trkpt>
      <trkpt lat="49.56001" lon="0.63529">
        <ele>132</ele>
        <time>2012-02-19T12:58:56Z</time>
      </trkpt>
      <trkpt lat="49.55994" lon="0.63522">
        <ele>132</ele>
        <time>2012-02-19T12:59:03Z</time>
      </trkpt>
      <trkpt lat="49.55987" lon="0.63514">
        <ele>132</ele>
        <time>2012-02-19T12:59:09Z</time>
      </trkpt>
      <trkpt lat="49.5598" lon="0.63507">
        <ele>132</ele>
        <time>2012-02-19T12:59:16Z</time>
      </trkpt>
      <trkpt lat="49.5597" lon="0.63497">
        <ele>133</ele>
        <time>2012-02-19T12:59:24Z</time>
      </trkpt>
      <trkpt lat="49.55964" lon="0.6349">
        <ele>133</ele>
        <time>2012-02-19T12:59:30Z</time>
      </trkpt>
      <trkpt lat="49.55957" lon="0.63484">
        <ele>134</ele>
        <time>2012-02-19T12:59:36Z</time>
      </trkpt>
      <trkpt lat="49.5595" lon="0.63478">
        <ele>134</ele>
        <time>2012-02-19T12:59:44Z</time>
      </trkpt>
      <trkpt lat="49.55943" lon="0.63469">
        <ele>134</ele>
        <time>2012-02-19T12:59:51Z</time>
      </trkpt>
      <trkpt lat="49.55936" lon="0.63463">
        <ele>134</ele>
        <time>2012-02-19T12:59:57Z</time>
      </trkpt>
      <trkpt lat="49.55927" lon="0.63453">
        <ele>134</ele>
        <time>2012-02-19T13:00:06Z</time>
      </trkpt>
      <trkpt lat="49.55918" lon="0.63443">
        <ele>134</ele>
        <time>2012-02-19T13:00:14Z</time>
      </trkpt>
      <trkpt lat="49.55911" lon="0.63437">
        <ele>134</ele>
        <time>2012-02-19T13:00:19Z</time>
      </trkpt>
      <trkpt lat="49.55906" lon="0.6343">
        <ele>134</ele>
        <time>2012-02-19T13:00:25Z</time>
      </trkpt>
      <trkpt lat="49.55901" lon="0.63422">
        <ele>134</ele>
        <time>2012-02-19T13:00:30Z</time>
      </trkpt>
      <trkpt lat="49.55895" lon="0.63415">
        <ele>134</ele>
        <time>2012-02-19T13:00:37Z</time>
      </trkpt>
      <trkpt lat="49.5589" lon="0.63407">
        <ele>133</ele>
        <time>2012-02-19T13:00:42Z</time>
      </trkpt>
      <trkpt lat="49.55885" lon="0.634">
        <ele>133</ele>
        <time>2012-02-19T13:00:47Z</time>
      </trkpt>
      <trkpt lat="49.55881" lon="0.63393">
        <ele>133</ele>
        <time>2012-02-19T13:00:53Z</time>
      </trkpt>
      <trkpt lat="49.55875" lon="0.63381">
        <ele>133</ele>
        <time>2012-02-19T13:01:00Z</time>
      </trkpt>
      <trkpt lat="49.55869" lon="0.63372">
        <ele>133</ele>
        <time>2012-02-19T13:01:06Z</time>
      </trkpt>
      <trkpt lat="49.55864" lon="0.63363">
        <ele>132</ele>
        <time>2012-02-19T13:01:13Z</time>
      </trkpt>
      <trkpt lat="49.55859" lon="0.63354">
        <ele>132</ele>
        <time>2012-02-19T13:01:18Z</time>
      </trkpt>
      <trkpt lat="49.55855" lon="0.63346">
        <ele>132</ele>
        <time>2012-02-19T13:01:23Z</time>
      </trkpt>
      <trkpt lat="49.5585" lon="0.63337">
        <ele>131</ele>
        <time>2012-02-19T13:01:30Z</time>
      </trkpt>
      <trkpt lat="49.55846" lon="0.63327">
        <ele>130</ele>
        <time>2012-02-19T13:01:35Z</time>
      </trkpt>
      <trkpt lat="49.55842" lon="0.63315">
        <ele>130</ele>
        <time>2012-02-19T13:01:42Z</time>
      </trkpt>
      <trkpt lat="49.55837" lon="0.63302">
        <ele>130</ele>
        <time>2012-02-19T13:01:51Z</time>
      </trkpt>
      <trkpt lat="49.55833" lon="0.63291">
        <ele>130</ele>
        <time>2012-02-19T13:01:56Z</time>
      </trkpt>
      <trkpt lat="49.55829" lon="0.63279">
        <ele>130</ele>
        <time>2012-02-19T13:02:03Z</time>
      </trkpt>
      <trkpt lat="49.55825" lon="0.63269">
        <ele>130</ele>
        <time>2012-02-19T13:02:09Z</time>
      </trkpt>
      <trkpt lat="49.55821" lon="0.63261">
        <ele>129</ele>
        <time>2012-02-19T13:02:16Z</time>
      </trkpt>
      <trkpt lat="49.55807" lon="0.63236">
        <ele>127</ele>
        <time>2012-02-19T13:02:28Z</time>
      </trkpt>
      <trkpt lat="49.55806" lon="0.63232">
        <ele>127</ele>
        <time>2012-02-19T13:02:36Z</time>
      </trkpt>
      <trkpt lat="49.55811" lon="0.63247">
        <ele>128</ele>
        <time>2012-02-19T13:02:45Z</time>
      </trkpt>
      <trkpt lat="49.55814" lon="0.63248">
        <ele>128</ele>
        <time>2012-02-19T13:02:50Z</time>
      </trkpt>
      <trkpt lat="49.55814" lon="0.63244">
        <ele>128</ele>
        <time>2012-02-19T13:02:56Z</time>
      </trkpt>
      <trkpt lat="49.55813" lon="0.63235">
        <ele>127</ele>
        <time>2012-02-19T13:03:06Z</time>
      </trkpt>
      <trkpt lat="49.55813" lon="0.63228">
        <ele>127</ele>
        <time>2012-02-19T13:03:12Z</time>
      </trkpt>
      <trkpt lat="49.55809" lon="0.63224">
        <ele>127</ele>
        <time>2012-02-19T13:03:17Z</time>
      </trkpt>
      <trkpt lat="49.55807" lon="0.63219">
        <ele>127</ele>
        <time>2012-02-19T13:03:22Z</time>
      </trkpt>
      <trkpt lat="49.55806" lon="0.63212">
        <ele>127</ele>
        <time>2012-02-19T13:03:27Z</time>
      </trkpt>
      <trkpt lat="49.55805" lon="0.63204">
        <ele>126</ele>
        <time>2012-02-19T13:03:34Z</time>
      </trkpt>
      <trkpt lat="49.55803" lon="0.632">
        <ele>126</ele>
        <time>2012-02-19T13:03:42Z</time>
      </trkpt>
      <trkpt lat="49.55801" lon="0.63204">
        <ele>126</ele>
        <time>2012-02-19T13:03:54Z</time>
      </trkpt>
      <trkpt lat="49.55799" lon="0.63197">
        <ele>126</ele>
        <time>2012-02-19T13:03:59Z</time>
      </trkpt>
      <trkpt lat="49.55795" lon="0.6319">
        <ele>126</ele>
        <time>2012-02-19T13:04:04Z</time>
      </trkpt>
      <trkpt lat="49.55788" lon="0.63185">
        <ele>125</ele>
        <time>2012-02-19T13:04:09Z</time>
      </trkpt>
      <trkpt lat="49.55783" lon="0.63181">
        <ele>125</ele>
        <time>2012-02-19T13:04:15Z</time>
      </trkpt>
      <trkpt lat="49.55777" lon="0.63179">
        <ele>125</ele>
        <time>2012-02-19T13:04:20Z</time>
      </trkpt>
      <trkpt lat="49.55771" lon="0.63177">
        <ele>124</ele>
        <time>2012-02-19T13:04:25Z</time>
      </trkpt>
      <trkpt lat="49.55766" lon="0.63174">
        <ele>123</ele>
        <time>2012-02-19T13:04:31Z</time>
      </trkpt>
      <trkpt lat="49.55761" lon="0.63172">
        <ele>123</ele>
        <time>2012-02-19T13:04:36Z</time>
      </trkpt>
      <trkpt lat="49.55756" lon="0.63172">
        <ele>122</ele>
        <time>2012-02-19T13:04:41Z</time>
      </trkpt>
      <trkpt lat="49.5575" lon="0.63171">
        <ele>121</ele>
        <time>2012-02-19T13:04:46Z</time>
      </trkpt>
      <trkpt lat="49.55743" lon="0.63169">
        <ele>122</ele>
        <time>2012-02-19T13:04:52Z</time>
      </trkpt>
      <trkpt lat="49.55736" lon="0.63169">
        <ele>123</ele>
        <time>2012-02-19T13:04:57Z</time>
      </trkpt>
      <trkpt lat="49.55731" lon="0.6317">
        <ele>124</ele>
        <time>2012-02-19T13:05:02Z</time>
      </trkpt>
      <trkpt lat="49.55725" lon="0.63168">
        <ele>124</ele>
        <time>2012-02-19T13:05:07Z</time>
      </trkpt>
      <trkpt lat="49.55719" lon="0.63169">
        <ele>125</ele>
        <time>2012-02-19T13:05:12Z</time>
      </trkpt>
      <trkpt lat="49.55712" lon="0.63171">
        <ele>125</ele>
        <time>2012-02-19T13:05:18Z</time>
      </trkpt>
      <trkpt lat="49.55706" lon="0.63172">
        <ele>125</ele>
        <time>2012-02-19T13:05:24Z</time>
      </trkpt>
      <trkpt lat="49.55699" lon="0.63173">
        <ele>125</ele>
        <time>2012-02-19T13:05:29Z</time>
      </trkpt>
      <trkpt lat="49.55691" lon="0.63174">
        <ele>125</ele>
        <time>2012-02-19T13:05:35Z</time>
      </trkpt>
      <trkpt lat="49.55684" lon="0.63174">
        <ele>124</ele>
        <time>2012-02-19T13:05:40Z</time>
      </trkpt>
      <trkpt lat="49.55678" lon="0.6317">
        <ele>123</ele>
        <time>2012-02-19T13:05:45Z</time>
      </trkpt>
      <trkpt lat="49.55672" lon="0.63168">
        <ele>122</ele>
        <time>2012-02-19T13:05:50Z</time>
      </trkpt>
      <trkpt lat="49.55665" lon="0.63165">
        <ele>121</ele>
        <time>2012-02-19T13:05:56Z</time>
      </trkpt>
      <trkpt lat="49.55661" lon="0.63161">
        <ele>120</ele>
        <time>2012-02-19T13:06:01Z</time>
      </trkpt>
      <trkpt lat="49.55654" lon="0.63156">
        <ele>118</ele>
        <time>2012-02-19T13:06:07Z</time>
      </trkpt>
      <trkpt lat="49.55649" lon="0.63152">
        <ele>118</ele>
        <time>2012-02-19T13:06:13Z</time>
      </trkpt>
      <trkpt lat="49.55643" lon="0.63149">
        <ele>118</ele>
        <time>2012-02-19T13:06:19Z</time>
      </trkpt>
      <trkpt lat="49.55637" lon="0.63143">
        <ele>117</ele>
        <time>2012-02-19T13:06:25Z</time>
      </trkpt>
      <trkpt lat="49.55635" lon="0.63134">
        <ele>116</ele>
        <time>2012-02-19T13:06:30Z</time>
      </trkpt>
      <trkpt lat="49.55634" lon="0.63127">
        <ele>115</ele>
        <time>2012-02-19T13:06:35Z</time>
      </trkpt>
      <trkpt lat="49.55629" lon="0.63116">
        <ele>114</ele>
        <time>2012-02-19T13:06:41Z</time>
      </trkpt>
      <trkpt lat="49.55628" lon="0.6311">
        <ele>114</ele>
        <time>2012-02-19T13:06:46Z</time>
      </trkpt>
      <trkpt lat="49.55624" lon="0.631">
        <ele>113</ele>
        <time>2012-02-19T13:06:52Z</time>
      </trkpt>
      <trkpt lat="49.55619" lon="0.63093">
        <ele>113</ele>
        <time>2012-02-19T13:06:57Z</time>
      </trkpt>
      <trkpt lat="49.55614" lon="0.63085">
        <ele>113</ele>
        <time>2012-02-19T13:07:02Z</time>
      </trkpt>
      <trkpt lat="49.5561" lon="0.63075">
        <ele>104</ele>
        <time>2012-02-19T13:07:08Z</time>
      </trkpt>
      <trkpt lat="49.55607" lon="0.63064">
        <ele>103</ele>
        <time>2012-02-19T13:07:14Z</time>
      </trkpt>
      <trkpt lat="49.55602" lon="0.63055">
        <ele>102</ele>
        <time>2012-02-19T13:07:19Z</time>
      </trkpt>
      <trkpt lat="49.556" lon="0.63049">
        <ele>102</ele>
        <time>2012-02-19T13:07:25Z</time>
      </trkpt>
      <trkpt lat="49.55599" lon="0.63043">
        <ele>101</ele>
        <time>2012-02-19T13:07:30Z</time>
      </trkpt>
      <trkpt lat="49.55597" lon="0.63037">
        <ele>100</ele>
        <time>2012-02-19T13:07:35Z</time>
      </trkpt>
      <trkpt lat="49.55592" lon="0.63029">
        <ele>99</ele>
        <time>2012-02-19T13:07:40Z</time>
      </trkpt>
      <trkpt lat="49.55586" lon="0.63025">
        <ele>99</ele>
        <time>2012-02-19T13:07:45Z</time>
      </trkpt>
      <trkpt lat="49.5558" lon="0.6302">
        <ele>99</ele>
        <time>2012-02-19T13:07:50Z</time>
      </trkpt>
      <trkpt lat="49.55573" lon="0.63018">
        <ele>99</ele>
        <time>2012-02-19T13:07:55Z</time>
      </trkpt>
      <trkpt lat="49.55568" lon="0.63016">
        <ele>99</ele>
        <time>2012-02-19T13:08:01Z</time>
      </trkpt>
      <trkpt lat="49.55561" lon="0.63022">
        <ele>99</ele>
        <time>2012-02-19T13:08:07Z</time>
      </trkpt>
      <trkpt lat="49.55554" lon="0.63025">
        <ele>100</ele>
        <time>2012-02-19T13:08:12Z</time>
      </trkpt>
      <trkpt lat="49.55547" lon="0.63027">
        <ele>100</ele>
        <time>2012-02-19T13:08:17Z</time>
      </trkpt>
      <trkpt lat="49.5554" lon="0.6303">
        <ele>100</ele>
        <time>2012-02-19T13:08:22Z</time>
      </trkpt>
      <trkpt lat="49.55534" lon="0.63029">
        <ele>100</ele>
        <time>2012-02-19T13:08:27Z</time>
      </trkpt>
      <trkpt lat="49.55526" lon="0.63027">
        <ele>99</ele>
        <time>2012-02-19T13:08:32Z</time>
      </trkpt>
      <trkpt lat="49.55521" lon="0.63021">
        <ele>99</ele>
        <time>2012-02-19T13:08:37Z</time>
      </trkpt>
      <trkpt lat="49.55514" lon="0.63023">
        <ele>98</ele>
        <time>2012-02-19T13:08:43Z</time>
      </trkpt>
      <trkpt lat="49.55508" lon="0.63023">
        <ele>98</ele>
        <time>2012-02-19T13:08:48Z</time>
      </trkpt>
      <trkpt lat="49.55501" lon="0.63025">
        <ele>98</ele>
        <time>2012-02-19T13:08:53Z</time>
      </trkpt>
      <trkpt lat="49.55494" lon="0.63028">
        <ele>93</ele>
        <time>2012-02-19T13:08:59Z</time>
      </trkpt>
      <trkpt lat="49.55487" lon="0.6303">
        <ele>93</ele>
        <time>2012-02-19T13:09:05Z</time>
      </trkpt>
      <trkpt lat="49.55482" lon="0.63034">
        <ele>93</ele>
        <time>2012-02-19T13:09:10Z</time>
      </trkpt>
      <trkpt lat="49.55476" lon="0.63039">
        <ele>93</ele>
        <time>2012-02-19T13:09:15Z</time>
      </trkpt>
      <trkpt lat="49.55472" lon="0.63046">
        <ele>93</ele>
        <time>2012-02-19T13:09:21Z</time>
      </trkpt>
      <trkpt lat="49.55467" lon="0.63053">
        <ele>93</ele>
        <time>2012-02-19T13:09:26Z</time>
      </trkpt>
      <trkpt lat="49.55463" lon="0.63057">
        <ele>93</ele>
        <time>2012-02-19T13:09:32Z</time>
      </trkpt>
      <trkpt lat="49.55461" lon="0.63066">
        <ele>93</ele>
        <time>2012-02-19T13:09:38Z</time>
      </trkpt>
      <trkpt lat="49.55456" lon="0.63073">
        <ele>93</ele>
        <time>2012-02-19T13:09:43Z</time>
      </trkpt>
      <trkpt lat="49.55454" lon="0.63081">
        <ele>93</ele>
        <time>2012-02-19T13:09:48Z</time>
      </trkpt>
      <trkpt lat="49.55451" lon="0.63089">
        <ele>97</ele>
        <time>2012-02-19T13:09:53Z</time>
      </trkpt>
      <trkpt lat="49.55447" lon="0.63097">
        <ele>97</ele>
        <time>2012-02-19T13:09:59Z</time>
      </trkpt>
      <trkpt lat="49.55443" lon="0.63105">
        <ele>97</ele>
        <time>2012-02-19T13:10:05Z</time>
      </trkpt>
      <trkpt lat="49.55441" lon="0.63113">
        <ele>97</ele>
        <time>2012-02-19T13:10:10Z</time>
      </trkpt>
      <trkpt lat="49.55439" lon="0.6312">
        <ele>98</ele>
        <time>2012-02-19T13:10:15Z</time>
      </trkpt>
      <trkpt lat="49.55435" lon="0.63128">
        <ele>98</ele>
        <time>2012-02-19T13:10:20Z</time>
      </trkpt>
      <trkpt lat="49.5543" lon="0.63136">
        <ele>98</ele>
        <time>2012-02-19T13:10:26Z</time>
      </trkpt>
      <trkpt lat="49.55427" lon="0.63142">
        <ele>98</ele>
        <time>2012-02-19T13:10:31Z</time>
      </trkpt>
      <trkpt lat="49.55422" lon="0.63152">
        <ele>97</ele>
        <time>2012-02-19T13:10:37Z</time>
      </trkpt>
      <trkpt lat="49.55418" lon="0.63159">
        <ele>96</ele>
        <time>2012-02-19T13:10:42Z</time>
      </trkpt>
      <trkpt lat="49.55413" lon="0.63167">
        <ele>96</ele>
        <time>2012-02-19T13:10:48Z</time>
      </trkpt>
      <trkpt lat="49.55407" lon="0.63169">
        <ele>98</ele>
        <time>2012-02-19T13:10:54Z</time>
      </trkpt>
      <trkpt lat="49.55401" lon="0.63173">
        <ele>99</ele>
        <time>2012-02-19T13:10:59Z</time>
      </trkpt>
      <trkpt lat="49.55393" lon="0.63174">
        <ele>100</ele>
        <time>2012-02-19T13:11:05Z</time>
      </trkpt>
      <trkpt lat="49.55388" lon="0.63172">
        <ele>100</ele>
        <time>2012-02-19T13:11:10Z</time>
      </trkpt>
      <trkpt lat="49.55383" lon="0.63169">
        <ele>100</ele>
        <time>2012-02-19T13:11:15Z</time>
      </trkpt>
      <trkpt lat="49.55378" lon="0.63164">
        <ele>90</ele>
        <time>2012-02-19T13:11:21Z</time>
      </trkpt>
      <trkpt lat="49.55372" lon="0.63159">
        <ele>90</ele>
        <time>2012-02-19T13:11:26Z</time>
      </trkpt>
      <trkpt lat="49.55366" lon="0.63154">
        <ele>90</ele>
        <time>2012-02-19T13:11:32Z</time>
      </trkpt>
      <trkpt lat="49.5536" lon="0.6315">
        <ele>90</ele>
        <time>2012-02-19T13:11:38Z</time>
      </trkpt>
      <trkpt lat="49.55355" lon="0.63146">
        <ele>89</ele>
        <time>2012-02-19T13:11:43Z</time>
      </trkpt>
      <trkpt lat="49.55349" lon="0.63143">
        <ele>89</ele>
        <time>2012-02-19T13:11:48Z</time>
      </trkpt>
      <trkpt lat="49.55342" lon="0.63142">
        <ele>89</ele>
        <time>2012-02-19T13:11:53Z</time>
      </trkpt>
      <trkpt lat="49.55336" lon="0.63142">
        <ele>89</ele>
        <time>2012-02-19T13:11:58Z</time>
      </trkpt>
      <trkpt lat="49.55329" lon="0.63141">
        <ele>89</ele>
        <time>2012-02-19T13:12:04Z</time>
      </trkpt>
      <trkpt lat="49.55324" lon="0.63141">
        <ele>89</ele>
        <time>2012-02-19T13:12:09Z</time>
      </trkpt>
      <trkpt lat="49.55319" lon="0.63141">
        <ele>89</ele>
        <time>2012-02-19T13:12:14Z</time>
      </trkpt>
      <trkpt lat="49.55312" lon="0.63142">
        <ele>89</ele>
        <time>2012-02-19T13:12:20Z</time>
      </trkpt>
      <trkpt lat="49.55305" lon="0.6314">
        <ele>89</ele>
        <time>2012-02-19T13:12:26Z</time>
      </trkpt>
      <trkpt lat="49.55299" lon="0.6314">
        <ele>89</ele>
        <time>2012-02-19T13:12:31Z</time>
      </trkpt>
      <trkpt lat="49.55293" lon="0.6314">
        <ele>89</ele>
        <time>2012-02-19T13:12:36Z</time>
      </trkpt>
      <trkpt lat="49.55287" lon="0.63139">
        <ele>89</ele>
        <time>2012-02-19T13:12:41Z</time>
      </trkpt>
      <trkpt lat="49.55281" lon="0.63138">
        <ele>89</ele>
        <time>2012-02-19T13:12:47Z</time>
      </trkpt>
      <trkpt lat="49.55275" lon="0.63138">
        <ele>89</ele>
        <time>2012-02-19T13:12:52Z</time>
      </trkpt>
      <trkpt lat="49.55269" lon="0.63135">
        <ele>89</ele>
        <time>2012-02-19T13:12:58Z</time>
      </trkpt>
      <trkpt lat="49.55262" lon="0.63133">
        <ele>89</ele>
        <time>2012-02-19T13:13:04Z</time>
      </trkpt>
      <trkpt lat="49.55257" lon="0.63131">
        <ele>89</ele>
        <time>2012-02-19T13:13:09Z</time>
      </trkpt>
      <trkpt lat="49.55251" lon="0.63129">
        <ele>88</ele>
        <time>2012-02-19T13:13:14Z</time>
      </trkpt>
      <trkpt lat="49.55245" lon="0.63127">
        <ele>89</ele>
        <time>2012-02-19T13:13:20Z</time>
      </trkpt>
      <trkpt lat="49.5524" lon="0.63126">
        <ele>89</ele>
        <time>2012-02-19T13:13:25Z</time>
      </trkpt>
      <trkpt lat="49.55233" lon="0.63124">
        <ele>89</ele>
        <time>2012-02-19T13:13:30Z</time>
      </trkpt>
      <trkpt lat="49.55226" lon="0.63125">
        <ele>89</ele>
        <time>2012-02-19T13:13:35Z</time>
      </trkpt>
      <trkpt lat="49.5522" lon="0.63123">
        <ele>89</ele>
        <time>2012-02-19T13:13:40Z</time>
      </trkpt>
      <trkpt lat="49.55215" lon="0.63121">
        <ele>88</ele>
        <time>2012-02-19T13:13:45Z</time>
      </trkpt>
      <trkpt lat="49.5521" lon="0.6312">
        <ele>88</ele>
        <time>2012-02-19T13:13:50Z</time>
      </trkpt>
      <trkpt lat="49.55203" lon="0.63119">
        <ele>88</ele>
        <time>2012-02-19T13:13:56Z</time>
      </trkpt>
      <trkpt lat="49.55197" lon="0.63116">
        <ele>88</ele>
        <time>2012-02-19T13:14:02Z</time>
      </trkpt>
      <trkpt lat="49.55191" lon="0.63114">
        <ele>88</ele>
        <time>2012-02-19T13:14:12Z</time>
      </trkpt>
      <trkpt lat="49.55179" lon="0.63112">
        <ele>88</ele>
        <time>2012-02-19T13:14:17Z</time>
      </trkpt>
      <trkpt lat="49.55174" lon="0.6311">
        <ele>87</ele>
        <time>2012-02-19T13:14:23Z</time>
      </trkpt>
      <trkpt lat="49.55168" lon="0.63105">
        <ele>87</ele>
        <time>2012-02-19T13:14:29Z</time>
      </trkpt>
      <trkpt lat="49.55163" lon="0.63102">
        <ele>84</ele>
        <time>2012-02-19T13:14:34Z</time>
      </trkpt>
      <trkpt lat="49.55157" lon="0.63101">
        <ele>84</ele>
        <time>2012-02-19T13:14:39Z</time>
      </trkpt>
      <trkpt lat="49.5515" lon="0.63101">
        <ele>84</ele>
        <time>2012-02-19T13:14:45Z</time>
      </trkpt>
      <trkpt lat="49.55145" lon="0.63104">
        <ele>83</ele>
        <time>2012-02-19T13:14:50Z</time>
      </trkpt>
      <trkpt lat="49.55139" lon="0.63108">
        <ele>83</ele>
        <time>2012-02-19T13:14:56Z</time>
      </trkpt>
      <trkpt lat="49.55133" lon="0.63112">
        <ele>83</ele>
        <time>2012-02-19T13:15:01Z</time>
      </trkpt>
      <trkpt lat="49.55129" lon="0.63118">
        <ele>83</ele>
        <time>2012-02-19T13:15:06Z</time>
      </trkpt>
      <trkpt lat="49.55124" lon="0.63125">
        <ele>83</ele>
        <time>2012-02-19T13:15:12Z</time>
      </trkpt>
      <trkpt lat="49.5512" lon="0.63132">
        <ele>83</ele>
        <time>2012-02-19T13:15:18Z</time>
      </trkpt>
      <trkpt lat="49.55115" lon="0.63138">
        <ele>83</ele>
        <time>2012-02-19T13:15:23Z</time>
      </trkpt>
      <trkpt lat="49.55112" lon="0.63146">
        <ele>82</ele>
        <time>2012-02-19T13:15:28Z</time>
      </trkpt>
      <trkpt lat="49.55108" lon="0.63153">
        <ele>82</ele>
        <time>2012-02-19T13:15:33Z</time>
      </trkpt>
      <trkpt lat="49.55106" lon="0.63161">
        <ele>81</ele>
        <time>2012-02-19T13:15:38Z</time>
      </trkpt>
      <trkpt lat="49.55105" lon="0.63168">
        <ele>85</ele>
        <time>2012-02-19T13:15:44Z</time>
      </trkpt>
      <trkpt lat="49.55103" lon="0.63178">
        <ele>85</ele>
        <time>2012-02-19T13:15:50Z</time>
      </trkpt>
      <trkpt lat="49.55101" lon="0.63186">
        <ele>86</ele>
        <time>2012-02-19T13:15:55Z</time>
      </trkpt>
      <trkpt lat="49.55098" lon="0.63192">
        <ele>86</ele>
        <time>2012-02-19T13:16:00Z</time>
      </trkpt>
      <trkpt lat="49.55093" lon="0.63199">
        <ele>87</ele>
        <time>2012-02-19T13:16:06Z</time>
      </trkpt>
      <trkpt lat="49.55087" lon="0.63203">
        <ele>87</ele>
        <time>2012-02-19T13:16:13Z</time>
      </trkpt>
      <trkpt lat="49.55083" lon="0.63204">
        <ele>79</ele>
        <time>2012-02-19T13:16:19Z</time>
      </trkpt>
      <trkpt lat="49.5508" lon="0.63192">
        <ele>78</ele>
        <time>2012-02-19T13:16:24Z</time>
      </trkpt>
      <trkpt lat="49.55079" lon="0.63185">
        <ele>78</ele>
        <time>2012-02-19T13:16:29Z</time>
      </trkpt>
      <trkpt lat="49.55076" lon="0.63176">
        <ele>78</ele>
        <time>2012-02-19T13:16:35Z</time>
      </trkpt>
      <trkpt lat="49.55072" lon="0.63166">
        <ele>77</ele>
        <time>2012-02-19T13:16:41Z</time>
      </trkpt>
      <trkpt lat="49.55069" lon="0.63157">
        <ele>77</ele>
        <time>2012-02-19T13:16:47Z</time>
      </trkpt>
      <trkpt lat="49.55065" lon="0.63149">
        <ele>77</ele>
        <time>2012-02-19T13:16:52Z</time>
      </trkpt>
      <trkpt lat="49.5506" lon="0.63141">
        <ele>78</ele>
        <time>2012-02-19T13:16:58Z</time>
      </trkpt>
      <trkpt lat="49.55055" lon="0.63135">
        <ele>78</ele>
        <time>2012-02-19T13:17:03Z</time>
      </trkpt>
      <trkpt lat="49.5505" lon="0.63129">
        <ele>78</ele>
        <time>2012-02-19T13:17:09Z</time>
      </trkpt>
      <trkpt lat="49.55045" lon="0.63124">
        <ele>78</ele>
        <time>2012-02-19T13:17:14Z</time>
      </trkpt>
      <trkpt lat="49.5504" lon="0.63119">
        <ele>78</ele>
        <time>2012-02-19T13:17:19Z</time>
      </trkpt>
      <trkpt lat="49.55035" lon="0.63114">
        <ele>78</ele>
        <time>2012-02-19T13:17:24Z</time>
      </trkpt>
      <trkpt lat="49.55029" lon="0.63108">
        <ele>78</ele>
        <time>2012-02-19T13:17:30Z</time>
      </trkpt>
      <trkpt lat="49.55024" lon="0.63104">
        <ele>78</ele>
        <time>2012-02-19T13:17:35Z</time>
      </trkpt>
      <trkpt lat="49.55019" lon="0.63099">
        <ele>78</ele>
        <time>2012-02-19T13:17:40Z</time>
      </trkpt>
      <trkpt lat="49.55013" lon="0.63094">
        <ele>78</ele>
        <time>2012-02-19T13:17:46Z</time>
      </trkpt>
      <trkpt lat="49.55008" lon="0.63088">
        <ele>79</ele>
        <time>2012-02-19T13:17:51Z</time>
      </trkpt>
      <trkpt lat="49.55002" lon="0.63084">
        <ele>79</ele>
        <time>2012-02-19T13:17:56Z</time>
      </trkpt>
      <trkpt lat="49.54996" lon="0.63078">
        <ele>80</ele>
        <time>2012-02-19T13:18:02Z</time>
      </trkpt>
      <trkpt lat="49.54991" lon="0.63073">
        <ele>81</ele>
        <time>2012-02-19T13:18:07Z</time>
      </trkpt>
      <trkpt lat="49.54986" lon="0.63068">
        <ele>81</ele>
        <time>2012-02-19T13:18:12Z</time>
      </trkpt>
      <trkpt lat="49.54981" lon="0.63063">
        <ele>82</ele>
        <time>2012-02-19T13:18:17Z</time>
      </trkpt>
      <trkpt lat="49.54974" lon="0.63057">
        <ele>82</ele>
        <time>2012-02-19T13:18:23Z</time>
      </trkpt>
      <trkpt lat="49.54969" lon="0.63051">
        <ele>83</ele>
        <time>2012-02-19T13:18:29Z</time>
      </trkpt>
      <trkpt lat="49.54963" lon="0.63046">
        <ele>83</ele>
        <time>2012-02-19T13:18:35Z</time>
      </trkpt>
      <trkpt lat="49.54958" lon="0.6304">
        <ele>83</ele>
        <time>2012-02-19T13:18:41Z</time>
      </trkpt>
      <trkpt lat="49.54953" lon="0.63034">
        <ele>83</ele>
        <time>2012-02-19T13:18:47Z</time>
      </trkpt>
      <trkpt lat="49.54947" lon="0.63026">
        <ele>84</ele>
        <time>2012-02-19T13:18:53Z</time>
      </trkpt>
      <trkpt lat="49.54943" lon="0.63017">
        <ele>84</ele>
        <time>2012-02-19T13:18:59Z</time>
      </trkpt>
      <trkpt lat="49.5494" lon="0.63007">
        <ele>84</ele>
        <time>2012-02-19T13:19:05Z</time>
      </trkpt>
      <trkpt lat="49.54938" lon="0.62999">
        <ele>86</ele>
        <time>2012-02-19T13:19:11Z</time>
      </trkpt>
      <trkpt lat="49.54936" lon="0.62988">
        <ele>86</ele>
        <time>2012-02-19T13:19:18Z</time>
      </trkpt>
      <trkpt lat="49.54933" lon="0.62978">
        <ele>87</ele>
        <time>2012-02-19T13:19:23Z</time>
      </trkpt>
      <trkpt lat="49.54928" lon="0.6297">
        <ele>87</ele>
        <time>2012-02-19T13:19:29Z</time>
      </trkpt>
      <trkpt lat="49.54922" lon="0.62962">
        <ele>88</ele>
        <time>2012-02-19T13:19:35Z</time>
      </trkpt>
      <trkpt lat="49.54918" lon="0.62955">
        <ele>88</ele>
        <time>2012-02-19T13:19:40Z</time>
      </trkpt>
      <trkpt lat="49.54914" lon="0.62947">
        <ele>91</ele>
        <time>2012-02-19T13:19:45Z</time>
      </trkpt>
      <trkpt lat="49.54909" lon="0.62938">
        <ele>92</ele>
        <time>2012-02-19T13:19:51Z</time>
      </trkpt>
      <trkpt lat="49.54904" lon="0.6293">
        <ele>92</ele>
        <time>2012-02-19T13:19:56Z</time>
      </trkpt>
      <trkpt lat="49.54901" lon="0.62922">
        <ele>92</ele>
        <time>2012-02-19T13:20:01Z</time>
      </trkpt>
      <trkpt lat="49.54898" lon="0.62913">
        <ele>93</ele>
        <time>2012-02-19T13:20:07Z</time>
      </trkpt>
      <trkpt lat="49.54895" lon="0.62903">
        <ele>93</ele>
        <time>2012-02-19T13:20:13Z</time>
      </trkpt>
      <trkpt lat="49.54893" lon="0.62894">
        <ele>93</ele>
        <time>2012-02-19T13:20:18Z</time>
      </trkpt>
      <trkpt lat="49.54889" lon="0.62885">
        <ele>93</ele>
        <time>2012-02-19T13:20:24Z</time>
      </trkpt>
      <trkpt lat="49.54888" lon="0.62876">
        <ele>93</ele>
        <time>2012-02-19T13:20:29Z</time>
      </trkpt>
      <trkpt lat="49.54887" lon="0.62867">
        <ele>93</ele>
        <time>2012-02-19T13:20:34Z</time>
      </trkpt>
      <trkpt lat="49.54886" lon="0.62859">
        <ele>94</ele>
        <time>2012-02-19T13:20:39Z</time>
      </trkpt>
      <trkpt lat="49.54885" lon="0.62847">
        <ele>94</ele>
        <time>2012-02-19T13:20:46Z</time>
      </trkpt>
      <trkpt lat="49.54886" lon="0.62837">
        <ele>94</ele>
        <time>2012-02-19T13:20:52Z</time>
      </trkpt>
      <trkpt lat="49.54887" lon="0.62827">
        <ele>94</ele>
        <time>2012-02-19T13:20:57Z</time>
      </trkpt>
      <trkpt lat="49.54889" lon="0.62818">
        <ele>94</ele>
        <time>2012-02-19T13:21:03Z</time>
      </trkpt>
      <trkpt lat="49.54893" lon="0.62809">
        <ele>94</ele>
        <time>2012-02-19T13:21:08Z</time>
      </trkpt>
      <trkpt lat="49.54894" lon="0.62799">
        <ele>94</ele>
        <time>2012-02-19T13:21:14Z</time>
      </trkpt>
      <trkpt lat="49.54896" lon="0.6279">
        <ele>93</ele>
        <time>2012-02-19T13:21:19Z</time>
      </trkpt>
      <trkpt lat="49.54899" lon="0.6278">
        <ele>93</ele>
        <time>2012-02-19T13:21:26Z</time>
      </trkpt>
      <trkpt lat="49.54901" lon="0.62772">
        <ele>93</ele>
        <time>2012-02-19T13:21:31Z</time>
      </trkpt>
      <trkpt lat="49.54904" lon="0.62764">
        <ele>93</ele>
        <time>2012-02-19T13:21:38Z</time>
      </trkpt>
      <trkpt lat="49.54908" lon="0.62753">
        <ele>93</ele>
        <time>2012-02-19T13:21:44Z</time>
      </trkpt>
      <trkpt lat="49.54911" lon="0.62743">
        <ele>93</ele>
        <time>2012-02-19T13:21:49Z</time>
      </trkpt>
      <trkpt lat="49.54914" lon="0.62734">
        <ele>93</ele>
        <time>2012-02-19T13:21:55Z</time>
      </trkpt>
      <trkpt lat="49.54917" lon="0.62725">
        <ele>98</ele>
        <time>2012-02-19T13:22:00Z</time>
      </trkpt>
      <trkpt lat="49.5492" lon="0.62716">
        <ele>98</ele>
        <time>2012-02-19T13:22:06Z</time>
      </trkpt>
      <trkpt lat="49.54924" lon="0.62706">
        <ele>99</ele>
        <time>2012-02-19T13:22:12Z</time>
      </trkpt>
      <trkpt lat="49.54927" lon="0.62696">
        <ele>99</ele>
        <time>2012-02-19T13:22:17Z</time>
      </trkpt>
      <trkpt lat="49.5493" lon="0.62688">
        <ele>98</ele>
        <time>2012-02-19T13:22:23Z</time>
      </trkpt>
      <trkpt lat="49.54933" lon="0.62678">
        <ele>98</ele>
        <time>2012-02-19T13:22:29Z</time>
      </trkpt>
      <trkpt lat="49.54933" lon="0.62664">
        <ele>98</ele>
        <time>2012-02-19T13:22:35Z</time>
      </trkpt>
      <trkpt lat="49.54934" lon="0.62651">
        <ele>99</ele>
        <time>2012-02-19T13:22:41Z</time>
      </trkpt>
      <trkpt lat="49.54934" lon="0.6264">
        <ele>100</ele>
        <time>2012-02-19T13:22:47Z</time>
      </trkpt>
      <trkpt lat="49.54933" lon="0.6263">
        <ele>100</ele>
        <time>2012-02-19T13:22:52Z</time>
      </trkpt>
      <trkpt lat="49.54933" lon="0.62624">
        <ele>100</ele>
        <time>2012-02-19T13:22:58Z</time>
      </trkpt>
      <trkpt lat="49.54937" lon="0.62613">
        <ele>100</ele>
        <time>2012-02-19T13:23:05Z</time>
      </trkpt>
      <trkpt lat="49.54937" lon="0.62603">
        <ele>100</ele>
        <time>2012-02-19T13:23:10Z</time>
      </trkpt>
      <trkpt lat="49.54937" lon="0.62594">
        <ele>100</ele>
        <time>2012-02-19T13:23:16Z</time>
      </trkpt>
      <trkpt lat="49.54938" lon="0.62585">
        <ele>100</ele>
        <time>2012-02-19T13:23:22Z</time>
      </trkpt>
      <trkpt lat="49.54937" lon="0.62576">
        <ele>101</ele>
        <time>2012-02-19T13:23:27Z</time>
      </trkpt>
      <trkpt lat="49.54938" lon="0.6257">
        <ele>101</ele>
        <time>2012-02-19T13:23:32Z</time>
      </trkpt>
      <trkpt lat="49.54937" lon="0.6256">
        <ele>102</ele>
        <time>2012-02-19T13:23:38Z</time>
      </trkpt>
      <trkpt lat="49.54939" lon="0.62552">
        <ele>102</ele>
        <time>2012-02-19T13:23:44Z</time>
      </trkpt>
      <trkpt lat="49.54938" lon="0.62543">
        <ele>103</ele>
        <time>2012-02-19T13:23:49Z</time>
      </trkpt>
      <trkpt lat="49.54938" lon="0.62532">
        <ele>103</ele>
        <time>2012-02-19T13:23:55Z</time>
      </trkpt>
      <trkpt lat="49.54939" lon="0.62526">
        <ele>103</ele>
        <time>2012-02-19T13:24:00Z</time>
      </trkpt>
      <trkpt lat="49.54939" lon="0.62519">
        <ele>103</ele>
        <time>2012-02-19T13:24:06Z</time>
      </trkpt>
      <trkpt lat="49.5494" lon="0.62511">
        <ele>102</ele>
        <time>2012-02-19T13:24:13Z</time>
      </trkpt>
      <trkpt lat="49.54941" lon="0.62501">
        <ele>102</ele>
        <time>2012-02-19T13:24:18Z</time>
      </trkpt>
      <trkpt lat="49.54941" lon="0.62491">
        <ele>103</ele>
        <time>2012-02-19T13:24:25Z</time>
      </trkpt>
      <trkpt lat="49.54943" lon="0.62481">
        <ele>104</ele>
        <time>2012-02-19T13:24:32Z</time>
      </trkpt>
      <trkpt lat="49.54942" lon="0.6247">
        <ele>104</ele>
        <time>2012-02-19T13:24:38Z</time>
      </trkpt>
      <trkpt lat="49.5494" lon="0.62459">
        <ele>104</ele>
        <time>2012-02-19T13:24:43Z</time>
      </trkpt>
      <trkpt lat="49.54937" lon="0.62442">
        <ele>104</ele>
        <time>2012-02-19T13:24:49Z</time>
      </trkpt>
      <trkpt lat="49.54935" lon="0.62427">
        <ele>103</ele>
        <time>2012-02-19T13:24:56Z</time>
      </trkpt>
      <trkpt lat="49.54935" lon="0.62416">
        <ele>102</ele>
        <time>2012-02-19T13:25:01Z</time>
      </trkpt>
      <trkpt lat="49.54933" lon="0.62408">
        <ele>102</ele>
        <time>2012-02-19T13:25:08Z</time>
      </trkpt>
      <trkpt lat="49.54931" lon="0.624">
        <ele>102</ele>
        <time>2012-02-19T13:25:14Z</time>
      </trkpt>
      <trkpt lat="49.54928" lon="0.62388">
        <ele>102</ele>
        <time>2012-02-19T13:25:21Z</time>
      </trkpt>
      <trkpt lat="49.54926" lon="0.62378">
        <ele>102</ele>
        <time>2012-02-19T13:25:26Z</time>
      </trkpt>
      <trkpt lat="49.54926" lon="0.6237">
        <ele>102</ele>
        <time>2012-02-19T13:25:31Z</time>
      </trkpt>
      <trkpt lat="49.54925" lon="0.62359">
        <ele>102</ele>
        <time>2012-02-19T13:25:37Z</time>
      </trkpt>
      <trkpt lat="49.54925" lon="0.62349">
        <ele>102</ele>
        <time>2012-02-19T13:25:43Z</time>
      </trkpt>
      <trkpt lat="49.54925" lon="0.62339">
        <ele>102</ele>
        <time>2012-02-19T13:25:48Z</time>
      </trkpt>
      <trkpt lat="49.54927" lon="0.62329">
        <ele>102</ele>
        <time>2012-02-19T13:25:55Z</time>
      </trkpt>
      <trkpt lat="49.54929" lon="0.62322">
        <ele>102</ele>
        <time>2012-02-19T13:26:02Z</time>
      </trkpt>
      <trkpt lat="49.54929" lon="0.62316">
        <ele>103</ele>
        <time>2012-02-19T13:26:07Z</time>
      </trkpt>
      <trkpt lat="49.54928" lon="0.62308">
        <ele>103</ele>
        <time>2012-02-19T13:26:12Z</time>
      </trkpt>
      <trkpt lat="49.54927" lon="0.62299">
        <ele>103</ele>
        <time>2012-02-19T13:26:17Z</time>
      </trkpt>
      <trkpt lat="49.54928" lon="0.62291">
        <ele>104</ele>
        <time>2012-02-19T13:26:23Z</time>
      </trkpt>
      <trkpt lat="49.54929" lon="0.62283">
        <ele>104</ele>
        <time>2012-02-19T13:26:30Z</time>
      </trkpt>
      <trkpt lat="49.54929" lon="0.62271">
        <ele>104</ele>
        <time>2012-02-19T13:26:36Z</time>
      </trkpt>
      <trkpt lat="49.54927" lon="0.62261">
        <ele>105</ele>
        <time>2012-02-19T13:26:42Z</time>
      </trkpt>
      <trkpt lat="49.54924" lon="0.62252">
        <ele>105</ele>
        <time>2012-02-19T13:26:47Z</time>
      </trkpt>
      <trkpt lat="49.54922" lon="0.62243">
        <ele>107</ele>
        <time>2012-02-19T13:26:52Z</time>
      </trkpt>
      <trkpt lat="49.54922" lon="0.62234">
        <ele>108</ele>
        <time>2012-02-19T13:26:58Z</time>
      </trkpt>
      <trkpt lat="49.54919" lon="0.62225">
        <ele>108</ele>
        <time>2012-02-19T13:27:05Z</time>
      </trkpt>
      <trkpt lat="49.54916" lon="0.62215">
        <ele>112</ele>
        <time>2012-02-19T13:27:10Z</time>
      </trkpt>
      <trkpt lat="49.54913" lon="0.62207">
        <ele>113</ele>
        <time>2012-02-19T13:27:15Z</time>
      </trkpt>
      <trkpt lat="49.54908" lon="0.622">
        <ele>113</ele>
        <time>2012-02-19T13:27:21Z</time>
      </trkpt>
      <trkpt lat="49.54904" lon="0.62191">
        <ele>113</ele>
        <time>2012-02-19T13:27:26Z</time>
      </trkpt>
      <trkpt lat="49.54902" lon="0.62182">
        <ele>113</ele>
        <time>2012-02-19T13:27:33Z</time>
      </trkpt>
      <trkpt lat="49.549" lon="0.62173">
        <ele>113</ele>
        <time>2012-02-19T13:27:39Z</time>
      </trkpt>
      <trkpt lat="49.54897" lon="0.62164">
        <ele>113</ele>
        <time>2012-02-19T13:27:44Z</time>
      </trkpt>
      <trkpt lat="49.54893" lon="0.62157">
        <ele>114</ele>
        <time>2012-02-19T13:27:52Z</time>
      </trkpt>
      <trkpt lat="49.5489" lon="0.6215">
        <ele>114</ele>
        <time>2012-02-19T13:27:59Z</time>
      </trkpt>
      <trkpt lat="49.54885" lon="0.62145">
        <ele>114</ele>
        <time>2012-02-19T13:28:04Z</time>
      </trkpt>
      <trkpt lat="49.54882" lon="0.62139">
        <ele>115</ele>
        <time>2012-02-19T13:28:11Z</time>
      </trkpt>
      <trkpt lat="49.54879" lon="0.62132">
        <ele>115</ele>
        <time>2012-02-19T13:28:16Z</time>
      </trkpt>
      <trkpt lat="49.54875" lon="0.62125">
        <ele>115</ele>
        <time>2012-02-19T13:28:21Z</time>
      </trkpt>
      <trkpt lat="49.54872" lon="0.62118">
        <ele>115</ele>
        <time>2012-02-19T13:28:27Z</time>
      </trkpt>
      <trkpt lat="49.54869" lon="0.62108">
        <ele>115</ele>
        <time>2012-02-19T13:28:34Z</time>
      </trkpt>
      <trkpt lat="49.54864" lon="0.621">
        <ele>114</ele>
        <time>2012-02-19T13:28:41Z</time>
      </trkpt>
      <trkpt lat="49.54861" lon="0.62093">
        <ele>114</ele>
        <time>2012-02-19T13:28:47Z</time>
      </trkpt>
      <trkpt lat="49.54856" lon="0.62083">
        <ele>114</ele>
        <time>2012-02-19T13:28:53Z</time>
      </trkpt>
      <trkpt lat="49.54852" lon="0.62073">
        <ele>114</ele>
        <time>2012-02-19T13:28:58Z</time>
      </trkpt>
      <trkpt lat="49.54848" lon="0.62062">
        <ele>115</ele>
        <time>2012-02-19T13:29:05Z</time>
      </trkpt>
      <trkpt lat="49.54846" lon="0.62055">
        <ele>115</ele>
        <time>2012-02-19T13:29:11Z</time>
      </trkpt>
      <trkpt lat="49.54846" lon="0.62049">
        <ele>115</ele>
        <time>2012-02-19T13:29:16Z</time>
      </trkpt>
      <trkpt lat="49.54844" lon="0.62042">
        <ele>115</ele>
        <time>2012-02-19T13:29:22Z</time>
      </trkpt>
      <trkpt lat="49.54842" lon="0.62035">
        <ele>115</ele>
        <time>2012-02-19T13:29:27Z</time>
      </trkpt>
      <trkpt lat="49.54841" lon="0.6203">
        <ele>115</ele>
        <time>2012-02-19T13:29:32Z</time>
      </trkpt>
      <trkpt lat="49.54839" lon="0.62022">
        <ele>115</ele>
        <time>2012-02-19T13:29:37Z</time>
      </trkpt>
      <trkpt lat="49.54835" lon="0.62011">
        <ele>115</ele>
        <time>2012-02-19T13:29:44Z</time>
      </trkpt>
      <trkpt lat="49.54834" lon="0.61998">
        <ele>114</ele>
        <time>2012-02-19T13:29:50Z</time>
      </trkpt>
      <trkpt lat="49.54833" lon="0.61988">
        <ele>116</ele>
        <time>2012-02-19T13:29:56Z</time>
      </trkpt>
      <trkpt lat="49.54832" lon="0.61976">
        <ele>118</ele>
        <time>2012-02-19T13:30:01Z</time>
      </trkpt>
      <trkpt lat="49.54829" lon="0.61967">
        <ele>118</ele>
        <time>2012-02-19T13:30:07Z</time>
      </trkpt>
      <trkpt lat="49.54828" lon="0.61955">
        <ele>118</ele>
        <time>2012-02-19T13:30:13Z</time>
      </trkpt>
      <trkpt lat="49.54826" lon="0.61943">
        <ele>118</ele>
        <time>2012-02-19T13:30:19Z</time>
      </trkpt>
      <trkpt lat="49.54824" lon="0.61933">
        <ele>118</ele>
        <time>2012-02-19T13:30:25Z</time>
      </trkpt>
      <trkpt lat="49.54823" lon="0.61925">
        <ele>118</ele>
        <time>2012-02-19T13:30:30Z</time>
      </trkpt>
      <trkpt lat="49.54822" lon="0.61914">
        <ele>118</ele>
        <time>2012-02-19T13:30:35Z</time>
      </trkpt>
      <trkpt lat="49.54821" lon="0.61904">
        <ele>118</ele>
        <time>2012-02-19T13:30:41Z</time>
      </trkpt>
      <trkpt lat="49.54821" lon="0.61893">
        <ele>119</ele>
        <time>2012-02-19T13:30:47Z</time>
      </trkpt>
      <trkpt lat="49.54824" lon="0.61884">
        <ele>119</ele>
        <time>2012-02-19T13:30:54Z</time>
      </trkpt>
      <trkpt lat="49.54825" lon="0.61875">
        <ele>119</ele>
        <time>2012-02-19T13:31:00Z</time>
      </trkpt>
      <trkpt lat="49.54826" lon="0.61864">
        <ele>119</ele>
        <time>2012-02-19T13:31:07Z</time>
      </trkpt>
      <trkpt lat="49.54826" lon="0.61856">
        <ele>119</ele>
        <time>2012-02-19T13:31:14Z</time>
      </trkpt>
      <trkpt lat="49.54827" lon="0.61849">
        <ele>119</ele>
        <time>2012-02-19T13:31:19Z</time>
      </trkpt>
      <trkpt lat="49.54829" lon="0.6184">
        <ele>118</ele>
        <time>2012-02-19T13:31:25Z</time>
      </trkpt>
      <trkpt lat="49.54831" lon="0.61831">
        <ele>117</ele>
        <time>2012-02-19T13:31:31Z</time>
      </trkpt>
      <trkpt lat="49.54832" lon="0.61821">
        <ele>117</ele>
        <time>2012-02-19T13:31:36Z</time>
      </trkpt>
      <trkpt lat="49.54831" lon="0.61812">
        <ele>117</ele>
        <time>2012-02-19T13:31:42Z</time>
      </trkpt>
      <trkpt lat="49.54832" lon="0.61806">
        <ele>117</ele>
        <time>2012-02-19T13:31:48Z</time>
      </trkpt>
      <trkpt lat="49.54832" lon="0.618">
        <ele>117</ele>
        <time>2012-02-19T13:31:53Z</time>
      </trkpt>
      <trkpt lat="49.54832" lon="0.61789">
        <ele>117</ele>
        <time>2012-02-19T13:31:58Z</time>
      </trkpt>
      <trkpt lat="49.54834" lon="0.61781">
        <ele>118</ele>
        <time>2012-02-19T13:32:03Z</time>
      </trkpt>
      <trkpt lat="49.54836" lon="0.61772">
        <ele>117</ele>
        <time>2012-02-19T13:32:09Z</time>
      </trkpt>
      <trkpt lat="49.54839" lon="0.61764">
        <ele>117</ele>
        <time>2012-02-19T13:32:15Z</time>
      </trkpt>
      <trkpt lat="49.5484" lon="0.61756">
        <ele>116</ele>
        <time>2012-02-19T13:32:22Z</time>
      </trkpt>
      <trkpt lat="49.54842" lon="0.61748">
        <ele>116</ele>
        <time>2012-02-19T13:32:28Z</time>
      </trkpt>
      <trkpt lat="49.54845" lon="0.61738">
        <ele>117</ele>
        <time>2012-02-19T13:32:37Z</time>
      </trkpt>
      <trkpt lat="49.54848" lon="0.61729">
        <ele>118</ele>
        <time>2012-02-19T13:32:43Z</time>
      </trkpt>
      <trkpt lat="49.5485" lon="0.61716">
        <ele>118</ele>
        <time>2012-02-19T13:32:48Z</time>
      </trkpt>
      <trkpt lat="49.54852" lon="0.61707">
        <ele>119</ele>
        <time>2012-02-19T13:32:54Z</time>
      </trkpt>
      <trkpt lat="49.54853" lon="0.61699">
        <ele>119</ele>
        <time>2012-02-19T13:32:59Z</time>
      </trkpt>
      <trkpt lat="49.54856" lon="0.61692">
        <ele>119</ele>
        <time>2012-02-19T13:33:06Z</time>
      </trkpt>
      <trkpt lat="49.54859" lon="0.61683">
        <ele>119</ele>
        <time>2012-02-19T13:33:11Z</time>
      </trkpt>
      <trkpt lat="49.54861" lon="0.61674">
        <ele>119</ele>
        <time>2012-02-19T13:33:16Z</time>
      </trkpt>
      <trkpt lat="49.54861" lon="0.61664">
        <ele>119</ele>
        <time>2012-02-19T13:33:22Z</time>
      </trkpt>
      <trkpt lat="49.54862" lon="0.61651">
        <ele>120</ele>
        <time>2012-02-19T13:33:27Z</time>
      </trkpt>
      <trkpt lat="49.54864" lon="0.61644">
        <ele>120</ele>
        <time>2012-02-19T13:33:32Z</time>
      </trkpt>
      <trkpt lat="49.54865" lon="0.61636">
        <ele>120</ele>
        <time>2012-02-19T13:33:37Z</time>
      </trkpt>
      <trkpt lat="49.54867" lon="0.61628">
        <ele>120</ele>
        <time>2012-02-19T13:33:43Z</time>
      </trkpt>
      <trkpt lat="49.54869" lon="0.61619">
        <ele>120</ele>
        <time>2012-02-19T13:33:48Z</time>
      </trkpt>
      <trkpt lat="49.5487" lon="0.61611">
        <ele>120</ele>
        <time>2012-02-19T13:33:53Z</time>
      </trkpt>
      <trkpt lat="49.54872" lon="0.61602">
        <ele>121</ele>
        <time>2012-02-19T13:33:59Z</time>
      </trkpt>
      <trkpt lat="49.54875" lon="0.61592">
        <ele>121</ele>
        <time>2012-02-19T13:34:06Z</time>
      </trkpt>
      <trkpt lat="49.54878" lon="0.61582">
        <ele>121</ele>
        <time>2012-02-19T13:34:12Z</time>
      </trkpt>
      <trkpt lat="49.54881" lon="0.61574">
        <ele>121</ele>
        <time>2012-02-19T13:34:19Z</time>
      </trkpt>
      <trkpt lat="49.54883" lon="0.61561">
        <ele>121</ele>
        <time>2012-02-19T13:34:25Z</time>
      </trkpt>
      <trkpt lat="49.54886" lon="0.61552">
        <ele>121</ele>
        <time>2012-02-19T13:34:32Z</time>
      </trkpt>
      <trkpt lat="49.54888" lon="0.61544">
        <ele>121</ele>
        <time>2012-02-19T13:34:38Z</time>
      </trkpt>
      <trkpt lat="49.5489" lon="0.61536">
        <ele>121</ele>
        <time>2012-02-19T13:34:44Z</time>
      </trkpt>
      <trkpt lat="49.54891" lon="0.61525">
        <ele>121</ele>
        <time>2012-02-19T13:34:50Z</time>
      </trkpt>
      <trkpt lat="49.54893" lon="0.61518">
        <ele>121</ele>
        <time>2012-02-19T13:34:56Z</time>
      </trkpt>
      <trkpt lat="49.54895" lon="0.61511">
        <ele>121</ele>
        <time>2012-02-19T13:35:01Z</time>
      </trkpt>
      <trkpt lat="49.54896" lon="0.61501">
        <ele>121</ele>
        <time>2012-02-19T13:35:06Z</time>
      </trkpt>
      <trkpt lat="49.54898" lon="0.61491">
        <ele>122</ele>
        <time>2012-02-19T13:35:12Z</time>
      </trkpt>
      <trkpt lat="49.549" lon="0.6148">
        <ele>122</ele>
        <time>2012-02-19T13:35:19Z</time>
      </trkpt>
      <trkpt lat="49.549" lon="0.61466">
        <ele>122</ele>
        <time>2012-02-19T13:35:26Z</time>
      </trkpt>
      <trkpt lat="49.54899" lon="0.61455">
        <ele>122</ele>
        <time>2012-02-19T13:35:33Z</time>
      </trkpt>
      <trkpt lat="49.549" lon="0.61447">
        <ele>122</ele>
        <time>2012-02-19T13:35:39Z</time>
      </trkpt>
      <trkpt lat="49.549" lon="0.61441">
        <ele>122</ele>
        <time>2012-02-19T13:35:44Z</time>
      </trkpt>
      <trkpt lat="49.54901" lon="0.61435">
        <ele>122</ele>
        <time>2012-02-19T13:35:50Z</time>
      </trkpt>
      <trkpt lat="49.54902" lon="0.61424">
        <ele>122</ele>
        <time>2012-02-19T13:35:56Z</time>
      </trkpt>
      <trkpt lat="49.54902" lon="0.61415">
        <ele>123</ele>
        <time>2012-02-19T13:36:02Z</time>
      </trkpt>
      <trkpt lat="49.54902" lon="0.61404">
        <ele>123</ele>
        <time>2012-02-19T13:36:07Z</time>
      </trkpt>
      <trkpt lat="49.54902" lon="0.61395">
        <ele>124</ele>
        <time>2012-02-19T13:36:13Z</time>
      </trkpt>
      <trkpt lat="49.54902" lon="0.61388">
        <ele>124</ele>
        <time>2012-02-19T13:36:18Z</time>
      </trkpt>
      <trkpt lat="49.54902" lon="0.61378">
        <ele>124</ele>
        <time>2012-02-19T13:36:24Z</time>
      </trkpt>
      <trkpt lat="49.54903" lon="0.61367">
        <ele>124</ele>
        <time>2012-02-19T13:36:29Z</time>
      </trkpt>
      <trkpt lat="49.54902" lon="0.61361">
        <ele>125</ele>
        <time>2012-02-19T13:36:34Z</time>
      </trkpt>
      <trkpt lat="49.54904" lon="0.6135">
        <ele>125</ele>
        <time>2012-02-19T13:36:42Z</time>
      </trkpt>
      <trkpt lat="49.54903" lon="0.61341">
        <ele>125</ele>
        <time>2012-02-19T13:36:48Z</time>
      </trkpt>
      <trkpt lat="49.54902" lon="0.61335">
        <ele>125</ele>
        <time>2012-02-19T13:36:53Z</time>
      </trkpt>
      <trkpt lat="49.54902" lon="0.61327">
        <ele>125</ele>
        <time>2012-02-19T13:36:59Z</time>
      </trkpt>
      <trkpt lat="49.54902" lon="0.61319">
        <ele>125</ele>
        <time>2012-02-19T13:37:07Z</time>
      </trkpt>
      <trkpt lat="49.549" lon="0.61313">
        <ele>125</ele>
        <time>2012-02-19T13:37:13Z</time>
      </trkpt>
      <trkpt lat="49.549" lon="0.61306">
        <ele>125</ele>
        <time>2012-02-19T13:37:19Z</time>
      </trkpt>
      <trkpt lat="49.549" lon="0.61297">
        <ele>125</ele>
        <time>2012-02-19T13:37:26Z</time>
      </trkpt>
      <trkpt lat="49.54902" lon="0.61292">
        <ele>125</ele>
        <time>2012-02-19T13:37:32Z</time>
      </trkpt>
      <trkpt lat="49.549" lon="0.6129">
        <ele>125</ele>
        <time>2012-02-19T13:37:39Z</time>
      </trkpt>
      <trkpt lat="49.54898" lon="0.6128">
        <ele>124</ele>
        <time>2012-02-19T13:37:46Z</time>
      </trkpt>
      <trkpt lat="49.5489" lon="0.61266">
        <ele>124</ele>
        <time>2012-02-19T13:37:51Z</time>
      </trkpt>
      <trkpt lat="49.54883" lon="0.61266">
        <ele>125</ele>
        <time>2012-02-19T13:37:57Z</time>
      </trkpt>
      <trkpt lat="49.54876" lon="0.61264">
        <ele>125</ele>
        <time>2012-02-19T13:38:03Z</time>
      </trkpt>
      <trkpt lat="49.54871" lon="0.61262">
        <ele>125</ele>
        <time>2012-02-19T13:38:09Z</time>
      </trkpt>
      <trkpt lat="49.54865" lon="0.6126">
        <ele>125</ele>
        <time>2012-02-19T13:38:15Z</time>
      </trkpt>
      <trkpt lat="49.5486" lon="0.61259">
        <ele>125</ele>
        <time>2012-02-19T13:38:21Z</time>
      </trkpt>
      <trkpt lat="49.54853" lon="0.61264">
        <ele>125</ele>
        <time>2012-02-19T13:38:31Z</time>
      </trkpt>
      <trkpt lat="49.54849" lon="0.61272">
        <ele>125</ele>
        <time>2012-02-19T13:38:36Z</time>
      </trkpt>
      <trkpt lat="49.54844" lon="0.61278">
        <ele>126</ele>
        <time>2012-02-19T13:38:43Z</time>
      </trkpt>
      <trkpt lat="49.54839" lon="0.61285">
        <ele>126</ele>
        <time>2012-02-19T13:38:48Z</time>
      </trkpt>
      <trkpt lat="49.54835" lon="0.61289">
        <ele>126</ele>
        <time>2012-02-19T13:38:54Z</time>
      </trkpt>
      <trkpt lat="49.5483" lon="0.61292">
        <ele>128</ele>
        <time>2012-02-19T13:39:00Z</time>
      </trkpt>
      <trkpt lat="49.54823" lon="0.61297">
        <ele>129</ele>
        <time>2012-02-19T13:39:07Z</time>
      </trkpt>
      <trkpt lat="49.54818" lon="0.61297">
        <ele>129</ele>
        <time>2012-02-19T13:39:12Z</time>
      </trkpt>
      <trkpt lat="49.54813" lon="0.61293">
        <ele>129</ele>
        <time>2012-02-19T13:39:18Z</time>
      </trkpt>
      <trkpt lat="49.54807" lon="0.61287">
        <ele>129</ele>
        <time>2012-02-19T13:39:24Z</time>
      </trkpt>
      <trkpt lat="49.54803" lon="0.61282">
        <ele>129</ele>
        <time>2012-02-19T13:39:30Z</time>
      </trkpt>
      <trkpt lat="49.54798" lon="0.61272">
        <ele>128</ele>
        <time>2012-02-19T13:39:37Z</time>
      </trkpt>
      <trkpt lat="49.54794" lon="0.61266">
        <ele>128</ele>
        <time>2012-02-19T13:39:42Z</time>
      </trkpt>
      <trkpt lat="49.5479" lon="0.61256">
        <ele>128</ele>
        <time>2012-02-19T13:39:48Z</time>
      </trkpt>
      <trkpt lat="49.54786" lon="0.61251">
        <ele>128</ele>
        <time>2012-02-19T13:39:53Z</time>
      </trkpt>
      <trkpt lat="49.54782" lon="0.61246">
        <ele>126</ele>
        <time>2012-02-19T13:39:58Z</time>
      </trkpt>
      <trkpt lat="49.54776" lon="0.61238">
        <ele>126</ele>
        <time>2012-02-19T13:40:05Z</time>
      </trkpt>
      <trkpt lat="49.54771" lon="0.6123">
        <ele>126</ele>
        <time>2012-02-19T13:40:12Z</time>
      </trkpt>
      <trkpt lat="49.54766" lon="0.61223">
        <ele>126</ele>
        <time>2012-02-19T13:40:17Z</time>
      </trkpt>
      <trkpt lat="49.54761" lon="0.61218">
        <ele>126</ele>
        <time>2012-02-19T13:40:23Z</time>
      </trkpt>
      <trkpt lat="49.54754" lon="0.61212">
        <ele>126</ele>
        <time>2012-02-19T13:40:29Z</time>
      </trkpt>
      <trkpt lat="49.54748" lon="0.61207">
        <ele>127</ele>
        <time>2012-02-19T13:40:35Z</time>
      </trkpt>
      <trkpt lat="49.54742" lon="0.61202">
        <ele>127</ele>
        <time>2012-02-19T13:40:41Z</time>
      </trkpt>
      <trkpt lat="49.54736" lon="0.61197">
        <ele>126</ele>
        <time>2012-02-19T13:40:47Z</time>
      </trkpt>
      <trkpt lat="49.54729" lon="0.61193">
        <ele>126</ele>
        <time>2012-02-19T13:40:53Z</time>
      </trkpt>
      <trkpt lat="49.54722" lon="0.61191">
        <ele>126</ele>
        <time>2012-02-19T13:40:59Z</time>
      </trkpt>
      <trkpt lat="49.54717" lon="0.61189">
        <ele>127</ele>
        <time>2012-02-19T13:41:05Z</time>
      </trkpt>
      <trkpt lat="49.5471" lon="0.61187">
        <ele>127</ele>
        <time>2012-02-19T13:41:10Z</time>
      </trkpt>
      <trkpt lat="49.54703" lon="0.61189">
        <ele>127</ele>
        <time>2012-02-19T13:41:17Z</time>
      </trkpt>
      <trkpt lat="49.54697" lon="0.61188">
        <ele>127</ele>
        <time>2012-02-19T13:41:23Z</time>
      </trkpt>
      <trkpt lat="49.54691" lon="0.61188">
        <ele>127</ele>
        <time>2012-02-19T13:41:29Z</time>
      </trkpt>
      <trkpt lat="49.54684" lon="0.61188">
        <ele>127</ele>
        <time>2012-02-19T13:41:36Z</time>
      </trkpt>
      <trkpt lat="49.54677" lon="0.61187">
        <ele>127</ele>
        <time>2012-02-19T13:41:42Z</time>
      </trkpt>
      <trkpt lat="49.5467" lon="0.61186">
        <ele>127</ele>
        <time>2012-02-19T13:41:48Z</time>
      </trkpt>
      <trkpt lat="49.54665" lon="0.61184">
        <ele>127</ele>
        <time>2012-02-19T13:41:53Z</time>
      </trkpt>
      <trkpt lat="49.54659" lon="0.61184">
        <ele>127</ele>
        <time>2012-02-19T13:41:58Z</time>
      </trkpt>
      <trkpt lat="49.54652" lon="0.61185">
        <ele>127</ele>
        <time>2012-02-19T13:42:03Z</time>
      </trkpt>
      <trkpt lat="49.54646" lon="0.61185">
        <ele>128</ele>
        <time>2012-02-19T13:42:08Z</time>
      </trkpt>
      <trkpt lat="49.5464" lon="0.61186">
        <ele>128</ele>
        <time>2012-02-19T13:42:13Z</time>
      </trkpt>
      <trkpt lat="49.54635" lon="0.61185">
        <ele>128</ele>
        <time>2012-02-19T13:42:18Z</time>
      </trkpt>
      <trkpt lat="49.54628" lon="0.61185">
        <ele>128</ele>
        <time>2012-02-19T13:42:24Z</time>
      </trkpt>
      <trkpt lat="49.54623" lon="0.61185">
        <ele>128</ele>
        <time>2012-02-19T13:42:30Z</time>
      </trkpt>
      <trkpt lat="49.54617" lon="0.61184">
        <ele>128</ele>
        <time>2012-02-19T13:42:35Z</time>
      </trkpt>
      <trkpt lat="49.54612" lon="0.61185">
        <ele>128</ele>
        <time>2012-02-19T13:42:40Z</time>
      </trkpt>
      <trkpt lat="49.54606" lon="0.61185">
        <ele>128</ele>
        <time>2012-02-19T13:42:45Z</time>
      </trkpt>
      <trkpt lat="49.546" lon="0.61185">
        <ele>128</ele>
        <time>2012-02-19T13:42:51Z</time>
      </trkpt>
      <trkpt lat="49.54593" lon="0.61184">
        <ele>128</ele>
        <time>2012-02-19T13:42:57Z</time>
      </trkpt>
      <trkpt lat="49.54587" lon="0.61184">
        <ele>128</ele>
        <time>2012-02-19T13:43:02Z</time>
      </trkpt>
      <trkpt lat="49.54581" lon="0.61184">
        <ele>129</ele>
        <time>2012-02-19T13:43:08Z</time>
      </trkpt>
      <trkpt lat="49.54575" lon="0.61184">
        <ele>129</ele>
        <time>2012-02-19T13:43:13Z</time>
      </trkpt>
      <trkpt lat="49.54568" lon="0.61184">
        <ele>129</ele>
        <time>2012-02-19T13:43:19Z</time>
      </trkpt>
      <trkpt lat="49.54563" lon="0.61181">
        <ele>129</ele>
        <time>2012-02-19T13:43:25Z</time>
      </trkpt>
      <trkpt lat="49.54555" lon="0.61181">
        <ele>129</ele>
        <time>2012-02-19T13:43:31Z</time>
      </trkpt>
      <trkpt lat="49.5455" lon="0.61179">
        <ele>129</ele>
        <time>2012-02-19T13:43:36Z</time>
      </trkpt>
      <trkpt lat="49.54543" lon="0.61178">
        <ele>129</ele>
        <time>2012-02-19T13:43:42Z</time>
      </trkpt>
      <trkpt lat="49.54536" lon="0.61173">
        <ele>129</ele>
        <time>2012-02-19T13:43:49Z</time>
      </trkpt>
      <trkpt lat="49.5453" lon="0.61171">
        <ele>129</ele>
        <time>2012-02-19T13:43:56Z</time>
      </trkpt>
      <trkpt lat="49.54523" lon="0.61165">
        <ele>130</ele>
        <time>2012-02-19T13:44:01Z</time>
      </trkpt>
      <trkpt lat="49.54517" lon="0.61158">
        <ele>130</ele>
        <time>2012-02-19T13:44:08Z</time>
      </trkpt>
      <trkpt lat="49.54511" lon="0.61152">
        <ele>130</ele>
        <time>2012-02-19T13:44:14Z</time>
      </trkpt>
      <trkpt lat="49.54506" lon="0.61147">
        <ele>130</ele>
        <time>2012-02-19T13:44:20Z</time>
      </trkpt>
      <trkpt lat="49.54501" lon="0.6114">
        <ele>130</ele>
        <time>2012-02-19T13:44:26Z</time>
      </trkpt>
      <trkpt lat="49.54496" lon="0.61132">
        <ele>132</ele>
        <time>2012-02-19T13:44:32Z</time>
      </trkpt>
      <trkpt lat="49.54491" lon="0.61124">
        <ele>132</ele>
        <time>2012-02-19T13:44:38Z</time>
      </trkpt>
      <trkpt lat="49.54488" lon="0.61117">
        <ele>132</ele>
        <time>2012-02-19T13:44:44Z</time>
      </trkpt>
      <trkpt lat="49.54484" lon="0.6111">
        <ele>132</ele>
        <time>2012-02-19T13:44:50Z</time>
      </trkpt>
      <trkpt lat="49.54483" lon="0.61103">
        <ele>133</ele>
        <time>2012-02-19T13:44:57Z</time>
      </trkpt>
      <trkpt lat="49.54486" lon="0.61096">
        <ele>133</ele>
        <time>2012-02-19T13:45:02Z</time>
      </trkpt>
      <trkpt lat="49.54489" lon="0.61089">
        <ele>133</ele>
        <time>2012-02-19T13:45:08Z</time>
      </trkpt>
      <trkpt lat="49.54494" lon="0.6108">
        <ele>133</ele>
        <time>2012-02-19T13:45:14Z</time>
      </trkpt>
      <trkpt lat="49.54498" lon="0.61072">
        <ele>133</ele>
        <time>2012-02-19T13:45:20Z</time>
      </trkpt>
      <trkpt lat="49.54501" lon="0.61065">
        <ele>133</ele>
        <time>2012-02-19T13:45:25Z</time>
      </trkpt>
      <trkpt lat="49.54505" lon="0.61057">
        <ele>133</ele>
        <time>2012-02-19T13:45:31Z</time>
      </trkpt>
      <trkpt lat="49.54509" lon="0.61049">
        <ele>133</ele>
        <time>2012-02-19T13:45:37Z</time>
      </trkpt>
      <trkpt lat="49.54513" lon="0.6104">
        <ele>134</ele>
        <time>2012-02-19T13:45:43Z</time>
      </trkpt>
      <trkpt lat="49.54517" lon="0.61032">
        <ele>134</ele>
        <time>2012-02-19T13:45:49Z</time>
      </trkpt>
      <trkpt lat="49.5452" lon="0.61024">
        <ele>134</ele>
        <time>2012-02-19T13:45:54Z</time>
      </trkpt>
      <trkpt lat="49.54524" lon="0.61016">
        <ele>134</ele>
        <time>2012-02-19T13:45:59Z</time>
      </trkpt>
      <trkpt lat="49.54528" lon="0.61008">
        <ele>134</ele>
        <time>2012-02-19T13:46:04Z</time>
      </trkpt>
      <trkpt lat="49.54531" lon="0.61">
        <ele>134</ele>
        <time>2012-02-19T13:46:09Z</time>
      </trkpt>
      <trkpt lat="49.54535" lon="0.60993">
        <ele>135</ele>
        <time>2012-02-19T13:46:14Z</time>
      </trkpt>
      <trkpt lat="49.54539" lon="0.60984">
        <ele>135</ele>
        <time>2012-02-19T13:46:20Z</time>
      </trkpt>
      <trkpt lat="49.54543" lon="0.60975">
        <ele>135</ele>
        <time>2012-02-19T13:46:26Z</time>
      </trkpt>
      <trkpt lat="49.54548" lon="0.60968">
        <ele>135</ele>
        <time>2012-02-19T13:46:31Z</time>
      </trkpt>
      <trkpt lat="49.54553" lon="0.6096">
        <ele>135</ele>
        <time>2012-02-19T13:46:37Z</time>
      </trkpt>
      <trkpt lat="49.54556" lon="0.60952">
        <ele>135</ele>
        <time>2012-02-19T13:46:42Z</time>
      </trkpt>
      <trkpt lat="49.54561" lon="0.60945">
        <ele>135</ele>
        <time>2012-02-19T13:46:47Z</time>
      </trkpt>
      <trkpt lat="49.54566" lon="0.60937">
        <ele>135</ele>
        <time>2012-02-19T13:46:53Z</time>
      </trkpt>
      <trkpt lat="49.54571" lon="0.6093">
        <ele>136</ele>
        <time>2012-02-19T13:46:59Z</time>
      </trkpt>
      <trkpt lat="49.54576" lon="0.60922">
        <ele>136</ele>
        <time>2012-02-19T13:47:05Z</time>
      </trkpt>
      <trkpt lat="49.54581" lon="0.60915">
        <ele>136</ele>
        <time>2012-02-19T13:47:11Z</time>
      </trkpt>
      <trkpt lat="49.54586" lon="0.60908">
        <ele>136</ele>
        <time>2012-02-19T13:47:17Z</time>
      </trkpt>
      <trkpt lat="49.54591" lon="0.609">
        <ele>135</ele>
        <time>2012-02-19T13:47:23Z</time>
      </trkpt>
      <trkpt lat="49.54597" lon="0.60893">
        <ele>135</ele>
        <time>2012-02-19T13:47:29Z</time>
      </trkpt>
      <trkpt lat="49.54602" lon="0.60888">
        <ele>135</ele>
        <time>2012-02-19T13:47:35Z</time>
      </trkpt>
      <trkpt lat="49.54606" lon="0.60878">
        <ele>135</ele>
        <time>2012-02-19T13:47:41Z</time>
      </trkpt>
      <trkpt lat="49.54612" lon="0.6087">
        <ele>135</ele>
        <time>2012-02-19T13:47:47Z</time>
      </trkpt>
      <trkpt lat="49.54616" lon="0.6086">
        <ele>135</ele>
        <time>2012-02-19T13:47:53Z</time>
      </trkpt>
      <trkpt lat="49.54619" lon="0.60852">
        <ele>135</ele>
        <time>2012-02-19T13:47:58Z</time>
      </trkpt>
      <trkpt lat="49.54623" lon="0.60845">
        <ele>135</ele>
        <time>2012-02-19T13:48:03Z</time>
      </trkpt>
      <trkpt lat="49.54627" lon="0.60837">
        <ele>135</ele>
        <time>2012-02-19T13:48:08Z</time>
      </trkpt>
      <trkpt lat="49.54631" lon="0.60829">
        <ele>134</ele>
        <time>2012-02-19T13:48:14Z</time>
      </trkpt>
      <trkpt lat="49.54636" lon="0.60822">
        <ele>134</ele>
        <time>2012-02-19T13:48:20Z</time>
      </trkpt>
      <trkpt lat="49.54641" lon="0.60814">
        <ele>134</ele>
        <time>2012-02-19T13:48:26Z</time>
      </trkpt>
      <trkpt lat="49.54643" lon="0.60804">
        <ele>134</ele>
        <time>2012-02-19T13:48:31Z</time>
      </trkpt>
      <trkpt lat="49.54646" lon="0.60794">
        <ele>134</ele>
        <time>2012-02-19T13:48:36Z</time>
      </trkpt>
      <trkpt lat="49.54649" lon="0.60786">
        <ele>134</ele>
        <time>2012-02-19T13:48:41Z</time>
      </trkpt>
      <trkpt lat="49.54651" lon="0.60776">
        <ele>134</ele>
        <time>2012-02-19T13:48:46Z</time>
      </trkpt>
      <trkpt lat="49.54656" lon="0.60769">
        <ele>134</ele>
        <time>2012-02-19T13:48:51Z</time>
      </trkpt>
      <trkpt lat="49.5466" lon="0.60761">
        <ele>133</ele>
        <time>2012-02-19T13:48:56Z</time>
      </trkpt>
      <trkpt lat="49.54665" lon="0.60754">
        <ele>133</ele>
        <time>2012-02-19T13:49:02Z</time>
      </trkpt>
      <trkpt lat="49.5467" lon="0.60745">
        <ele>132</ele>
        <time>2012-02-19T13:49:08Z</time>
      </trkpt>
      <trkpt lat="49.54675" lon="0.60737">
        <ele>131</ele>
        <time>2012-02-19T13:49:14Z</time>
      </trkpt>
      <trkpt lat="49.5468" lon="0.60727">
        <ele>131</ele>
        <time>2012-02-19T13:49:20Z</time>
      </trkpt>
      <trkpt lat="49.54686" lon="0.6072">
        <ele>130</ele>
        <time>2012-02-19T13:49:26Z</time>
      </trkpt>
      <trkpt lat="49.54689" lon="0.60712">
        <ele>130</ele>
        <time>2012-02-19T13:49:31Z</time>
      </trkpt>
      <trkpt lat="49.54693" lon="0.60705">
        <ele>130</ele>
        <time>2012-02-19T13:49:36Z</time>
      </trkpt>
      <trkpt lat="49.54698" lon="0.60697">
        <ele>130</ele>
        <time>2012-02-19T13:49:42Z</time>
      </trkpt>
      <trkpt lat="49.54702" lon="0.60691">
        <ele>130</ele>
        <time>2012-02-19T13:49:47Z</time>
      </trkpt>
      <trkpt lat="49.54706" lon="0.60685">
        <ele>129</ele>
        <time>2012-02-19T13:49:52Z</time>
      </trkpt>
      <trkpt lat="49.54712" lon="0.60678">
        <ele>129</ele>
        <time>2012-02-19T13:49:58Z</time>
      </trkpt>
      <trkpt lat="49.54716" lon="0.60671">
        <ele>129</ele>
        <time>2012-02-19T13:50:03Z</time>
      </trkpt>
      <trkpt lat="49.5472" lon="0.60663">
        <ele>129</ele>
        <time>2012-02-19T13:50:08Z</time>
      </trkpt>
      <trkpt lat="49.54724" lon="0.60656">
        <ele>129</ele>
        <time>2012-02-19T13:50:13Z</time>
      </trkpt>
      <trkpt lat="49.54729" lon="0.60649">
        <ele>129</ele>
        <time>2012-02-19T13:50:19Z</time>
      </trkpt>
      <trkpt lat="49.54734" lon="0.6064">
        <ele>130</ele>
        <time>2012-02-19T13:50:25Z</time>
      </trkpt>
      <trkpt lat="49.54738" lon="0.60632">
        <ele>130</ele>
        <time>2012-02-19T13:50:31Z</time>
      </trkpt>
    </trkseg>
  </trk>
</gpx>